<?xml version="1.0" encoding="UTF-8" standalone="no" ?><gpx xmlns="http://www.topografix.com/GPX/1/1" xmlns:gpxx="http://www.garmin.com/xmlschemas/GpxExtensions/v3" xmlns:wptx1="http://www.garmin.com/xmlschemas/WaypointExtension/v1" xmlns:gpxtpx="http://www.garmin.com/xmlschemas/TrackPointExtension/v1" creator="GuideVTT.com" version="1.1" xmlns:xsi="http://www.w3.org/2001/XMLSchema-instance" xsi:schemaLocation="http://www.topografix.com/GPX/1/1 http://www.topografix.com/GPX/1/1/gpx.xsd http://www.garmin.com/xmlschemas/GpxExtensions/v3 http://www8.garmin.com/xmlschemas/GpxExtensionsv3.xsd http://www.garmin.com/xmlschemas/WaypointExtension/v1 http://www8.garmin.com/xmlschemas/WaypointExtensionv1.xsd http://www.garmin.com/xmlschemas/TrackPointExtension/v1 http://www.garmin.com/xmlschemas/TrackPointExtensionv1.xsd">
<metadata><link href="http://www.garmin.com"><text>Garmin International</text></link><time>2013-06-22T15:13:50Z</time></metadata>
<trk><name>2011-07-23-01.trk.gpx.gpx</name><extensions><gpxx:TrackExtension><gpxx:DisplayColor>Cyan</gpxx:DisplayColor></gpxx:TrackExtension></extensions><trkseg>
<trkpt lat="48.49661800" lon="2.63458500"><ele></ele><time>2017-9-19T5:38:23Z</time></trkpt>
<trkpt lat="48.49658300" lon="2.63458000"><ele></ele><time>2017-9-19T5:38:26Z</time></trkpt>
<trkpt lat="48.49654800" lon="2.63458300"><ele></ele><time>2017-9-19T5:38:29Z</time></trkpt>
<trkpt lat="48.49175700" lon="2.63509800"><ele></ele><time>2017-9-19T5:38:32Z</time></trkpt>
<trkpt lat="48.49171800" lon="2.63511500"><ele></ele><time>2017-9-19T5:38:35Z</time></trkpt>
<trkpt lat="48.49168300" lon="2.63514200"><ele></ele><time>2017-9-19T5:38:38Z</time></trkpt>
<trkpt lat="48.49165500" lon="2.63517800"><ele></ele><time>2017-9-19T5:38:41Z</time></trkpt>
<trkpt lat="48.49163300" lon="2.63522500"><ele></ele><time>2017-9-19T5:38:44Z</time></trkpt>
<trkpt lat="48.49161600" lon="2.63527800"><ele></ele><time>2017-9-19T5:38:47Z</time></trkpt>
<trkpt lat="48.49148700" lon="2.63576300"><ele></ele><time>2017-9-19T5:38:50Z</time></trkpt>
<trkpt lat="48.49138500" lon="2.63620700"><ele></ele><time>2017-9-19T5:38:53Z</time></trkpt>
<trkpt lat="48.48881200" lon="2.64665000"><ele></ele><time>2017-9-19T5:38:56Z</time></trkpt>
<trkpt lat="48.48878300" lon="2.64671200"><ele></ele><time>2017-9-19T5:38:59Z</time></trkpt>
<trkpt lat="48.48544000" lon="2.65349700"><ele></ele><time>2017-9-19T5:39:2Z</time></trkpt>
<trkpt lat="48.48542300" lon="2.65356500"><ele></ele><time>2017-9-19T5:39:5Z</time></trkpt>
<trkpt lat="48.48541300" lon="2.65363500"><ele></ele><time>2017-9-19T5:39:8Z</time></trkpt>
<trkpt lat="48.48535000" lon="2.65417500"><ele></ele><time>2017-9-19T5:39:11Z</time></trkpt>
<trkpt lat="48.48454100" lon="2.66008200"><ele></ele><time>2017-9-19T5:39:14Z</time></trkpt>
<trkpt lat="48.48452300" lon="2.66015800"><ele></ele><time>2017-9-19T5:39:17Z</time></trkpt>
<trkpt lat="48.48404600" lon="2.66211300"><ele></ele><time>2017-9-19T5:39:20Z</time></trkpt>
<trkpt lat="48.48403500" lon="2.66215000"><ele></ele><time>2017-9-19T5:39:23Z</time></trkpt>
<trkpt lat="48.48403500" lon="2.66216700"><ele></ele><time>2017-9-19T5:39:26Z</time></trkpt>
<trkpt lat="48.48403000" lon="2.66218800"><ele></ele><time>2017-9-19T5:39:29Z</time></trkpt>
<trkpt lat="48.48400000" lon="2.66230500"><ele></ele><time>2017-9-19T5:39:32Z</time></trkpt>
<trkpt lat="48.48399800" lon="2.66232000"><ele></ele><time>2017-9-19T5:39:35Z</time></trkpt>
<trkpt lat="48.48399200" lon="2.66235200"><ele></ele><time>2017-9-19T5:39:38Z</time></trkpt>
<trkpt lat="48.48398500" lon="2.66236700"><ele></ele><time>2017-9-19T5:39:41Z</time></trkpt>
<trkpt lat="48.48398200" lon="2.66238300"><ele></ele><time>2017-9-19T5:39:44Z</time></trkpt>
<trkpt lat="48.48397000" lon="2.66243700"><ele></ele><time>2017-9-19T5:39:47Z</time></trkpt>
<trkpt lat="48.48396800" lon="2.66245800"><ele></ele><time>2017-9-19T5:39:50Z</time></trkpt>
<trkpt lat="48.48396500" lon="2.66247800"><ele></ele><time>2017-9-19T5:39:53Z</time></trkpt>
<trkpt lat="48.48395500" lon="2.66249300"><ele></ele><time>2017-9-19T5:39:56Z</time></trkpt>
<trkpt lat="48.48394700" lon="2.66250800"><ele></ele><time>2017-9-19T5:39:59Z</time></trkpt>
<trkpt lat="48.48394200" lon="2.66253000"><ele></ele><time>2017-9-19T5:40:2Z</time></trkpt>
<trkpt lat="48.48393600" lon="2.66257000"><ele></ele><time>2017-9-19T5:40:5Z</time></trkpt>
<trkpt lat="48.48393300" lon="2.66258800"><ele></ele><time>2017-9-19T5:40:8Z</time></trkpt>
<trkpt lat="48.48392000" lon="2.66262300"><ele></ele><time>2017-9-19T5:40:11Z</time></trkpt>
<trkpt lat="48.48391300" lon="2.66263800"><ele></ele><time>2017-9-19T5:40:14Z</time></trkpt>
<trkpt lat="48.48391100" lon="2.66265500"><ele></ele><time>2017-9-19T5:40:17Z</time></trkpt>
<trkpt lat="48.48390800" lon="2.66267500"><ele></ele><time>2017-9-19T5:40:20Z</time></trkpt>
<trkpt lat="48.48390200" lon="2.66269500"><ele></ele><time>2017-9-19T5:40:23Z</time></trkpt>
<trkpt lat="48.48389700" lon="2.66271700"><ele></ele><time>2017-9-19T5:40:26Z</time></trkpt>
<trkpt lat="48.48389200" lon="2.66273800"><ele></ele><time>2017-9-19T5:40:29Z</time></trkpt>
<trkpt lat="48.48388300" lon="2.66279800"><ele></ele><time>2017-9-19T5:40:32Z</time></trkpt>
<trkpt lat="48.48387800" lon="2.66281800"><ele></ele><time>2017-9-19T5:40:35Z</time></trkpt>
<trkpt lat="48.48387300" lon="2.66283300"><ele></ele><time>2017-9-19T5:40:38Z</time></trkpt>
<trkpt lat="48.48384800" lon="2.66292300"><ele></ele><time>2017-9-19T5:40:41Z</time></trkpt>
<trkpt lat="48.48384600" lon="2.66294700"><ele></ele><time>2017-9-19T5:40:44Z</time></trkpt>
<trkpt lat="48.48382300" lon="2.66309500"><ele></ele><time>2017-9-19T5:40:47Z</time></trkpt>
<trkpt lat="48.48380800" lon="2.66313800"><ele></ele><time>2017-9-19T5:40:50Z</time></trkpt>
<trkpt lat="48.48378200" lon="2.66323000"><ele></ele><time>2017-9-19T5:40:53Z</time></trkpt>
<trkpt lat="48.48376800" lon="2.66332200"><ele></ele><time>2017-9-19T5:40:56Z</time></trkpt>
<trkpt lat="48.48375500" lon="2.66338000"><ele></ele><time>2017-9-19T5:40:59Z</time></trkpt>
<trkpt lat="48.48338300" lon="2.66497500"><ele></ele><time>2017-9-19T5:41:2Z</time></trkpt>
<trkpt lat="48.48335200" lon="2.66501500"><ele></ele><time>2017-9-19T5:41:5Z</time></trkpt>
<trkpt lat="48.48331100" lon="2.66504300"><ele></ele><time>2017-9-19T5:41:8Z</time></trkpt>
<trkpt lat="48.48326300" lon="2.66506500"><ele></ele><time>2017-9-19T5:41:11Z</time></trkpt>
<trkpt lat="48.48322100" lon="2.66507300"><ele></ele><time>2017-9-19T5:41:14Z</time></trkpt>
<trkpt lat="48.48317500" lon="2.66508200"><ele></ele><time>2017-9-19T5:41:17Z</time></trkpt>
<trkpt lat="48.48302000" lon="2.66506500"><ele></ele><time>2017-9-19T5:41:20Z</time></trkpt>
<trkpt lat="48.48299000" lon="2.66504700"><ele></ele><time>2017-9-19T5:41:23Z</time></trkpt>
<trkpt lat="48.48296000" lon="2.66501300"><ele></ele><time>2017-9-19T5:41:26Z</time></trkpt>
<trkpt lat="48.48293000" lon="2.66497000"><ele></ele><time>2017-9-19T5:41:29Z</time></trkpt>
<trkpt lat="48.48287800" lon="2.66488800"><ele></ele><time>2017-9-19T5:41:32Z</time></trkpt>
<trkpt lat="48.48285300" lon="2.66486000"><ele></ele><time>2017-9-19T5:41:35Z</time></trkpt>
<trkpt lat="48.48280700" lon="2.66478800"><ele></ele><time>2017-9-19T5:41:38Z</time></trkpt>
<trkpt lat="48.48279000" lon="2.66473800"><ele></ele><time>2017-9-19T5:41:41Z</time></trkpt>
<trkpt lat="48.48273500" lon="2.66448300"><ele></ele><time>2017-9-19T5:41:44Z</time></trkpt>
<trkpt lat="48.48270100" lon="2.66436300"><ele></ele><time>2017-9-19T5:41:47Z</time></trkpt>
<trkpt lat="48.48202200" lon="2.66184200"><ele></ele><time>2017-9-19T5:41:50Z</time></trkpt>
<trkpt lat="48.48197200" lon="2.66168500"><ele></ele><time>2017-9-19T5:41:53Z</time></trkpt>
<trkpt lat="48.48183700" lon="2.66129000"><ele></ele><time>2017-9-19T5:41:56Z</time></trkpt>
<trkpt lat="48.48005000" lon="2.65582000"><ele></ele><time>2017-9-19T5:41:59Z</time></trkpt>
<trkpt lat="48.48002000" lon="2.65574800"><ele></ele><time>2017-9-19T5:42:2Z</time></trkpt>
<trkpt lat="48.47996300" lon="2.65559500"><ele></ele><time>2017-9-19T5:42:5Z</time></trkpt>
<trkpt lat="48.47993800" lon="2.65550700"><ele></ele><time>2017-9-19T5:42:8Z</time></trkpt>
<trkpt lat="48.47989700" lon="2.65535800"><ele></ele><time>2017-9-19T5:42:11Z</time></trkpt>
<trkpt lat="48.47987300" lon="2.65529800"><ele></ele><time>2017-9-19T5:42:14Z</time></trkpt>
<trkpt lat="48.47980300" lon="2.65509500"><ele></ele><time>2017-9-19T5:42:17Z</time></trkpt>
<trkpt lat="48.47974300" lon="2.65485500"><ele></ele><time>2017-9-19T5:42:20Z</time></trkpt>
<trkpt lat="48.47968000" lon="2.65463700"><ele></ele><time>2017-9-19T5:42:23Z</time></trkpt>
<trkpt lat="48.47964700" lon="2.65455700"><ele></ele><time>2017-9-19T5:42:26Z</time></trkpt>
<trkpt lat="48.47924300" lon="2.65338000"><ele></ele><time>2017-9-19T5:42:29Z</time></trkpt>
<trkpt lat="48.47908100" lon="2.65282800"><ele></ele><time>2017-9-19T5:42:32Z</time></trkpt>
<trkpt lat="48.47905000" lon="2.65272200"><ele></ele><time>2017-9-19T5:42:35Z</time></trkpt>
<trkpt lat="48.47902200" lon="2.65269200"><ele></ele><time>2017-9-19T5:42:38Z</time></trkpt>
<trkpt lat="48.47898200" lon="2.65263300"><ele></ele><time>2017-9-19T5:42:41Z</time></trkpt>
<trkpt lat="48.47897200" lon="2.65259500"><ele></ele><time>2017-9-19T5:42:44Z</time></trkpt>
<trkpt lat="48.47896600" lon="2.65255700"><ele></ele><time>2017-9-19T5:42:47Z</time></trkpt>
<trkpt lat="48.47895700" lon="2.65251300"><ele></ele><time>2017-9-19T5:42:50Z</time></trkpt>
<trkpt lat="48.47893700" lon="2.65244500"><ele></ele><time>2017-9-19T5:42:53Z</time></trkpt>
<trkpt lat="48.47893500" lon="2.65241300"><ele></ele><time>2017-9-19T5:42:56Z</time></trkpt>
<trkpt lat="48.47893800" lon="2.65238200"><ele></ele><time>2017-9-19T5:42:59Z</time></trkpt>
<trkpt lat="48.47893800" lon="2.65235300"><ele></ele><time>2017-9-19T5:43:2Z</time></trkpt>
<trkpt lat="48.47893200" lon="2.65232800"><ele></ele><time>2017-9-19T5:43:5Z</time></trkpt>
<trkpt lat="48.47892300" lon="2.65231300"><ele></ele><time>2017-9-19T5:43:8Z</time></trkpt>
<trkpt lat="48.47891000" lon="2.65229800"><ele></ele><time>2017-9-19T5:43:11Z</time></trkpt>
<trkpt lat="48.47889200" lon="2.65228700"><ele></ele><time>2017-9-19T5:43:14Z</time></trkpt>
<trkpt lat="48.47884700" lon="2.65226300"><ele></ele><time>2017-9-19T5:43:17Z</time></trkpt>
<trkpt lat="48.47881800" lon="2.65226000"><ele></ele><time>2017-9-19T5:43:20Z</time></trkpt>
<trkpt lat="48.47878800" lon="2.65226800"><ele></ele><time>2017-9-19T5:43:23Z</time></trkpt>
<trkpt lat="48.47875700" lon="2.65228500"><ele></ele><time>2017-9-19T5:43:26Z</time></trkpt>
<trkpt lat="48.47872500" lon="2.65231200"><ele></ele><time>2017-9-19T5:43:29Z</time></trkpt>
<trkpt lat="48.47869500" lon="2.65234300"><ele></ele><time>2017-9-19T5:43:32Z</time></trkpt>
<trkpt lat="48.47862700" lon="2.65240800"><ele></ele><time>2017-9-19T5:43:35Z</time></trkpt>
<trkpt lat="48.47807300" lon="2.65292200"><ele></ele><time>2017-9-19T5:43:38Z</time></trkpt>
<trkpt lat="48.47601200" lon="2.65470800"><ele></ele><time>2017-9-19T5:43:41Z</time></trkpt>
<trkpt lat="48.47596000" lon="2.65474500"><ele></ele><time>2017-9-19T5:43:44Z</time></trkpt>
<trkpt lat="48.47573000" lon="2.65491800"><ele></ele><time>2017-9-19T5:43:47Z</time></trkpt>
<trkpt lat="48.47569000" lon="2.65496200"><ele></ele><time>2017-9-19T5:43:50Z</time></trkpt>
<trkpt lat="48.47557000" lon="2.65507800"><ele></ele><time>2017-9-19T5:43:53Z</time></trkpt>
<trkpt lat="48.47116500" lon="2.65874800"><ele></ele><time>2017-9-19T5:43:56Z</time></trkpt>
<trkpt lat="48.47112500" lon="2.65877700"><ele></ele><time>2017-9-19T5:43:59Z</time></trkpt>
<trkpt lat="48.47101600" lon="2.65889000"><ele></ele><time>2017-9-19T5:44:2Z</time></trkpt>
<trkpt lat="48.47101500" lon="2.65893000"><ele></ele><time>2017-9-19T5:44:5Z</time></trkpt>
<trkpt lat="48.47102000" lon="2.65897000"><ele></ele><time>2017-9-19T5:44:8Z</time></trkpt>
<trkpt lat="48.47102300" lon="2.65901500"><ele></ele><time>2017-9-19T5:44:11Z</time></trkpt>
<trkpt lat="48.47101800" lon="2.65906300"><ele></ele><time>2017-9-19T5:44:14Z</time></trkpt>
<trkpt lat="48.47094800" lon="2.65972500"><ele></ele><time>2017-9-19T5:44:17Z</time></trkpt>
<trkpt lat="48.47092800" lon="2.65991700"><ele></ele><time>2017-9-19T5:44:20Z</time></trkpt>
<trkpt lat="48.47093100" lon="2.65996800"><ele></ele><time>2017-9-19T5:44:23Z</time></trkpt>
<trkpt lat="48.47094000" lon="2.66001700"><ele></ele><time>2017-9-19T5:44:26Z</time></trkpt>
<trkpt lat="48.47093800" lon="2.66007300"><ele></ele><time>2017-9-19T5:44:29Z</time></trkpt>
<trkpt lat="48.47093800" lon="2.66015200"><ele></ele><time>2017-9-19T5:44:32Z</time></trkpt>
<trkpt lat="48.47093500" lon="2.66019300"><ele></ele><time>2017-9-19T5:44:35Z</time></trkpt>
<trkpt lat="48.47092500" lon="2.66024500"><ele></ele><time>2017-9-19T5:44:38Z</time></trkpt>
<trkpt lat="48.47090000" lon="2.66036000"><ele></ele><time>2017-9-19T5:44:41Z</time></trkpt>
<trkpt lat="48.47089200" lon="2.66043000"><ele></ele><time>2017-9-19T5:44:44Z</time></trkpt>
<trkpt lat="48.47069500" lon="2.66271300"><ele></ele><time>2017-9-19T5:44:47Z</time></trkpt>
<trkpt lat="48.47068600" lon="2.66277000"><ele></ele><time>2017-9-19T5:44:50Z</time></trkpt>
<trkpt lat="48.47055500" lon="2.66365500"><ele></ele><time>2017-9-19T5:44:53Z</time></trkpt>
<trkpt lat="48.47054500" lon="2.66369300"><ele></ele><time>2017-9-19T5:44:56Z</time></trkpt>
<trkpt lat="48.47053500" lon="2.66372700"><ele></ele><time>2017-9-19T5:44:59Z</time></trkpt>
<trkpt lat="48.47049000" lon="2.66385700"><ele></ele><time>2017-9-19T5:45:2Z</time></trkpt>
<trkpt lat="48.47047200" lon="2.66393200"><ele></ele><time>2017-9-19T5:45:5Z</time></trkpt>
<trkpt lat="48.47046000" lon="2.66395700"><ele></ele><time>2017-9-19T5:45:8Z</time></trkpt>
<trkpt lat="48.47037300" lon="2.66410300"><ele></ele><time>2017-9-19T5:45:11Z</time></trkpt>
<trkpt lat="48.47029800" lon="2.66422000"><ele></ele><time>2017-9-19T5:45:14Z</time></trkpt>
<trkpt lat="48.47028000" lon="2.66426500"><ele></ele><time>2017-9-19T5:45:17Z</time></trkpt>
<trkpt lat="48.47015000" lon="2.66454700"><ele></ele><time>2017-9-19T5:45:20Z</time></trkpt>
<trkpt lat="48.47009500" lon="2.66464200"><ele></ele><time>2017-9-19T5:45:23Z</time></trkpt>
<trkpt lat="48.46996300" lon="2.66488500"><ele></ele><time>2017-9-19T5:45:26Z</time></trkpt>
<trkpt lat="48.46989600" lon="2.66501300"><ele></ele><time>2017-9-19T5:45:29Z</time></trkpt>
<trkpt lat="48.46986800" lon="2.66505300"><ele></ele><time>2017-9-19T5:45:32Z</time></trkpt>
<trkpt lat="48.46980800" lon="2.66516800"><ele></ele><time>2017-9-19T5:45:35Z</time></trkpt>
<trkpt lat="48.46980600" lon="2.66519500"><ele></ele><time>2017-9-19T5:45:38Z</time></trkpt>
<trkpt lat="48.46980300" lon="2.66521200"><ele></ele><time>2017-9-19T5:45:41Z</time></trkpt>
<trkpt lat="48.46979500" lon="2.66522500"><ele></ele><time>2017-9-19T5:45:44Z</time></trkpt>
<trkpt lat="48.46978300" lon="2.66524000"><ele></ele><time>2017-9-19T5:45:47Z</time></trkpt>
<trkpt lat="48.46977500" lon="2.66525700"><ele></ele><time>2017-9-19T5:45:50Z</time></trkpt>
<trkpt lat="48.46977300" lon="2.66526300"><ele></ele><time>2017-9-19T5:45:53Z</time></trkpt>
<trkpt lat="48.46976800" lon="2.66527300"><ele></ele><time>2017-9-19T5:45:56Z</time></trkpt>
<trkpt lat="48.46975800" lon="2.66528200"><ele></ele><time>2017-9-19T5:45:59Z</time></trkpt>
<trkpt lat="48.46973200" lon="2.66530200"><ele></ele><time>2017-9-19T5:46:2Z</time></trkpt>
<trkpt lat="48.46971200" lon="2.66533300"><ele></ele><time>2017-9-19T5:46:5Z</time></trkpt>
<trkpt lat="48.46969600" lon="2.66536500"><ele></ele><time>2017-9-19T5:46:8Z</time></trkpt>
<trkpt lat="48.46966000" lon="2.66543000"><ele></ele><time>2017-9-19T5:46:11Z</time></trkpt>
<trkpt lat="48.46938800" lon="2.66592200"><ele></ele><time>2017-9-19T5:46:14Z</time></trkpt>
<trkpt lat="48.46896700" lon="2.66669700"><ele></ele><time>2017-9-19T5:46:17Z</time></trkpt>
<trkpt lat="48.46866600" lon="2.66721700"><ele></ele><time>2017-9-19T5:46:20Z</time></trkpt>
<trkpt lat="48.46865300" lon="2.66724500"><ele></ele><time>2017-9-19T5:46:23Z</time></trkpt>
<trkpt lat="48.46865200" lon="2.66726700"><ele></ele><time>2017-9-19T5:46:26Z</time></trkpt>
<trkpt lat="48.46865200" lon="2.66728700"><ele></ele><time>2017-9-19T5:46:29Z</time></trkpt>
<trkpt lat="48.46864800" lon="2.66730200"><ele></ele><time>2017-9-19T5:46:32Z</time></trkpt>
<trkpt lat="48.46864100" lon="2.66731000"><ele></ele><time>2017-9-19T5:46:35Z</time></trkpt>
<trkpt lat="48.46863300" lon="2.66731300"><ele></ele><time>2017-9-19T5:46:38Z</time></trkpt>
<trkpt lat="48.46862500" lon="2.66731700"><ele></ele><time>2017-9-19T5:46:41Z</time></trkpt>
<trkpt lat="48.46861200" lon="2.66732800"><ele></ele><time>2017-9-19T5:46:44Z</time></trkpt>
<trkpt lat="48.46859800" lon="2.66734200"><ele></ele><time>2017-9-19T5:46:47Z</time></trkpt>
<trkpt lat="48.46852700" lon="2.66741000"><ele></ele><time>2017-9-19T5:46:50Z</time></trkpt>
<trkpt lat="48.46851000" lon="2.66742300"><ele></ele><time>2017-9-19T5:46:53Z</time></trkpt>
<trkpt lat="48.46849300" lon="2.66745500"><ele></ele><time>2017-9-19T5:46:56Z</time></trkpt>
<trkpt lat="48.46849700" lon="2.66746200"><ele></ele><time>2017-9-19T5:46:59Z</time></trkpt>
<trkpt lat="48.46849700" lon="2.66746800"><ele></ele><time>2017-9-19T5:47:2Z</time></trkpt>
<trkpt lat="48.46850200" lon="2.66747700"><ele></ele><time>2017-9-19T5:47:5Z</time></trkpt>
<trkpt lat="48.46850300" lon="2.66748500"><ele></ele><time>2017-9-19T5:47:8Z</time></trkpt>
<trkpt lat="48.46850500" lon="2.66749000"><ele></ele><time>2017-9-19T5:47:11Z</time></trkpt>
<trkpt lat="48.46851000" lon="2.66749000"><ele></ele><time>2017-9-19T5:47:14Z</time></trkpt>
<trkpt lat="48.46851000" lon="2.66749200"><ele></ele><time>2017-9-19T5:47:17Z</time></trkpt>
<trkpt lat="48.46851200" lon="2.66749500"><ele></ele><time>2017-9-19T5:47:20Z</time></trkpt>
<trkpt lat="48.46851600" lon="2.66750500"><ele></ele><time>2017-9-19T5:47:23Z</time></trkpt>
<trkpt lat="48.46852200" lon="2.66750800"><ele></ele><time>2017-9-19T5:47:26Z</time></trkpt>
<trkpt lat="48.46852700" lon="2.66751700"><ele></ele><time>2017-9-19T5:47:29Z</time></trkpt>
<trkpt lat="48.46853200" lon="2.66752200"><ele></ele><time>2017-9-19T5:47:32Z</time></trkpt>
<trkpt lat="48.46853500" lon="2.66752500"><ele></ele><time>2017-9-19T5:47:35Z</time></trkpt>
<trkpt lat="48.46854300" lon="2.66753000"><ele></ele><time>2017-9-19T5:47:38Z</time></trkpt>
<trkpt lat="48.46854700" lon="2.66753300"><ele></ele><time>2017-9-19T5:47:41Z</time></trkpt>
<trkpt lat="48.46855100" lon="2.66753700"><ele></ele><time>2017-9-19T5:47:44Z</time></trkpt>
<trkpt lat="48.46855300" lon="2.66753800"><ele></ele><time>2017-9-19T5:47:47Z</time></trkpt>
<trkpt lat="48.46856000" lon="2.66754000"><ele></ele><time>2017-9-19T5:47:50Z</time></trkpt>
<trkpt lat="48.46856200" lon="2.66754700"><ele></ele><time>2017-9-19T5:47:53Z</time></trkpt>
<trkpt lat="48.46856200" lon="2.66755300"><ele></ele><time>2017-9-19T5:47:56Z</time></trkpt>
<trkpt lat="48.46855100" lon="2.66758500"><ele></ele><time>2017-9-19T5:47:59Z</time></trkpt>
<trkpt lat="48.46855300" lon="2.66760800"><ele></ele><time>2017-9-19T5:48:2Z</time></trkpt>
<trkpt lat="48.46856300" lon="2.66763000"><ele></ele><time>2017-9-19T5:48:5Z</time></trkpt>
<trkpt lat="48.46858000" lon="2.66765500"><ele></ele><time>2017-9-19T5:48:8Z</time></trkpt>
<trkpt lat="48.46860300" lon="2.66767800"><ele></ele><time>2017-9-19T5:48:11Z</time></trkpt>
<trkpt lat="48.46865200" lon="2.66773300"><ele></ele><time>2017-9-19T5:48:14Z</time></trkpt>
<trkpt lat="48.46867300" lon="2.66776800"><ele></ele><time>2017-9-19T5:48:17Z</time></trkpt>
<trkpt lat="48.46869000" lon="2.66780300"><ele></ele><time>2017-9-19T5:48:20Z</time></trkpt>
<trkpt lat="48.46870800" lon="2.66783500"><ele></ele><time>2017-9-19T5:48:23Z</time></trkpt>
<trkpt lat="48.46886000" lon="2.66805300"><ele></ele><time>2017-9-19T5:48:26Z</time></trkpt>
<trkpt lat="48.46888300" lon="2.66810000"><ele></ele><time>2017-9-19T5:48:29Z</time></trkpt>
<trkpt lat="48.46892500" lon="2.66819700"><ele></ele><time>2017-9-19T5:48:32Z</time></trkpt>
<trkpt lat="48.46894500" lon="2.66824500"><ele></ele><time>2017-9-19T5:48:35Z</time></trkpt>
<trkpt lat="48.46896800" lon="2.66828800"><ele></ele><time>2017-9-19T5:48:38Z</time></trkpt>
<trkpt lat="48.46908700" lon="2.66852000"><ele></ele><time>2017-9-19T5:48:41Z</time></trkpt>
<trkpt lat="48.46910000" lon="2.66857200"><ele></ele><time>2017-9-19T5:48:44Z</time></trkpt>
<trkpt lat="48.46912200" lon="2.66867000"><ele></ele><time>2017-9-19T5:48:47Z</time></trkpt>
<trkpt lat="48.46913500" lon="2.66872200"><ele></ele><time>2017-9-19T5:48:50Z</time></trkpt>
<trkpt lat="48.46916000" lon="2.66876800"><ele></ele><time>2017-9-19T5:48:53Z</time></trkpt>
<trkpt lat="48.46946000" lon="2.66919000"><ele></ele><time>2017-9-19T5:48:56Z</time></trkpt>
<trkpt lat="48.46949000" lon="2.66922800"><ele></ele><time>2017-9-19T5:48:59Z</time></trkpt>
<trkpt lat="48.46983200" lon="2.66982800"><ele></ele><time>2017-9-19T5:49:2Z</time></trkpt>
<trkpt lat="48.47062800" lon="2.67121300"><ele></ele><time>2017-9-19T5:49:5Z</time></trkpt>
<trkpt lat="48.47064100" lon="2.67123000"><ele></ele><time>2017-9-19T5:49:8Z</time></trkpt>
<trkpt lat="48.47064700" lon="2.67123700"><ele></ele><time>2017-9-19T5:49:11Z</time></trkpt>
<trkpt lat="48.47064500" lon="2.67123800"><ele></ele><time>2017-9-19T5:49:14Z</time></trkpt>
<trkpt lat="48.47064500" lon="2.67123800"><ele></ele><time>2017-9-19T5:49:17Z</time></trkpt>
<trkpt lat="48.47064500" lon="2.67124000"><ele></ele><time>2017-9-19T5:49:20Z</time></trkpt>
<trkpt lat="48.47064500" lon="2.67124200"><ele></ele><time>2017-9-19T5:49:23Z</time></trkpt>
<trkpt lat="48.47064500" lon="2.67124300"><ele></ele><time>2017-9-19T5:49:26Z</time></trkpt>
<trkpt lat="48.47064300" lon="2.67124300"><ele></ele><time>2017-9-19T5:49:29Z</time></trkpt>
<trkpt lat="48.47064300" lon="2.67124500"><ele></ele><time>2017-9-19T5:49:32Z</time></trkpt>
<trkpt lat="48.47064300" lon="2.67124700"><ele></ele><time>2017-9-19T5:49:35Z</time></trkpt>
<trkpt lat="48.47064300" lon="2.67124700"><ele></ele><time>2017-9-19T5:49:38Z</time></trkpt>
<trkpt lat="48.47064300" lon="2.67124800"><ele></ele><time>2017-9-19T5:49:41Z</time></trkpt>
<trkpt lat="48.47064300" lon="2.67125000"><ele></ele><time>2017-9-19T5:49:44Z</time></trkpt>
<trkpt lat="48.47064300" lon="2.67125000"><ele></ele><time>2017-9-19T5:49:47Z</time></trkpt>
<trkpt lat="48.47064300" lon="2.67125200"><ele></ele><time>2017-9-19T5:49:50Z</time></trkpt>
<trkpt lat="48.47064300" lon="2.67125200"><ele></ele><time>2017-9-19T5:49:53Z</time></trkpt>
<trkpt lat="48.47064300" lon="2.67125300"><ele></ele><time>2017-9-19T5:49:56Z</time></trkpt>
<trkpt lat="48.47064300" lon="2.67125500"><ele></ele><time>2017-9-19T5:49:59Z</time></trkpt>
<trkpt lat="48.47064800" lon="2.67126000"><ele></ele><time>2017-9-19T5:50:2Z</time></trkpt>
<trkpt lat="48.47065800" lon="2.67127300"><ele></ele><time>2017-9-19T5:50:5Z</time></trkpt>
<trkpt lat="48.47066300" lon="2.67129300"><ele></ele><time>2017-9-19T5:50:8Z</time></trkpt>
<trkpt lat="48.47067500" lon="2.67131500"><ele></ele><time>2017-9-19T5:50:11Z</time></trkpt>
<trkpt lat="48.47204000" lon="2.67377500"><ele></ele><time>2017-9-19T5:50:14Z</time></trkpt>
<trkpt lat="48.47203300" lon="2.67382000"><ele></ele><time>2017-9-19T5:50:17Z</time></trkpt>
<trkpt lat="48.47202000" lon="2.67385500"><ele></ele><time>2017-9-19T5:50:20Z</time></trkpt>
<trkpt lat="48.47187300" lon="2.67412700"><ele></ele><time>2017-9-19T5:50:23Z</time></trkpt>
<trkpt lat="48.47101500" lon="2.67570200"><ele></ele><time>2017-9-19T5:50:26Z</time></trkpt>
<trkpt lat="48.47014500" lon="2.67741800"><ele></ele><time>2017-9-19T5:50:29Z</time></trkpt>
<trkpt lat="48.47011800" lon="2.67747800"><ele></ele><time>2017-9-19T5:50:32Z</time></trkpt>
<trkpt lat="48.46897300" lon="2.67996800"><ele></ele><time>2017-9-19T5:50:35Z</time></trkpt>
<trkpt lat="48.46890000" lon="2.68009300"><ele></ele><time>2017-9-19T5:50:38Z</time></trkpt>
<trkpt lat="48.46889100" lon="2.68012300"><ele></ele><time>2017-9-19T5:50:41Z</time></trkpt>
<trkpt lat="48.46883200" lon="2.68031300"><ele></ele><time>2017-9-19T5:50:44Z</time></trkpt>
<trkpt lat="48.46881700" lon="2.68034200"><ele></ele><time>2017-9-19T5:50:47Z</time></trkpt>
<trkpt lat="48.46879800" lon="2.68036600"><ele></ele><time>2017-9-19T5:50:50Z</time></trkpt>
<trkpt lat="48.46878500" lon="2.68039500"><ele></ele><time>2017-9-19T5:50:53Z</time></trkpt>
<trkpt lat="48.46875600" lon="2.68046700"><ele></ele><time>2017-9-19T5:50:56Z</time></trkpt>
<trkpt lat="48.46870800" lon="2.68060800"><ele></ele><time>2017-9-19T5:50:59Z</time></trkpt>
<trkpt lat="48.46869300" lon="2.68065300"><ele></ele><time>2017-9-19T5:51:2Z</time></trkpt>
<trkpt lat="48.46867300" lon="2.68074200"><ele></ele><time>2017-9-19T5:51:5Z</time></trkpt>
<trkpt lat="48.46865800" lon="2.68077700"><ele></ele><time>2017-9-19T5:51:8Z</time></trkpt>
<trkpt lat="48.46777800" lon="2.68288200"><ele></ele><time>2017-9-19T5:51:11Z</time></trkpt>
<trkpt lat="48.46769500" lon="2.68310200"><ele></ele><time>2017-9-19T5:51:14Z</time></trkpt>
<trkpt lat="48.46767500" lon="2.68313800"><ele></ele><time>2017-9-19T5:51:17Z</time></trkpt>
<trkpt lat="48.46764800" lon="2.68316700"><ele></ele><time>2017-9-19T5:51:20Z</time></trkpt>
<trkpt lat="48.46759600" lon="2.68320300"><ele></ele><time>2017-9-19T5:51:23Z</time></trkpt>
<trkpt lat="48.46752300" lon="2.68324500"><ele></ele><time>2017-9-19T5:51:26Z</time></trkpt>
<trkpt lat="48.46748000" lon="2.68327700"><ele></ele><time>2017-9-19T5:51:29Z</time></trkpt>
<trkpt lat="48.46744300" lon="2.68330500"><ele></ele><time>2017-9-19T5:51:32Z</time></trkpt>
<trkpt lat="48.46496200" lon="2.68527200"><ele></ele><time>2017-9-19T5:51:35Z</time></trkpt>
<trkpt lat="48.46492000" lon="2.68530500"><ele></ele><time>2017-9-19T5:51:38Z</time></trkpt>
<trkpt lat="48.46444800" lon="2.68565800"><ele></ele><time>2017-9-19T5:51:41Z</time></trkpt>
<trkpt lat="48.46440300" lon="2.68570200"><ele></ele><time>2017-9-19T5:51:44Z</time></trkpt>
<trkpt lat="48.46362800" lon="2.68626300"><ele></ele><time>2017-9-19T5:51:47Z</time></trkpt>
<trkpt lat="48.46130500" lon="2.68805200"><ele></ele><time>2017-9-19T5:51:50Z</time></trkpt>
<trkpt lat="48.46126300" lon="2.68809200"><ele></ele><time>2017-9-19T5:51:53Z</time></trkpt>
<trkpt lat="48.45982600" lon="2.68914200"><ele></ele><time>2017-9-19T5:51:56Z</time></trkpt>
<trkpt lat="48.45968600" lon="2.68915800"><ele></ele><time>2017-9-19T5:51:59Z</time></trkpt>
<trkpt lat="48.45957200" lon="2.68915700"><ele></ele><time>2017-9-19T5:52:2Z</time></trkpt>
<trkpt lat="48.45891500" lon="2.68913300"><ele></ele><time>2017-9-19T5:52:5Z</time></trkpt>
<trkpt lat="48.45888100" lon="2.68913700"><ele></ele><time>2017-9-19T5:52:8Z</time></trkpt>
<trkpt lat="48.45885200" lon="2.68914300"><ele></ele><time>2017-9-19T5:52:11Z</time></trkpt>
<trkpt lat="48.45866100" lon="2.68915700"><ele></ele><time>2017-9-19T5:52:14Z</time></trkpt>
<trkpt lat="48.45859000" lon="2.68913800"><ele></ele><time>2017-9-19T5:52:17Z</time></trkpt>
<trkpt lat="48.45857300" lon="2.68913800"><ele></ele><time>2017-9-19T5:52:20Z</time></trkpt>
<trkpt lat="48.45849500" lon="2.68913800"><ele></ele><time>2017-9-19T5:52:23Z</time></trkpt>
<trkpt lat="48.45848500" lon="2.68914200"><ele></ele><time>2017-9-19T5:52:26Z</time></trkpt>
<trkpt lat="48.45847200" lon="2.68914700"><ele></ele><time>2017-9-19T5:52:29Z</time></trkpt>
<trkpt lat="48.45845600" lon="2.68915800"><ele></ele><time>2017-9-19T5:52:32Z</time></trkpt>
<trkpt lat="48.45844300" lon="2.68917000"><ele></ele><time>2017-9-19T5:52:35Z</time></trkpt>
<trkpt lat="48.45843000" lon="2.68917300"><ele></ele><time>2017-9-19T5:52:38Z</time></trkpt>
<trkpt lat="48.45835000" lon="2.68919800"><ele></ele><time>2017-9-19T5:52:41Z</time></trkpt>
<trkpt lat="48.45834500" lon="2.68920200"><ele></ele><time>2017-9-19T5:52:44Z</time></trkpt>
<trkpt lat="48.45834000" lon="2.68920700"><ele></ele><time>2017-9-19T5:52:47Z</time></trkpt>
<trkpt lat="48.45833000" lon="2.68921800"><ele></ele><time>2017-9-19T5:52:50Z</time></trkpt>
<trkpt lat="48.45833000" lon="2.68922200"><ele></ele><time>2017-9-19T5:52:53Z</time></trkpt>
<trkpt lat="48.45833100" lon="2.68922300"><ele></ele><time>2017-9-19T5:52:56Z</time></trkpt>
<trkpt lat="48.45833100" lon="2.68922300"><ele></ele><time>2017-9-19T5:52:59Z</time></trkpt>
<trkpt lat="48.45833100" lon="2.68922300"><ele></ele><time>2017-9-19T5:53:2Z</time></trkpt>
<trkpt lat="48.45833000" lon="2.68922500"><ele></ele><time>2017-9-19T5:53:5Z</time></trkpt>
<trkpt lat="48.45831800" lon="2.68923800"><ele></ele><time>2017-9-19T5:53:8Z</time></trkpt>
<trkpt lat="48.45831200" lon="2.68924800"><ele></ele><time>2017-9-19T5:53:11Z</time></trkpt>
<trkpt lat="48.45825300" lon="2.68933200"><ele></ele><time>2017-9-19T5:53:14Z</time></trkpt>
<trkpt lat="48.45824300" lon="2.68934000"><ele></ele><time>2017-9-19T5:53:17Z</time></trkpt>
<trkpt lat="48.45823500" lon="2.68933700"><ele></ele><time>2017-9-19T5:53:20Z</time></trkpt>
<trkpt lat="48.45822800" lon="2.68933200"><ele></ele><time>2017-9-19T5:53:23Z</time></trkpt>
<trkpt lat="48.45817500" lon="2.68931200"><ele></ele><time>2017-9-19T5:53:26Z</time></trkpt>
<trkpt lat="48.45815000" lon="2.68928800"><ele></ele><time>2017-9-19T5:53:29Z</time></trkpt>
<trkpt lat="48.45813700" lon="2.68928500"><ele></ele><time>2017-9-19T5:53:32Z</time></trkpt>
<trkpt lat="48.45812500" lon="2.68929000"><ele></ele><time>2017-9-19T5:53:35Z</time></trkpt>
<trkpt lat="48.45811500" lon="2.68929200"><ele></ele><time>2017-9-19T5:53:38Z</time></trkpt>
<trkpt lat="48.45811200" lon="2.68929200"><ele></ele><time>2017-9-19T5:53:41Z</time></trkpt>
<trkpt lat="48.45810500" lon="2.68928700"><ele></ele><time>2017-9-19T5:53:44Z</time></trkpt>
<trkpt lat="48.45810100" lon="2.68928000"><ele></ele><time>2017-9-19T5:53:47Z</time></trkpt>
<trkpt lat="48.45809800" lon="2.68927300"><ele></ele><time>2017-9-19T5:53:50Z</time></trkpt>
<trkpt lat="48.45808800" lon="2.68926800"><ele></ele><time>2017-9-19T5:53:53Z</time></trkpt>
<trkpt lat="48.45807600" lon="2.68926700"><ele></ele><time>2017-9-19T5:53:56Z</time></trkpt>
<trkpt lat="48.45806300" lon="2.68926700"><ele></ele><time>2017-9-19T5:53:59Z</time></trkpt>
<trkpt lat="48.45805000" lon="2.68926800"><ele></ele><time>2017-9-19T5:54:2Z</time></trkpt>
<trkpt lat="48.45803700" lon="2.68927300"><ele></ele><time>2017-9-19T5:54:5Z</time></trkpt>
<trkpt lat="48.45802300" lon="2.68928300"><ele></ele><time>2017-9-19T5:54:8Z</time></trkpt>
<trkpt lat="48.45801300" lon="2.68929200"><ele></ele><time>2017-9-19T5:54:11Z</time></trkpt>
<trkpt lat="48.45801000" lon="2.68930800"><ele></ele><time>2017-9-19T5:54:14Z</time></trkpt>
<trkpt lat="48.45800700" lon="2.68932800"><ele></ele><time>2017-9-19T5:54:17Z</time></trkpt>
<trkpt lat="48.45800200" lon="2.68935800"><ele></ele><time>2017-9-19T5:54:20Z</time></trkpt>
<trkpt lat="48.45799300" lon="2.68937000"><ele></ele><time>2017-9-19T5:54:23Z</time></trkpt>
<trkpt lat="48.45798600" lon="2.68938300"><ele></ele><time>2017-9-19T5:54:26Z</time></trkpt>
<trkpt lat="48.45797300" lon="2.68940500"><ele></ele><time>2017-9-19T5:54:29Z</time></trkpt>
<trkpt lat="48.45796200" lon="2.68941500"><ele></ele><time>2017-9-19T5:54:32Z</time></trkpt>
<trkpt lat="48.45795000" lon="2.68942700"><ele></ele><time>2017-9-19T5:54:35Z</time></trkpt>
<trkpt lat="48.45793800" lon="2.68945000"><ele></ele><time>2017-9-19T5:54:38Z</time></trkpt>
<trkpt lat="48.45788500" lon="2.68954700"><ele></ele><time>2017-9-19T5:54:41Z</time></trkpt>
<trkpt lat="48.45787000" lon="2.68957300"><ele></ele><time>2017-9-19T5:54:44Z</time></trkpt>
<trkpt lat="48.45785500" lon="2.68958800"><ele></ele><time>2017-9-19T5:54:47Z</time></trkpt>
<trkpt lat="48.45782000" lon="2.68961200"><ele></ele><time>2017-9-19T5:54:50Z</time></trkpt>
<trkpt lat="48.45779800" lon="2.68963000"><ele></ele><time>2017-9-19T5:54:53Z</time></trkpt>
<trkpt lat="48.45777800" lon="2.68966300"><ele></ele><time>2017-9-19T5:54:56Z</time></trkpt>
<trkpt lat="48.45776000" lon="2.68970500"><ele></ele><time>2017-9-19T5:54:59Z</time></trkpt>
<trkpt lat="48.45765500" lon="2.68989300"><ele></ele><time>2017-9-19T5:55:2Z</time></trkpt>
<trkpt lat="48.45762800" lon="2.68990700"><ele></ele><time>2017-9-19T5:55:5Z</time></trkpt>
<trkpt lat="48.45760000" lon="2.68991000"><ele></ele><time>2017-9-19T5:55:8Z</time></trkpt>
<trkpt lat="48.45757200" lon="2.68992500"><ele></ele><time>2017-9-19T5:55:11Z</time></trkpt>
<trkpt lat="48.45755000" lon="2.68994800"><ele></ele><time>2017-9-19T5:55:14Z</time></trkpt>
<trkpt lat="48.45753800" lon="2.68998000"><ele></ele><time>2017-9-19T5:55:17Z</time></trkpt>
<trkpt lat="48.45751000" lon="2.69007800"><ele></ele><time>2017-9-19T5:55:20Z</time></trkpt>
<trkpt lat="48.45749200" lon="2.69009800"><ele></ele><time>2017-9-19T5:55:23Z</time></trkpt>
<trkpt lat="48.45747600" lon="2.69009700"><ele></ele><time>2017-9-19T5:55:26Z</time></trkpt>
<trkpt lat="48.45746700" lon="2.69008000"><ele></ele><time>2017-9-19T5:55:29Z</time></trkpt>
<trkpt lat="48.45745300" lon="2.69006200"><ele></ele><time>2017-9-19T5:55:32Z</time></trkpt>
<trkpt lat="48.45743300" lon="2.69004000"><ele></ele><time>2017-9-19T5:55:35Z</time></trkpt>
<trkpt lat="48.45740800" lon="2.69001500"><ele></ele><time>2017-9-19T5:55:38Z</time></trkpt>
<trkpt lat="48.45737800" lon="2.68998800"><ele></ele><time>2017-9-19T5:55:41Z</time></trkpt>
<trkpt lat="48.45734500" lon="2.68996200"><ele></ele><time>2017-9-19T5:55:44Z</time></trkpt>
<trkpt lat="48.45721800" lon="2.68985500"><ele></ele><time>2017-9-19T5:55:47Z</time></trkpt>
<trkpt lat="48.45718000" lon="2.68982800"><ele></ele><time>2017-9-19T5:55:50Z</time></trkpt>
<trkpt lat="48.45713600" lon="2.68980300"><ele></ele><time>2017-9-19T5:55:53Z</time></trkpt>
<trkpt lat="48.45686600" lon="2.68965200"><ele></ele><time>2017-9-19T5:55:56Z</time></trkpt>
<trkpt lat="48.45676300" lon="2.68961700"><ele></ele><time>2017-9-19T5:55:59Z</time></trkpt>
<trkpt lat="48.45674200" lon="2.68962000"><ele></ele><time>2017-9-19T5:56:2Z</time></trkpt>
<trkpt lat="48.45671800" lon="2.68963200"><ele></ele><time>2017-9-19T5:56:5Z</time></trkpt>
<trkpt lat="48.45669300" lon="2.68965300"><ele></ele><time>2017-9-19T5:56:8Z</time></trkpt>
<trkpt lat="48.45661300" lon="2.68973200"><ele></ele><time>2017-9-19T5:56:11Z</time></trkpt>
<trkpt lat="48.45658000" lon="2.68973700"><ele></ele><time>2017-9-19T5:56:14Z</time></trkpt>
<trkpt lat="48.45647700" lon="2.68975800"><ele></ele><time>2017-9-19T5:56:17Z</time></trkpt>
<trkpt lat="48.45644600" lon="2.68977800"><ele></ele><time>2017-9-19T5:56:20Z</time></trkpt>
<trkpt lat="48.45642300" lon="2.68980300"><ele></ele><time>2017-9-19T5:56:23Z</time></trkpt>
<trkpt lat="48.45633300" lon="2.68988300"><ele></ele><time>2017-9-19T5:56:26Z</time></trkpt>
<trkpt lat="48.45618800" lon="2.68999300"><ele></ele><time>2017-9-19T5:56:29Z</time></trkpt>
<trkpt lat="48.45598000" lon="2.69013800"><ele></ele><time>2017-9-19T5:56:32Z</time></trkpt>
<trkpt lat="48.45587700" lon="2.69024700"><ele></ele><time>2017-9-19T5:56:35Z</time></trkpt>
<trkpt lat="48.45585700" lon="2.69031000"><ele></ele><time>2017-9-19T5:56:38Z</time></trkpt>
<trkpt lat="48.45557600" lon="2.69107500"><ele></ele><time>2017-9-19T5:56:41Z</time></trkpt>
<trkpt lat="48.45555000" lon="2.69109200"><ele></ele><time>2017-9-19T5:56:44Z</time></trkpt>
<trkpt lat="48.45552300" lon="2.69109300"><ele></ele><time>2017-9-19T5:56:47Z</time></trkpt>
<trkpt lat="48.45547500" lon="2.69110200"><ele></ele><time>2017-9-19T5:56:50Z</time></trkpt>
<trkpt lat="48.45544500" lon="2.69112800"><ele></ele><time>2017-9-19T5:56:53Z</time></trkpt>
<trkpt lat="48.45541500" lon="2.69115100"><ele></ele><time>2017-9-19T5:56:56Z</time></trkpt>
<trkpt lat="48.45538000" lon="2.69115800"><ele></ele><time>2017-9-19T5:56:59Z</time></trkpt>
<trkpt lat="48.45535100" lon="2.69114700"><ele></ele><time>2017-9-19T5:57:2Z</time></trkpt>
<trkpt lat="48.45532300" lon="2.69113200"><ele></ele><time>2017-9-19T5:57:5Z</time></trkpt>
<trkpt lat="48.45511700" lon="2.69106600"><ele></ele><time>2017-9-19T5:57:8Z</time></trkpt>
<trkpt lat="48.45483600" lon="2.69093800"><ele></ele><time>2017-9-19T5:57:11Z</time></trkpt>
<trkpt lat="48.45472700" lon="2.69089000"><ele></ele><time>2017-9-19T5:57:14Z</time></trkpt>
<trkpt lat="48.45456500" lon="2.69081800"><ele></ele><time>2017-9-19T5:57:17Z</time></trkpt>
<trkpt lat="48.45452100" lon="2.69080300"><ele></ele><time>2017-9-19T5:57:20Z</time></trkpt>
<trkpt lat="48.45447800" lon="2.69079800"><ele></ele><time>2017-9-19T5:57:23Z</time></trkpt>
<trkpt lat="48.45433500" lon="2.69074500"><ele></ele><time>2017-9-19T5:57:26Z</time></trkpt>
<trkpt lat="48.45427300" lon="2.69071800"><ele></ele><time>2017-9-19T5:57:29Z</time></trkpt>
<trkpt lat="48.45424800" lon="2.69070200"><ele></ele><time>2017-9-19T5:57:32Z</time></trkpt>
<trkpt lat="48.45415700" lon="2.69061000"><ele></ele><time>2017-9-19T5:57:35Z</time></trkpt>
<trkpt lat="48.45414100" lon="2.69059500"><ele></ele><time>2017-9-19T5:57:38Z</time></trkpt>
<trkpt lat="48.45412700" lon="2.69058700"><ele></ele><time>2017-9-19T5:57:41Z</time></trkpt>
<trkpt lat="48.45411300" lon="2.69058200"><ele></ele><time>2017-9-19T5:57:44Z</time></trkpt>
<trkpt lat="48.45410000" lon="2.69058200"><ele></ele><time>2017-9-19T5:57:47Z</time></trkpt>
<trkpt lat="48.45408700" lon="2.69058500"><ele></ele><time>2017-9-19T5:57:50Z</time></trkpt>
<trkpt lat="48.45407300" lon="2.69058500"><ele></ele><time>2017-9-19T5:57:53Z</time></trkpt>
<trkpt lat="48.45403500" lon="2.69056700"><ele></ele><time>2017-9-19T5:57:56Z</time></trkpt>
<trkpt lat="48.45401800" lon="2.69055800"><ele></ele><time>2017-9-19T5:57:59Z</time></trkpt>
<trkpt lat="48.45400500" lon="2.69054800"><ele></ele><time>2017-9-19T5:58:2Z</time></trkpt>
<trkpt lat="48.45399300" lon="2.69054500"><ele></ele><time>2017-9-19T5:58:5Z</time></trkpt>
<trkpt lat="48.45398300" lon="2.69054000"><ele></ele><time>2017-9-19T5:58:8Z</time></trkpt>
<trkpt lat="48.45397200" lon="2.69053700"><ele></ele><time>2017-9-19T5:58:11Z</time></trkpt>
<trkpt lat="48.45394800" lon="2.69052500"><ele></ele><time>2017-9-19T5:58:14Z</time></trkpt>
<trkpt lat="48.45393800" lon="2.69052000"><ele></ele><time>2017-9-19T5:58:17Z</time></trkpt>
<trkpt lat="48.45393000" lon="2.69051000"><ele></ele><time>2017-9-19T5:58:20Z</time></trkpt>
<trkpt lat="48.45392300" lon="2.69050200"><ele></ele><time>2017-9-19T5:58:23Z</time></trkpt>
<trkpt lat="48.45391500" lon="2.69049100"><ele></ele><time>2017-9-19T5:58:26Z</time></trkpt>
<trkpt lat="48.45389300" lon="2.69047500"><ele></ele><time>2017-9-19T5:58:29Z</time></trkpt>
<trkpt lat="48.45375300" lon="2.69037200"><ele></ele><time>2017-9-19T5:58:32Z</time></trkpt>
<trkpt lat="48.45366200" lon="2.69030800"><ele></ele><time>2017-9-19T5:58:35Z</time></trkpt>
<trkpt lat="48.45343200" lon="2.69015200"><ele></ele><time>2017-9-19T5:58:38Z</time></trkpt>
<trkpt lat="48.45338200" lon="2.69013700"><ele></ele><time>2017-9-19T5:58:41Z</time></trkpt>
<trkpt lat="48.45333800" lon="2.69012500"><ele></ele><time>2017-9-19T5:58:44Z</time></trkpt>
<trkpt lat="48.45330000" lon="2.69010200"><ele></ele><time>2017-9-19T5:58:47Z</time></trkpt>
<trkpt lat="48.45321200" lon="2.69005300"><ele></ele><time>2017-9-19T5:58:50Z</time></trkpt>
<trkpt lat="48.45320000" lon="2.69005700"><ele></ele><time>2017-9-19T5:58:53Z</time></trkpt>
<trkpt lat="48.45318800" lon="2.69005500"><ele></ele><time>2017-9-19T5:58:56Z</time></trkpt>
<trkpt lat="48.45317300" lon="2.69004700"><ele></ele><time>2017-9-19T5:58:59Z</time></trkpt>
<trkpt lat="48.45317200" lon="2.69004000"><ele></ele><time>2017-9-19T5:59:2Z</time></trkpt>
<trkpt lat="48.45317000" lon="2.69002800"><ele></ele><time>2017-9-19T5:59:5Z</time></trkpt>
<trkpt lat="48.45317200" lon="2.69001800"><ele></ele><time>2017-9-19T5:59:8Z</time></trkpt>
<trkpt lat="48.45317000" lon="2.69000800"><ele></ele><time>2017-9-19T5:59:11Z</time></trkpt>
<trkpt lat="48.45316500" lon="2.69000000"><ele></ele><time>2017-9-19T5:59:14Z</time></trkpt>
<trkpt lat="48.45316200" lon="2.68998300"><ele></ele><time>2017-9-19T5:59:17Z</time></trkpt>
<trkpt lat="48.45314300" lon="2.68994000"><ele></ele><time>2017-9-19T5:59:20Z</time></trkpt>
<trkpt lat="48.45313300" lon="2.68992800"><ele></ele><time>2017-9-19T5:59:23Z</time></trkpt>
<trkpt lat="48.45311800" lon="2.68992000"><ele></ele><time>2017-9-19T5:59:26Z</time></trkpt>
<trkpt lat="48.45310500" lon="2.68991500"><ele></ele><time>2017-9-19T5:59:29Z</time></trkpt>
<trkpt lat="48.45305300" lon="2.68989500"><ele></ele><time>2017-9-19T5:59:32Z</time></trkpt>
<trkpt lat="48.45303700" lon="2.68987700"><ele></ele><time>2017-9-19T5:59:35Z</time></trkpt>
<trkpt lat="48.45302800" lon="2.68986500"><ele></ele><time>2017-9-19T5:59:38Z</time></trkpt>
<trkpt lat="48.45302800" lon="2.68984800"><ele></ele><time>2017-9-19T5:59:41Z</time></trkpt>
<trkpt lat="48.45302300" lon="2.68983000"><ele></ele><time>2017-9-19T5:59:44Z</time></trkpt>
<trkpt lat="48.45301200" lon="2.68979800"><ele></ele><time>2017-9-19T5:59:47Z</time></trkpt>
<trkpt lat="48.45300300" lon="2.68979000"><ele></ele><time>2017-9-19T5:59:50Z</time></trkpt>
<trkpt lat="48.45296800" lon="2.68976500"><ele></ele><time>2017-9-19T5:59:53Z</time></trkpt>
<trkpt lat="48.45295200" lon="2.68974200"><ele></ele><time>2017-9-19T5:59:56Z</time></trkpt>
<trkpt lat="48.45284000" lon="2.68958000"><ele></ele><time>2017-9-19T5:59:59Z</time></trkpt>
<trkpt lat="48.45280000" lon="2.68954300"><ele></ele><time>2017-9-19T6:0:2Z</time></trkpt>
<trkpt lat="48.45266300" lon="2.68942700"><ele></ele><time>2017-9-19T6:0:5Z</time></trkpt>
<trkpt lat="48.45264300" lon="2.68941500"><ele></ele><time>2017-9-19T6:0:8Z</time></trkpt>
<trkpt lat="48.45254700" lon="2.68934700"><ele></ele><time>2017-9-19T6:0:11Z</time></trkpt>
<trkpt lat="48.45253500" lon="2.68933200"><ele></ele><time>2017-9-19T6:0:14Z</time></trkpt>
<trkpt lat="48.45252300" lon="2.68931800"><ele></ele><time>2017-9-19T6:0:17Z</time></trkpt>
<trkpt lat="48.45251200" lon="2.68930700"><ele></ele><time>2017-9-19T6:0:20Z</time></trkpt>
<trkpt lat="48.45249000" lon="2.68928200"><ele></ele><time>2017-9-19T6:0:23Z</time></trkpt>
<trkpt lat="48.45248000" lon="2.68926800"><ele></ele><time>2017-9-19T6:0:26Z</time></trkpt>
<trkpt lat="48.45246600" lon="2.68925200"><ele></ele><time>2017-9-19T6:0:29Z</time></trkpt>
<trkpt lat="48.45245300" lon="2.68924000"><ele></ele><time>2017-9-19T6:0:32Z</time></trkpt>
<trkpt lat="48.45243600" lon="2.68923200"><ele></ele><time>2017-9-19T6:0:35Z</time></trkpt>
<trkpt lat="48.45242000" lon="2.68922700"><ele></ele><time>2017-9-19T6:0:38Z</time></trkpt>
<trkpt lat="48.45240300" lon="2.68922300"><ele></ele><time>2017-9-19T6:0:41Z</time></trkpt>
<trkpt lat="48.45227800" lon="2.68918500"><ele></ele><time>2017-9-19T6:0:44Z</time></trkpt>
<trkpt lat="48.45227000" lon="2.68918300"><ele></ele><time>2017-9-19T6:0:47Z</time></trkpt>
<trkpt lat="48.45226300" lon="2.68918200"><ele></ele><time>2017-9-19T6:0:50Z</time></trkpt>
<trkpt lat="48.45224800" lon="2.68917800"><ele></ele><time>2017-9-19T6:0:53Z</time></trkpt>
<trkpt lat="48.45223500" lon="2.68918500"><ele></ele><time>2017-9-19T6:0:56Z</time></trkpt>
<trkpt lat="48.45222300" lon="2.68917800"><ele></ele><time>2017-9-19T6:0:59Z</time></trkpt>
<trkpt lat="48.45221500" lon="2.68917300"><ele></ele><time>2017-9-19T6:1:2Z</time></trkpt>
<trkpt lat="48.45220200" lon="2.68917700"><ele></ele><time>2017-9-19T6:1:5Z</time></trkpt>
<trkpt lat="48.45217700" lon="2.68917700"><ele></ele><time>2017-9-19T6:1:8Z</time></trkpt>
<trkpt lat="48.45214300" lon="2.68917700"><ele></ele><time>2017-9-19T6:1:11Z</time></trkpt>
<trkpt lat="48.45213700" lon="2.68917300"><ele></ele><time>2017-9-19T6:1:14Z</time></trkpt>
<trkpt lat="48.45212800" lon="2.68916500"><ele></ele><time>2017-9-19T6:1:17Z</time></trkpt>
<trkpt lat="48.45212100" lon="2.68916000"><ele></ele><time>2017-9-19T6:1:20Z</time></trkpt>
<trkpt lat="48.45211200" lon="2.68916300"><ele></ele><time>2017-9-19T6:1:23Z</time></trkpt>
<trkpt lat="48.45210000" lon="2.68915500"><ele></ele><time>2017-9-19T6:1:26Z</time></trkpt>
<trkpt lat="48.45208200" lon="2.68914700"><ele></ele><time>2017-9-19T6:1:29Z</time></trkpt>
<trkpt lat="48.45207000" lon="2.68914700"><ele></ele><time>2017-9-19T6:1:32Z</time></trkpt>
<trkpt lat="48.45205700" lon="2.68915200"><ele></ele><time>2017-9-19T6:1:35Z</time></trkpt>
<trkpt lat="48.45204500" lon="2.68915500"><ele></ele><time>2017-9-19T6:1:38Z</time></trkpt>
<trkpt lat="48.45203000" lon="2.68916200"><ele></ele><time>2017-9-19T6:1:41Z</time></trkpt>
<trkpt lat="48.45201100" lon="2.68918500"><ele></ele><time>2017-9-19T6:1:44Z</time></trkpt>
<trkpt lat="48.45195700" lon="2.68924700"><ele></ele><time>2017-9-19T6:1:47Z</time></trkpt>
<trkpt lat="48.45193200" lon="2.68928700"><ele></ele><time>2017-9-19T6:1:50Z</time></trkpt>
<trkpt lat="48.45190800" lon="2.68934000"><ele></ele><time>2017-9-19T6:1:53Z</time></trkpt>
<trkpt lat="48.45188800" lon="2.68939800"><ele></ele><time>2017-9-19T6:1:56Z</time></trkpt>
<trkpt lat="48.45167800" lon="2.68978300"><ele></ele><time>2017-9-19T6:1:59Z</time></trkpt>
<trkpt lat="48.45144700" lon="2.69010300"><ele></ele><time>2017-9-19T6:2:2Z</time></trkpt>
<trkpt lat="48.45140600" lon="2.69016700"><ele></ele><time>2017-9-19T6:2:5Z</time></trkpt>
<trkpt lat="48.45137500" lon="2.69022800"><ele></ele><time>2017-9-19T6:2:8Z</time></trkpt>
<trkpt lat="48.45121300" lon="2.69049000"><ele></ele><time>2017-9-19T6:2:11Z</time></trkpt>
<trkpt lat="48.45116700" lon="2.69053500"><ele></ele><time>2017-9-19T6:2:14Z</time></trkpt>
<trkpt lat="48.45100600" lon="2.69071800"><ele></ele><time>2017-9-19T6:2:17Z</time></trkpt>
<trkpt lat="48.45099800" lon="2.69077000"><ele></ele><time>2017-9-19T6:2:20Z</time></trkpt>
<trkpt lat="48.45101000" lon="2.69090000"><ele></ele><time>2017-9-19T6:2:23Z</time></trkpt>
<trkpt lat="48.45103300" lon="2.69103300"><ele></ele><time>2017-9-19T6:2:26Z</time></trkpt>
<trkpt lat="48.45108000" lon="2.69122700"><ele></ele><time>2017-9-19T6:2:29Z</time></trkpt>
<trkpt lat="48.45106800" lon="2.69128200"><ele></ele><time>2017-9-19T6:2:32Z</time></trkpt>
<trkpt lat="48.45105200" lon="2.69132200"><ele></ele><time>2017-9-19T6:2:35Z</time></trkpt>
<trkpt lat="48.45101500" lon="2.69142300"><ele></ele><time>2017-9-19T6:2:38Z</time></trkpt>
<trkpt lat="48.45098500" lon="2.69146300"><ele></ele><time>2017-9-19T6:2:41Z</time></trkpt>
<trkpt lat="48.45095200" lon="2.69151200"><ele></ele><time>2017-9-19T6:2:44Z</time></trkpt>
<trkpt lat="48.45091800" lon="2.69154500"><ele></ele><time>2017-9-19T6:2:47Z</time></trkpt>
<trkpt lat="48.45089000" lon="2.69156000"><ele></ele><time>2017-9-19T6:2:50Z</time></trkpt>
<trkpt lat="48.45085200" lon="2.69158000"><ele></ele><time>2017-9-19T6:2:53Z</time></trkpt>
<trkpt lat="48.45081300" lon="2.69158500"><ele></ele><time>2017-9-19T6:2:56Z</time></trkpt>
<trkpt lat="48.45077200" lon="2.69158200"><ele></ele><time>2017-9-19T6:2:59Z</time></trkpt>
<trkpt lat="48.45073200" lon="2.69158800"><ele></ele><time>2017-9-19T6:3:2Z</time></trkpt>
<trkpt lat="48.45068700" lon="2.69161300"><ele></ele><time>2017-9-19T6:3:5Z</time></trkpt>
<trkpt lat="48.45064700" lon="2.69164100"><ele></ele><time>2017-9-19T6:3:8Z</time></trkpt>
<trkpt lat="48.45052500" lon="2.69172800"><ele></ele><time>2017-9-19T6:3:11Z</time></trkpt>
<trkpt lat="48.45048800" lon="2.69173800"><ele></ele><time>2017-9-19T6:3:14Z</time></trkpt>
<trkpt lat="48.45041700" lon="2.69177000"><ele></ele><time>2017-9-19T6:3:17Z</time></trkpt>
<trkpt lat="48.45037600" lon="2.69179700"><ele></ele><time>2017-9-19T6:3:20Z</time></trkpt>
<trkpt lat="48.45033200" lon="2.69182300"><ele></ele><time>2017-9-19T6:3:23Z</time></trkpt>
<trkpt lat="48.45029500" lon="2.69183500"><ele></ele><time>2017-9-19T6:3:26Z</time></trkpt>
<trkpt lat="48.45026000" lon="2.69183500"><ele></ele><time>2017-9-19T6:3:29Z</time></trkpt>
<trkpt lat="48.45022100" lon="2.69184700"><ele></ele><time>2017-9-19T6:3:32Z</time></trkpt>
<trkpt lat="48.45018500" lon="2.69186500"><ele></ele><time>2017-9-19T6:3:35Z</time></trkpt>
<trkpt lat="48.45014700" lon="2.69189800"><ele></ele><time>2017-9-19T6:3:38Z</time></trkpt>
<trkpt lat="48.45011100" lon="2.69194500"><ele></ele><time>2017-9-19T6:3:41Z</time></trkpt>
<trkpt lat="48.45007800" lon="2.69199500"><ele></ele><time>2017-9-19T6:3:44Z</time></trkpt>
<trkpt lat="48.45004300" lon="2.69202700"><ele></ele><time>2017-9-19T6:3:47Z</time></trkpt>
<trkpt lat="48.45000300" lon="2.69204000"><ele></ele><time>2017-9-19T6:3:50Z</time></trkpt>
<trkpt lat="48.44996200" lon="2.69204800"><ele></ele><time>2017-9-19T6:3:53Z</time></trkpt>
<trkpt lat="48.44989000" lon="2.69209800"><ele></ele><time>2017-9-19T6:3:56Z</time></trkpt>
<trkpt lat="48.44986100" lon="2.69213800"><ele></ele><time>2017-9-19T6:3:59Z</time></trkpt>
<trkpt lat="48.44977700" lon="2.69226200"><ele></ele><time>2017-9-19T6:4:2Z</time></trkpt>
<trkpt lat="48.44975800" lon="2.69230300"><ele></ele><time>2017-9-19T6:4:5Z</time></trkpt>
<trkpt lat="48.44972200" lon="2.69237800"><ele></ele><time>2017-9-19T6:4:8Z</time></trkpt>
<trkpt lat="48.44969700" lon="2.69241300"><ele></ele><time>2017-9-19T6:4:11Z</time></trkpt>
<trkpt lat="48.44967500" lon="2.69245300"><ele></ele><time>2017-9-19T6:4:14Z</time></trkpt>
<trkpt lat="48.44966000" lon="2.69250000"><ele></ele><time>2017-9-19T6:4:17Z</time></trkpt>
<trkpt lat="48.44964300" lon="2.69254700"><ele></ele><time>2017-9-19T6:4:20Z</time></trkpt>
<trkpt lat="48.44959100" lon="2.69263500"><ele></ele><time>2017-9-19T6:4:23Z</time></trkpt>
<trkpt lat="48.44957500" lon="2.69269000"><ele></ele><time>2017-9-19T6:4:26Z</time></trkpt>
<trkpt lat="48.44955800" lon="2.69274000"><ele></ele><time>2017-9-19T6:4:29Z</time></trkpt>
<trkpt lat="48.44953300" lon="2.69277800"><ele></ele><time>2017-9-19T6:4:32Z</time></trkpt>
<trkpt lat="48.44950100" lon="2.69280700"><ele></ele><time>2017-9-19T6:4:35Z</time></trkpt>
<trkpt lat="48.44944000" lon="2.69287000"><ele></ele><time>2017-9-19T6:4:38Z</time></trkpt>
<trkpt lat="48.44941500" lon="2.69291300"><ele></ele><time>2017-9-19T6:4:41Z</time></trkpt>
<trkpt lat="48.44925500" lon="2.69317200"><ele></ele><time>2017-9-19T6:4:44Z</time></trkpt>
<trkpt lat="48.44921800" lon="2.69320800"><ele></ele><time>2017-9-19T6:4:47Z</time></trkpt>
<trkpt lat="48.44896200" lon="2.69344300"><ele></ele><time>2017-9-19T6:4:50Z</time></trkpt>
<trkpt lat="48.44891700" lon="2.69346500"><ele></ele><time>2017-9-19T6:4:53Z</time></trkpt>
<trkpt lat="48.44879300" lon="2.69349500"><ele></ele><time>2017-9-19T6:4:56Z</time></trkpt>
<trkpt lat="48.44871000" lon="2.69349500"><ele></ele><time>2017-9-19T6:4:59Z</time></trkpt>
<trkpt lat="48.44859000" lon="2.69350300"><ele></ele><time>2017-9-19T6:5:2Z</time></trkpt>
<trkpt lat="48.44855200" lon="2.69351300"><ele></ele><time>2017-9-19T6:5:5Z</time></trkpt>
<trkpt lat="48.44851500" lon="2.69352800"><ele></ele><time>2017-9-19T6:5:8Z</time></trkpt>
<trkpt lat="48.44848100" lon="2.69355000"><ele></ele><time>2017-9-19T6:5:11Z</time></trkpt>
<trkpt lat="48.44841500" lon="2.69360200"><ele></ele><time>2017-9-19T6:5:14Z</time></trkpt>
<trkpt lat="48.44838300" lon="2.69362300"><ele></ele><time>2017-9-19T6:5:17Z</time></trkpt>
<trkpt lat="48.44834800" lon="2.69363000"><ele></ele><time>2017-9-19T6:5:20Z</time></trkpt>
<trkpt lat="48.44828200" lon="2.69363700"><ele></ele><time>2017-9-19T6:5:23Z</time></trkpt>
<trkpt lat="48.44825000" lon="2.69365000"><ele></ele><time>2017-9-19T6:5:26Z</time></trkpt>
<trkpt lat="48.44807500" lon="2.69370300"><ele></ele><time>2017-9-19T6:5:29Z</time></trkpt>
<trkpt lat="48.44804000" lon="2.69370000"><ele></ele><time>2017-9-19T6:5:32Z</time></trkpt>
<trkpt lat="48.44800300" lon="2.69370000"><ele></ele><time>2017-9-19T6:5:35Z</time></trkpt>
<trkpt lat="48.44797000" lon="2.69370700"><ele></ele><time>2017-9-19T6:5:38Z</time></trkpt>
<trkpt lat="48.44794000" lon="2.69372300"><ele></ele><time>2017-9-19T6:5:41Z</time></trkpt>
<trkpt lat="48.44791200" lon="2.69374000"><ele></ele><time>2017-9-19T6:5:44Z</time></trkpt>
<trkpt lat="48.44788500" lon="2.69374800"><ele></ele><time>2017-9-19T6:5:47Z</time></trkpt>
<trkpt lat="48.44785500" lon="2.69375700"><ele></ele><time>2017-9-19T6:5:50Z</time></trkpt>
<trkpt lat="48.44782300" lon="2.69375800"><ele></ele><time>2017-9-19T6:5:53Z</time></trkpt>
<trkpt lat="48.44779500" lon="2.69374500"><ele></ele><time>2017-9-19T6:5:56Z</time></trkpt>
<trkpt lat="48.44777300" lon="2.69372500"><ele></ele><time>2017-9-19T6:5:59Z</time></trkpt>
<trkpt lat="48.44775300" lon="2.69369700"><ele></ele><time>2017-9-19T6:6:2Z</time></trkpt>
<trkpt lat="48.44771000" lon="2.69364500"><ele></ele><time>2017-9-19T6:6:5Z</time></trkpt>
<trkpt lat="48.44767800" lon="2.69362800"><ele></ele><time>2017-9-19T6:6:8Z</time></trkpt>
<trkpt lat="48.44758000" lon="2.69358500"><ele></ele><time>2017-9-19T6:6:11Z</time></trkpt>
<trkpt lat="48.44754700" lon="2.69358800"><ele></ele><time>2017-9-19T6:6:14Z</time></trkpt>
<trkpt lat="48.44751500" lon="2.69360800"><ele></ele><time>2017-9-19T6:6:17Z</time></trkpt>
<trkpt lat="48.44728500" lon="2.69377300"><ele></ele><time>2017-9-19T6:6:20Z</time></trkpt>
<trkpt lat="48.44726000" lon="2.69379800"><ele></ele><time>2017-9-19T6:6:23Z</time></trkpt>
<trkpt lat="48.44723800" lon="2.69382700"><ele></ele><time>2017-9-19T6:6:26Z</time></trkpt>
<trkpt lat="48.44718800" lon="2.69388700"><ele></ele><time>2017-9-19T6:6:29Z</time></trkpt>
<trkpt lat="48.44716200" lon="2.69390800"><ele></ele><time>2017-9-19T6:6:32Z</time></trkpt>
<trkpt lat="48.44710500" lon="2.69394500"><ele></ele><time>2017-9-19T6:6:35Z</time></trkpt>
<trkpt lat="48.44707300" lon="2.69395200"><ele></ele><time>2017-9-19T6:6:38Z</time></trkpt>
<trkpt lat="48.44701000" lon="2.69394700"><ele></ele><time>2017-9-19T6:6:41Z</time></trkpt>
<trkpt lat="48.44697800" lon="2.69393500"><ele></ele><time>2017-9-19T6:6:44Z</time></trkpt>
<trkpt lat="48.44680700" lon="2.69383700"><ele></ele><time>2017-9-19T6:6:47Z</time></trkpt>
<trkpt lat="48.44656800" lon="2.69368500"><ele></ele><time>2017-9-19T6:6:50Z</time></trkpt>
<trkpt lat="48.44654000" lon="2.69365000"><ele></ele><time>2017-9-19T6:6:53Z</time></trkpt>
<trkpt lat="48.44651700" lon="2.69361000"><ele></ele><time>2017-9-19T6:6:56Z</time></trkpt>
<trkpt lat="48.44649200" lon="2.69356500"><ele></ele><time>2017-9-19T6:6:59Z</time></trkpt>
<trkpt lat="48.44646800" lon="2.69353200"><ele></ele><time>2017-9-19T6:7:2Z</time></trkpt>
<trkpt lat="48.44643600" lon="2.69349700"><ele></ele><time>2017-9-19T6:7:5Z</time></trkpt>
<trkpt lat="48.44620800" lon="2.69326800"><ele></ele><time>2017-9-19T6:7:8Z</time></trkpt>
<trkpt lat="48.44616800" lon="2.69325700"><ele></ele><time>2017-9-19T6:7:11Z</time></trkpt>
<trkpt lat="48.44612700" lon="2.69324700"><ele></ele><time>2017-9-19T6:7:14Z</time></trkpt>
<trkpt lat="48.44607500" lon="2.69324000"><ele></ele><time>2017-9-19T6:7:17Z</time></trkpt>
<trkpt lat="48.44602700" lon="2.69325200"><ele></ele><time>2017-9-19T6:7:20Z</time></trkpt>
<trkpt lat="48.44598800" lon="2.69328300"><ele></ele><time>2017-9-19T6:7:23Z</time></trkpt>
<trkpt lat="48.44595500" lon="2.69331800"><ele></ele><time>2017-9-19T6:7:26Z</time></trkpt>
<trkpt lat="48.44592000" lon="2.69333700"><ele></ele><time>2017-9-19T6:7:29Z</time></trkpt>
<trkpt lat="48.44588100" lon="2.69335200"><ele></ele><time>2017-9-19T6:7:32Z</time></trkpt>
<trkpt lat="48.44581800" lon="2.69337000"><ele></ele><time>2017-9-19T6:7:35Z</time></trkpt>
<trkpt lat="48.44579100" lon="2.69338800"><ele></ele><time>2017-9-19T6:7:38Z</time></trkpt>
<trkpt lat="48.44576600" lon="2.69341300"><ele></ele><time>2017-9-19T6:7:41Z</time></trkpt>
<trkpt lat="48.44571300" lon="2.69344500"><ele></ele><time>2017-9-19T6:7:44Z</time></trkpt>
<trkpt lat="48.44566000" lon="2.69348700"><ele></ele><time>2017-9-19T6:7:47Z</time></trkpt>
<trkpt lat="48.44564000" lon="2.69351000"><ele></ele><time>2017-9-19T6:7:50Z</time></trkpt>
<trkpt lat="48.44557800" lon="2.69360000"><ele></ele><time>2017-9-19T6:7:53Z</time></trkpt>
<trkpt lat="48.44557000" lon="2.69364000"><ele></ele><time>2017-9-19T6:7:56Z</time></trkpt>
<trkpt lat="48.44554500" lon="2.69372300"><ele></ele><time>2017-9-19T6:7:59Z</time></trkpt>
<trkpt lat="48.44552500" lon="2.69376300"><ele></ele><time>2017-9-19T6:8:2Z</time></trkpt>
<trkpt lat="48.44543700" lon="2.69394800"><ele></ele><time>2017-9-19T6:8:5Z</time></trkpt>
<trkpt lat="48.44542200" lon="2.69398700"><ele></ele><time>2017-9-19T6:8:8Z</time></trkpt>
<trkpt lat="48.44540800" lon="2.69401700"><ele></ele><time>2017-9-19T6:8:11Z</time></trkpt>
<trkpt lat="48.44539100" lon="2.69403700"><ele></ele><time>2017-9-19T6:8:14Z</time></trkpt>
<trkpt lat="48.44537200" lon="2.69405300"><ele></ele><time>2017-9-19T6:8:17Z</time></trkpt>
<trkpt lat="48.44531800" lon="2.69409500"><ele></ele><time>2017-9-19T6:8:20Z</time></trkpt>
<trkpt lat="48.44520200" lon="2.69421700"><ele></ele><time>2017-9-19T6:8:23Z</time></trkpt>
<trkpt lat="48.44517700" lon="2.69425800"><ele></ele><time>2017-9-19T6:8:26Z</time></trkpt>
<trkpt lat="48.44507300" lon="2.69440800"><ele></ele><time>2017-9-19T6:8:29Z</time></trkpt>
<trkpt lat="48.44505800" lon="2.69443800"><ele></ele><time>2017-9-19T6:8:32Z</time></trkpt>
<trkpt lat="48.44504500" lon="2.69447500"><ele></ele><time>2017-9-19T6:8:35Z</time></trkpt>
<trkpt lat="48.44500300" lon="2.69456000"><ele></ele><time>2017-9-19T6:8:38Z</time></trkpt>
<trkpt lat="48.44497300" lon="2.69459200"><ele></ele><time>2017-9-19T6:8:41Z</time></trkpt>
<trkpt lat="48.44493800" lon="2.69462200"><ele></ele><time>2017-9-19T6:8:44Z</time></trkpt>
<trkpt lat="48.44490800" lon="2.69463000"><ele></ele><time>2017-9-19T6:8:47Z</time></trkpt>
<trkpt lat="48.44488000" lon="2.69464800"><ele></ele><time>2017-9-19T6:8:50Z</time></trkpt>
<trkpt lat="48.44485100" lon="2.69468200"><ele></ele><time>2017-9-19T6:8:53Z</time></trkpt>
<trkpt lat="48.44483000" lon="2.69472000"><ele></ele><time>2017-9-19T6:8:56Z</time></trkpt>
<trkpt lat="48.44480800" lon="2.69476300"><ele></ele><time>2017-9-19T6:8:59Z</time></trkpt>
<trkpt lat="48.44478200" lon="2.69478000"><ele></ele><time>2017-9-19T6:9:2Z</time></trkpt>
<trkpt lat="48.44475000" lon="2.69477800"><ele></ele><time>2017-9-19T6:9:5Z</time></trkpt>
<trkpt lat="48.44471800" lon="2.69477800"><ele></ele><time>2017-9-19T6:9:8Z</time></trkpt>
<trkpt lat="48.44468700" lon="2.69478700"><ele></ele><time>2017-9-19T6:9:11Z</time></trkpt>
<trkpt lat="48.44462600" lon="2.69479000"><ele></ele><time>2017-9-19T6:9:14Z</time></trkpt>
<trkpt lat="48.44455500" lon="2.69478700"><ele></ele><time>2017-9-19T6:9:17Z</time></trkpt>
<trkpt lat="48.44452000" lon="2.69477500"><ele></ele><time>2017-9-19T6:9:20Z</time></trkpt>
<trkpt lat="48.44448500" lon="2.69475800"><ele></ele><time>2017-9-19T6:9:23Z</time></trkpt>
<trkpt lat="48.44418500" lon="2.69457700"><ele></ele><time>2017-9-19T6:9:26Z</time></trkpt>
<trkpt lat="48.44403800" lon="2.69446500"><ele></ele><time>2017-9-19T6:9:29Z</time></trkpt>
<trkpt lat="48.44400200" lon="2.69443700"><ele></ele><time>2017-9-19T6:9:32Z</time></trkpt>
<trkpt lat="48.44394800" lon="2.69438200"><ele></ele><time>2017-9-19T6:9:35Z</time></trkpt>
<trkpt lat="48.44393100" lon="2.69435000"><ele></ele><time>2017-9-19T6:9:38Z</time></trkpt>
<trkpt lat="48.44392300" lon="2.69433200"><ele></ele><time>2017-9-19T6:9:41Z</time></trkpt>
<trkpt lat="48.44391800" lon="2.69432000"><ele></ele><time>2017-9-19T6:9:44Z</time></trkpt>
<trkpt lat="48.44391800" lon="2.69433200"><ele></ele><time>2017-9-19T6:9:47Z</time></trkpt>
<trkpt lat="48.44391700" lon="2.69434500"><ele></ele><time>2017-9-19T6:9:50Z</time></trkpt>
<trkpt lat="48.44391300" lon="2.69435200"><ele></ele><time>2017-9-19T6:9:53Z</time></trkpt>
<trkpt lat="48.44391300" lon="2.69436300"><ele></ele><time>2017-9-19T6:9:56Z</time></trkpt>
<trkpt lat="48.44391000" lon="2.69436700"><ele></ele><time>2017-9-19T6:9:59Z</time></trkpt>
<trkpt lat="48.44390800" lon="2.69437300"><ele></ele><time>2017-9-19T6:10:2Z</time></trkpt>
<trkpt lat="48.44390500" lon="2.69438700"><ele></ele><time>2017-9-19T6:10:5Z</time></trkpt>
<trkpt lat="48.44390300" lon="2.69440300"><ele></ele><time>2017-9-19T6:10:8Z</time></trkpt>
<trkpt lat="48.44390300" lon="2.69441700"><ele></ele><time>2017-9-19T6:10:11Z</time></trkpt>
<trkpt lat="48.44390200" lon="2.69442800"><ele></ele><time>2017-9-19T6:10:14Z</time></trkpt>
<trkpt lat="48.44390200" lon="2.69445000"><ele></ele><time>2017-9-19T6:10:17Z</time></trkpt>
<trkpt lat="48.44390000" lon="2.69445800"><ele></ele><time>2017-9-19T6:10:20Z</time></trkpt>
<trkpt lat="48.44389100" lon="2.69447200"><ele></ele><time>2017-9-19T6:10:23Z</time></trkpt>
<trkpt lat="48.44388500" lon="2.69447300"><ele></ele><time>2017-9-19T6:10:26Z</time></trkpt>
<trkpt lat="48.44386600" lon="2.69447500"><ele></ele><time>2017-9-19T6:10:29Z</time></trkpt>
<trkpt lat="48.44385200" lon="2.69446000"><ele></ele><time>2017-9-19T6:10:32Z</time></trkpt>
<trkpt lat="48.44383700" lon="2.69443700"><ele></ele><time>2017-9-19T6:10:35Z</time></trkpt>
<trkpt lat="48.44381800" lon="2.69442300"><ele></ele><time>2017-9-19T6:10:38Z</time></trkpt>
<trkpt lat="48.44380000" lon="2.69440200"><ele></ele><time>2017-9-19T6:10:41Z</time></trkpt>
<trkpt lat="48.44377800" lon="2.69437800"><ele></ele><time>2017-9-19T6:10:44Z</time></trkpt>
<trkpt lat="48.44374800" lon="2.69435500"><ele></ele><time>2017-9-19T6:10:47Z</time></trkpt>
<trkpt lat="48.44371800" lon="2.69436700"><ele></ele><time>2017-9-19T6:10:50Z</time></trkpt>
<trkpt lat="48.44368800" lon="2.69437800"><ele></ele><time>2017-9-19T6:10:53Z</time></trkpt>
<trkpt lat="48.44366500" lon="2.69440500"><ele></ele><time>2017-9-19T6:10:56Z</time></trkpt>
<trkpt lat="48.44361500" lon="2.69449300"><ele></ele><time>2017-9-19T6:10:59Z</time></trkpt>
<trkpt lat="48.44352000" lon="2.69463200"><ele></ele><time>2017-9-19T6:11:2Z</time></trkpt>
<trkpt lat="48.44348800" lon="2.69465200"><ele></ele><time>2017-9-19T6:11:5Z</time></trkpt>
<trkpt lat="48.44342200" lon="2.69467700"><ele></ele><time>2017-9-19T6:11:8Z</time></trkpt>
<trkpt lat="48.44322700" lon="2.69475500"><ele></ele><time>2017-9-19T6:11:11Z</time></trkpt>
<trkpt lat="48.44319300" lon="2.69477700"><ele></ele><time>2017-9-19T6:11:14Z</time></trkpt>
<trkpt lat="48.44316200" lon="2.69480300"><ele></ele><time>2017-9-19T6:11:17Z</time></trkpt>
<trkpt lat="48.44303600" lon="2.69490300"><ele></ele><time>2017-9-19T6:11:20Z</time></trkpt>
<trkpt lat="48.44301600" lon="2.69495200"><ele></ele><time>2017-9-19T6:11:23Z</time></trkpt>
<trkpt lat="48.44299000" lon="2.69504700"><ele></ele><time>2017-9-19T6:11:26Z</time></trkpt>
<trkpt lat="48.44298700" lon="2.69510300"><ele></ele><time>2017-9-19T6:11:29Z</time></trkpt>
<trkpt lat="48.44295700" lon="2.69527500"><ele></ele><time>2017-9-19T6:11:32Z</time></trkpt>
<trkpt lat="48.44290500" lon="2.69563200"><ele></ele><time>2017-9-19T6:11:35Z</time></trkpt>
<trkpt lat="48.44290700" lon="2.69570000"><ele></ele><time>2017-9-19T6:11:38Z</time></trkpt>
<trkpt lat="48.44291800" lon="2.69577000"><ele></ele><time>2017-9-19T6:11:41Z</time></trkpt>
<trkpt lat="48.44293700" lon="2.69582800"><ele></ele><time>2017-9-19T6:11:44Z</time></trkpt>
<trkpt lat="48.44301100" lon="2.69601300"><ele></ele><time>2017-9-19T6:11:47Z</time></trkpt>
<trkpt lat="48.44309800" lon="2.69619000"><ele></ele><time>2017-9-19T6:11:50Z</time></trkpt>
<trkpt lat="48.44332300" lon="2.69657700"><ele></ele><time>2017-9-19T6:11:53Z</time></trkpt>
<trkpt lat="48.44339200" lon="2.69667300"><ele></ele><time>2017-9-19T6:11:56Z</time></trkpt>
<trkpt lat="48.44342800" lon="2.69671000"><ele></ele><time>2017-9-19T6:11:59Z</time></trkpt>
<trkpt lat="48.44353800" lon="2.69684200"><ele></ele><time>2017-9-19T6:12:2Z</time></trkpt>
<trkpt lat="48.44356000" lon="2.69690000"><ele></ele><time>2017-9-19T6:12:5Z</time></trkpt>
<trkpt lat="48.44356700" lon="2.69695800"><ele></ele><time>2017-9-19T6:12:8Z</time></trkpt>
<trkpt lat="48.44357300" lon="2.69702000"><ele></ele><time>2017-9-19T6:12:11Z</time></trkpt>
<trkpt lat="48.44358200" lon="2.69707600"><ele></ele><time>2017-9-19T6:12:14Z</time></trkpt>
<trkpt lat="48.44360700" lon="2.69712700"><ele></ele><time>2017-9-19T6:12:17Z</time></trkpt>
<trkpt lat="48.44364600" lon="2.69721700"><ele></ele><time>2017-9-19T6:12:20Z</time></trkpt>
<trkpt lat="48.44364500" lon="2.69726200"><ele></ele><time>2017-9-19T6:12:23Z</time></trkpt>
<trkpt lat="48.44363300" lon="2.69729200"><ele></ele><time>2017-9-19T6:12:26Z</time></trkpt>
<trkpt lat="48.44359700" lon="2.69729300"><ele></ele><time>2017-9-19T6:12:29Z</time></trkpt>
<trkpt lat="48.44356700" lon="2.69730500"><ele></ele><time>2017-9-19T6:12:32Z</time></trkpt>
<trkpt lat="48.44354200" lon="2.69732700"><ele></ele><time>2017-9-19T6:12:35Z</time></trkpt>
<trkpt lat="48.44351300" lon="2.69735500"><ele></ele><time>2017-9-19T6:12:38Z</time></trkpt>
<trkpt lat="48.44348500" lon="2.69738800"><ele></ele><time>2017-9-19T6:12:41Z</time></trkpt>
<trkpt lat="48.44341500" lon="2.69743700"><ele></ele><time>2017-9-19T6:12:44Z</time></trkpt>
<trkpt lat="48.44337600" lon="2.69744500"><ele></ele><time>2017-9-19T6:12:47Z</time></trkpt>
<trkpt lat="48.44333700" lon="2.69744000"><ele></ele><time>2017-9-19T6:12:50Z</time></trkpt>
<trkpt lat="48.44326000" lon="2.69743500"><ele></ele><time>2017-9-19T6:12:53Z</time></trkpt>
<trkpt lat="48.44313500" lon="2.69743200"><ele></ele><time>2017-9-19T6:12:56Z</time></trkpt>
<trkpt lat="48.44308800" lon="2.69744300"><ele></ele><time>2017-9-19T6:12:59Z</time></trkpt>
<trkpt lat="48.44305200" lon="2.69746800"><ele></ele><time>2017-9-19T6:13:2Z</time></trkpt>
<trkpt lat="48.44302200" lon="2.69749500"><ele></ele><time>2017-9-19T6:13:5Z</time></trkpt>
<trkpt lat="48.44301300" lon="2.69753800"><ele></ele><time>2017-9-19T6:13:8Z</time></trkpt>
<trkpt lat="48.44300200" lon="2.69766500"><ele></ele><time>2017-9-19T6:13:11Z</time></trkpt>
<trkpt lat="48.44298500" lon="2.69773500"><ele></ele><time>2017-9-19T6:13:14Z</time></trkpt>
<trkpt lat="48.44294200" lon="2.69796300"><ele></ele><time>2017-9-19T6:13:17Z</time></trkpt>
<trkpt lat="48.44296300" lon="2.69799200"><ele></ele><time>2017-9-19T6:13:20Z</time></trkpt>
<trkpt lat="48.44298200" lon="2.69803700"><ele></ele><time>2017-9-19T6:13:23Z</time></trkpt>
<trkpt lat="48.44299200" lon="2.69809300"><ele></ele><time>2017-9-19T6:13:26Z</time></trkpt>
<trkpt lat="48.44298300" lon="2.69816500"><ele></ele><time>2017-9-19T6:13:29Z</time></trkpt>
<trkpt lat="48.44297000" lon="2.69823000"><ele></ele><time>2017-9-19T6:13:32Z</time></trkpt>
<trkpt lat="48.44292800" lon="2.69854000"><ele></ele><time>2017-9-19T6:13:35Z</time></trkpt>
<trkpt lat="48.44295800" lon="2.69861200"><ele></ele><time>2017-9-19T6:13:38Z</time></trkpt>
<trkpt lat="48.44301500" lon="2.69874500"><ele></ele><time>2017-9-19T6:13:41Z</time></trkpt>
<trkpt lat="48.44314200" lon="2.69899200"><ele></ele><time>2017-9-19T6:13:44Z</time></trkpt>
<trkpt lat="48.44317600" lon="2.69902800"><ele></ele><time>2017-9-19T6:13:47Z</time></trkpt>
<trkpt lat="48.44324300" lon="2.69908800"><ele></ele><time>2017-9-19T6:13:50Z</time></trkpt>
<trkpt lat="48.44326700" lon="2.69914300"><ele></ele><time>2017-9-19T6:13:53Z</time></trkpt>
<trkpt lat="48.44328500" lon="2.69920800"><ele></ele><time>2017-9-19T6:13:56Z</time></trkpt>
<trkpt lat="48.44335700" lon="2.69937800"><ele></ele><time>2017-9-19T6:13:59Z</time></trkpt>
<trkpt lat="48.44336800" lon="2.69944000"><ele></ele><time>2017-9-19T6:14:2Z</time></trkpt>
<trkpt lat="48.44341300" lon="2.69955500"><ele></ele><time>2017-9-19T6:14:5Z</time></trkpt>
<trkpt lat="48.44345300" lon="2.69960300"><ele></ele><time>2017-9-19T6:14:8Z</time></trkpt>
<trkpt lat="48.44348000" lon="2.69965700"><ele></ele><time>2017-9-19T6:14:11Z</time></trkpt>
<trkpt lat="48.44361200" lon="2.69994700"><ele></ele><time>2017-9-19T6:14:14Z</time></trkpt>
<trkpt lat="48.44361600" lon="2.70001800"><ele></ele><time>2017-9-19T6:14:17Z</time></trkpt>
<trkpt lat="48.44361200" lon="2.70014800"><ele></ele><time>2017-9-19T6:14:20Z</time></trkpt>
<trkpt lat="48.44360000" lon="2.70034000"><ele></ele><time>2017-9-19T6:14:23Z</time></trkpt>
<trkpt lat="48.44359100" lon="2.70053700"><ele></ele><time>2017-9-19T6:14:26Z</time></trkpt>
<trkpt lat="48.44361200" lon="2.70059000"><ele></ele><time>2017-9-19T6:14:29Z</time></trkpt>
<trkpt lat="48.44362300" lon="2.70064300"><ele></ele><time>2017-9-19T6:14:32Z</time></trkpt>
<trkpt lat="48.44369300" lon="2.70092500"><ele></ele><time>2017-9-19T6:14:35Z</time></trkpt>
<trkpt lat="48.44368700" lon="2.70099700"><ele></ele><time>2017-9-19T6:14:38Z</time></trkpt>
<trkpt lat="48.44367300" lon="2.70105800"><ele></ele><time>2017-9-19T6:14:41Z</time></trkpt>
<trkpt lat="48.44364600" lon="2.70117700"><ele></ele><time>2017-9-19T6:14:44Z</time></trkpt>
<trkpt lat="48.44358300" lon="2.70141300"><ele></ele><time>2017-9-19T6:14:47Z</time></trkpt>
<trkpt lat="48.44355500" lon="2.70154000"><ele></ele><time>2017-9-19T6:14:50Z</time></trkpt>
<trkpt lat="48.44354000" lon="2.70160700"><ele></ele><time>2017-9-19T6:14:53Z</time></trkpt>
<trkpt lat="48.44354000" lon="2.70167300"><ele></ele><time>2017-9-19T6:14:56Z</time></trkpt>
<trkpt lat="48.44353800" lon="2.70189500"><ele></ele><time>2017-9-19T6:14:59Z</time></trkpt>
<trkpt lat="48.44353000" lon="2.70195000"><ele></ele><time>2017-9-19T6:15:2Z</time></trkpt>
<trkpt lat="48.44351000" lon="2.70201300"><ele></ele><time>2017-9-19T6:15:5Z</time></trkpt>
<trkpt lat="48.44348800" lon="2.70207500"><ele></ele><time>2017-9-19T6:15:8Z</time></trkpt>
<trkpt lat="48.44346100" lon="2.70212500"><ele></ele><time>2017-9-19T6:15:11Z</time></trkpt>
<trkpt lat="48.44335000" lon="2.70237300"><ele></ele><time>2017-9-19T6:15:14Z</time></trkpt>
<trkpt lat="48.44333000" lon="2.70242000"><ele></ele><time>2017-9-19T6:15:17Z</time></trkpt>
<trkpt lat="48.44331700" lon="2.70247700"><ele></ele><time>2017-9-19T6:15:20Z</time></trkpt>
<trkpt lat="48.44331000" lon="2.70253700"><ele></ele><time>2017-9-19T6:15:23Z</time></trkpt>
<trkpt lat="48.44329700" lon="2.70266200"><ele></ele><time>2017-9-19T6:15:26Z</time></trkpt>
<trkpt lat="48.44327700" lon="2.70270800"><ele></ele><time>2017-9-19T6:15:29Z</time></trkpt>
<trkpt lat="48.44325300" lon="2.70274700"><ele></ele><time>2017-9-19T6:15:32Z</time></trkpt>
<trkpt lat="48.44316300" lon="2.70288800"><ele></ele><time>2017-9-19T6:15:35Z</time></trkpt>
<trkpt lat="48.44314800" lon="2.70292500"><ele></ele><time>2017-9-19T6:15:38Z</time></trkpt>
<trkpt lat="48.44314000" lon="2.70295500"><ele></ele><time>2017-9-19T6:15:41Z</time></trkpt>
<trkpt lat="48.44313800" lon="2.70297200"><ele></ele><time>2017-9-19T6:15:44Z</time></trkpt>
<trkpt lat="48.44313800" lon="2.70299800"><ele></ele><time>2017-9-19T6:15:47Z</time></trkpt>
<trkpt lat="48.44314800" lon="2.70301500"><ele></ele><time>2017-9-19T6:15:50Z</time></trkpt>
<trkpt lat="48.44315500" lon="2.70303000"><ele></ele><time>2017-9-19T6:15:53Z</time></trkpt>
<trkpt lat="48.44315800" lon="2.70304500"><ele></ele><time>2017-9-19T6:15:56Z</time></trkpt>
<trkpt lat="48.44317200" lon="2.70304700"><ele></ele><time>2017-9-19T6:15:59Z</time></trkpt>
<trkpt lat="48.44318200" lon="2.70304700"><ele></ele><time>2017-9-19T6:16:2Z</time></trkpt>
<trkpt lat="48.44318800" lon="2.70304800"><ele></ele><time>2017-9-19T6:16:5Z</time></trkpt>
<trkpt lat="48.44319700" lon="2.70304800"><ele></ele><time>2017-9-19T6:16:8Z</time></trkpt>
<trkpt lat="48.44320700" lon="2.70305000"><ele></ele><time>2017-9-19T6:16:11Z</time></trkpt>
<trkpt lat="48.44321000" lon="2.70304700"><ele></ele><time>2017-9-19T6:16:14Z</time></trkpt>
<trkpt lat="48.44320800" lon="2.70305200"><ele></ele><time>2017-9-19T6:16:17Z</time></trkpt>
<trkpt lat="48.44321000" lon="2.70305300"><ele></ele><time>2017-9-19T6:16:20Z</time></trkpt>
<trkpt lat="48.44321300" lon="2.70306300"><ele></ele><time>2017-9-19T6:16:23Z</time></trkpt>
<trkpt lat="48.44323300" lon="2.70310300"><ele></ele><time>2017-9-19T6:16:26Z</time></trkpt>
<trkpt lat="48.44323600" lon="2.70312500"><ele></ele><time>2017-9-19T6:16:29Z</time></trkpt>
<trkpt lat="48.44324300" lon="2.70315500"><ele></ele><time>2017-9-19T6:16:32Z</time></trkpt>
<trkpt lat="48.44326500" lon="2.70319500"><ele></ele><time>2017-9-19T6:16:35Z</time></trkpt>
<trkpt lat="48.44336500" lon="2.70343700"><ele></ele><time>2017-9-19T6:16:38Z</time></trkpt>
<trkpt lat="48.44338700" lon="2.70349200"><ele></ele><time>2017-9-19T6:16:41Z</time></trkpt>
<trkpt lat="48.44344700" lon="2.70370700"><ele></ele><time>2017-9-19T6:16:44Z</time></trkpt>
<trkpt lat="48.44345500" lon="2.70376500"><ele></ele><time>2017-9-19T6:16:47Z</time></trkpt>
<trkpt lat="48.44347000" lon="2.70381800"><ele></ele><time>2017-9-19T6:16:50Z</time></trkpt>
<trkpt lat="48.44365500" lon="2.70448200"><ele></ele><time>2017-9-19T6:16:53Z</time></trkpt>
<trkpt lat="48.44368000" lon="2.70452000"><ele></ele><time>2017-9-19T6:16:56Z</time></trkpt>
<trkpt lat="48.44371000" lon="2.70455200"><ele></ele><time>2017-9-19T6:16:59Z</time></trkpt>
<trkpt lat="48.44395600" lon="2.70478000"><ele></ele><time>2017-9-19T6:17:2Z</time></trkpt>
<trkpt lat="48.44431200" lon="2.70521700"><ele></ele><time>2017-9-19T6:17:5Z</time></trkpt>
<trkpt lat="48.44434700" lon="2.70526000"><ele></ele><time>2017-9-19T6:17:8Z</time></trkpt>
<trkpt lat="48.44437500" lon="2.70530800"><ele></ele><time>2017-9-19T6:17:11Z</time></trkpt>
<trkpt lat="48.44447800" lon="2.70546500"><ele></ele><time>2017-9-19T6:17:14Z</time></trkpt>
<trkpt lat="48.44451100" lon="2.70552200"><ele></ele><time>2017-9-19T6:17:17Z</time></trkpt>
<trkpt lat="48.44453600" lon="2.70558200"><ele></ele><time>2017-9-19T6:17:20Z</time></trkpt>
<trkpt lat="48.44458200" lon="2.70568800"><ele></ele><time>2017-9-19T6:17:23Z</time></trkpt>
<trkpt lat="48.44461000" lon="2.70573000"><ele></ele><time>2017-9-19T6:17:26Z</time></trkpt>
<trkpt lat="48.44464600" lon="2.70576800"><ele></ele><time>2017-9-19T6:17:29Z</time></trkpt>
<trkpt lat="48.44466700" lon="2.70581800"><ele></ele><time>2017-9-19T6:17:32Z</time></trkpt>
<trkpt lat="48.44466800" lon="2.70587800"><ele></ele><time>2017-9-19T6:17:35Z</time></trkpt>
<trkpt lat="48.44467300" lon="2.70593800"><ele></ele><time>2017-9-19T6:17:38Z</time></trkpt>
<trkpt lat="48.44468200" lon="2.70599700"><ele></ele><time>2017-9-19T6:17:41Z</time></trkpt>
<trkpt lat="48.44470000" lon="2.70605000"><ele></ele><time>2017-9-19T6:17:44Z</time></trkpt>
<trkpt lat="48.44472800" lon="2.70610700"><ele></ele><time>2017-9-19T6:17:47Z</time></trkpt>
<trkpt lat="48.44480700" lon="2.70625800"><ele></ele><time>2017-9-19T6:17:50Z</time></trkpt>
<trkpt lat="48.44482000" lon="2.70631800"><ele></ele><time>2017-9-19T6:17:53Z</time></trkpt>
<trkpt lat="48.44483200" lon="2.70637800"><ele></ele><time>2017-9-19T6:17:56Z</time></trkpt>
<trkpt lat="48.44485100" lon="2.70642700"><ele></ele><time>2017-9-19T6:17:59Z</time></trkpt>
<trkpt lat="48.44488700" lon="2.70646800"><ele></ele><time>2017-9-19T6:18:2Z</time></trkpt>
<trkpt lat="48.44490700" lon="2.70647800"><ele></ele><time>2017-9-19T6:18:5Z</time></trkpt>
<trkpt lat="48.44493000" lon="2.70648000"><ele></ele><time>2017-9-19T6:18:8Z</time></trkpt>
<trkpt lat="48.44499700" lon="2.70648200"><ele></ele><time>2017-9-19T6:18:11Z</time></trkpt>
<trkpt lat="48.44503500" lon="2.70647300"><ele></ele><time>2017-9-19T6:18:14Z</time></trkpt>
<trkpt lat="48.44516000" lon="2.70644800"><ele></ele><time>2017-9-19T6:18:17Z</time></trkpt>
<trkpt lat="48.44520000" lon="2.70646500"><ele></ele><time>2017-9-19T6:18:20Z</time></trkpt>
<trkpt lat="48.44524800" lon="2.70649200"><ele></ele><time>2017-9-19T6:18:23Z</time></trkpt>
<trkpt lat="48.44527600" lon="2.70653200"><ele></ele><time>2017-9-19T6:18:26Z</time></trkpt>
<trkpt lat="48.44531300" lon="2.70657200"><ele></ele><time>2017-9-19T6:18:29Z</time></trkpt>
<trkpt lat="48.44540000" lon="2.70663200"><ele></ele><time>2017-9-19T6:18:32Z</time></trkpt>
<trkpt lat="48.44570300" lon="2.70678000"><ele></ele><time>2017-9-19T6:18:35Z</time></trkpt>
<trkpt lat="48.44572700" lon="2.70677200"><ele></ele><time>2017-9-19T6:18:38Z</time></trkpt>
<trkpt lat="48.44578000" lon="2.70675800"><ele></ele><time>2017-9-19T6:18:41Z</time></trkpt>
<trkpt lat="48.44581700" lon="2.70676300"><ele></ele><time>2017-9-19T6:18:44Z</time></trkpt>
<trkpt lat="48.44585200" lon="2.70678200"><ele></ele><time>2017-9-19T6:18:47Z</time></trkpt>
<trkpt lat="48.44606700" lon="2.70689200"><ele></ele><time>2017-9-19T6:18:50Z</time></trkpt>
<trkpt lat="48.44614000" lon="2.70693500"><ele></ele><time>2017-9-19T6:18:53Z</time></trkpt>
<trkpt lat="48.44617800" lon="2.70694200"><ele></ele><time>2017-9-19T6:18:56Z</time></trkpt>
<trkpt lat="48.44628500" lon="2.70695000"><ele></ele><time>2017-9-19T6:18:59Z</time></trkpt>
<trkpt lat="48.44630700" lon="2.70698300"><ele></ele><time>2017-9-19T6:19:2Z</time></trkpt>
<trkpt lat="48.44632700" lon="2.70702000"><ele></ele><time>2017-9-19T6:19:5Z</time></trkpt>
<trkpt lat="48.44633500" lon="2.70706700"><ele></ele><time>2017-9-19T6:19:8Z</time></trkpt>
<trkpt lat="48.44632300" lon="2.70712000"><ele></ele><time>2017-9-19T6:19:11Z</time></trkpt>
<trkpt lat="48.44630700" lon="2.70722500"><ele></ele><time>2017-9-19T6:19:14Z</time></trkpt>
<trkpt lat="48.44630800" lon="2.70727800"><ele></ele><time>2017-9-19T6:19:17Z</time></trkpt>
<trkpt lat="48.44632000" lon="2.70737800"><ele></ele><time>2017-9-19T6:19:20Z</time></trkpt>
<trkpt lat="48.44632800" lon="2.70742300"><ele></ele><time>2017-9-19T6:19:23Z</time></trkpt>
<trkpt lat="48.44634200" lon="2.70745000"><ele></ele><time>2017-9-19T6:19:26Z</time></trkpt>
<trkpt lat="48.44637300" lon="2.70745000"><ele></ele><time>2017-9-19T6:19:29Z</time></trkpt>
<trkpt lat="48.44640000" lon="2.70743500"><ele></ele><time>2017-9-19T6:19:32Z</time></trkpt>
<trkpt lat="48.44642300" lon="2.70742300"><ele></ele><time>2017-9-19T6:19:35Z</time></trkpt>
<trkpt lat="48.44644200" lon="2.70743200"><ele></ele><time>2017-9-19T6:19:38Z</time></trkpt>
<trkpt lat="48.44644000" lon="2.70746000"><ele></ele><time>2017-9-19T6:19:41Z</time></trkpt>
<trkpt lat="48.44642700" lon="2.70763200"><ele></ele><time>2017-9-19T6:19:44Z</time></trkpt>
<trkpt lat="48.44644200" lon="2.70767700"><ele></ele><time>2017-9-19T6:19:47Z</time></trkpt>
<trkpt lat="48.44647000" lon="2.70776200"><ele></ele><time>2017-9-19T6:19:50Z</time></trkpt>
<trkpt lat="48.44647800" lon="2.70780300"><ele></ele><time>2017-9-19T6:19:53Z</time></trkpt>
<trkpt lat="48.44647500" lon="2.70784200"><ele></ele><time>2017-9-19T6:19:56Z</time></trkpt>
<trkpt lat="48.44647700" lon="2.70788200"><ele></ele><time>2017-9-19T6:19:59Z</time></trkpt>
<trkpt lat="48.44649000" lon="2.70792100"><ele></ele><time>2017-9-19T6:20:2Z</time></trkpt>
<trkpt lat="48.44657800" lon="2.70816700"><ele></ele><time>2017-9-19T6:20:5Z</time></trkpt>
<trkpt lat="48.44667200" lon="2.70845700"><ele></ele><time>2017-9-19T6:20:8Z</time></trkpt>
<trkpt lat="48.44669800" lon="2.70857700"><ele></ele><time>2017-9-19T6:20:11Z</time></trkpt>
<trkpt lat="48.44673000" lon="2.70876300"><ele></ele><time>2017-9-19T6:20:14Z</time></trkpt>
<trkpt lat="48.44672800" lon="2.70882300"><ele></ele><time>2017-9-19T6:20:17Z</time></trkpt>
<trkpt lat="48.44672300" lon="2.70887800"><ele></ele><time>2017-9-19T6:20:20Z</time></trkpt>
<trkpt lat="48.44670300" lon="2.70897000"><ele></ele><time>2017-9-19T6:20:23Z</time></trkpt>
<trkpt lat="48.44660300" lon="2.70944000"><ele></ele><time>2017-9-19T6:20:26Z</time></trkpt>
<trkpt lat="48.44660000" lon="2.70950200"><ele></ele><time>2017-9-19T6:20:29Z</time></trkpt>
<trkpt lat="48.44659200" lon="2.70955700"><ele></ele><time>2017-9-19T6:20:32Z</time></trkpt>
<trkpt lat="48.44657500" lon="2.70960500"><ele></ele><time>2017-9-19T6:20:35Z</time></trkpt>
<trkpt lat="48.44655500" lon="2.70965500"><ele></ele><time>2017-9-19T6:20:38Z</time></trkpt>
<trkpt lat="48.44649000" lon="2.70983200"><ele></ele><time>2017-9-19T6:20:41Z</time></trkpt>
<trkpt lat="48.44647300" lon="2.70988300"><ele></ele><time>2017-9-19T6:20:44Z</time></trkpt>
<trkpt lat="48.44637800" lon="2.71019300"><ele></ele><time>2017-9-19T6:20:47Z</time></trkpt>
<trkpt lat="48.44637100" lon="2.71023700"><ele></ele><time>2017-9-19T6:20:50Z</time></trkpt>
<trkpt lat="48.44634800" lon="2.71050300"><ele></ele><time>2017-9-19T6:20:53Z</time></trkpt>
<trkpt lat="48.44634300" lon="2.71056300"><ele></ele><time>2017-9-19T6:20:56Z</time></trkpt>
<trkpt lat="48.44636200" lon="2.71062700"><ele></ele><time>2017-9-19T6:20:59Z</time></trkpt>
<trkpt lat="48.44639000" lon="2.71073800"><ele></ele><time>2017-9-19T6:21:2Z</time></trkpt>
<trkpt lat="48.44639600" lon="2.71079600"><ele></ele><time>2017-9-19T6:21:5Z</time></trkpt>
<trkpt lat="48.44639500" lon="2.71085700"><ele></ele><time>2017-9-19T6:21:8Z</time></trkpt>
<trkpt lat="48.44639300" lon="2.71100700"><ele></ele><time>2017-9-19T6:21:11Z</time></trkpt>
<trkpt lat="48.44638800" lon="2.71104500"><ele></ele><time>2017-9-19T6:21:14Z</time></trkpt>
<trkpt lat="48.44637000" lon="2.71119000"><ele></ele><time>2017-9-19T6:21:17Z</time></trkpt>
<trkpt lat="48.44637100" lon="2.71121800"><ele></ele><time>2017-9-19T6:21:20Z</time></trkpt>
<trkpt lat="48.44637100" lon="2.71124700"><ele></ele><time>2017-9-19T6:21:23Z</time></trkpt>
<trkpt lat="48.44637300" lon="2.71127000"><ele></ele><time>2017-9-19T6:21:26Z</time></trkpt>
<trkpt lat="48.44637000" lon="2.71128600"><ele></ele><time>2017-9-19T6:21:29Z</time></trkpt>
<trkpt lat="48.44636500" lon="2.71129800"><ele></ele><time>2017-9-19T6:21:32Z</time></trkpt>
<trkpt lat="48.44635100" lon="2.71132200"><ele></ele><time>2017-9-19T6:21:35Z</time></trkpt>
<trkpt lat="48.44633300" lon="2.71134700"><ele></ele><time>2017-9-19T6:21:38Z</time></trkpt>
<trkpt lat="48.44631800" lon="2.71136000"><ele></ele><time>2017-9-19T6:21:41Z</time></trkpt>
<trkpt lat="48.44630300" lon="2.71137700"><ele></ele><time>2017-9-19T6:21:44Z</time></trkpt>
<trkpt lat="48.44628800" lon="2.71139000"><ele></ele><time>2017-9-19T6:21:47Z</time></trkpt>
<trkpt lat="48.44627200" lon="2.71140200"><ele></ele><time>2017-9-19T6:21:50Z</time></trkpt>
<trkpt lat="48.44625300" lon="2.71141300"><ele></ele><time>2017-9-19T6:21:53Z</time></trkpt>
<trkpt lat="48.44623800" lon="2.71141300"><ele></ele><time>2017-9-19T6:21:56Z</time></trkpt>
<trkpt lat="48.44621800" lon="2.71142300"><ele></ele><time>2017-9-19T6:21:59Z</time></trkpt>
<trkpt lat="48.44620200" lon="2.71143300"><ele></ele><time>2017-9-19T6:22:2Z</time></trkpt>
<trkpt lat="48.44618500" lon="2.71143700"><ele></ele><time>2017-9-19T6:22:5Z</time></trkpt>
<trkpt lat="48.44617000" lon="2.71144300"><ele></ele><time>2017-9-19T6:22:8Z</time></trkpt>
<trkpt lat="48.44615700" lon="2.71145500"><ele></ele><time>2017-9-19T6:22:11Z</time></trkpt>
<trkpt lat="48.44614600" lon="2.71147300"><ele></ele><time>2017-9-19T6:22:14Z</time></trkpt>
<trkpt lat="48.44613500" lon="2.71148600"><ele></ele><time>2017-9-19T6:22:17Z</time></trkpt>
<trkpt lat="48.44612300" lon="2.71150200"><ele></ele><time>2017-9-19T6:22:20Z</time></trkpt>
<trkpt lat="48.44611200" lon="2.71152500"><ele></ele><time>2017-9-19T6:22:23Z</time></trkpt>
<trkpt lat="48.44610300" lon="2.71154800"><ele></ele><time>2017-9-19T6:22:26Z</time></trkpt>
<trkpt lat="48.44609800" lon="2.71157500"><ele></ele><time>2017-9-19T6:22:29Z</time></trkpt>
<trkpt lat="48.44608800" lon="2.71159700"><ele></ele><time>2017-9-19T6:22:32Z</time></trkpt>
<trkpt lat="48.44608000" lon="2.71162000"><ele></ele><time>2017-9-19T6:22:35Z</time></trkpt>
<trkpt lat="48.44607500" lon="2.71164000"><ele></ele><time>2017-9-19T6:22:38Z</time></trkpt>
<trkpt lat="48.44607300" lon="2.71166300"><ele></ele><time>2017-9-19T6:22:41Z</time></trkpt>
<trkpt lat="48.44607800" lon="2.71170000"><ele></ele><time>2017-9-19T6:22:44Z</time></trkpt>
<trkpt lat="48.44608500" lon="2.71176000"><ele></ele><time>2017-9-19T6:22:47Z</time></trkpt>
<trkpt lat="48.44608600" lon="2.71178500"><ele></ele><time>2017-9-19T6:22:50Z</time></trkpt>
<trkpt lat="48.44609300" lon="2.71194700"><ele></ele><time>2017-9-19T6:22:53Z</time></trkpt>
<trkpt lat="48.44609700" lon="2.71220000"><ele></ele><time>2017-9-19T6:22:56Z</time></trkpt>
<trkpt lat="48.44611000" lon="2.71231500"><ele></ele><time>2017-9-19T6:22:59Z</time></trkpt>
<trkpt lat="48.44612500" lon="2.71236000"><ele></ele><time>2017-9-19T6:23:2Z</time></trkpt>
<trkpt lat="48.44615100" lon="2.71239500"><ele></ele><time>2017-9-19T6:23:5Z</time></trkpt>
<trkpt lat="48.44618700" lon="2.71242800"><ele></ele><time>2017-9-19T6:23:8Z</time></trkpt>
<trkpt lat="48.44630300" lon="2.71255200"><ele></ele><time>2017-9-19T6:23:11Z</time></trkpt>
<trkpt lat="48.44631200" lon="2.71260500"><ele></ele><time>2017-9-19T6:23:14Z</time></trkpt>
<trkpt lat="48.44633300" lon="2.71278700"><ele></ele><time>2017-9-19T6:23:17Z</time></trkpt>
<trkpt lat="48.44634800" lon="2.71285000"><ele></ele><time>2017-9-19T6:23:20Z</time></trkpt>
<trkpt lat="48.44636700" lon="2.71291300"><ele></ele><time>2017-9-19T6:23:23Z</time></trkpt>
<trkpt lat="48.44639200" lon="2.71304700"><ele></ele><time>2017-9-19T6:23:26Z</time></trkpt>
<trkpt lat="48.44639000" lon="2.71311500"><ele></ele><time>2017-9-19T6:23:29Z</time></trkpt>
<trkpt lat="48.44639300" lon="2.71331500"><ele></ele><time>2017-9-19T6:23:32Z</time></trkpt>
<trkpt lat="48.44637500" lon="2.71345300"><ele></ele><time>2017-9-19T6:23:35Z</time></trkpt>
<trkpt lat="48.44638200" lon="2.71364800"><ele></ele><time>2017-9-19T6:23:38Z</time></trkpt>
<trkpt lat="48.44641000" lon="2.71369500"><ele></ele><time>2017-9-19T6:23:41Z</time></trkpt>
<trkpt lat="48.44650200" lon="2.71383500"><ele></ele><time>2017-9-19T6:23:44Z</time></trkpt>
<trkpt lat="48.44651500" lon="2.71388500"><ele></ele><time>2017-9-19T6:23:47Z</time></trkpt>
<trkpt lat="48.44651800" lon="2.71394200"><ele></ele><time>2017-9-19T6:23:50Z</time></trkpt>
<trkpt lat="48.44654600" lon="2.71405000"><ele></ele><time>2017-9-19T6:23:53Z</time></trkpt>
<trkpt lat="48.44657600" lon="2.71408300"><ele></ele><time>2017-9-19T6:23:56Z</time></trkpt>
<trkpt lat="48.44661000" lon="2.71410800"><ele></ele><time>2017-9-19T6:23:59Z</time></trkpt>
<trkpt lat="48.44663800" lon="2.71412700"><ele></ele><time>2017-9-19T6:24:2Z</time></trkpt>
<trkpt lat="48.44668000" lon="2.71414300"><ele></ele><time>2017-9-19T6:24:5Z</time></trkpt>
<trkpt lat="48.44671000" lon="2.71414200"><ele></ele><time>2017-9-19T6:24:8Z</time></trkpt>
<trkpt lat="48.44674800" lon="2.71413700"><ele></ele><time>2017-9-19T6:24:11Z</time></trkpt>
<trkpt lat="48.44678200" lon="2.71412500"><ele></ele><time>2017-9-19T6:24:14Z</time></trkpt>
<trkpt lat="48.44682300" lon="2.71410700"><ele></ele><time>2017-9-19T6:24:17Z</time></trkpt>
<trkpt lat="48.44690700" lon="2.71407800"><ele></ele><time>2017-9-19T6:24:20Z</time></trkpt>
<trkpt lat="48.44694200" lon="2.71409300"><ele></ele><time>2017-9-19T6:24:23Z</time></trkpt>
<trkpt lat="48.44696800" lon="2.71412500"><ele></ele><time>2017-9-19T6:24:26Z</time></trkpt>
<trkpt lat="48.44700100" lon="2.71415200"><ele></ele><time>2017-9-19T6:24:29Z</time></trkpt>
<trkpt lat="48.44702800" lon="2.71416000"><ele></ele><time>2017-9-19T6:24:32Z</time></trkpt>
<trkpt lat="48.44705500" lon="2.71416800"><ele></ele><time>2017-9-19T6:24:35Z</time></trkpt>
<trkpt lat="48.44707800" lon="2.71419000"><ele></ele><time>2017-9-19T6:24:38Z</time></trkpt>
<trkpt lat="48.44713200" lon="2.71424500"><ele></ele><time>2017-9-19T6:24:41Z</time></trkpt>
<trkpt lat="48.44717300" lon="2.71428300"><ele></ele><time>2017-9-19T6:24:44Z</time></trkpt>
<trkpt lat="48.44718800" lon="2.71428800"><ele></ele><time>2017-9-19T6:24:47Z</time></trkpt>
<trkpt lat="48.44717800" lon="2.71428700"><ele></ele><time>2017-9-19T6:24:50Z</time></trkpt>
<trkpt lat="48.44714800" lon="2.71428300"><ele></ele><time>2017-9-19T6:24:53Z</time></trkpt>
<trkpt lat="48.44714200" lon="2.71428200"><ele></ele><time>2017-9-19T6:24:56Z</time></trkpt>
<trkpt lat="48.44714200" lon="2.71428200"><ele></ele><time>2017-9-19T6:24:59Z</time></trkpt>
<trkpt lat="48.44714200" lon="2.71428200"><ele></ele><time>2017-9-19T6:25:2Z</time></trkpt>
<trkpt lat="48.44714000" lon="2.71428000"><ele></ele><time>2017-9-19T6:25:5Z</time></trkpt>
<trkpt lat="48.44713800" lon="2.71428000"><ele></ele><time>2017-9-19T6:25:8Z</time></trkpt>
<trkpt lat="48.44713700" lon="2.71428000"><ele></ele><time>2017-9-19T6:25:11Z</time></trkpt>
<trkpt lat="48.44712800" lon="2.71427800"><ele></ele><time>2017-9-19T6:25:14Z</time></trkpt>
<trkpt lat="48.44712300" lon="2.71427600"><ele></ele><time>2017-9-19T6:25:17Z</time></trkpt>
<trkpt lat="48.44712500" lon="2.71428000"><ele></ele><time>2017-9-19T6:25:20Z</time></trkpt>
<trkpt lat="48.44713800" lon="2.71428700"><ele></ele><time>2017-9-19T6:25:23Z</time></trkpt>
<trkpt lat="48.44715100" lon="2.71429700"><ele></ele><time>2017-9-19T6:25:26Z</time></trkpt>
<trkpt lat="48.44715800" lon="2.71430200"><ele></ele><time>2017-9-19T6:25:29Z</time></trkpt>
<trkpt lat="48.44716300" lon="2.71430500"><ele></ele><time>2017-9-19T6:25:32Z</time></trkpt>
<trkpt lat="48.44716700" lon="2.71430800"><ele></ele><time>2017-9-19T6:25:35Z</time></trkpt>
<trkpt lat="48.44717000" lon="2.71431000"><ele></ele><time>2017-9-19T6:25:38Z</time></trkpt>
<trkpt lat="48.44717200" lon="2.71431300"><ele></ele><time>2017-9-19T6:25:41Z</time></trkpt>
<trkpt lat="48.44718700" lon="2.71431700"><ele></ele><time>2017-9-19T6:25:44Z</time></trkpt>
<trkpt lat="48.44719000" lon="2.71432300"><ele></ele><time>2017-9-19T6:25:47Z</time></trkpt>
<trkpt lat="48.44719500" lon="2.71433300"><ele></ele><time>2017-9-19T6:25:50Z</time></trkpt>
<trkpt lat="48.44722700" lon="2.71435300"><ele></ele><time>2017-9-19T6:25:53Z</time></trkpt>
<trkpt lat="48.44736000" lon="2.71442300"><ele></ele><time>2017-9-19T6:25:56Z</time></trkpt>
<trkpt lat="48.44748000" lon="2.71446800"><ele></ele><time>2017-9-19T6:25:59Z</time></trkpt>
<trkpt lat="48.44749500" lon="2.71446500"><ele></ele><time>2017-9-19T6:26:2Z</time></trkpt>
<trkpt lat="48.44751600" lon="2.71446000"><ele></ele><time>2017-9-19T6:26:5Z</time></trkpt>
<trkpt lat="48.44752300" lon="2.71446300"><ele></ele><time>2017-9-19T6:26:8Z</time></trkpt>
<trkpt lat="48.44752800" lon="2.71446200"><ele></ele><time>2017-9-19T6:26:11Z</time></trkpt>
<trkpt lat="48.44753500" lon="2.71445200"><ele></ele><time>2017-9-19T6:26:14Z</time></trkpt>
<trkpt lat="48.44754800" lon="2.71443700"><ele></ele><time>2017-9-19T6:26:17Z</time></trkpt>
<trkpt lat="48.44755000" lon="2.71442300"><ele></ele><time>2017-9-19T6:26:20Z</time></trkpt>
<trkpt lat="48.44755300" lon="2.71441300"><ele></ele><time>2017-9-19T6:26:23Z</time></trkpt>
<trkpt lat="48.44756000" lon="2.71440300"><ele></ele><time>2017-9-19T6:26:26Z</time></trkpt>
<trkpt lat="48.44757300" lon="2.71439000"><ele></ele><time>2017-9-19T6:26:29Z</time></trkpt>
<trkpt lat="48.44759000" lon="2.71438200"><ele></ele><time>2017-9-19T6:26:32Z</time></trkpt>
<trkpt lat="48.44761200" lon="2.71438200"><ele></ele><time>2017-9-19T6:26:35Z</time></trkpt>
<trkpt lat="48.44763700" lon="2.71437700"><ele></ele><time>2017-9-19T6:26:38Z</time></trkpt>
<trkpt lat="48.44766500" lon="2.71436500"><ele></ele><time>2017-9-19T6:26:41Z</time></trkpt>
<trkpt lat="48.44771700" lon="2.71434500"><ele></ele><time>2017-9-19T6:26:44Z</time></trkpt>
<trkpt lat="48.44773500" lon="2.71434200"><ele></ele><time>2017-9-19T6:26:47Z</time></trkpt>
<trkpt lat="48.44775500" lon="2.71434500"><ele></ele><time>2017-9-19T6:26:50Z</time></trkpt>
<trkpt lat="48.44777300" lon="2.71435200"><ele></ele><time>2017-9-19T6:26:53Z</time></trkpt>
<trkpt lat="48.44779500" lon="2.71436500"><ele></ele><time>2017-9-19T6:26:56Z</time></trkpt>
<trkpt lat="48.44782300" lon="2.71438500"><ele></ele><time>2017-9-19T6:26:59Z</time></trkpt>
<trkpt lat="48.44785700" lon="2.71440300"><ele></ele><time>2017-9-19T6:27:2Z</time></trkpt>
<trkpt lat="48.44788500" lon="2.71441200"><ele></ele><time>2017-9-19T6:27:5Z</time></trkpt>
<trkpt lat="48.44790700" lon="2.71440800"><ele></ele><time>2017-9-19T6:27:8Z</time></trkpt>
<trkpt lat="48.44793000" lon="2.71441300"><ele></ele><time>2017-9-19T6:27:11Z</time></trkpt>
<trkpt lat="48.44795500" lon="2.71442800"><ele></ele><time>2017-9-19T6:27:14Z</time></trkpt>
<trkpt lat="48.44797700" lon="2.71444800"><ele></ele><time>2017-9-19T6:27:17Z</time></trkpt>
<trkpt lat="48.44808200" lon="2.71450600"><ele></ele><time>2017-9-19T6:27:20Z</time></trkpt>
<trkpt lat="48.44821000" lon="2.71456700"><ele></ele><time>2017-9-19T6:27:23Z</time></trkpt>
<trkpt lat="48.44822500" lon="2.71456800"><ele></ele><time>2017-9-19T6:27:26Z</time></trkpt>
<trkpt lat="48.44823200" lon="2.71457300"><ele></ele><time>2017-9-19T6:27:29Z</time></trkpt>
<trkpt lat="48.44823700" lon="2.71458000"><ele></ele><time>2017-9-19T6:27:32Z</time></trkpt>
<trkpt lat="48.44824300" lon="2.71459500"><ele></ele><time>2017-9-19T6:27:35Z</time></trkpt>
<trkpt lat="48.44823700" lon="2.71461000"><ele></ele><time>2017-9-19T6:27:38Z</time></trkpt>
<trkpt lat="48.44822700" lon="2.71463000"><ele></ele><time>2017-9-19T6:27:41Z</time></trkpt>
<trkpt lat="48.44821300" lon="2.71465200"><ele></ele><time>2017-9-19T6:27:44Z</time></trkpt>
<trkpt lat="48.44820200" lon="2.71468000"><ele></ele><time>2017-9-19T6:27:47Z</time></trkpt>
<trkpt lat="48.44818300" lon="2.71474500"><ele></ele><time>2017-9-19T6:27:50Z</time></trkpt>
<trkpt lat="48.44801700" lon="2.71530700"><ele></ele><time>2017-9-19T6:27:53Z</time></trkpt>
<trkpt lat="48.44801300" lon="2.71535300"><ele></ele><time>2017-9-19T6:27:56Z</time></trkpt>
<trkpt lat="48.44801300" lon="2.71540500"><ele></ele><time>2017-9-19T6:27:59Z</time></trkpt>
<trkpt lat="48.44801300" lon="2.71545700"><ele></ele><time>2017-9-19T6:28:2Z</time></trkpt>
<trkpt lat="48.44801000" lon="2.71551500"><ele></ele><time>2017-9-19T6:28:5Z</time></trkpt>
<trkpt lat="48.44799500" lon="2.71557700"><ele></ele><time>2017-9-19T6:28:8Z</time></trkpt>
<trkpt lat="48.44794800" lon="2.71580000"><ele></ele><time>2017-9-19T6:28:11Z</time></trkpt>
<trkpt lat="48.44794300" lon="2.71585500"><ele></ele><time>2017-9-19T6:28:14Z</time></trkpt>
<trkpt lat="48.44793500" lon="2.71591200"><ele></ele><time>2017-9-19T6:28:17Z</time></trkpt>
<trkpt lat="48.44792700" lon="2.71594800"><ele></ele><time>2017-9-19T6:28:20Z</time></trkpt>
<trkpt lat="48.44791000" lon="2.71596800"><ele></ele><time>2017-9-19T6:28:23Z</time></trkpt>
<trkpt lat="48.44789000" lon="2.71598200"><ele></ele><time>2017-9-19T6:28:26Z</time></trkpt>
<trkpt lat="48.44787500" lon="2.71599000"><ele></ele><time>2017-9-19T6:28:29Z</time></trkpt>
<trkpt lat="48.44786000" lon="2.71600200"><ele></ele><time>2017-9-19T6:28:32Z</time></trkpt>
<trkpt lat="48.44784300" lon="2.71602500"><ele></ele><time>2017-9-19T6:28:35Z</time></trkpt>
<trkpt lat="48.44773000" lon="2.71619000"><ele></ele><time>2017-9-19T6:28:38Z</time></trkpt>
<trkpt lat="48.44771300" lon="2.71622700"><ele></ele><time>2017-9-19T6:28:41Z</time></trkpt>
<trkpt lat="48.44768700" lon="2.71629200"><ele></ele><time>2017-9-19T6:28:44Z</time></trkpt>
<trkpt lat="48.44766600" lon="2.71631800"><ele></ele><time>2017-9-19T6:28:47Z</time></trkpt>
<trkpt lat="48.44763300" lon="2.71634700"><ele></ele><time>2017-9-19T6:28:50Z</time></trkpt>
<trkpt lat="48.44749000" lon="2.71647000"><ele></ele><time>2017-9-19T6:28:53Z</time></trkpt>
<trkpt lat="48.44745500" lon="2.71650700"><ele></ele><time>2017-9-19T6:28:56Z</time></trkpt>
<trkpt lat="48.44743700" lon="2.71655200"><ele></ele><time>2017-9-19T6:28:59Z</time></trkpt>
<trkpt lat="48.44742700" lon="2.71660800"><ele></ele><time>2017-9-19T6:29:2Z</time></trkpt>
<trkpt lat="48.44743300" lon="2.71665700"><ele></ele><time>2017-9-19T6:29:5Z</time></trkpt>
<trkpt lat="48.44744300" lon="2.71670800"><ele></ele><time>2017-9-19T6:29:8Z</time></trkpt>
<trkpt lat="48.44745500" lon="2.71675800"><ele></ele><time>2017-9-19T6:29:11Z</time></trkpt>
<trkpt lat="48.44751500" lon="2.71696200"><ele></ele><time>2017-9-19T6:29:14Z</time></trkpt>
<trkpt lat="48.44752500" lon="2.71701000"><ele></ele><time>2017-9-19T6:29:17Z</time></trkpt>
<trkpt lat="48.44754200" lon="2.71708700"><ele></ele><time>2017-9-19T6:29:20Z</time></trkpt>
<trkpt lat="48.44755200" lon="2.71712200"><ele></ele><time>2017-9-19T6:29:23Z</time></trkpt>
<trkpt lat="48.44756100" lon="2.71715000"><ele></ele><time>2017-9-19T6:29:26Z</time></trkpt>
<trkpt lat="48.44757300" lon="2.71717800"><ele></ele><time>2017-9-19T6:29:29Z</time></trkpt>
<trkpt lat="48.44757800" lon="2.71721500"><ele></ele><time>2017-9-19T6:29:32Z</time></trkpt>
<trkpt lat="48.44758000" lon="2.71729000"><ele></ele><time>2017-9-19T6:29:35Z</time></trkpt>
<trkpt lat="48.44757500" lon="2.71732800"><ele></ele><time>2017-9-19T6:29:38Z</time></trkpt>
<trkpt lat="48.44755300" lon="2.71740000"><ele></ele><time>2017-9-19T6:29:41Z</time></trkpt>
<trkpt lat="48.44753800" lon="2.71744000"><ele></ele><time>2017-9-19T6:29:44Z</time></trkpt>
<trkpt lat="48.44753000" lon="2.71749000"><ele></ele><time>2017-9-19T6:29:47Z</time></trkpt>
<trkpt lat="48.44752800" lon="2.71754500"><ele></ele><time>2017-9-19T6:29:50Z</time></trkpt>
<trkpt lat="48.44749000" lon="2.71793500"><ele></ele><time>2017-9-19T6:29:53Z</time></trkpt>
<trkpt lat="48.44749000" lon="2.71799700"><ele></ele><time>2017-9-19T6:29:56Z</time></trkpt>
<trkpt lat="48.44751000" lon="2.71804800"><ele></ele><time>2017-9-19T6:29:59Z</time></trkpt>
<trkpt lat="48.44753500" lon="2.71809000"><ele></ele><time>2017-9-19T6:30:2Z</time></trkpt>
<trkpt lat="48.44757200" lon="2.71812000"><ele></ele><time>2017-9-19T6:30:5Z</time></trkpt>
<trkpt lat="48.44759800" lon="2.71814700"><ele></ele><time>2017-9-19T6:30:8Z</time></trkpt>
<trkpt lat="48.44762700" lon="2.71816000"><ele></ele><time>2017-9-19T6:30:11Z</time></trkpt>
<trkpt lat="48.44771200" lon="2.71819300"><ele></ele><time>2017-9-19T6:30:14Z</time></trkpt>
<trkpt lat="48.44773500" lon="2.71820800"><ele></ele><time>2017-9-19T6:30:17Z</time></trkpt>
<trkpt lat="48.44775300" lon="2.71823300"><ele></ele><time>2017-9-19T6:30:20Z</time></trkpt>
<trkpt lat="48.44778800" lon="2.71826500"><ele></ele><time>2017-9-19T6:30:23Z</time></trkpt>
<trkpt lat="48.44784500" lon="2.71834200"><ele></ele><time>2017-9-19T6:30:26Z</time></trkpt>
<trkpt lat="48.44786800" lon="2.71843300"><ele></ele><time>2017-9-19T6:30:29Z</time></trkpt>
<trkpt lat="48.44786700" lon="2.71849300"><ele></ele><time>2017-9-19T6:30:32Z</time></trkpt>
<trkpt lat="48.44786700" lon="2.71854800"><ele></ele><time>2017-9-19T6:30:35Z</time></trkpt>
<trkpt lat="48.44786300" lon="2.71860500"><ele></ele><time>2017-9-19T6:30:38Z</time></trkpt>
<trkpt lat="48.44785200" lon="2.71866500"><ele></ele><time>2017-9-19T6:30:41Z</time></trkpt>
<trkpt lat="48.44780600" lon="2.71883000"><ele></ele><time>2017-9-19T6:30:44Z</time></trkpt>
<trkpt lat="48.44780000" lon="2.71889800"><ele></ele><time>2017-9-19T6:30:47Z</time></trkpt>
<trkpt lat="48.44775500" lon="2.71918200"><ele></ele><time>2017-9-19T6:30:50Z</time></trkpt>
<trkpt lat="48.44772300" lon="2.71922000"><ele></ele><time>2017-9-19T6:30:53Z</time></trkpt>
<trkpt lat="48.44769000" lon="2.71923700"><ele></ele><time>2017-9-19T6:30:56Z</time></trkpt>
<trkpt lat="48.44766300" lon="2.71924700"><ele></ele><time>2017-9-19T6:30:59Z</time></trkpt>
<trkpt lat="48.44764000" lon="2.71925500"><ele></ele><time>2017-9-19T6:31:2Z</time></trkpt>
<trkpt lat="48.44761300" lon="2.71926300"><ele></ele><time>2017-9-19T6:31:5Z</time></trkpt>
<trkpt lat="48.44758600" lon="2.71926500"><ele></ele><time>2017-9-19T6:31:8Z</time></trkpt>
<trkpt lat="48.44755500" lon="2.71925800"><ele></ele><time>2017-9-19T6:31:11Z</time></trkpt>
<trkpt lat="48.44752200" lon="2.71924700"><ele></ele><time>2017-9-19T6:31:14Z</time></trkpt>
<trkpt lat="48.44741800" lon="2.71919800"><ele></ele><time>2017-9-19T6:31:17Z</time></trkpt>
<trkpt lat="48.44738700" lon="2.71916200"><ele></ele><time>2017-9-19T6:31:20Z</time></trkpt>
<trkpt lat="48.44724000" lon="2.71898500"><ele></ele><time>2017-9-19T6:31:23Z</time></trkpt>
<trkpt lat="48.44721000" lon="2.71894200"><ele></ele><time>2017-9-19T6:31:26Z</time></trkpt>
<trkpt lat="48.44711800" lon="2.71887000"><ele></ele><time>2017-9-19T6:31:29Z</time></trkpt>
<trkpt lat="48.44708300" lon="2.71886200"><ele></ele><time>2017-9-19T6:31:32Z</time></trkpt>
<trkpt lat="48.44704100" lon="2.71886300"><ele></ele><time>2017-9-19T6:31:35Z</time></trkpt>
<trkpt lat="48.44699700" lon="2.71888000"><ele></ele><time>2017-9-19T6:31:38Z</time></trkpt>
<trkpt lat="48.44696000" lon="2.71890300"><ele></ele><time>2017-9-19T6:31:41Z</time></trkpt>
<trkpt lat="48.44693500" lon="2.71894200"><ele></ele><time>2017-9-19T6:31:44Z</time></trkpt>
<trkpt lat="48.44693200" lon="2.71897500"><ele></ele><time>2017-9-19T6:31:47Z</time></trkpt>
<trkpt lat="48.44690800" lon="2.71909500"><ele></ele><time>2017-9-19T6:31:50Z</time></trkpt>
<trkpt lat="48.44691500" lon="2.71914000"><ele></ele><time>2017-9-19T6:31:53Z</time></trkpt>
<trkpt lat="48.44695000" lon="2.71925200"><ele></ele><time>2017-9-19T6:31:56Z</time></trkpt>
<trkpt lat="48.44696500" lon="2.71930200"><ele></ele><time>2017-9-19T6:31:59Z</time></trkpt>
<trkpt lat="48.44698300" lon="2.71934700"><ele></ele><time>2017-9-19T6:32:2Z</time></trkpt>
<trkpt lat="48.44700100" lon="2.71939300"><ele></ele><time>2017-9-19T6:32:5Z</time></trkpt>
<trkpt lat="48.44704300" lon="2.71950000"><ele></ele><time>2017-9-19T6:32:8Z</time></trkpt>
<trkpt lat="48.44706100" lon="2.71955500"><ele></ele><time>2017-9-19T6:32:11Z</time></trkpt>
<trkpt lat="48.44707700" lon="2.71960200"><ele></ele><time>2017-9-19T6:32:14Z</time></trkpt>
<trkpt lat="48.44709700" lon="2.71967700"><ele></ele><time>2017-9-19T6:32:17Z</time></trkpt>
<trkpt lat="48.44710000" lon="2.71971300"><ele></ele><time>2017-9-19T6:32:20Z</time></trkpt>
<trkpt lat="48.44709500" lon="2.71974800"><ele></ele><time>2017-9-19T6:32:23Z</time></trkpt>
<trkpt lat="48.44702300" lon="2.72013700"><ele></ele><time>2017-9-19T6:32:26Z</time></trkpt>
<trkpt lat="48.44697100" lon="2.72036700"><ele></ele><time>2017-9-19T6:32:29Z</time></trkpt>
<trkpt lat="48.44695600" lon="2.72048000"><ele></ele><time>2017-9-19T6:32:32Z</time></trkpt>
<trkpt lat="48.44696500" lon="2.72053200"><ele></ele><time>2017-9-19T6:32:35Z</time></trkpt>
<trkpt lat="48.44697500" lon="2.72056500"><ele></ele><time>2017-9-19T6:32:38Z</time></trkpt>
<trkpt lat="48.44699300" lon="2.72059200"><ele></ele><time>2017-9-19T6:32:41Z</time></trkpt>
<trkpt lat="48.44700300" lon="2.72062500"><ele></ele><time>2017-9-19T6:32:44Z</time></trkpt>
<trkpt lat="48.44699800" lon="2.72065500"><ele></ele><time>2017-9-19T6:32:47Z</time></trkpt>
<trkpt lat="48.44698700" lon="2.72078800"><ele></ele><time>2017-9-19T6:32:50Z</time></trkpt>
<trkpt lat="48.44699800" lon="2.72089500"><ele></ele><time>2017-9-19T6:32:53Z</time></trkpt>
<trkpt lat="48.44702800" lon="2.72107300"><ele></ele><time>2017-9-19T6:32:56Z</time></trkpt>
<trkpt lat="48.44705500" lon="2.72112300"><ele></ele><time>2017-9-19T6:32:59Z</time></trkpt>
<trkpt lat="48.44711000" lon="2.72119700"><ele></ele><time>2017-9-19T6:33:2Z</time></trkpt>
<trkpt lat="48.44714200" lon="2.72123300"><ele></ele><time>2017-9-19T6:33:5Z</time></trkpt>
<trkpt lat="48.44719800" lon="2.72131200"><ele></ele><time>2017-9-19T6:33:8Z</time></trkpt>
<trkpt lat="48.44722800" lon="2.72134500"><ele></ele><time>2017-9-19T6:33:11Z</time></trkpt>
<trkpt lat="48.44725800" lon="2.72138500"><ele></ele><time>2017-9-19T6:33:14Z</time></trkpt>
<trkpt lat="48.44729800" lon="2.72139800"><ele></ele><time>2017-9-19T6:33:17Z</time></trkpt>
<trkpt lat="48.44745800" lon="2.72146500"><ele></ele><time>2017-9-19T6:33:20Z</time></trkpt>
<trkpt lat="48.44750700" lon="2.72150000"><ele></ele><time>2017-9-19T6:33:23Z</time></trkpt>
<trkpt lat="48.44759800" lon="2.72153800"><ele></ele><time>2017-9-19T6:33:26Z</time></trkpt>
<trkpt lat="48.44763200" lon="2.72155700"><ele></ele><time>2017-9-19T6:33:29Z</time></trkpt>
<trkpt lat="48.44765300" lon="2.72159200"><ele></ele><time>2017-9-19T6:33:32Z</time></trkpt>
<trkpt lat="48.44769300" lon="2.72166500"><ele></ele><time>2017-9-19T6:33:35Z</time></trkpt>
<trkpt lat="48.44772800" lon="2.72169500"><ele></ele><time>2017-9-19T6:33:38Z</time></trkpt>
<trkpt lat="48.44776700" lon="2.72172300"><ele></ele><time>2017-9-19T6:33:41Z</time></trkpt>
<trkpt lat="48.44780600" lon="2.72173500"><ele></ele><time>2017-9-19T6:33:44Z</time></trkpt>
<trkpt lat="48.44790200" lon="2.72178700"><ele></ele><time>2017-9-19T6:33:47Z</time></trkpt>
<trkpt lat="48.44794200" lon="2.72181800"><ele></ele><time>2017-9-19T6:33:50Z</time></trkpt>
<trkpt lat="48.44796800" lon="2.72185700"><ele></ele><time>2017-9-19T6:33:53Z</time></trkpt>
<trkpt lat="48.44796300" lon="2.72192800"><ele></ele><time>2017-9-19T6:33:56Z</time></trkpt>
<trkpt lat="48.44796500" lon="2.72199200"><ele></ele><time>2017-9-19T6:33:59Z</time></trkpt>
<trkpt lat="48.44796000" lon="2.72205800"><ele></ele><time>2017-9-19T6:34:2Z</time></trkpt>
<trkpt lat="48.44795600" lon="2.72213300"><ele></ele><time>2017-9-19T6:34:5Z</time></trkpt>
<trkpt lat="48.44795800" lon="2.72220700"><ele></ele><time>2017-9-19T6:34:8Z</time></trkpt>
<trkpt lat="48.44796000" lon="2.72232800"><ele></ele><time>2017-9-19T6:34:11Z</time></trkpt>
<trkpt lat="48.44796500" lon="2.72238800"><ele></ele><time>2017-9-19T6:34:14Z</time></trkpt>
<trkpt lat="48.44796800" lon="2.72251800"><ele></ele><time>2017-9-19T6:34:17Z</time></trkpt>
<trkpt lat="48.44795600" lon="2.72258800"><ele></ele><time>2017-9-19T6:34:20Z</time></trkpt>
<trkpt lat="48.44796100" lon="2.72263800"><ele></ele><time>2017-9-19T6:34:23Z</time></trkpt>
<trkpt lat="48.44804300" lon="2.72282200"><ele></ele><time>2017-9-19T6:34:26Z</time></trkpt>
<trkpt lat="48.44814800" lon="2.72290200"><ele></ele><time>2017-9-19T6:34:29Z</time></trkpt>
<trkpt lat="48.44818500" lon="2.72294700"><ele></ele><time>2017-9-19T6:34:32Z</time></trkpt>
<trkpt lat="48.44828200" lon="2.72310300"><ele></ele><time>2017-9-19T6:34:35Z</time></trkpt>
<trkpt lat="48.44829600" lon="2.72316700"><ele></ele><time>2017-9-19T6:34:38Z</time></trkpt>
<trkpt lat="48.44835700" lon="2.72343700"><ele></ele><time>2017-9-19T6:34:41Z</time></trkpt>
<trkpt lat="48.44838300" lon="2.72348700"><ele></ele><time>2017-9-19T6:34:44Z</time></trkpt>
<trkpt lat="48.44849300" lon="2.72361800"><ele></ele><time>2017-9-19T6:34:47Z</time></trkpt>
<trkpt lat="48.44852000" lon="2.72367200"><ele></ele><time>2017-9-19T6:34:50Z</time></trkpt>
<trkpt lat="48.44856600" lon="2.72378000"><ele></ele><time>2017-9-19T6:34:53Z</time></trkpt>
<trkpt lat="48.44860700" lon="2.72391300"><ele></ele><time>2017-9-19T6:34:56Z</time></trkpt>
<trkpt lat="48.44861300" lon="2.72396300"><ele></ele><time>2017-9-19T6:34:59Z</time></trkpt>
<trkpt lat="48.44861100" lon="2.72403500"><ele></ele><time>2017-9-19T6:35:2Z</time></trkpt>
<trkpt lat="48.44860500" lon="2.72419500"><ele></ele><time>2017-9-19T6:35:5Z</time></trkpt>
<trkpt lat="48.44859300" lon="2.72427800"><ele></ele><time>2017-9-19T6:35:8Z</time></trkpt>
<trkpt lat="48.44857500" lon="2.72455200"><ele></ele><time>2017-9-19T6:35:11Z</time></trkpt>
<trkpt lat="48.44857700" lon="2.72462800"><ele></ele><time>2017-9-19T6:35:14Z</time></trkpt>
<trkpt lat="48.44857700" lon="2.72485500"><ele></ele><time>2017-9-19T6:35:17Z</time></trkpt>
<trkpt lat="48.44860300" lon="2.72490500"><ele></ele><time>2017-9-19T6:35:20Z</time></trkpt>
<trkpt lat="48.44865300" lon="2.72501800"><ele></ele><time>2017-9-19T6:35:23Z</time></trkpt>
<trkpt lat="48.44866700" lon="2.72507800"><ele></ele><time>2017-9-19T6:35:26Z</time></trkpt>
<trkpt lat="48.44869000" lon="2.72521700"><ele></ele><time>2017-9-19T6:35:29Z</time></trkpt>
<trkpt lat="48.44871200" lon="2.72527300"><ele></ele><time>2017-9-19T6:35:32Z</time></trkpt>
<trkpt lat="48.44875700" lon="2.72539800"><ele></ele><time>2017-9-19T6:35:35Z</time></trkpt>
<trkpt lat="48.44876600" lon="2.72548300"><ele></ele><time>2017-9-19T6:35:38Z</time></trkpt>
<trkpt lat="48.44875300" lon="2.72554800"><ele></ele><time>2017-9-19T6:35:41Z</time></trkpt>
<trkpt lat="48.44871200" lon="2.72573000"><ele></ele><time>2017-9-19T6:35:44Z</time></trkpt>
<trkpt lat="48.44865300" lon="2.72594200"><ele></ele><time>2017-9-19T6:35:47Z</time></trkpt>
<trkpt lat="48.44854200" lon="2.72651000"><ele></ele><time>2017-9-19T6:35:50Z</time></trkpt>
<trkpt lat="48.44855000" lon="2.72658700"><ele></ele><time>2017-9-19T6:35:53Z</time></trkpt>
<trkpt lat="48.44860500" lon="2.72684500"><ele></ele><time>2017-9-19T6:35:56Z</time></trkpt>
<trkpt lat="48.44860500" lon="2.72690800"><ele></ele><time>2017-9-19T6:35:59Z</time></trkpt>
<trkpt lat="48.44862300" lon="2.72708200"><ele></ele><time>2017-9-19T6:36:2Z</time></trkpt>
<trkpt lat="48.44863800" lon="2.72712500"><ele></ele><time>2017-9-19T6:36:5Z</time></trkpt>
<trkpt lat="48.44865000" lon="2.72718000"><ele></ele><time>2017-9-19T6:36:8Z</time></trkpt>
<trkpt lat="48.44872500" lon="2.72748800"><ele></ele><time>2017-9-19T6:36:11Z</time></trkpt>
<trkpt lat="48.44876800" lon="2.72758500"><ele></ele><time>2017-9-19T6:36:14Z</time></trkpt>
<trkpt lat="48.44880300" lon="2.72762000"><ele></ele><time>2017-9-19T6:36:17Z</time></trkpt>
<trkpt lat="48.44882500" lon="2.72765800"><ele></ele><time>2017-9-19T6:36:20Z</time></trkpt>
<trkpt lat="48.44884200" lon="2.72767700"><ele></ele><time>2017-9-19T6:36:23Z</time></trkpt>
<trkpt lat="48.44886200" lon="2.72767500"><ele></ele><time>2017-9-19T6:36:26Z</time></trkpt>
<trkpt lat="48.44887300" lon="2.72767700"><ele></ele><time>2017-9-19T6:36:29Z</time></trkpt>
<trkpt lat="48.44888100" lon="2.72767500"><ele></ele><time>2017-9-19T6:36:32Z</time></trkpt>
<trkpt lat="48.44888800" lon="2.72767500"><ele></ele><time>2017-9-19T6:36:35Z</time></trkpt>
<trkpt lat="48.44889300" lon="2.72767500"><ele></ele><time>2017-9-19T6:36:38Z</time></trkpt>
<trkpt lat="48.44889500" lon="2.72767300"><ele></ele><time>2017-9-19T6:36:41Z</time></trkpt>
<trkpt lat="48.44889800" lon="2.72767300"><ele></ele><time>2017-9-19T6:36:44Z</time></trkpt>
<trkpt lat="48.44890000" lon="2.72767300"><ele></ele><time>2017-9-19T6:36:47Z</time></trkpt>
<trkpt lat="48.44890100" lon="2.72767300"><ele></ele><time>2017-9-19T6:36:50Z</time></trkpt>
<trkpt lat="48.44890600" lon="2.72767200"><ele></ele><time>2017-9-19T6:36:53Z</time></trkpt>
<trkpt lat="48.44890800" lon="2.72767200"><ele></ele><time>2017-9-19T6:36:56Z</time></trkpt>
<trkpt lat="48.44891800" lon="2.72767200"><ele></ele><time>2017-9-19T6:36:59Z</time></trkpt>
<trkpt lat="48.44892600" lon="2.72767200"><ele></ele><time>2017-9-19T6:37:2Z</time></trkpt>
<trkpt lat="48.44893500" lon="2.72767200"><ele></ele><time>2017-9-19T6:37:5Z</time></trkpt>
<trkpt lat="48.44894300" lon="2.72767200"><ele></ele><time>2017-9-19T6:37:8Z</time></trkpt>
<trkpt lat="48.44894800" lon="2.72767200"><ele></ele><time>2017-9-19T6:37:11Z</time></trkpt>
<trkpt lat="48.44895500" lon="2.72767200"><ele></ele><time>2017-9-19T6:37:14Z</time></trkpt>
<trkpt lat="48.44895700" lon="2.72767500"><ele></ele><time>2017-9-19T6:37:17Z</time></trkpt>
<trkpt lat="48.44896200" lon="2.72767700"><ele></ele><time>2017-9-19T6:37:20Z</time></trkpt>
<trkpt lat="48.44898800" lon="2.72768000"><ele></ele><time>2017-9-19T6:37:23Z</time></trkpt>
<trkpt lat="48.44900000" lon="2.72768200"><ele></ele><time>2017-9-19T6:37:26Z</time></trkpt>
<trkpt lat="48.44900500" lon="2.72768200"><ele></ele><time>2017-9-19T6:37:29Z</time></trkpt>
<trkpt lat="48.44900800" lon="2.72768300"><ele></ele><time>2017-9-19T6:37:32Z</time></trkpt>
<trkpt lat="48.44901300" lon="2.72768500"><ele></ele><time>2017-9-19T6:37:35Z</time></trkpt>
<trkpt lat="48.44901600" lon="2.72768700"><ele></ele><time>2017-9-19T6:37:38Z</time></trkpt>
<trkpt lat="48.44902200" lon="2.72768800"><ele></ele><time>2017-9-19T6:37:41Z</time></trkpt>
<trkpt lat="48.44902300" lon="2.72768800"><ele></ele><time>2017-9-19T6:37:44Z</time></trkpt>
<trkpt lat="48.44902700" lon="2.72769000"><ele></ele><time>2017-9-19T6:37:47Z</time></trkpt>
<trkpt lat="48.44903200" lon="2.72769000"><ele></ele><time>2017-9-19T6:37:50Z</time></trkpt>
<trkpt lat="48.44903700" lon="2.72769200"><ele></ele><time>2017-9-19T6:37:53Z</time></trkpt>
<trkpt lat="48.44903700" lon="2.72769200"><ele></ele><time>2017-9-19T6:37:56Z</time></trkpt>
<trkpt lat="48.44903200" lon="2.72769200"><ele></ele><time>2017-9-19T6:37:59Z</time></trkpt>
<trkpt lat="48.44902500" lon="2.72769000"><ele></ele><time>2017-9-19T6:38:2Z</time></trkpt>
<trkpt lat="48.44902000" lon="2.72768800"><ele></ele><time>2017-9-19T6:38:5Z</time></trkpt>
<trkpt lat="48.44901800" lon="2.72768700"><ele></ele><time>2017-9-19T6:38:8Z</time></trkpt>
<trkpt lat="48.44901800" lon="2.72768700"><ele></ele><time>2017-9-19T6:38:11Z</time></trkpt>
<trkpt lat="48.44901600" lon="2.72768500"><ele></ele><time>2017-9-19T6:38:14Z</time></trkpt>
<trkpt lat="48.44901800" lon="2.72768500"><ele></ele><time>2017-9-19T6:38:17Z</time></trkpt>
<trkpt lat="48.44901800" lon="2.72768500"><ele></ele><time>2017-9-19T6:38:20Z</time></trkpt>
<trkpt lat="48.44901000" lon="2.72768300"><ele></ele><time>2017-9-19T6:38:23Z</time></trkpt>
<trkpt lat="48.44901300" lon="2.72768300"><ele></ele><time>2017-9-19T6:38:26Z</time></trkpt>
<trkpt lat="48.44901500" lon="2.72768300"><ele></ele><time>2017-9-19T6:38:29Z</time></trkpt>
<trkpt lat="48.44901800" lon="2.72768300"><ele></ele><time>2017-9-19T6:38:32Z</time></trkpt>
<trkpt lat="48.44901500" lon="2.72768200"><ele></ele><time>2017-9-19T6:38:35Z</time></trkpt>
<trkpt lat="48.44900700" lon="2.72767800"><ele></ele><time>2017-9-19T6:38:38Z</time></trkpt>
<trkpt lat="48.44900000" lon="2.72767700"><ele></ele><time>2017-9-19T6:38:41Z</time></trkpt>
<trkpt lat="48.44896500" lon="2.72767200"><ele></ele><time>2017-9-19T6:38:44Z</time></trkpt>
<trkpt lat="48.44896200" lon="2.72767300"><ele></ele><time>2017-9-19T6:38:47Z</time></trkpt>
<trkpt lat="48.44896800" lon="2.72768000"><ele></ele><time>2017-9-19T6:38:50Z</time></trkpt>
<trkpt lat="48.44897200" lon="2.72768300"><ele></ele><time>2017-9-19T6:38:53Z</time></trkpt>
<trkpt lat="48.44896800" lon="2.72768300"><ele></ele><time>2017-9-19T6:38:56Z</time></trkpt>
<trkpt lat="48.44896500" lon="2.72768200"><ele></ele><time>2017-9-19T6:38:59Z</time></trkpt>
<trkpt lat="48.44896500" lon="2.72768300"><ele></ele><time>2017-9-19T6:39:2Z</time></trkpt>
<trkpt lat="48.44896500" lon="2.72768500"><ele></ele><time>2017-9-19T6:39:5Z</time></trkpt>
<trkpt lat="48.44894300" lon="2.72768300"><ele></ele><time>2017-9-19T6:39:8Z</time></trkpt>
<trkpt lat="48.44892800" lon="2.72768200"><ele></ele><time>2017-9-19T6:39:11Z</time></trkpt>
<trkpt lat="48.44886800" lon="2.72766700"><ele></ele><time>2017-9-19T6:39:14Z</time></trkpt>
<trkpt lat="48.44886500" lon="2.72766700"><ele></ele><time>2017-9-19T6:39:17Z</time></trkpt>
<trkpt lat="48.44886300" lon="2.72766500"><ele></ele><time>2017-9-19T6:39:20Z</time></trkpt>
<trkpt lat="48.44887000" lon="2.72766500"><ele></ele><time>2017-9-19T6:39:23Z</time></trkpt>
<trkpt lat="48.44887800" lon="2.72766500"><ele></ele><time>2017-9-19T6:39:26Z</time></trkpt>
<trkpt lat="48.44888100" lon="2.72766500"><ele></ele><time>2017-9-19T6:39:29Z</time></trkpt>
<trkpt lat="48.44888300" lon="2.72766500"><ele></ele><time>2017-9-19T6:39:32Z</time></trkpt>
<trkpt lat="48.44888500" lon="2.72766500"><ele></ele><time>2017-9-19T6:39:35Z</time></trkpt>
<trkpt lat="48.44888700" lon="2.72766500"><ele></ele><time>2017-9-19T6:39:38Z</time></trkpt>
<trkpt lat="48.44889000" lon="2.72766500"><ele></ele><time>2017-9-19T6:39:41Z</time></trkpt>
<trkpt lat="48.44889200" lon="2.72766500"><ele></ele><time>2017-9-19T6:39:44Z</time></trkpt>
<trkpt lat="48.44889500" lon="2.72766500"><ele></ele><time>2017-9-19T6:39:47Z</time></trkpt>
<trkpt lat="48.44889600" lon="2.72766500"><ele></ele><time>2017-9-19T6:39:50Z</time></trkpt>
<trkpt lat="48.44889800" lon="2.72766500"><ele></ele><time>2017-9-19T6:39:53Z</time></trkpt>
<trkpt lat="48.44890100" lon="2.72766500"><ele></ele><time>2017-9-19T6:39:56Z</time></trkpt>
<trkpt lat="48.44890300" lon="2.72766500"><ele></ele><time>2017-9-19T6:39:59Z</time></trkpt>
<trkpt lat="48.44890500" lon="2.72766500"><ele></ele><time>2017-9-19T6:40:2Z</time></trkpt>
<trkpt lat="48.44890500" lon="2.72766500"><ele></ele><time>2017-9-19T6:40:5Z</time></trkpt>
<trkpt lat="48.44890600" lon="2.72766500"><ele></ele><time>2017-9-19T6:40:8Z</time></trkpt>
<trkpt lat="48.44890800" lon="2.72766500"><ele></ele><time>2017-9-19T6:40:11Z</time></trkpt>
<trkpt lat="48.44890800" lon="2.72766500"><ele></ele><time>2017-9-19T6:40:14Z</time></trkpt>
<trkpt lat="48.44890800" lon="2.72766500"><ele></ele><time>2017-9-19T6:40:17Z</time></trkpt>
<trkpt lat="48.44890800" lon="2.72766500"><ele></ele><time>2017-9-19T6:40:20Z</time></trkpt>
<trkpt lat="48.44890800" lon="2.72766500"><ele></ele><time>2017-9-19T6:40:23Z</time></trkpt>
<trkpt lat="48.44890800" lon="2.72766500"><ele></ele><time>2017-9-19T6:40:26Z</time></trkpt>
<trkpt lat="48.44890600" lon="2.72766300"><ele></ele><time>2017-9-19T6:40:29Z</time></trkpt>
<trkpt lat="48.44890600" lon="2.72766300"><ele></ele><time>2017-9-19T6:40:32Z</time></trkpt>
<trkpt lat="48.44890500" lon="2.72766200"><ele></ele><time>2017-9-19T6:40:35Z</time></trkpt>
<trkpt lat="48.44890300" lon="2.72766000"><ele></ele><time>2017-9-19T6:40:38Z</time></trkpt>
<trkpt lat="48.44889000" lon="2.72765800"><ele></ele><time>2017-9-19T6:40:41Z</time></trkpt>
<trkpt lat="48.44888100" lon="2.72765800"><ele></ele><time>2017-9-19T6:40:44Z</time></trkpt>
<trkpt lat="48.44888000" lon="2.72766300"><ele></ele><time>2017-9-19T6:40:47Z</time></trkpt>
<trkpt lat="48.44887500" lon="2.72766300"><ele></ele><time>2017-9-19T6:40:50Z</time></trkpt>
<trkpt lat="48.44887200" lon="2.72766200"><ele></ele><time>2017-9-19T6:40:53Z</time></trkpt>
<trkpt lat="48.44887000" lon="2.72766300"><ele></ele><time>2017-9-19T6:40:56Z</time></trkpt>
<trkpt lat="48.44886800" lon="2.72766200"><ele></ele><time>2017-9-19T6:40:59Z</time></trkpt>
<trkpt lat="48.44886800" lon="2.72766200"><ele></ele><time>2017-9-19T6:41:2Z</time></trkpt>
<trkpt lat="48.44887000" lon="2.72766300"><ele></ele><time>2017-9-19T6:41:5Z</time></trkpt>
<trkpt lat="48.44887300" lon="2.72766300"><ele></ele><time>2017-9-19T6:41:8Z</time></trkpt>
<trkpt lat="48.44887600" lon="2.72766300"><ele></ele><time>2017-9-19T6:41:11Z</time></trkpt>
<trkpt lat="48.44888000" lon="2.72766500"><ele></ele><time>2017-9-19T6:41:14Z</time></trkpt>
<trkpt lat="48.44888300" lon="2.72766700"><ele></ele><time>2017-9-19T6:41:17Z</time></trkpt>
<trkpt lat="48.44888700" lon="2.72766700"><ele></ele><time>2017-9-19T6:41:20Z</time></trkpt>
<trkpt lat="48.44889000" lon="2.72767000"><ele></ele><time>2017-9-19T6:41:23Z</time></trkpt>
<trkpt lat="48.44889600" lon="2.72768200"><ele></ele><time>2017-9-19T6:41:26Z</time></trkpt>
<trkpt lat="48.44890100" lon="2.72769800"><ele></ele><time>2017-9-19T6:41:29Z</time></trkpt>
<trkpt lat="48.44889800" lon="2.72771800"><ele></ele><time>2017-9-19T6:41:32Z</time></trkpt>
<trkpt lat="48.44889800" lon="2.72774700"><ele></ele><time>2017-9-19T6:41:35Z</time></trkpt>
<trkpt lat="48.44888800" lon="2.72778700"><ele></ele><time>2017-9-19T6:41:38Z</time></trkpt>
<trkpt lat="48.44886700" lon="2.72783500"><ele></ele><time>2017-9-19T6:41:41Z</time></trkpt>
<trkpt lat="48.44883000" lon="2.72787800"><ele></ele><time>2017-9-19T6:41:44Z</time></trkpt>
<trkpt lat="48.44869000" lon="2.72801800"><ele></ele><time>2017-9-19T6:41:47Z</time></trkpt>
<trkpt lat="48.44866700" lon="2.72806700"><ele></ele><time>2017-9-19T6:41:50Z</time></trkpt>
<trkpt lat="48.44864500" lon="2.72811300"><ele></ele><time>2017-9-19T6:41:53Z</time></trkpt>
<trkpt lat="48.44863500" lon="2.72815800"><ele></ele><time>2017-9-19T6:41:56Z</time></trkpt>
<trkpt lat="48.44863500" lon="2.72820500"><ele></ele><time>2017-9-19T6:41:59Z</time></trkpt>
<trkpt lat="48.44864200" lon="2.72825200"><ele></ele><time>2017-9-19T6:42:2Z</time></trkpt>
<trkpt lat="48.44865300" lon="2.72828800"><ele></ele><time>2017-9-19T6:42:5Z</time></trkpt>
<trkpt lat="48.44866500" lon="2.72832000"><ele></ele><time>2017-9-19T6:42:8Z</time></trkpt>
<trkpt lat="48.44868100" lon="2.72834800"><ele></ele><time>2017-9-19T6:42:11Z</time></trkpt>
<trkpt lat="48.44870000" lon="2.72837200"><ele></ele><time>2017-9-19T6:42:14Z</time></trkpt>
<trkpt lat="48.44872800" lon="2.72839000"><ele></ele><time>2017-9-19T6:42:17Z</time></trkpt>
<trkpt lat="48.44874500" lon="2.72841800"><ele></ele><time>2017-9-19T6:42:20Z</time></trkpt>
<trkpt lat="48.44876300" lon="2.72844000"><ele></ele><time>2017-9-19T6:42:23Z</time></trkpt>
<trkpt lat="48.44878000" lon="2.72846200"><ele></ele><time>2017-9-19T6:42:26Z</time></trkpt>
<trkpt lat="48.44876800" lon="2.72849000"><ele></ele><time>2017-9-19T6:42:29Z</time></trkpt>
<trkpt lat="48.44875500" lon="2.72852200"><ele></ele><time>2017-9-19T6:42:32Z</time></trkpt>
<trkpt lat="48.44871000" lon="2.72861800"><ele></ele><time>2017-9-19T6:42:35Z</time></trkpt>
<trkpt lat="48.44868700" lon="2.72865200"><ele></ele><time>2017-9-19T6:42:38Z</time></trkpt>
<trkpt lat="48.44862300" lon="2.72873000"><ele></ele><time>2017-9-19T6:42:41Z</time></trkpt>
<trkpt lat="48.44777700" lon="2.72974700"><ele></ele><time>2017-9-19T6:42:44Z</time></trkpt>
<trkpt lat="48.44776100" lon="2.72978000"><ele></ele><time>2017-9-19T6:42:47Z</time></trkpt>
<trkpt lat="48.44772500" lon="2.72987000"><ele></ele><time>2017-9-19T6:42:50Z</time></trkpt>
<trkpt lat="48.44772500" lon="2.72987300"><ele></ele><time>2017-9-19T6:42:53Z</time></trkpt>
<trkpt lat="48.44772500" lon="2.72987500"><ele></ele><time>2017-9-19T6:42:56Z</time></trkpt>
<trkpt lat="48.44772300" lon="2.72987700"><ele></ele><time>2017-9-19T6:42:59Z</time></trkpt>
<trkpt lat="48.44772200" lon="2.72988000"><ele></ele><time>2017-9-19T6:43:2Z</time></trkpt>
<trkpt lat="48.44771800" lon="2.72987800"><ele></ele><time>2017-9-19T6:43:5Z</time></trkpt>
<trkpt lat="48.44771500" lon="2.72987800"><ele></ele><time>2017-9-19T6:43:8Z</time></trkpt>
<trkpt lat="48.44771300" lon="2.72987700"><ele></ele><time>2017-9-19T6:43:11Z</time></trkpt>
<trkpt lat="48.44771200" lon="2.72987700"><ele></ele><time>2017-9-19T6:43:14Z</time></trkpt>
<trkpt lat="48.44771000" lon="2.72987500"><ele></ele><time>2017-9-19T6:43:17Z</time></trkpt>
<trkpt lat="48.44770800" lon="2.72987500"><ele></ele><time>2017-9-19T6:43:20Z</time></trkpt>
<trkpt lat="48.44770700" lon="2.72987500"><ele></ele><time>2017-9-19T6:43:23Z</time></trkpt>
<trkpt lat="48.44770700" lon="2.72987500"><ele></ele><time>2017-9-19T6:43:26Z</time></trkpt>
<trkpt lat="48.44770500" lon="2.72987500"><ele></ele><time>2017-9-19T6:43:29Z</time></trkpt>
<trkpt lat="48.44770300" lon="2.72987500"><ele></ele><time>2017-9-19T6:43:32Z</time></trkpt>
<trkpt lat="48.44770200" lon="2.72987700"><ele></ele><time>2017-9-19T6:43:35Z</time></trkpt>
<trkpt lat="48.44770200" lon="2.72987700"><ele></ele><time>2017-9-19T6:43:38Z</time></trkpt>
<trkpt lat="48.44770000" lon="2.72987700"><ele></ele><time>2017-9-19T6:43:41Z</time></trkpt>
<trkpt lat="48.44770000" lon="2.72987800"><ele></ele><time>2017-9-19T6:43:44Z</time></trkpt>
<trkpt lat="48.44769800" lon="2.72987800"><ele></ele><time>2017-9-19T6:43:47Z</time></trkpt>
<trkpt lat="48.44769800" lon="2.72987800"><ele></ele><time>2017-9-19T6:43:50Z</time></trkpt>
<trkpt lat="48.44769600" lon="2.72987800"><ele></ele><time>2017-9-19T6:43:53Z</time></trkpt>
<trkpt lat="48.44769600" lon="2.72987800"><ele></ele><time>2017-9-19T6:43:56Z</time></trkpt>
<trkpt lat="48.44769600" lon="2.72987800"><ele></ele><time>2017-9-19T6:43:59Z</time></trkpt>
<trkpt lat="48.44769500" lon="2.72988000"><ele></ele><time>2017-9-19T6:44:2Z</time></trkpt>
<trkpt lat="48.44769500" lon="2.72988200"><ele></ele><time>2017-9-19T6:44:5Z</time></trkpt>
<trkpt lat="48.44769500" lon="2.72988200"><ele></ele><time>2017-9-19T6:44:8Z</time></trkpt>
<trkpt lat="48.44769300" lon="2.72988200"><ele></ele><time>2017-9-19T6:44:11Z</time></trkpt>
<trkpt lat="48.44769300" lon="2.72988300"><ele></ele><time>2017-9-19T6:44:14Z</time></trkpt>
<trkpt lat="48.44769300" lon="2.72988300"><ele></ele><time>2017-9-19T6:44:17Z</time></trkpt>
<trkpt lat="48.44769300" lon="2.72988500"><ele></ele><time>2017-9-19T6:44:20Z</time></trkpt>
<trkpt lat="48.44769300" lon="2.72988500"><ele></ele><time>2017-9-19T6:44:23Z</time></trkpt>
<trkpt lat="48.44769300" lon="2.72988700"><ele></ele><time>2017-9-19T6:44:26Z</time></trkpt>
<trkpt lat="48.44769300" lon="2.72988700"><ele></ele><time>2017-9-19T6:44:29Z</time></trkpt>
<trkpt lat="48.44769300" lon="2.72988800"><ele></ele><time>2017-9-19T6:44:32Z</time></trkpt>
<trkpt lat="48.44769300" lon="2.72989000"><ele></ele><time>2017-9-19T6:44:35Z</time></trkpt>
<trkpt lat="48.44769300" lon="2.72989000"><ele></ele><time>2017-9-19T6:44:38Z</time></trkpt>
<trkpt lat="48.44769300" lon="2.72989200"><ele></ele><time>2017-9-19T6:44:41Z</time></trkpt>
<trkpt lat="48.44769500" lon="2.72989200"><ele></ele><time>2017-9-19T6:44:44Z</time></trkpt>
<trkpt lat="48.44769500" lon="2.72989200"><ele></ele><time>2017-9-19T6:44:47Z</time></trkpt>
<trkpt lat="48.44769500" lon="2.72989300"><ele></ele><time>2017-9-19T6:44:50Z</time></trkpt>
<trkpt lat="48.44769500" lon="2.72989700"><ele></ele><time>2017-9-19T6:44:53Z</time></trkpt>
<trkpt lat="48.44769500" lon="2.72990000"><ele></ele><time>2017-9-19T6:44:56Z</time></trkpt>
<trkpt lat="48.44769500" lon="2.72990300"><ele></ele><time>2017-9-19T6:44:59Z</time></trkpt>
<trkpt lat="48.44769500" lon="2.72990500"><ele></ele><time>2017-9-19T6:45:2Z</time></trkpt>
<trkpt lat="48.44769600" lon="2.72990700"><ele></ele><time>2017-9-19T6:45:5Z</time></trkpt>
<trkpt lat="48.44769600" lon="2.72990700"><ele></ele><time>2017-9-19T6:45:8Z</time></trkpt>
<trkpt lat="48.44769600" lon="2.72990700"><ele></ele><time>2017-9-19T6:45:11Z</time></trkpt>
<trkpt lat="48.44769600" lon="2.72990500"><ele></ele><time>2017-9-19T6:45:14Z</time></trkpt>
<trkpt lat="48.44769600" lon="2.72990500"><ele></ele><time>2017-9-19T6:45:17Z</time></trkpt>
<trkpt lat="48.44769600" lon="2.72990300"><ele></ele><time>2017-9-19T6:45:20Z</time></trkpt>
<trkpt lat="48.44769600" lon="2.72990200"><ele></ele><time>2017-9-19T6:45:23Z</time></trkpt>
<trkpt lat="48.44769600" lon="2.72990000"><ele></ele><time>2017-9-19T6:45:26Z</time></trkpt>
<trkpt lat="48.44769800" lon="2.72989800"><ele></ele><time>2017-9-19T6:45:29Z</time></trkpt>
<trkpt lat="48.44769800" lon="2.72989500"><ele></ele><time>2017-9-19T6:45:32Z</time></trkpt>
<trkpt lat="48.44769800" lon="2.72989700"><ele></ele><time>2017-9-19T6:45:35Z</time></trkpt>
<trkpt lat="48.44769800" lon="2.72989700"><ele></ele><time>2017-9-19T6:45:38Z</time></trkpt>
<trkpt lat="48.44769800" lon="2.72989800"><ele></ele><time>2017-9-19T6:45:41Z</time></trkpt>
<trkpt lat="48.44769800" lon="2.72990200"><ele></ele><time>2017-9-19T6:45:44Z</time></trkpt>
<trkpt lat="48.44769800" lon="2.72990200"><ele></ele><time>2017-9-19T6:45:47Z</time></trkpt>
<trkpt lat="48.44769800" lon="2.72990300"><ele></ele><time>2017-9-19T6:45:50Z</time></trkpt>
<trkpt lat="48.44769800" lon="2.72990300"><ele></ele><time>2017-9-19T6:45:53Z</time></trkpt>
<trkpt lat="48.44769800" lon="2.72990300"><ele></ele><time>2017-9-19T6:45:56Z</time></trkpt>
<trkpt lat="48.44769800" lon="2.72990300"><ele></ele><time>2017-9-19T6:45:59Z</time></trkpt>
<trkpt lat="48.44770000" lon="2.72990200"><ele></ele><time>2017-9-19T6:46:2Z</time></trkpt>
<trkpt lat="48.44770000" lon="2.72990300"><ele></ele><time>2017-9-19T6:46:5Z</time></trkpt>
<trkpt lat="48.44770000" lon="2.72990000"><ele></ele><time>2017-9-19T6:46:8Z</time></trkpt>
<trkpt lat="48.44770200" lon="2.72989700"><ele></ele><time>2017-9-19T6:46:11Z</time></trkpt>
<trkpt lat="48.44770200" lon="2.72989300"><ele></ele><time>2017-9-19T6:46:14Z</time></trkpt>
<trkpt lat="48.44770200" lon="2.72988700"><ele></ele><time>2017-9-19T6:46:17Z</time></trkpt>
<trkpt lat="48.44770300" lon="2.72988700"><ele></ele><time>2017-9-19T6:46:20Z</time></trkpt>
<trkpt lat="48.44770300" lon="2.72989000"><ele></ele><time>2017-9-19T6:46:23Z</time></trkpt>
<trkpt lat="48.44770300" lon="2.72989200"><ele></ele><time>2017-9-19T6:46:26Z</time></trkpt>
<trkpt lat="48.44770500" lon="2.72989500"><ele></ele><time>2017-9-19T6:46:29Z</time></trkpt>
<trkpt lat="48.44770500" lon="2.72989800"><ele></ele><time>2017-9-19T6:46:32Z</time></trkpt>
<trkpt lat="48.44770700" lon="2.72990200"><ele></ele><time>2017-9-19T6:46:35Z</time></trkpt>
<trkpt lat="48.44770700" lon="2.72990300"><ele></ele><time>2017-9-19T6:46:38Z</time></trkpt>
<trkpt lat="48.44770800" lon="2.72990700"><ele></ele><time>2017-9-19T6:46:41Z</time></trkpt>
<trkpt lat="48.44770800" lon="2.72991000"><ele></ele><time>2017-9-19T6:46:44Z</time></trkpt>
<trkpt lat="48.44771200" lon="2.72992200"><ele></ele><time>2017-9-19T6:46:47Z</time></trkpt>
<trkpt lat="48.44771200" lon="2.72992500"><ele></ele><time>2017-9-19T6:46:50Z</time></trkpt>
<trkpt lat="48.44771300" lon="2.72992700"><ele></ele><time>2017-9-19T6:46:53Z</time></trkpt>
<trkpt lat="48.44771300" lon="2.72992800"><ele></ele><time>2017-9-19T6:46:56Z</time></trkpt>
<trkpt lat="48.44771300" lon="2.72993200"><ele></ele><time>2017-9-19T6:46:59Z</time></trkpt>
<trkpt lat="48.44771300" lon="2.72993300"><ele></ele><time>2017-9-19T6:47:2Z</time></trkpt>
<trkpt lat="48.44771500" lon="2.72993300"><ele></ele><time>2017-9-19T6:47:5Z</time></trkpt>
<trkpt lat="48.44771500" lon="2.72993500"><ele></ele><time>2017-9-19T6:47:8Z</time></trkpt>
<trkpt lat="48.44771500" lon="2.72993700"><ele></ele><time>2017-9-19T6:47:11Z</time></trkpt>
<trkpt lat="48.44771500" lon="2.72993800"><ele></ele><time>2017-9-19T6:47:14Z</time></trkpt>
<trkpt lat="48.44771500" lon="2.72993800"><ele></ele><time>2017-9-19T6:47:17Z</time></trkpt>
<trkpt lat="48.44771700" lon="2.72994000"><ele></ele><time>2017-9-19T6:47:20Z</time></trkpt>
<trkpt lat="48.44771700" lon="2.72994000"><ele></ele><time>2017-9-19T6:47:23Z</time></trkpt>
<trkpt lat="48.44771700" lon="2.72994200"><ele></ele><time>2017-9-19T6:47:26Z</time></trkpt>
<trkpt lat="48.44771700" lon="2.72994200"><ele></ele><time>2017-9-19T6:47:29Z</time></trkpt>
<trkpt lat="48.44771700" lon="2.72994300"><ele></ele><time>2017-9-19T6:47:32Z</time></trkpt>
<trkpt lat="48.44771700" lon="2.72994200"><ele></ele><time>2017-9-19T6:47:35Z</time></trkpt>
<trkpt lat="48.44771700" lon="2.72994300"><ele></ele><time>2017-9-19T6:47:38Z</time></trkpt>
<trkpt lat="48.44771700" lon="2.72994300"><ele></ele><time>2017-9-19T6:47:41Z</time></trkpt>
<trkpt lat="48.44771700" lon="2.72994300"><ele></ele><time>2017-9-19T6:47:44Z</time></trkpt>
<trkpt lat="48.44771700" lon="2.72994300"><ele></ele><time>2017-9-19T6:47:47Z</time></trkpt>
<trkpt lat="48.44771700" lon="2.72994300"><ele></ele><time>2017-9-19T6:47:50Z</time></trkpt>
<trkpt lat="48.44771700" lon="2.72994200"><ele></ele><time>2017-9-19T6:47:53Z</time></trkpt>
<trkpt lat="48.44771700" lon="2.72994000"><ele></ele><time>2017-9-19T6:47:56Z</time></trkpt>
<trkpt lat="48.44771700" lon="2.72994000"><ele></ele><time>2017-9-19T6:47:59Z</time></trkpt>
<trkpt lat="48.44771700" lon="2.72994000"><ele></ele><time>2017-9-19T6:48:2Z</time></trkpt>
<trkpt lat="48.44771700" lon="2.72993800"><ele></ele><time>2017-9-19T6:48:5Z</time></trkpt>
<trkpt lat="48.44771700" lon="2.72993800"><ele></ele><time>2017-9-19T6:48:8Z</time></trkpt>
<trkpt lat="48.44771700" lon="2.72993700"><ele></ele><time>2017-9-19T6:48:11Z</time></trkpt>
<trkpt lat="48.44771700" lon="2.72993700"><ele></ele><time>2017-9-19T6:48:14Z</time></trkpt>
<trkpt lat="48.44771700" lon="2.72993700"><ele></ele><time>2017-9-19T6:48:17Z</time></trkpt>
<trkpt lat="48.44771700" lon="2.72993800"><ele></ele><time>2017-9-19T6:48:20Z</time></trkpt>
<trkpt lat="48.44771700" lon="2.72993800"><ele></ele><time>2017-9-19T6:48:23Z</time></trkpt>
<trkpt lat="48.44771800" lon="2.72993800"><ele></ele><time>2017-9-19T6:48:26Z</time></trkpt>
<trkpt lat="48.44771800" lon="2.72993800"><ele></ele><time>2017-9-19T6:48:29Z</time></trkpt>
<trkpt lat="48.44771800" lon="2.72993800"><ele></ele><time>2017-9-19T6:48:32Z</time></trkpt>
<trkpt lat="48.44771800" lon="2.72993800"><ele></ele><time>2017-9-19T6:48:35Z</time></trkpt>
<trkpt lat="48.44771800" lon="2.72993800"><ele></ele><time>2017-9-19T6:48:38Z</time></trkpt>
<trkpt lat="48.44771800" lon="2.72993800"><ele></ele><time>2017-9-19T6:48:41Z</time></trkpt>
<trkpt lat="48.44771800" lon="2.72993800"><ele></ele><time>2017-9-19T6:48:44Z</time></trkpt>
<trkpt lat="48.44771800" lon="2.72993700"><ele></ele><time>2017-9-19T6:48:47Z</time></trkpt>
<trkpt lat="48.44772200" lon="2.72993500"><ele></ele><time>2017-9-19T6:48:50Z</time></trkpt>
<trkpt lat="48.44772500" lon="2.72993000"><ele></ele><time>2017-9-19T6:48:53Z</time></trkpt>
<trkpt lat="48.44773000" lon="2.72992800"><ele></ele><time>2017-9-19T6:48:56Z</time></trkpt>
<trkpt lat="48.44773300" lon="2.72993700"><ele></ele><time>2017-9-19T6:48:59Z</time></trkpt>
<trkpt lat="48.44773700" lon="2.72995200"><ele></ele><time>2017-9-19T6:49:2Z</time></trkpt>
<trkpt lat="48.44774000" lon="2.72997200"><ele></ele><time>2017-9-19T6:49:5Z</time></trkpt>
<trkpt lat="48.44774500" lon="2.72999500"><ele></ele><time>2017-9-19T6:49:8Z</time></trkpt>
<trkpt lat="48.44776300" lon="2.73004800"><ele></ele><time>2017-9-19T6:49:11Z</time></trkpt>
<trkpt lat="48.44777800" lon="2.73007800"><ele></ele><time>2017-9-19T6:49:14Z</time></trkpt>
<trkpt lat="48.44779300" lon="2.73011300"><ele></ele><time>2017-9-19T6:49:17Z</time></trkpt>
<trkpt lat="48.44780300" lon="2.73015700"><ele></ele><time>2017-9-19T6:49:20Z</time></trkpt>
<trkpt lat="48.44780800" lon="2.73020800"><ele></ele><time>2017-9-19T6:49:23Z</time></trkpt>
<trkpt lat="48.44782200" lon="2.73025500"><ele></ele><time>2017-9-19T6:49:26Z</time></trkpt>
<trkpt lat="48.44784000" lon="2.73029800"><ele></ele><time>2017-9-19T6:49:29Z</time></trkpt>
<trkpt lat="48.44785800" lon="2.73032600"><ele></ele><time>2017-9-19T6:49:32Z</time></trkpt>
<trkpt lat="48.44787500" lon="2.73033300"><ele></ele><time>2017-9-19T6:49:35Z</time></trkpt>
<trkpt lat="48.44789800" lon="2.73032800"><ele></ele><time>2017-9-19T6:49:38Z</time></trkpt>
<trkpt lat="48.44792500" lon="2.73031500"><ele></ele><time>2017-9-19T6:49:41Z</time></trkpt>
<trkpt lat="48.44798000" lon="2.73028700"><ele></ele><time>2017-9-19T6:49:44Z</time></trkpt>
<trkpt lat="48.44801300" lon="2.73028800"><ele></ele><time>2017-9-19T6:49:47Z</time></trkpt>
<trkpt lat="48.44804600" lon="2.73029800"><ele></ele><time>2017-9-19T6:49:50Z</time></trkpt>
<trkpt lat="48.44808200" lon="2.73030000"><ele></ele><time>2017-9-19T6:49:53Z</time></trkpt>
<trkpt lat="48.44811800" lon="2.73029200"><ele></ele><time>2017-9-19T6:49:56Z</time></trkpt>
<trkpt lat="48.44848100" lon="2.73019300"><ele></ele><time>2017-9-19T6:49:59Z</time></trkpt>
<trkpt lat="48.44853000" lon="2.73020500"><ele></ele><time>2017-9-19T6:50:2Z</time></trkpt>
<trkpt lat="48.44871700" lon="2.73025200"><ele></ele><time>2017-9-19T6:50:5Z</time></trkpt>
<trkpt lat="48.44875500" lon="2.73027700"><ele></ele><time>2017-9-19T6:50:8Z</time></trkpt>
<trkpt lat="48.44886500" lon="2.73037200"><ele></ele><time>2017-9-19T6:50:11Z</time></trkpt>
<trkpt lat="48.44895500" lon="2.73044300"><ele></ele><time>2017-9-19T6:50:14Z</time></trkpt>
<trkpt lat="48.44929000" lon="2.73068200"><ele></ele><time>2017-9-19T6:50:17Z</time></trkpt>
<trkpt lat="48.44933000" lon="2.73072500"><ele></ele><time>2017-9-19T6:50:20Z</time></trkpt>
<trkpt lat="48.44952700" lon="2.73094700"><ele></ele><time>2017-9-19T6:50:23Z</time></trkpt>
<trkpt lat="48.44954700" lon="2.73099500"><ele></ele><time>2017-9-19T6:50:26Z</time></trkpt>
<trkpt lat="48.44959000" lon="2.73110000"><ele></ele><time>2017-9-19T6:50:29Z</time></trkpt>
<trkpt lat="48.44961300" lon="2.73117000"><ele></ele><time>2017-9-19T6:50:32Z</time></trkpt>
<trkpt lat="48.44965800" lon="2.73130300"><ele></ele><time>2017-9-19T6:50:35Z</time></trkpt>
<trkpt lat="48.44966800" lon="2.73136700"><ele></ele><time>2017-9-19T6:50:38Z</time></trkpt>
<trkpt lat="48.44968100" lon="2.73161200"><ele></ele><time>2017-9-19T6:50:41Z</time></trkpt>
<trkpt lat="48.44968300" lon="2.73167200"><ele></ele><time>2017-9-19T6:50:44Z</time></trkpt>
<trkpt lat="48.44967800" lon="2.73191000"><ele></ele><time>2017-9-19T6:50:47Z</time></trkpt>
<trkpt lat="48.44968100" lon="2.73203300"><ele></ele><time>2017-9-19T6:50:50Z</time></trkpt>
<trkpt lat="48.44969800" lon="2.73216300"><ele></ele><time>2017-9-19T6:50:53Z</time></trkpt>
<trkpt lat="48.44972300" lon="2.73228200"><ele></ele><time>2017-9-19T6:50:56Z</time></trkpt>
<trkpt lat="48.44983300" lon="2.73282200"><ele></ele><time>2017-9-19T6:50:59Z</time></trkpt>
<trkpt lat="48.44985500" lon="2.73287800"><ele></ele><time>2017-9-19T6:51:2Z</time></trkpt>
<trkpt lat="48.44989300" lon="2.73293200"><ele></ele><time>2017-9-19T6:51:5Z</time></trkpt>
<trkpt lat="48.44997100" lon="2.73303200"><ele></ele><time>2017-9-19T6:51:8Z</time></trkpt>
<trkpt lat="48.45002500" lon="2.73306700"><ele></ele><time>2017-9-19T6:51:11Z</time></trkpt>
<trkpt lat="48.45007500" lon="2.73308800"><ele></ele><time>2017-9-19T6:51:14Z</time></trkpt>
<trkpt lat="48.45027000" lon="2.73320000"><ele></ele><time>2017-9-19T6:51:17Z</time></trkpt>
<trkpt lat="48.45034000" lon="2.73327800"><ele></ele><time>2017-9-19T6:51:20Z</time></trkpt>
<trkpt lat="48.45040100" lon="2.73338700"><ele></ele><time>2017-9-19T6:51:23Z</time></trkpt>
<trkpt lat="48.45047200" lon="2.73356700"><ele></ele><time>2017-9-19T6:51:26Z</time></trkpt>
<trkpt lat="48.45052300" lon="2.73381500"><ele></ele><time>2017-9-19T6:51:29Z</time></trkpt>
<trkpt lat="48.45051300" lon="2.73393500"><ele></ele><time>2017-9-19T6:51:32Z</time></trkpt>
<trkpt lat="48.45049100" lon="2.73402500"><ele></ele><time>2017-9-19T6:51:35Z</time></trkpt>
<trkpt lat="48.45046500" lon="2.73407300"><ele></ele><time>2017-9-19T6:51:38Z</time></trkpt>
<trkpt lat="48.45044200" lon="2.73412500"><ele></ele><time>2017-9-19T6:51:41Z</time></trkpt>
<trkpt lat="48.45041300" lon="2.73417500"><ele></ele><time>2017-9-19T6:51:44Z</time></trkpt>
<trkpt lat="48.45036300" lon="2.73427300"><ele></ele><time>2017-9-19T6:51:47Z</time></trkpt>
<trkpt lat="48.45034800" lon="2.73432700"><ele></ele><time>2017-9-19T6:51:50Z</time></trkpt>
<trkpt lat="48.45034300" lon="2.73438300"><ele></ele><time>2017-9-19T6:51:53Z</time></trkpt>
<trkpt lat="48.45037000" lon="2.73449700"><ele></ele><time>2017-9-19T6:51:56Z</time></trkpt>
<trkpt lat="48.45043300" lon="2.73461000"><ele></ele><time>2017-9-19T6:51:59Z</time></trkpt>
<trkpt lat="48.45045500" lon="2.73467800"><ele></ele><time>2017-9-19T6:52:2Z</time></trkpt>
<trkpt lat="48.45047300" lon="2.73475300"><ele></ele><time>2017-9-19T6:52:5Z</time></trkpt>
<trkpt lat="48.45048500" lon="2.73483800"><ele></ele><time>2017-9-19T6:52:8Z</time></trkpt>
<trkpt lat="48.45049800" lon="2.73491700"><ele></ele><time>2017-9-19T6:52:11Z</time></trkpt>
<trkpt lat="48.45056200" lon="2.73525800"><ele></ele><time>2017-9-19T6:52:14Z</time></trkpt>
<trkpt lat="48.45059200" lon="2.73531200"><ele></ele><time>2017-9-19T6:52:17Z</time></trkpt>
<trkpt lat="48.45062800" lon="2.73535700"><ele></ele><time>2017-9-19T6:52:20Z</time></trkpt>
<trkpt lat="48.45084000" lon="2.73557300"><ele></ele><time>2017-9-19T6:52:23Z</time></trkpt>
<trkpt lat="48.45099700" lon="2.73570200"><ele></ele><time>2017-9-19T6:52:26Z</time></trkpt>
<trkpt lat="48.45104500" lon="2.73574000"><ele></ele><time>2017-9-19T6:52:29Z</time></trkpt>
<trkpt lat="48.45109100" lon="2.73574700"><ele></ele><time>2017-9-19T6:52:32Z</time></trkpt>
<trkpt lat="48.45112700" lon="2.73572700"><ele></ele><time>2017-9-19T6:52:35Z</time></trkpt>
<trkpt lat="48.45114800" lon="2.73568300"><ele></ele><time>2017-9-19T6:52:38Z</time></trkpt>
<trkpt lat="48.45125000" lon="2.73553700"><ele></ele><time>2017-9-19T6:52:41Z</time></trkpt>
<trkpt lat="48.45128700" lon="2.73549200"><ele></ele><time>2017-9-19T6:52:44Z</time></trkpt>
<trkpt lat="48.45131500" lon="2.73543800"><ele></ele><time>2017-9-19T6:52:47Z</time></trkpt>
<trkpt lat="48.45133000" lon="2.73537300"><ele></ele><time>2017-9-19T6:52:50Z</time></trkpt>
<trkpt lat="48.45134300" lon="2.73531500"><ele></ele><time>2017-9-19T6:52:53Z</time></trkpt>
<trkpt lat="48.45135800" lon="2.73526300"><ele></ele><time>2017-9-19T6:52:56Z</time></trkpt>
<trkpt lat="48.45137700" lon="2.73522700"><ele></ele><time>2017-9-19T6:52:59Z</time></trkpt>
<trkpt lat="48.45139700" lon="2.73520500"><ele></ele><time>2017-9-19T6:53:2Z</time></trkpt>
<trkpt lat="48.45141100" lon="2.73518000"><ele></ele><time>2017-9-19T6:53:5Z</time></trkpt>
<trkpt lat="48.45141800" lon="2.73514300"><ele></ele><time>2017-9-19T6:53:8Z</time></trkpt>
<trkpt lat="48.45143800" lon="2.73510500"><ele></ele><time>2017-9-19T6:53:11Z</time></trkpt>
<trkpt lat="48.45146700" lon="2.73508700"><ele></ele><time>2017-9-19T6:53:14Z</time></trkpt>
<trkpt lat="48.45149500" lon="2.73509000"><ele></ele><time>2017-9-19T6:53:17Z</time></trkpt>
<trkpt lat="48.45152600" lon="2.73511700"><ele></ele><time>2017-9-19T6:53:20Z</time></trkpt>
<trkpt lat="48.45154800" lon="2.73515000"><ele></ele><time>2017-9-19T6:53:23Z</time></trkpt>
<trkpt lat="48.45159800" lon="2.73523500"><ele></ele><time>2017-9-19T6:53:26Z</time></trkpt>
<trkpt lat="48.45161100" lon="2.73528800"><ele></ele><time>2017-9-19T6:53:29Z</time></trkpt>
<trkpt lat="48.45163800" lon="2.73533800"><ele></ele><time>2017-9-19T6:53:32Z</time></trkpt>
<trkpt lat="48.45166800" lon="2.73538200"><ele></ele><time>2017-9-19T6:53:35Z</time></trkpt>
<trkpt lat="48.45172600" lon="2.73546800"><ele></ele><time>2017-9-19T6:53:38Z</time></trkpt>
<trkpt lat="48.45182800" lon="2.73560700"><ele></ele><time>2017-9-19T6:53:41Z</time></trkpt>
<trkpt lat="48.45185000" lon="2.73562800"><ele></ele><time>2017-9-19T6:53:44Z</time></trkpt>
<trkpt lat="48.45187500" lon="2.73563800"><ele></ele><time>2017-9-19T6:53:47Z</time></trkpt>
<trkpt lat="48.45190500" lon="2.73566000"><ele></ele><time>2017-9-19T6:53:50Z</time></trkpt>
<trkpt lat="48.45192800" lon="2.73568800"><ele></ele><time>2017-9-19T6:53:53Z</time></trkpt>
<trkpt lat="48.45194600" lon="2.73572300"><ele></ele><time>2017-9-19T6:53:56Z</time></trkpt>
<trkpt lat="48.45195700" lon="2.73577000"><ele></ele><time>2017-9-19T6:53:59Z</time></trkpt>
<trkpt lat="48.45196000" lon="2.73581500"><ele></ele><time>2017-9-19T6:54:2Z</time></trkpt>
<trkpt lat="48.45198000" lon="2.73592700"><ele></ele><time>2017-9-19T6:54:5Z</time></trkpt>
<trkpt lat="48.45198200" lon="2.73598700"><ele></ele><time>2017-9-19T6:54:8Z</time></trkpt>
<trkpt lat="48.45197800" lon="2.73604200"><ele></ele><time>2017-9-19T6:54:11Z</time></trkpt>
<trkpt lat="48.45195700" lon="2.73621000"><ele></ele><time>2017-9-19T6:54:14Z</time></trkpt>
<trkpt lat="48.45195500" lon="2.73627200"><ele></ele><time>2017-9-19T6:54:17Z</time></trkpt>
<trkpt lat="48.45196300" lon="2.73632500"><ele></ele><time>2017-9-19T6:54:20Z</time></trkpt>
<trkpt lat="48.45196700" lon="2.73637700"><ele></ele><time>2017-9-19T6:54:23Z</time></trkpt>
<trkpt lat="48.45198200" lon="2.73647800"><ele></ele><time>2017-9-19T6:54:26Z</time></trkpt>
<trkpt lat="48.45200300" lon="2.73652200"><ele></ele><time>2017-9-19T6:54:29Z</time></trkpt>
<trkpt lat="48.45203000" lon="2.73656500"><ele></ele><time>2017-9-19T6:54:32Z</time></trkpt>
<trkpt lat="48.45211700" lon="2.73675800"><ele></ele><time>2017-9-19T6:54:35Z</time></trkpt>
<trkpt lat="48.45215700" lon="2.73685000"><ele></ele><time>2017-9-19T6:54:38Z</time></trkpt>
<trkpt lat="48.45217000" lon="2.73687000"><ele></ele><time>2017-9-19T6:54:41Z</time></trkpt>
<trkpt lat="48.45217800" lon="2.73687800"><ele></ele><time>2017-9-19T6:54:44Z</time></trkpt>
<trkpt lat="48.45218200" lon="2.73688200"><ele></ele><time>2017-9-19T6:54:47Z</time></trkpt>
<trkpt lat="48.45217800" lon="2.73689000"><ele></ele><time>2017-9-19T6:54:50Z</time></trkpt>
<trkpt lat="48.45217300" lon="2.73689800"><ele></ele><time>2017-9-19T6:54:53Z</time></trkpt>
<trkpt lat="48.45216300" lon="2.73692700"><ele></ele><time>2017-9-19T6:54:56Z</time></trkpt>
<trkpt lat="48.45216200" lon="2.73692800"><ele></ele><time>2017-9-19T6:54:59Z</time></trkpt>
<trkpt lat="48.45216000" lon="2.73692800"><ele></ele><time>2017-9-19T6:55:2Z</time></trkpt>
<trkpt lat="48.45216300" lon="2.73692700"><ele></ele><time>2017-9-19T6:55:5Z</time></trkpt>
<trkpt lat="48.45216000" lon="2.73693200"><ele></ele><time>2017-9-19T6:55:8Z</time></trkpt>
<trkpt lat="48.45216500" lon="2.73693700"><ele></ele><time>2017-9-19T6:55:11Z</time></trkpt>
<trkpt lat="48.45216800" lon="2.73695200"><ele></ele><time>2017-9-19T6:55:14Z</time></trkpt>
<trkpt lat="48.45219700" lon="2.73710700"><ele></ele><time>2017-9-19T6:55:17Z</time></trkpt>
<trkpt lat="48.45219500" lon="2.73714200"><ele></ele><time>2017-9-19T6:55:20Z</time></trkpt>
<trkpt lat="48.45219700" lon="2.73725200"><ele></ele><time>2017-9-19T6:55:23Z</time></trkpt>
<trkpt lat="48.45219000" lon="2.73729700"><ele></ele><time>2017-9-19T6:55:26Z</time></trkpt>
<trkpt lat="48.45217700" lon="2.73743300"><ele></ele><time>2017-9-19T6:55:29Z</time></trkpt>
<trkpt lat="48.45217300" lon="2.73745000"><ele></ele><time>2017-9-19T6:55:32Z</time></trkpt>
<trkpt lat="48.45216200" lon="2.73745500"><ele></ele><time>2017-9-19T6:55:35Z</time></trkpt>
<trkpt lat="48.45216200" lon="2.73745500"><ele></ele><time>2017-9-19T6:55:38Z</time></trkpt>
<trkpt lat="48.45215300" lon="2.73746000"><ele></ele><time>2017-9-19T6:55:41Z</time></trkpt>
<trkpt lat="48.45214000" lon="2.73746200"><ele></ele><time>2017-9-19T6:55:44Z</time></trkpt>
<trkpt lat="48.45213300" lon="2.73746300"><ele></ele><time>2017-9-19T6:55:47Z</time></trkpt>
<trkpt lat="48.45213300" lon="2.73746800"><ele></ele><time>2017-9-19T6:55:50Z</time></trkpt>
<trkpt lat="48.45214500" lon="2.73747700"><ele></ele><time>2017-9-19T6:55:53Z</time></trkpt>
<trkpt lat="48.45217300" lon="2.73749000"><ele></ele><time>2017-9-19T6:55:56Z</time></trkpt>
<trkpt lat="48.45217700" lon="2.73749500"><ele></ele><time>2017-9-19T6:55:59Z</time></trkpt>
<trkpt lat="48.45217800" lon="2.73750200"><ele></ele><time>2017-9-19T6:56:2Z</time></trkpt>
<trkpt lat="48.45217300" lon="2.73751200"><ele></ele><time>2017-9-19T6:56:5Z</time></trkpt>
<trkpt lat="48.45217000" lon="2.73753200"><ele></ele><time>2017-9-19T6:56:8Z</time></trkpt>
<trkpt lat="48.45217000" lon="2.73754300"><ele></ele><time>2017-9-19T6:56:11Z</time></trkpt>
<trkpt lat="48.45217200" lon="2.73756200"><ele></ele><time>2017-9-19T6:56:14Z</time></trkpt>
<trkpt lat="48.45218000" lon="2.73760000"><ele></ele><time>2017-9-19T6:56:17Z</time></trkpt>
<trkpt lat="48.45219500" lon="2.73768200"><ele></ele><time>2017-9-19T6:56:20Z</time></trkpt>
<trkpt lat="48.45220200" lon="2.73770800"><ele></ele><time>2017-9-19T6:56:23Z</time></trkpt>
<trkpt lat="48.45221100" lon="2.73775500"><ele></ele><time>2017-9-19T6:56:26Z</time></trkpt>
<trkpt lat="48.45222800" lon="2.73780300"><ele></ele><time>2017-9-19T6:56:29Z</time></trkpt>
<trkpt lat="48.45224000" lon="2.73783500"><ele></ele><time>2017-9-19T6:56:32Z</time></trkpt>
<trkpt lat="48.45226500" lon="2.73788800"><ele></ele><time>2017-9-19T6:56:35Z</time></trkpt>
<trkpt lat="48.45228000" lon="2.73791200"><ele></ele><time>2017-9-19T6:56:38Z</time></trkpt>
<trkpt lat="48.45229700" lon="2.73793800"><ele></ele><time>2017-9-19T6:56:41Z</time></trkpt>
<trkpt lat="48.45230600" lon="2.73796700"><ele></ele><time>2017-9-19T6:56:44Z</time></trkpt>
<trkpt lat="48.45231500" lon="2.73799800"><ele></ele><time>2017-9-19T6:56:47Z</time></trkpt>
<trkpt lat="48.45234000" lon="2.73808800"><ele></ele><time>2017-9-19T6:56:50Z</time></trkpt>
<trkpt lat="48.45234200" lon="2.73811800"><ele></ele><time>2017-9-19T6:56:53Z</time></trkpt>
<trkpt lat="48.45234500" lon="2.73815000"><ele></ele><time>2017-9-19T6:56:56Z</time></trkpt>
<trkpt lat="48.45236200" lon="2.73828000"><ele></ele><time>2017-9-19T6:56:59Z</time></trkpt>
<trkpt lat="48.45235100" lon="2.73831300"><ele></ele><time>2017-9-19T6:57:2Z</time></trkpt>
<trkpt lat="48.45234700" lon="2.73834000"><ele></ele><time>2017-9-19T6:57:5Z</time></trkpt>
<trkpt lat="48.45230500" lon="2.73856000"><ele></ele><time>2017-9-19T6:57:8Z</time></trkpt>
<trkpt lat="48.45230300" lon="2.73859800"><ele></ele><time>2017-9-19T6:57:11Z</time></trkpt>
<trkpt lat="48.45230100" lon="2.73862800"><ele></ele><time>2017-9-19T6:57:14Z</time></trkpt>
<trkpt lat="48.45230000" lon="2.73865700"><ele></ele><time>2017-9-19T6:57:17Z</time></trkpt>
<trkpt lat="48.45228200" lon="2.73876700"><ele></ele><time>2017-9-19T6:57:20Z</time></trkpt>
<trkpt lat="48.45228000" lon="2.73879500"><ele></ele><time>2017-9-19T6:57:23Z</time></trkpt>
<trkpt lat="48.45227500" lon="2.73885300"><ele></ele><time>2017-9-19T6:57:26Z</time></trkpt>
<trkpt lat="48.45227500" lon="2.73887800"><ele></ele><time>2017-9-19T6:57:29Z</time></trkpt>
<trkpt lat="48.45228800" lon="2.73899800"><ele></ele><time>2017-9-19T6:57:32Z</time></trkpt>
<trkpt lat="48.45228800" lon="2.73902500"><ele></ele><time>2017-9-19T6:57:35Z</time></trkpt>
<trkpt lat="48.45228700" lon="2.73914200"><ele></ele><time>2017-9-19T6:57:38Z</time></trkpt>
<trkpt lat="48.45229200" lon="2.73916800"><ele></ele><time>2017-9-19T6:57:41Z</time></trkpt>
<trkpt lat="48.45229300" lon="2.73919700"><ele></ele><time>2017-9-19T6:57:44Z</time></trkpt>
<trkpt lat="48.45228700" lon="2.73939500"><ele></ele><time>2017-9-19T6:57:47Z</time></trkpt>
<trkpt lat="48.45228800" lon="2.73943000"><ele></ele><time>2017-9-19T6:57:50Z</time></trkpt>
<trkpt lat="48.45229000" lon="2.73946500"><ele></ele><time>2017-9-19T6:57:53Z</time></trkpt>
<trkpt lat="48.45229700" lon="2.73950000"><ele></ele><time>2017-9-19T6:57:56Z</time></trkpt>
<trkpt lat="48.45233000" lon="2.73972200"><ele></ele><time>2017-9-19T6:57:59Z</time></trkpt>
<trkpt lat="48.45233100" lon="2.73974700"><ele></ele><time>2017-9-19T6:58:2Z</time></trkpt>
<trkpt lat="48.45237000" lon="2.73990800"><ele></ele><time>2017-9-19T6:58:5Z</time></trkpt>
<trkpt lat="48.45242000" lon="2.74004000"><ele></ele><time>2017-9-19T6:58:8Z</time></trkpt>
<trkpt lat="48.45249100" lon="2.74020200"><ele></ele><time>2017-9-19T6:58:11Z</time></trkpt>
<trkpt lat="48.45251000" lon="2.74025200"><ele></ele><time>2017-9-19T6:58:14Z</time></trkpt>
<trkpt lat="48.45254700" lon="2.74036000"><ele></ele><time>2017-9-19T6:58:17Z</time></trkpt>
<trkpt lat="48.45256300" lon="2.74038700"><ele></ele><time>2017-9-19T6:58:20Z</time></trkpt>
<trkpt lat="48.45258700" lon="2.74044700"><ele></ele><time>2017-9-19T6:58:23Z</time></trkpt>
<trkpt lat="48.45261300" lon="2.74050200"><ele></ele><time>2017-9-19T6:58:26Z</time></trkpt>
<trkpt lat="48.45261000" lon="2.74052500"><ele></ele><time>2017-9-19T6:58:29Z</time></trkpt>
<trkpt lat="48.45260800" lon="2.74054200"><ele></ele><time>2017-9-19T6:58:32Z</time></trkpt>
<trkpt lat="48.45260000" lon="2.74055200"><ele></ele><time>2017-9-19T6:58:35Z</time></trkpt>
<trkpt lat="48.45258500" lon="2.74055800"><ele></ele><time>2017-9-19T6:58:38Z</time></trkpt>
<trkpt lat="48.45256300" lon="2.74056600"><ele></ele><time>2017-9-19T6:58:41Z</time></trkpt>
<trkpt lat="48.45254200" lon="2.74058200"><ele></ele><time>2017-9-19T6:58:44Z</time></trkpt>
<trkpt lat="48.45251700" lon="2.74059800"><ele></ele><time>2017-9-19T6:58:47Z</time></trkpt>
<trkpt lat="48.45251200" lon="2.74061800"><ele></ele><time>2017-9-19T6:58:50Z</time></trkpt>
<trkpt lat="48.45250000" lon="2.74066500"><ele></ele><time>2017-9-19T6:58:53Z</time></trkpt>
<trkpt lat="48.45249800" lon="2.74068300"><ele></ele><time>2017-9-19T6:58:56Z</time></trkpt>
<trkpt lat="48.45249100" lon="2.74071300"><ele></ele><time>2017-9-19T6:58:59Z</time></trkpt>
<trkpt lat="48.45248700" lon="2.74072500"><ele></ele><time>2017-9-19T6:59:2Z</time></trkpt>
<trkpt lat="48.45247500" lon="2.74074000"><ele></ele><time>2017-9-19T6:59:5Z</time></trkpt>
<trkpt lat="48.45247000" lon="2.74075500"><ele></ele><time>2017-9-19T6:59:8Z</time></trkpt>
<trkpt lat="48.45246800" lon="2.74076800"><ele></ele><time>2017-9-19T6:59:11Z</time></trkpt>
<trkpt lat="48.45246200" lon="2.74078200"><ele></ele><time>2017-9-19T6:59:14Z</time></trkpt>
<trkpt lat="48.45246000" lon="2.74079300"><ele></ele><time>2017-9-19T6:59:17Z</time></trkpt>
<trkpt lat="48.45245300" lon="2.74080300"><ele></ele><time>2017-9-19T6:59:20Z</time></trkpt>
<trkpt lat="48.45245200" lon="2.74081000"><ele></ele><time>2017-9-19T6:59:23Z</time></trkpt>
<trkpt lat="48.45244800" lon="2.74082000"><ele></ele><time>2017-9-19T6:59:26Z</time></trkpt>
<trkpt lat="48.45244700" lon="2.74082200"><ele></ele><time>2017-9-19T6:59:29Z</time></trkpt>
<trkpt lat="48.45244700" lon="2.74082200"><ele></ele><time>2017-9-19T6:59:32Z</time></trkpt>
<trkpt lat="48.45244700" lon="2.74082200"><ele></ele><time>2017-9-19T6:59:35Z</time></trkpt>
<trkpt lat="48.45244800" lon="2.74082200"><ele></ele><time>2017-9-19T6:59:38Z</time></trkpt>
<trkpt lat="48.45244800" lon="2.74082200"><ele></ele><time>2017-9-19T6:59:41Z</time></trkpt>
<trkpt lat="48.45244800" lon="2.74082200"><ele></ele><time>2017-9-19T6:59:44Z</time></trkpt>
<trkpt lat="48.45244800" lon="2.74082300"><ele></ele><time>2017-9-19T6:59:47Z</time></trkpt>
<trkpt lat="48.45244800" lon="2.74082300"><ele></ele><time>2017-9-19T6:59:50Z</time></trkpt>
<trkpt lat="48.45244800" lon="2.74082700"><ele></ele><time>2017-9-19T6:59:53Z</time></trkpt>
<trkpt lat="48.45244700" lon="2.74083200"><ele></ele><time>2017-9-19T6:59:56Z</time></trkpt>
<trkpt lat="48.45244300" lon="2.74083500"><ele></ele><time>2017-9-19T6:59:59Z</time></trkpt>
<trkpt lat="48.45244300" lon="2.74083800"><ele></ele><time>2017-9-19T7:0:2Z</time></trkpt>
<trkpt lat="48.45244300" lon="2.74084200"><ele></ele><time>2017-9-19T7:0:5Z</time></trkpt>
<trkpt lat="48.45244500" lon="2.74084500"><ele></ele><time>2017-9-19T7:0:8Z</time></trkpt>
<trkpt lat="48.45244700" lon="2.74084700"><ele></ele><time>2017-9-19T7:0:11Z</time></trkpt>
<trkpt lat="48.45244800" lon="2.74085000"><ele></ele><time>2017-9-19T7:0:14Z</time></trkpt>
<trkpt lat="48.45246200" lon="2.74084700"><ele></ele><time>2017-9-19T7:0:17Z</time></trkpt>
<trkpt lat="48.45245700" lon="2.74084800"><ele></ele><time>2017-9-19T7:0:20Z</time></trkpt>
<trkpt lat="48.45245500" lon="2.74085300"><ele></ele><time>2017-9-19T7:0:23Z</time></trkpt>
<trkpt lat="48.45244800" lon="2.74085700"><ele></ele><time>2017-9-19T7:0:26Z</time></trkpt>
<trkpt lat="48.45240800" lon="2.74087800"><ele></ele><time>2017-9-19T7:0:29Z</time></trkpt>
<trkpt lat="48.45241100" lon="2.74087800"><ele></ele><time>2017-9-19T7:0:32Z</time></trkpt>
<trkpt lat="48.45241100" lon="2.74088200"><ele></ele><time>2017-9-19T7:0:35Z</time></trkpt>
<trkpt lat="48.45240800" lon="2.74088700"><ele></ele><time>2017-9-19T7:0:38Z</time></trkpt>
<trkpt lat="48.45241100" lon="2.74088800"><ele></ele><time>2017-9-19T7:0:41Z</time></trkpt>
<trkpt lat="48.45240800" lon="2.74089000"><ele></ele><time>2017-9-19T7:0:44Z</time></trkpt>
<trkpt lat="48.45240500" lon="2.74088800"><ele></ele><time>2017-9-19T7:0:47Z</time></trkpt>
<trkpt lat="48.45240500" lon="2.74088300"><ele></ele><time>2017-9-19T7:0:50Z</time></trkpt>
<trkpt lat="48.45240000" lon="2.74087500"><ele></ele><time>2017-9-19T7:0:53Z</time></trkpt>
<trkpt lat="48.45239300" lon="2.74087000"><ele></ele><time>2017-9-19T7:0:56Z</time></trkpt>
<trkpt lat="48.45240000" lon="2.74085300"><ele></ele><time>2017-9-19T7:0:59Z</time></trkpt>
<trkpt lat="48.45239800" lon="2.74084500"><ele></ele><time>2017-9-19T7:1:2Z</time></trkpt>
<trkpt lat="48.45239700" lon="2.74084000"><ele></ele><time>2017-9-19T7:1:5Z</time></trkpt>
<trkpt lat="48.45239300" lon="2.74083800"><ele></ele><time>2017-9-19T7:1:8Z</time></trkpt>
<trkpt lat="48.45239100" lon="2.74084200"><ele></ele><time>2017-9-19T7:1:11Z</time></trkpt>
<trkpt lat="48.45239100" lon="2.74084000"><ele></ele><time>2017-9-19T7:1:14Z</time></trkpt>
<trkpt lat="48.45238300" lon="2.74084000"><ele></ele><time>2017-9-19T7:1:17Z</time></trkpt>
<trkpt lat="48.45237800" lon="2.74084200"><ele></ele><time>2017-9-19T7:1:20Z</time></trkpt>
<trkpt lat="48.45237200" lon="2.74084300"><ele></ele><time>2017-9-19T7:1:23Z</time></trkpt>
<trkpt lat="48.45236700" lon="2.74085000"><ele></ele><time>2017-9-19T7:1:26Z</time></trkpt>
<trkpt lat="48.45235800" lon="2.74085700"><ele></ele><time>2017-9-19T7:1:29Z</time></trkpt>
<trkpt lat="48.45234700" lon="2.74086700"><ele></ele><time>2017-9-19T7:1:32Z</time></trkpt>
<trkpt lat="48.45234300" lon="2.74086700"><ele></ele><time>2017-9-19T7:1:35Z</time></trkpt>
<trkpt lat="48.45234000" lon="2.74086200"><ele></ele><time>2017-9-19T7:1:38Z</time></trkpt>
<trkpt lat="48.45233700" lon="2.74085300"><ele></ele><time>2017-9-19T7:1:41Z</time></trkpt>
<trkpt lat="48.45233000" lon="2.74084700"><ele></ele><time>2017-9-19T7:1:44Z</time></trkpt>
<trkpt lat="48.45231800" lon="2.74085000"><ele></ele><time>2017-9-19T7:1:47Z</time></trkpt>
<trkpt lat="48.45231300" lon="2.74085500"><ele></ele><time>2017-9-19T7:1:50Z</time></trkpt>
<trkpt lat="48.45231200" lon="2.74085700"><ele></ele><time>2017-9-19T7:1:53Z</time></trkpt>
<trkpt lat="48.45230800" lon="2.74086200"><ele></ele><time>2017-9-19T7:1:56Z</time></trkpt>
<trkpt lat="48.45231000" lon="2.74086700"><ele></ele><time>2017-9-19T7:1:59Z</time></trkpt>
<trkpt lat="48.45231300" lon="2.74087200"><ele></ele><time>2017-9-19T7:2:2Z</time></trkpt>
<trkpt lat="48.45231300" lon="2.74087800"><ele></ele><time>2017-9-19T7:2:5Z</time></trkpt>
<trkpt lat="48.45231300" lon="2.74088300"><ele></ele><time>2017-9-19T7:2:8Z</time></trkpt>
<trkpt lat="48.45231500" lon="2.74088700"><ele></ele><time>2017-9-19T7:2:11Z</time></trkpt>
<trkpt lat="48.45231500" lon="2.74088800"><ele></ele><time>2017-9-19T7:2:14Z</time></trkpt>
<trkpt lat="48.45231700" lon="2.74089000"><ele></ele><time>2017-9-19T7:2:17Z</time></trkpt>
<trkpt lat="48.45231700" lon="2.74089200"><ele></ele><time>2017-9-19T7:2:20Z</time></trkpt>
<trkpt lat="48.45231800" lon="2.74089300"><ele></ele><time>2017-9-19T7:2:23Z</time></trkpt>
<trkpt lat="48.45231800" lon="2.74089500"><ele></ele><time>2017-9-19T7:2:26Z</time></trkpt>
<trkpt lat="48.45232000" lon="2.74089700"><ele></ele><time>2017-9-19T7:2:29Z</time></trkpt>
<trkpt lat="48.45232100" lon="2.74089800"><ele></ele><time>2017-9-19T7:2:32Z</time></trkpt>
<trkpt lat="48.45232300" lon="2.74089800"><ele></ele><time>2017-9-19T7:2:35Z</time></trkpt>
<trkpt lat="48.45232300" lon="2.74089500"><ele></ele><time>2017-9-19T7:2:38Z</time></trkpt>
<trkpt lat="48.45231800" lon="2.74089500"><ele></ele><time>2017-9-19T7:2:41Z</time></trkpt>
<trkpt lat="48.45231000" lon="2.74089800"><ele></ele><time>2017-9-19T7:2:44Z</time></trkpt>
<trkpt lat="48.45230100" lon="2.74090700"><ele></ele><time>2017-9-19T7:2:47Z</time></trkpt>
<trkpt lat="48.45228500" lon="2.74093000"><ele></ele><time>2017-9-19T7:2:50Z</time></trkpt>
<trkpt lat="48.45228300" lon="2.74094000"><ele></ele><time>2017-9-19T7:2:53Z</time></trkpt>
<trkpt lat="48.45228000" lon="2.74095000"><ele></ele><time>2017-9-19T7:2:56Z</time></trkpt>
<trkpt lat="48.45228000" lon="2.74095700"><ele></ele><time>2017-9-19T7:2:59Z</time></trkpt>
<trkpt lat="48.45228000" lon="2.74096300"><ele></ele><time>2017-9-19T7:3:2Z</time></trkpt>
<trkpt lat="48.45228200" lon="2.74096800"><ele></ele><time>2017-9-19T7:3:5Z</time></trkpt>
<trkpt lat="48.45228800" lon="2.74097800"><ele></ele><time>2017-9-19T7:3:8Z</time></trkpt>
<trkpt lat="48.45229200" lon="2.74097800"><ele></ele><time>2017-9-19T7:3:11Z</time></trkpt>
<trkpt lat="48.45230100" lon="2.74097200"><ele></ele><time>2017-9-19T7:3:14Z</time></trkpt>
<trkpt lat="48.45230500" lon="2.74096500"><ele></ele><time>2017-9-19T7:3:17Z</time></trkpt>
<trkpt lat="48.45230500" lon="2.74096000"><ele></ele><time>2017-9-19T7:3:20Z</time></trkpt>
<trkpt lat="48.45229500" lon="2.74094500"><ele></ele><time>2017-9-19T7:3:23Z</time></trkpt>
<trkpt lat="48.45229200" lon="2.74094000"><ele></ele><time>2017-9-19T7:3:26Z</time></trkpt>
<trkpt lat="48.45228800" lon="2.74092800"><ele></ele><time>2017-9-19T7:3:29Z</time></trkpt>
<trkpt lat="48.45228500" lon="2.74092300"><ele></ele><time>2017-9-19T7:3:32Z</time></trkpt>
<trkpt lat="48.45227800" lon="2.74092000"><ele></ele><time>2017-9-19T7:3:35Z</time></trkpt>
<trkpt lat="48.45227000" lon="2.74092300"><ele></ele><time>2017-9-19T7:3:38Z</time></trkpt>
<trkpt lat="48.45226300" lon="2.74092700"><ele></ele><time>2017-9-19T7:3:41Z</time></trkpt>
<trkpt lat="48.45224500" lon="2.74093500"><ele></ele><time>2017-9-19T7:3:44Z</time></trkpt>
<trkpt lat="48.45223600" lon="2.74094200"><ele></ele><time>2017-9-19T7:3:47Z</time></trkpt>
<trkpt lat="48.45222800" lon="2.74094700"><ele></ele><time>2017-9-19T7:3:50Z</time></trkpt>
<trkpt lat="48.45222700" lon="2.74094800"><ele></ele><time>2017-9-19T7:3:53Z</time></trkpt>
<trkpt lat="48.45221800" lon="2.74095200"><ele></ele><time>2017-9-19T7:3:56Z</time></trkpt>
<trkpt lat="48.45221000" lon="2.74095700"><ele></ele><time>2017-9-19T7:3:59Z</time></trkpt>
<trkpt lat="48.45217500" lon="2.74096800"><ele></ele><time>2017-9-19T7:4:2Z</time></trkpt>
<trkpt lat="48.45216000" lon="2.74098200"><ele></ele><time>2017-9-19T7:4:5Z</time></trkpt>
<trkpt lat="48.45211300" lon="2.74102300"><ele></ele><time>2017-9-19T7:4:8Z</time></trkpt>
<trkpt lat="48.45206000" lon="2.74108300"><ele></ele><time>2017-9-19T7:4:11Z</time></trkpt>
<trkpt lat="48.45203600" lon="2.74111700"><ele></ele><time>2017-9-19T7:4:14Z</time></trkpt>
<trkpt lat="48.45199800" lon="2.74115700"><ele></ele><time>2017-9-19T7:4:17Z</time></trkpt>
<trkpt lat="48.45198000" lon="2.74115700"><ele></ele><time>2017-9-19T7:4:20Z</time></trkpt>
<trkpt lat="48.45195500" lon="2.74115700"><ele></ele><time>2017-9-19T7:4:23Z</time></trkpt>
<trkpt lat="48.45177200" lon="2.74119700"><ele></ele><time>2017-9-19T7:4:26Z</time></trkpt>
<trkpt lat="48.45174600" lon="2.74122200"><ele></ele><time>2017-9-19T7:4:29Z</time></trkpt>
<trkpt lat="48.45172800" lon="2.74125200"><ele></ele><time>2017-9-19T7:4:32Z</time></trkpt>
<trkpt lat="48.45170800" lon="2.74128300"><ele></ele><time>2017-9-19T7:4:35Z</time></trkpt>
<trkpt lat="48.45169600" lon="2.74128500"><ele></ele><time>2017-9-19T7:4:38Z</time></trkpt>
<trkpt lat="48.45169300" lon="2.74128700"><ele></ele><time>2017-9-19T7:4:41Z</time></trkpt>
<trkpt lat="48.45169000" lon="2.74128800"><ele></ele><time>2017-9-19T7:4:44Z</time></trkpt>
<trkpt lat="48.45168700" lon="2.74129200"><ele></ele><time>2017-9-19T7:4:47Z</time></trkpt>
<trkpt lat="48.45168300" lon="2.74129500"><ele></ele><time>2017-9-19T7:4:50Z</time></trkpt>
<trkpt lat="48.45168000" lon="2.74129700"><ele></ele><time>2017-9-19T7:4:53Z</time></trkpt>
<trkpt lat="48.45167800" lon="2.74130500"><ele></ele><time>2017-9-19T7:4:56Z</time></trkpt>
<trkpt lat="48.45167500" lon="2.74131500"><ele></ele><time>2017-9-19T7:4:59Z</time></trkpt>
<trkpt lat="48.45168000" lon="2.74133200"><ele></ele><time>2017-9-19T7:5:2Z</time></trkpt>
<trkpt lat="48.45168500" lon="2.74135200"><ele></ele><time>2017-9-19T7:5:5Z</time></trkpt>
<trkpt lat="48.45168300" lon="2.74136800"><ele></ele><time>2017-9-19T7:5:8Z</time></trkpt>
<trkpt lat="48.45168200" lon="2.74138800"><ele></ele><time>2017-9-19T7:5:11Z</time></trkpt>
<trkpt lat="48.45167700" lon="2.74141000"><ele></ele><time>2017-9-19T7:5:14Z</time></trkpt>
<trkpt lat="48.45167000" lon="2.74143700"><ele></ele><time>2017-9-19T7:5:17Z</time></trkpt>
<trkpt lat="48.45164500" lon="2.74150500"><ele></ele><time>2017-9-19T7:5:20Z</time></trkpt>
<trkpt lat="48.45163300" lon="2.74152300"><ele></ele><time>2017-9-19T7:5:23Z</time></trkpt>
<trkpt lat="48.45162000" lon="2.74153800"><ele></ele><time>2017-9-19T7:5:26Z</time></trkpt>
<trkpt lat="48.45160600" lon="2.74154700"><ele></ele><time>2017-9-19T7:5:29Z</time></trkpt>
<trkpt lat="48.45157300" lon="2.74156800"><ele></ele><time>2017-9-19T7:5:32Z</time></trkpt>
<trkpt lat="48.45155500" lon="2.74158300"><ele></ele><time>2017-9-19T7:5:35Z</time></trkpt>
<trkpt lat="48.45153500" lon="2.74159300"><ele></ele><time>2017-9-19T7:5:38Z</time></trkpt>
<trkpt lat="48.45146800" lon="2.74162200"><ele></ele><time>2017-9-19T7:5:41Z</time></trkpt>
<trkpt lat="48.45145500" lon="2.74163300"><ele></ele><time>2017-9-19T7:5:44Z</time></trkpt>
<trkpt lat="48.45144300" lon="2.74164700"><ele></ele><time>2017-9-19T7:5:47Z</time></trkpt>
<trkpt lat="48.45143500" lon="2.74166200"><ele></ele><time>2017-9-19T7:5:50Z</time></trkpt>
<trkpt lat="48.45142800" lon="2.74168000"><ele></ele><time>2017-9-19T7:5:53Z</time></trkpt>
<trkpt lat="48.45142800" lon="2.74169000"><ele></ele><time>2017-9-19T7:5:56Z</time></trkpt>
<trkpt lat="48.45142000" lon="2.74169700"><ele></ele><time>2017-9-19T7:5:59Z</time></trkpt>
<trkpt lat="48.45139200" lon="2.74171300"><ele></ele><time>2017-9-19T7:6:2Z</time></trkpt>
<trkpt lat="48.45138600" lon="2.74172200"><ele></ele><time>2017-9-19T7:6:5Z</time></trkpt>
<trkpt lat="48.45138300" lon="2.74173200"><ele></ele><time>2017-9-19T7:6:8Z</time></trkpt>
<trkpt lat="48.45138100" lon="2.74173800"><ele></ele><time>2017-9-19T7:6:11Z</time></trkpt>
<trkpt lat="48.45138000" lon="2.74174800"><ele></ele><time>2017-9-19T7:6:14Z</time></trkpt>
<trkpt lat="48.45138000" lon="2.74176300"><ele></ele><time>2017-9-19T7:6:17Z</time></trkpt>
<trkpt lat="48.45138100" lon="2.74177700"><ele></ele><time>2017-9-19T7:6:20Z</time></trkpt>
<trkpt lat="48.45138500" lon="2.74179300"><ele></ele><time>2017-9-19T7:6:23Z</time></trkpt>
<trkpt lat="48.45139000" lon="2.74180200"><ele></ele><time>2017-9-19T7:6:26Z</time></trkpt>
<trkpt lat="48.45140000" lon="2.74182500"><ele></ele><time>2017-9-19T7:6:29Z</time></trkpt>
<trkpt lat="48.45140200" lon="2.74183100"><ele></ele><time>2017-9-19T7:6:32Z</time></trkpt>
<trkpt lat="48.45140000" lon="2.74183500"><ele></ele><time>2017-9-19T7:6:35Z</time></trkpt>
<trkpt lat="48.45140000" lon="2.74183800"><ele></ele><time>2017-9-19T7:6:38Z</time></trkpt>
<trkpt lat="48.45140200" lon="2.74184300"><ele></ele><time>2017-9-19T7:6:41Z</time></trkpt>
<trkpt lat="48.45140600" lon="2.74185300"><ele></ele><time>2017-9-19T7:6:44Z</time></trkpt>
<trkpt lat="48.45140800" lon="2.74186300"><ele></ele><time>2017-9-19T7:6:47Z</time></trkpt>
<trkpt lat="48.45140800" lon="2.74187200"><ele></ele><time>2017-9-19T7:6:50Z</time></trkpt>
<trkpt lat="48.45140600" lon="2.74189300"><ele></ele><time>2017-9-19T7:6:53Z</time></trkpt>
<trkpt lat="48.45140600" lon="2.74190300"><ele></ele><time>2017-9-19T7:6:56Z</time></trkpt>
<trkpt lat="48.45140500" lon="2.74191200"><ele></ele><time>2017-9-19T7:6:59Z</time></trkpt>
<trkpt lat="48.45140200" lon="2.74192300"><ele></ele><time>2017-9-19T7:7:2Z</time></trkpt>
<trkpt lat="48.45140000" lon="2.74193300"><ele></ele><time>2017-9-19T7:7:5Z</time></trkpt>
<trkpt lat="48.45139700" lon="2.74194000"><ele></ele><time>2017-9-19T7:7:8Z</time></trkpt>
<trkpt lat="48.45138600" lon="2.74196700"><ele></ele><time>2017-9-19T7:7:11Z</time></trkpt>
<trkpt lat="48.45138500" lon="2.74197300"><ele></ele><time>2017-9-19T7:7:14Z</time></trkpt>
<trkpt lat="48.45137800" lon="2.74201200"><ele></ele><time>2017-9-19T7:7:17Z</time></trkpt>
<trkpt lat="48.45137700" lon="2.74201800"><ele></ele><time>2017-9-19T7:7:20Z</time></trkpt>
<trkpt lat="48.45137700" lon="2.74202700"><ele></ele><time>2017-9-19T7:7:23Z</time></trkpt>
<trkpt lat="48.45138100" lon="2.74205300"><ele></ele><time>2017-9-19T7:7:26Z</time></trkpt>
<trkpt lat="48.45138300" lon="2.74205700"><ele></ele><time>2017-9-19T7:7:29Z</time></trkpt>
<trkpt lat="48.45138600" lon="2.74205800"><ele></ele><time>2017-9-19T7:7:32Z</time></trkpt>
<trkpt lat="48.45138800" lon="2.74206200"><ele></ele><time>2017-9-19T7:7:35Z</time></trkpt>
<trkpt lat="48.45139000" lon="2.74206500"><ele></ele><time>2017-9-19T7:7:38Z</time></trkpt>
<trkpt lat="48.45139200" lon="2.74206700"><ele></ele><time>2017-9-19T7:7:41Z</time></trkpt>
<trkpt lat="48.45139700" lon="2.74206700"><ele></ele><time>2017-9-19T7:7:44Z</time></trkpt>
<trkpt lat="48.45140500" lon="2.74206700"><ele></ele><time>2017-9-19T7:7:47Z</time></trkpt>
<trkpt lat="48.45141800" lon="2.74207200"><ele></ele><time>2017-9-19T7:7:50Z</time></trkpt>
<trkpt lat="48.45143100" lon="2.74208000"><ele></ele><time>2017-9-19T7:7:53Z</time></trkpt>
<trkpt lat="48.45144300" lon="2.74208800"><ele></ele><time>2017-9-19T7:7:56Z</time></trkpt>
<trkpt lat="48.45144800" lon="2.74209300"><ele></ele><time>2017-9-19T7:7:59Z</time></trkpt>
<trkpt lat="48.45144800" lon="2.74210300"><ele></ele><time>2017-9-19T7:8:2Z</time></trkpt>
<trkpt lat="48.45144700" lon="2.74212700"><ele></ele><time>2017-9-19T7:8:5Z</time></trkpt>
<trkpt lat="48.45144700" lon="2.74216800"><ele></ele><time>2017-9-19T7:8:8Z</time></trkpt>
<trkpt lat="48.45145600" lon="2.74217600"><ele></ele><time>2017-9-19T7:8:11Z</time></trkpt>
<trkpt lat="48.45146700" lon="2.74217200"><ele></ele><time>2017-9-19T7:8:14Z</time></trkpt>
<trkpt lat="48.45147500" lon="2.74216700"><ele></ele><time>2017-9-19T7:8:17Z</time></trkpt>
<trkpt lat="48.45148700" lon="2.74216700"><ele></ele><time>2017-9-19T7:8:20Z</time></trkpt>
<trkpt lat="48.45149200" lon="2.74217300"><ele></ele><time>2017-9-19T7:8:23Z</time></trkpt>
<trkpt lat="48.45149600" lon="2.74218500"><ele></ele><time>2017-9-19T7:8:26Z</time></trkpt>
<trkpt lat="48.45150500" lon="2.74220300"><ele></ele><time>2017-9-19T7:8:29Z</time></trkpt>
<trkpt lat="48.45151000" lon="2.74220700"><ele></ele><time>2017-9-19T7:8:32Z</time></trkpt>
<trkpt lat="48.45151500" lon="2.74221300"><ele></ele><time>2017-9-19T7:8:35Z</time></trkpt>
<trkpt lat="48.45152500" lon="2.74221800"><ele></ele><time>2017-9-19T7:8:38Z</time></trkpt>
<trkpt lat="48.45153500" lon="2.74222800"><ele></ele><time>2017-9-19T7:8:41Z</time></trkpt>
<trkpt lat="48.45154200" lon="2.74224000"><ele></ele><time>2017-9-19T7:8:44Z</time></trkpt>
<trkpt lat="48.45154600" lon="2.74225300"><ele></ele><time>2017-9-19T7:8:47Z</time></trkpt>
<trkpt lat="48.45155000" lon="2.74226800"><ele></ele><time>2017-9-19T7:8:50Z</time></trkpt>
<trkpt lat="48.45155500" lon="2.74228200"><ele></ele><time>2017-9-19T7:8:53Z</time></trkpt>
<trkpt lat="48.45155500" lon="2.74229700"><ele></ele><time>2017-9-19T7:8:56Z</time></trkpt>
<trkpt lat="48.45155200" lon="2.74231300"><ele></ele><time>2017-9-19T7:8:59Z</time></trkpt>
<trkpt lat="48.45154300" lon="2.74234300"><ele></ele><time>2017-9-19T7:9:2Z</time></trkpt>
<trkpt lat="48.45154000" lon="2.74235000"><ele></ele><time>2017-9-19T7:9:5Z</time></trkpt>
<trkpt lat="48.45153300" lon="2.74235500"><ele></ele><time>2017-9-19T7:9:8Z</time></trkpt>
<trkpt lat="48.45152600" lon="2.74235800"><ele></ele><time>2017-9-19T7:9:11Z</time></trkpt>
<trkpt lat="48.45152000" lon="2.74236000"><ele></ele><time>2017-9-19T7:9:14Z</time></trkpt>
<trkpt lat="48.45151200" lon="2.74235800"><ele></ele><time>2017-9-19T7:9:17Z</time></trkpt>
<trkpt lat="48.45149500" lon="2.74235500"><ele></ele><time>2017-9-19T7:9:20Z</time></trkpt>
<trkpt lat="48.45149200" lon="2.74235300"><ele></ele><time>2017-9-19T7:9:23Z</time></trkpt>
<trkpt lat="48.45149000" lon="2.74235200"><ele></ele><time>2017-9-19T7:9:26Z</time></trkpt>
<trkpt lat="48.45149000" lon="2.74234800"><ele></ele><time>2017-9-19T7:9:29Z</time></trkpt>
<trkpt lat="48.45149200" lon="2.74234500"><ele></ele><time>2017-9-19T7:9:32Z</time></trkpt>
<trkpt lat="48.45149300" lon="2.74234500"><ele></ele><time>2017-9-19T7:9:35Z</time></trkpt>
<trkpt lat="48.45149300" lon="2.74235200"><ele></ele><time>2017-9-19T7:9:38Z</time></trkpt>
<trkpt lat="48.45149600" lon="2.74235700"><ele></ele><time>2017-9-19T7:9:41Z</time></trkpt>
<trkpt lat="48.45150000" lon="2.74236200"><ele></ele><time>2017-9-19T7:9:44Z</time></trkpt>
<trkpt lat="48.45150100" lon="2.74236500"><ele></ele><time>2017-9-19T7:9:47Z</time></trkpt>
<trkpt lat="48.45150300" lon="2.74236800"><ele></ele><time>2017-9-19T7:9:50Z</time></trkpt>
<trkpt lat="48.45150700" lon="2.74236700"><ele></ele><time>2017-9-19T7:9:53Z</time></trkpt>
<trkpt lat="48.45151200" lon="2.74236300"><ele></ele><time>2017-9-19T7:9:56Z</time></trkpt>
<trkpt lat="48.45152000" lon="2.74235800"><ele></ele><time>2017-9-19T7:9:59Z</time></trkpt>
<trkpt lat="48.45152300" lon="2.74235300"><ele></ele><time>2017-9-19T7:10:2Z</time></trkpt>
<trkpt lat="48.45152800" lon="2.74233800"><ele></ele><time>2017-9-19T7:10:5Z</time></trkpt>
<trkpt lat="48.45152600" lon="2.74233700"><ele></ele><time>2017-9-19T7:10:8Z</time></trkpt>
<trkpt lat="48.45152500" lon="2.74233700"><ele></ele><time>2017-9-19T7:10:11Z</time></trkpt>
<trkpt lat="48.45152500" lon="2.74233700"><ele></ele><time>2017-9-19T7:10:14Z</time></trkpt>
<trkpt lat="48.45152600" lon="2.74233700"><ele></ele><time>2017-9-19T7:10:17Z</time></trkpt>
<trkpt lat="48.45152600" lon="2.74233700"><ele></ele><time>2017-9-19T7:10:20Z</time></trkpt>
<trkpt lat="48.45152500" lon="2.74233700"><ele></ele><time>2017-9-19T7:10:23Z</time></trkpt>
<trkpt lat="48.45152600" lon="2.74234200"><ele></ele><time>2017-9-19T7:10:26Z</time></trkpt>
<trkpt lat="48.45152800" lon="2.74235200"><ele></ele><time>2017-9-19T7:10:29Z</time></trkpt>
<trkpt lat="48.45153000" lon="2.74235800"><ele></ele><time>2017-9-19T7:10:32Z</time></trkpt>
<trkpt lat="48.45152600" lon="2.74236300"><ele></ele><time>2017-9-19T7:10:35Z</time></trkpt>
<trkpt lat="48.45151800" lon="2.74237500"><ele></ele><time>2017-9-19T7:10:38Z</time></trkpt>
<trkpt lat="48.45151300" lon="2.74237500"><ele></ele><time>2017-9-19T7:10:41Z</time></trkpt>
<trkpt lat="48.45148500" lon="2.74238500"><ele></ele><time>2017-9-19T7:10:44Z</time></trkpt>
<trkpt lat="48.45147100" lon="2.74239300"><ele></ele><time>2017-9-19T7:10:47Z</time></trkpt>
<trkpt lat="48.45146800" lon="2.74239700"><ele></ele><time>2017-9-19T7:10:50Z</time></trkpt>
<trkpt lat="48.45146700" lon="2.74240200"><ele></ele><time>2017-9-19T7:10:53Z</time></trkpt>
<trkpt lat="48.45146200" lon="2.74240300"><ele></ele><time>2017-9-19T7:10:56Z</time></trkpt>
<trkpt lat="48.45146200" lon="2.74239000"><ele></ele><time>2017-9-19T7:10:59Z</time></trkpt>
<trkpt lat="48.45145800" lon="2.74239300"><ele></ele><time>2017-9-19T7:11:2Z</time></trkpt>
<trkpt lat="48.45145500" lon="2.74239500"><ele></ele><time>2017-9-19T7:11:5Z</time></trkpt>
<trkpt lat="48.45145200" lon="2.74239700"><ele></ele><time>2017-9-19T7:11:8Z</time></trkpt>
<trkpt lat="48.45144700" lon="2.74239800"><ele></ele><time>2017-9-19T7:11:11Z</time></trkpt>
<trkpt lat="48.45143600" lon="2.74240300"><ele></ele><time>2017-9-19T7:11:14Z</time></trkpt>
<trkpt lat="48.45143100" lon="2.74240500"><ele></ele><time>2017-9-19T7:11:17Z</time></trkpt>
<trkpt lat="48.45142700" lon="2.74240800"><ele></ele><time>2017-9-19T7:11:20Z</time></trkpt>
<trkpt lat="48.45142300" lon="2.74241000"><ele></ele><time>2017-9-19T7:11:23Z</time></trkpt>
<trkpt lat="48.45141800" lon="2.74241200"><ele></ele><time>2017-9-19T7:11:26Z</time></trkpt>
<trkpt lat="48.45141700" lon="2.74241200"><ele></ele><time>2017-9-19T7:11:29Z</time></trkpt>
<trkpt lat="48.45141500" lon="2.74241300"><ele></ele><time>2017-9-19T7:11:32Z</time></trkpt>
<trkpt lat="48.45141300" lon="2.74241500"><ele></ele><time>2017-9-19T7:11:35Z</time></trkpt>
<trkpt lat="48.45140600" lon="2.74241800"><ele></ele><time>2017-9-19T7:11:38Z</time></trkpt>
<trkpt lat="48.45139800" lon="2.74242500"><ele></ele><time>2017-9-19T7:11:41Z</time></trkpt>
<trkpt lat="48.45139200" lon="2.74243200"><ele></ele><time>2017-9-19T7:11:44Z</time></trkpt>
<trkpt lat="48.45138800" lon="2.74243800"><ele></ele><time>2017-9-19T7:11:47Z</time></trkpt>
<trkpt lat="48.45138500" lon="2.74244000"><ele></ele><time>2017-9-19T7:11:50Z</time></trkpt>
<trkpt lat="48.45138300" lon="2.74243800"><ele></ele><time>2017-9-19T7:11:53Z</time></trkpt>
<trkpt lat="48.45138100" lon="2.74243700"><ele></ele><time>2017-9-19T7:11:56Z</time></trkpt>
<trkpt lat="48.45138100" lon="2.74244000"><ele></ele><time>2017-9-19T7:11:59Z</time></trkpt>
<trkpt lat="48.45138100" lon="2.74244300"><ele></ele><time>2017-9-19T7:12:2Z</time></trkpt>
<trkpt lat="48.45138000" lon="2.74244700"><ele></ele><time>2017-9-19T7:12:5Z</time></trkpt>
<trkpt lat="48.45136800" lon="2.74245800"><ele></ele><time>2017-9-19T7:12:8Z</time></trkpt>
<trkpt lat="48.45134000" lon="2.74250200"><ele></ele><time>2017-9-19T7:12:11Z</time></trkpt>
<trkpt lat="48.45131500" lon="2.74255500"><ele></ele><time>2017-9-19T7:12:14Z</time></trkpt>
<trkpt lat="48.45130500" lon="2.74259200"><ele></ele><time>2017-9-19T7:12:17Z</time></trkpt>
<trkpt lat="48.45129800" lon="2.74263000"><ele></ele><time>2017-9-19T7:12:20Z</time></trkpt>
<trkpt lat="48.45129500" lon="2.74266500"><ele></ele><time>2017-9-19T7:12:23Z</time></trkpt>
<trkpt lat="48.45129200" lon="2.74269700"><ele></ele><time>2017-9-19T7:12:26Z</time></trkpt>
<trkpt lat="48.45128300" lon="2.74276000"><ele></ele><time>2017-9-19T7:12:29Z</time></trkpt>
<trkpt lat="48.45127100" lon="2.74279700"><ele></ele><time>2017-9-19T7:12:32Z</time></trkpt>
<trkpt lat="48.45125500" lon="2.74283500"><ele></ele><time>2017-9-19T7:12:35Z</time></trkpt>
<trkpt lat="48.45125600" lon="2.74284800"><ele></ele><time>2017-9-19T7:12:38Z</time></trkpt>
<trkpt lat="48.45125800" lon="2.74286000"><ele></ele><time>2017-9-19T7:12:41Z</time></trkpt>
<trkpt lat="48.45126300" lon="2.74286600"><ele></ele><time>2017-9-19T7:12:44Z</time></trkpt>
<trkpt lat="48.45127000" lon="2.74287800"><ele></ele><time>2017-9-19T7:12:47Z</time></trkpt>
<trkpt lat="48.45127100" lon="2.74289500"><ele></ele><time>2017-9-19T7:12:50Z</time></trkpt>
<trkpt lat="48.45127300" lon="2.74292000"><ele></ele><time>2017-9-19T7:12:53Z</time></trkpt>
<trkpt lat="48.45128300" lon="2.74294700"><ele></ele><time>2017-9-19T7:12:56Z</time></trkpt>
<trkpt lat="48.45130500" lon="2.74297800"><ele></ele><time>2017-9-19T7:12:59Z</time></trkpt>
<trkpt lat="48.45133200" lon="2.74304700"><ele></ele><time>2017-9-19T7:13:2Z</time></trkpt>
<trkpt lat="48.45136000" lon="2.74311200"><ele></ele><time>2017-9-19T7:13:5Z</time></trkpt>
<trkpt lat="48.45138500" lon="2.74316500"><ele></ele><time>2017-9-19T7:13:8Z</time></trkpt>
<trkpt lat="48.45139300" lon="2.74317500"><ele></ele><time>2017-9-19T7:13:11Z</time></trkpt>
<trkpt lat="48.45141000" lon="2.74321500"><ele></ele><time>2017-9-19T7:13:14Z</time></trkpt>
<trkpt lat="48.45140500" lon="2.74324000"><ele></ele><time>2017-9-19T7:13:17Z</time></trkpt>
<trkpt lat="48.45140200" lon="2.74331800"><ele></ele><time>2017-9-19T7:13:20Z</time></trkpt>
<trkpt lat="48.45140600" lon="2.74334000"><ele></ele><time>2017-9-19T7:13:23Z</time></trkpt>
<trkpt lat="48.45141800" lon="2.74335800"><ele></ele><time>2017-9-19T7:13:26Z</time></trkpt>
<trkpt lat="48.45142500" lon="2.74337300"><ele></ele><time>2017-9-19T7:13:29Z</time></trkpt>
<trkpt lat="48.45143000" lon="2.74339300"><ele></ele><time>2017-9-19T7:13:32Z</time></trkpt>
<trkpt lat="48.45143500" lon="2.74342800"><ele></ele><time>2017-9-19T7:13:35Z</time></trkpt>
<trkpt lat="48.45143800" lon="2.74344000"><ele></ele><time>2017-9-19T7:13:38Z</time></trkpt>
<trkpt lat="48.45143600" lon="2.74344000"><ele></ele><time>2017-9-19T7:13:41Z</time></trkpt>
<trkpt lat="48.45143800" lon="2.74343800"><ele></ele><time>2017-9-19T7:13:44Z</time></trkpt>
<trkpt lat="48.45144000" lon="2.74343800"><ele></ele><time>2017-9-19T7:13:47Z</time></trkpt>
<trkpt lat="48.45144300" lon="2.74343800"><ele></ele><time>2017-9-19T7:13:50Z</time></trkpt>
<trkpt lat="48.45144500" lon="2.74344000"><ele></ele><time>2017-9-19T7:13:53Z</time></trkpt>
<trkpt lat="48.45144800" lon="2.74344000"><ele></ele><time>2017-9-19T7:13:56Z</time></trkpt>
<trkpt lat="48.45145200" lon="2.74344000"><ele></ele><time>2017-9-19T7:13:59Z</time></trkpt>
<trkpt lat="48.45145500" lon="2.74344000"><ele></ele><time>2017-9-19T7:14:2Z</time></trkpt>
<trkpt lat="48.45145800" lon="2.74344100"><ele></ele><time>2017-9-19T7:14:5Z</time></trkpt>
<trkpt lat="48.45146000" lon="2.74344300"><ele></ele><time>2017-9-19T7:14:8Z</time></trkpt>
<trkpt lat="48.45146200" lon="2.74344100"><ele></ele><time>2017-9-19T7:14:11Z</time></trkpt>
<trkpt lat="48.45146000" lon="2.74343800"><ele></ele><time>2017-9-19T7:14:14Z</time></trkpt>
<trkpt lat="48.45146200" lon="2.74344300"><ele></ele><time>2017-9-19T7:14:17Z</time></trkpt>
<trkpt lat="48.45146300" lon="2.74344500"><ele></ele><time>2017-9-19T7:14:20Z</time></trkpt>
<trkpt lat="48.45146500" lon="2.74345000"><ele></ele><time>2017-9-19T7:14:23Z</time></trkpt>
<trkpt lat="48.45146500" lon="2.74345700"><ele></ele><time>2017-9-19T7:14:26Z</time></trkpt>
<trkpt lat="48.45146800" lon="2.74346700"><ele></ele><time>2017-9-19T7:14:29Z</time></trkpt>
<trkpt lat="48.45147100" lon="2.74349500"><ele></ele><time>2017-9-19T7:14:32Z</time></trkpt>
<trkpt lat="48.45147000" lon="2.74352300"><ele></ele><time>2017-9-19T7:14:35Z</time></trkpt>
<trkpt lat="48.45146800" lon="2.74353000"><ele></ele><time>2017-9-19T7:14:38Z</time></trkpt>
<trkpt lat="48.45145800" lon="2.74354300"><ele></ele><time>2017-9-19T7:14:41Z</time></trkpt>
<trkpt lat="48.45145600" lon="2.74354500"><ele></ele><time>2017-9-19T7:14:44Z</time></trkpt>
<trkpt lat="48.45145800" lon="2.74354000"><ele></ele><time>2017-9-19T7:14:47Z</time></trkpt>
<trkpt lat="48.45145600" lon="2.74353500"><ele></ele><time>2017-9-19T7:14:50Z</time></trkpt>
<trkpt lat="48.45145300" lon="2.74352300"><ele></ele><time>2017-9-19T7:14:53Z</time></trkpt>
<trkpt lat="48.45145000" lon="2.74351500"><ele></ele><time>2017-9-19T7:14:56Z</time></trkpt>
<trkpt lat="48.45144200" lon="2.74349700"><ele></ele><time>2017-9-19T7:14:59Z</time></trkpt>
<trkpt lat="48.45143800" lon="2.74349200"><ele></ele><time>2017-9-19T7:15:2Z</time></trkpt>
<trkpt lat="48.45143600" lon="2.74348700"><ele></ele><time>2017-9-19T7:15:5Z</time></trkpt>
<trkpt lat="48.45142700" lon="2.74346200"><ele></ele><time>2017-9-19T7:15:8Z</time></trkpt>
<trkpt lat="48.45142300" lon="2.74345700"><ele></ele><time>2017-9-19T7:15:11Z</time></trkpt>
<trkpt lat="48.45142300" lon="2.74345200"><ele></ele><time>2017-9-19T7:15:14Z</time></trkpt>
<trkpt lat="48.45142300" lon="2.74344800"><ele></ele><time>2017-9-19T7:15:17Z</time></trkpt>
<trkpt lat="48.45141700" lon="2.74343200"><ele></ele><time>2017-9-19T7:15:20Z</time></trkpt>
<trkpt lat="48.45138100" lon="2.74333700"><ele></ele><time>2017-9-19T7:15:23Z</time></trkpt>
<trkpt lat="48.45138600" lon="2.74330200"><ele></ele><time>2017-9-19T7:15:26Z</time></trkpt>
<trkpt lat="48.45139700" lon="2.74323800"><ele></ele><time>2017-9-19T7:15:29Z</time></trkpt>
<trkpt lat="48.45138600" lon="2.74322000"><ele></ele><time>2017-9-19T7:15:32Z</time></trkpt>
<trkpt lat="48.45137200" lon="2.74320800"><ele></ele><time>2017-9-19T7:15:35Z</time></trkpt>
<trkpt lat="48.45135800" lon="2.74319300"><ele></ele><time>2017-9-19T7:15:38Z</time></trkpt>
<trkpt lat="48.45132500" lon="2.74314200"><ele></ele><time>2017-9-19T7:15:41Z</time></trkpt>
<trkpt lat="48.45132100" lon="2.74312300"><ele></ele><time>2017-9-19T7:15:44Z</time></trkpt>
<trkpt lat="48.45131300" lon="2.74304000"><ele></ele><time>2017-9-19T7:15:47Z</time></trkpt>
<trkpt lat="48.45130800" lon="2.74302200"><ele></ele><time>2017-9-19T7:15:50Z</time></trkpt>
<trkpt lat="48.45129800" lon="2.74297200"><ele></ele><time>2017-9-19T7:15:53Z</time></trkpt>
<trkpt lat="48.45129500" lon="2.74292500"><ele></ele><time>2017-9-19T7:15:56Z</time></trkpt>
<trkpt lat="48.45129300" lon="2.74290700"><ele></ele><time>2017-9-19T7:15:59Z</time></trkpt>
<trkpt lat="48.45129300" lon="2.74288800"><ele></ele><time>2017-9-19T7:16:2Z</time></trkpt>
<trkpt lat="48.45129300" lon="2.74287200"><ele></ele><time>2017-9-19T7:16:5Z</time></trkpt>
<trkpt lat="48.45129500" lon="2.74285700"><ele></ele><time>2017-9-19T7:16:8Z</time></trkpt>
<trkpt lat="48.45130200" lon="2.74280800"><ele></ele><time>2017-9-19T7:16:11Z</time></trkpt>
<trkpt lat="48.45131500" lon="2.74272200"><ele></ele><time>2017-9-19T7:16:14Z</time></trkpt>
<trkpt lat="48.45131600" lon="2.74268700"><ele></ele><time>2017-9-19T7:16:17Z</time></trkpt>
<trkpt lat="48.45131600" lon="2.74258300"><ele></ele><time>2017-9-19T7:16:20Z</time></trkpt>
<trkpt lat="48.45132100" lon="2.74256700"><ele></ele><time>2017-9-19T7:16:23Z</time></trkpt>
<trkpt lat="48.45134100" lon="2.74251500"><ele></ele><time>2017-9-19T7:16:26Z</time></trkpt>
<trkpt lat="48.45135000" lon="2.74250200"><ele></ele><time>2017-9-19T7:16:29Z</time></trkpt>
<trkpt lat="48.45135800" lon="2.74248300"><ele></ele><time>2017-9-19T7:16:32Z</time></trkpt>
<trkpt lat="48.45136800" lon="2.74247300"><ele></ele><time>2017-9-19T7:16:35Z</time></trkpt>
<trkpt lat="48.45138100" lon="2.74246500"><ele></ele><time>2017-9-19T7:16:38Z</time></trkpt>
<trkpt lat="48.45140500" lon="2.74244700"><ele></ele><time>2017-9-19T7:16:41Z</time></trkpt>
<trkpt lat="48.45141300" lon="2.74243700"><ele></ele><time>2017-9-19T7:16:44Z</time></trkpt>
<trkpt lat="48.45142000" lon="2.74242000"><ele></ele><time>2017-9-19T7:16:47Z</time></trkpt>
<trkpt lat="48.45142300" lon="2.74240500"><ele></ele><time>2017-9-19T7:16:50Z</time></trkpt>
<trkpt lat="48.45144500" lon="2.74227700"><ele></ele><time>2017-9-19T7:16:53Z</time></trkpt>
<trkpt lat="48.45144200" lon="2.74225700"><ele></ele><time>2017-9-19T7:16:56Z</time></trkpt>
<trkpt lat="48.45143600" lon="2.74223700"><ele></ele><time>2017-9-19T7:16:59Z</time></trkpt>
<trkpt lat="48.45142300" lon="2.74222000"><ele></ele><time>2017-9-19T7:17:2Z</time></trkpt>
<trkpt lat="48.45140600" lon="2.74220800"><ele></ele><time>2017-9-19T7:17:5Z</time></trkpt>
<trkpt lat="48.45139300" lon="2.74219300"><ele></ele><time>2017-9-19T7:17:8Z</time></trkpt>
<trkpt lat="48.45137800" lon="2.74216300"><ele></ele><time>2017-9-19T7:17:11Z</time></trkpt>
<trkpt lat="48.45137500" lon="2.74212500"><ele></ele><time>2017-9-19T7:17:14Z</time></trkpt>
<trkpt lat="48.45137800" lon="2.74208800"><ele></ele><time>2017-9-19T7:17:17Z</time></trkpt>
<trkpt lat="48.45139300" lon="2.74199200"><ele></ele><time>2017-9-19T7:17:20Z</time></trkpt>
<trkpt lat="48.45140800" lon="2.74196000"><ele></ele><time>2017-9-19T7:17:23Z</time></trkpt>
<trkpt lat="48.45141700" lon="2.74193700"><ele></ele><time>2017-9-19T7:17:26Z</time></trkpt>
<trkpt lat="48.45142000" lon="2.74190700"><ele></ele><time>2017-9-19T7:17:29Z</time></trkpt>
<trkpt lat="48.45142300" lon="2.74188200"><ele></ele><time>2017-9-19T7:17:32Z</time></trkpt>
<trkpt lat="48.45142300" lon="2.74185500"><ele></ele><time>2017-9-19T7:17:35Z</time></trkpt>
<trkpt lat="48.45141700" lon="2.74182700"><ele></ele><time>2017-9-19T7:17:38Z</time></trkpt>
<trkpt lat="48.45140000" lon="2.74175700"><ele></ele><time>2017-9-19T7:17:41Z</time></trkpt>
<trkpt lat="48.45139800" lon="2.74172500"><ele></ele><time>2017-9-19T7:17:44Z</time></trkpt>
<trkpt lat="48.45139200" lon="2.74166200"><ele></ele><time>2017-9-19T7:17:47Z</time></trkpt>
<trkpt lat="48.45138500" lon="2.74162700"><ele></ele><time>2017-9-19T7:17:50Z</time></trkpt>
<trkpt lat="48.45137700" lon="2.74159300"><ele></ele><time>2017-9-19T7:17:53Z</time></trkpt>
<trkpt lat="48.45135500" lon="2.74148800"><ele></ele><time>2017-9-19T7:17:56Z</time></trkpt>
<trkpt lat="48.45133500" lon="2.74140500"><ele></ele><time>2017-9-19T7:17:59Z</time></trkpt>
<trkpt lat="48.45130000" lon="2.74131300"><ele></ele><time>2017-9-19T7:18:2Z</time></trkpt>
<trkpt lat="48.45125300" lon="2.74119500"><ele></ele><time>2017-9-19T7:18:5Z</time></trkpt>
<trkpt lat="48.45124800" lon="2.74116200"><ele></ele><time>2017-9-19T7:18:8Z</time></trkpt>
<trkpt lat="48.45125200" lon="2.74111300"><ele></ele><time>2017-9-19T7:18:11Z</time></trkpt>
<trkpt lat="48.45125800" lon="2.74107200"><ele></ele><time>2017-9-19T7:18:14Z</time></trkpt>
<trkpt lat="48.45126800" lon="2.74106300"><ele></ele><time>2017-9-19T7:18:17Z</time></trkpt>
<trkpt lat="48.45127800" lon="2.74107000"><ele></ele><time>2017-9-19T7:18:20Z</time></trkpt>
<trkpt lat="48.45128800" lon="2.74108300"><ele></ele><time>2017-9-19T7:18:23Z</time></trkpt>
<trkpt lat="48.45131500" lon="2.74110800"><ele></ele><time>2017-9-19T7:18:26Z</time></trkpt>
<trkpt lat="48.45149800" lon="2.74124300"><ele></ele><time>2017-9-19T7:18:29Z</time></trkpt>
<trkpt lat="48.45151300" lon="2.74126000"><ele></ele><time>2017-9-19T7:18:32Z</time></trkpt>
<trkpt lat="48.45154500" lon="2.74127300"><ele></ele><time>2017-9-19T7:18:35Z</time></trkpt>
<trkpt lat="48.45161000" lon="2.74130200"><ele></ele><time>2017-9-19T7:18:38Z</time></trkpt>
<trkpt lat="48.45162200" lon="2.74131200"><ele></ele><time>2017-9-19T7:18:41Z</time></trkpt>
<trkpt lat="48.45173000" lon="2.74139300"><ele></ele><time>2017-9-19T7:18:44Z</time></trkpt>
<trkpt lat="48.45190800" lon="2.74151000"><ele></ele><time>2017-9-19T7:18:47Z</time></trkpt>
<trkpt lat="48.45226800" lon="2.74179000"><ele></ele><time>2017-9-19T7:18:50Z</time></trkpt>
<trkpt lat="48.45269800" lon="2.74215500"><ele></ele><time>2017-9-19T7:18:53Z</time></trkpt>
<trkpt lat="48.45277700" lon="2.74223800"><ele></ele><time>2017-9-19T7:18:56Z</time></trkpt>
<trkpt lat="48.45292600" lon="2.74238700"><ele></ele><time>2017-9-19T7:18:59Z</time></trkpt>
<trkpt lat="48.45295300" lon="2.74240200"><ele></ele><time>2017-9-19T7:19:2Z</time></trkpt>
<trkpt lat="48.45296700" lon="2.74241500"><ele></ele><time>2017-9-19T7:19:5Z</time></trkpt>
<trkpt lat="48.45297500" lon="2.74242800"><ele></ele><time>2017-9-19T7:19:8Z</time></trkpt>
<trkpt lat="48.45298000" lon="2.74243800"><ele></ele><time>2017-9-19T7:19:11Z</time></trkpt>
<trkpt lat="48.45298300" lon="2.74244700"><ele></ele><time>2017-9-19T7:19:14Z</time></trkpt>
<trkpt lat="48.45298800" lon="2.74245300"><ele></ele><time>2017-9-19T7:19:17Z</time></trkpt>
<trkpt lat="48.45300200" lon="2.74245800"><ele></ele><time>2017-9-19T7:19:20Z</time></trkpt>
<trkpt lat="48.45302000" lon="2.74245300"><ele></ele><time>2017-9-19T7:19:23Z</time></trkpt>
<trkpt lat="48.45304100" lon="2.74244000"><ele></ele><time>2017-9-19T7:19:26Z</time></trkpt>
<trkpt lat="48.45306200" lon="2.74241700"><ele></ele><time>2017-9-19T7:19:29Z</time></trkpt>
<trkpt lat="48.45307800" lon="2.74238200"><ele></ele><time>2017-9-19T7:19:32Z</time></trkpt>
<trkpt lat="48.45310000" lon="2.74233700"><ele></ele><time>2017-9-19T7:19:35Z</time></trkpt>
<trkpt lat="48.45311500" lon="2.74228800"><ele></ele><time>2017-9-19T7:19:38Z</time></trkpt>
<trkpt lat="48.45314200" lon="2.74218200"><ele></ele><time>2017-9-19T7:19:41Z</time></trkpt>
<trkpt lat="48.45344600" lon="2.74066000"><ele></ele><time>2017-9-19T7:19:44Z</time></trkpt>
<trkpt lat="48.45346800" lon="2.74048000"><ele></ele><time>2017-9-19T7:19:47Z</time></trkpt>
<trkpt lat="48.45350200" lon="2.74002200"><ele></ele><time>2017-9-19T7:19:50Z</time></trkpt>
<trkpt lat="48.45350200" lon="2.73992800"><ele></ele><time>2017-9-19T7:19:53Z</time></trkpt>
<trkpt lat="48.45350000" lon="2.73923500"><ele></ele><time>2017-9-19T7:19:56Z</time></trkpt>
<trkpt lat="48.45349300" lon="2.73915000"><ele></ele><time>2017-9-19T7:19:59Z</time></trkpt>
<trkpt lat="48.45346000" lon="2.73851300"><ele></ele><time>2017-9-19T7:20:2Z</time></trkpt>
<trkpt lat="48.45347700" lon="2.73845500"><ele></ele><time>2017-9-19T7:20:5Z</time></trkpt>
<trkpt lat="48.45350200" lon="2.73841800"><ele></ele><time>2017-9-19T7:20:8Z</time></trkpt>
<trkpt lat="48.45353000" lon="2.73840700"><ele></ele><time>2017-9-19T7:20:11Z</time></trkpt>
<trkpt lat="48.45362000" lon="2.73841300"><ele></ele><time>2017-9-19T7:20:14Z</time></trkpt>
<trkpt lat="48.45366800" lon="2.73844300"><ele></ele><time>2017-9-19T7:20:17Z</time></trkpt>
<trkpt lat="48.45393500" lon="2.73861000"><ele></ele><time>2017-9-19T7:20:20Z</time></trkpt>
<trkpt lat="48.45485600" lon="2.73923800"><ele></ele><time>2017-9-19T7:20:23Z</time></trkpt>
<trkpt lat="48.45532000" lon="2.73961800"><ele></ele><time>2017-9-19T7:20:26Z</time></trkpt>
<trkpt lat="48.45603300" lon="2.74016300"><ele></ele><time>2017-9-19T7:20:29Z</time></trkpt>
<trkpt lat="48.45607500" lon="2.74017300"><ele></ele><time>2017-9-19T7:20:32Z</time></trkpt>
<trkpt lat="48.45619200" lon="2.74020500"><ele></ele><time>2017-9-19T7:20:35Z</time></trkpt>
<trkpt lat="48.45622000" lon="2.74022200"><ele></ele><time>2017-9-19T7:20:38Z</time></trkpt>
<trkpt lat="48.45624500" lon="2.74024300"><ele></ele><time>2017-9-19T7:20:41Z</time></trkpt>
<trkpt lat="48.45627300" lon="2.74027200"><ele></ele><time>2017-9-19T7:20:44Z</time></trkpt>
<trkpt lat="48.45629700" lon="2.74030600"><ele></ele><time>2017-9-19T7:20:47Z</time></trkpt>
<trkpt lat="48.45632500" lon="2.74033800"><ele></ele><time>2017-9-19T7:20:50Z</time></trkpt>
<trkpt lat="48.45635500" lon="2.74036800"><ele></ele><time>2017-9-19T7:20:53Z</time></trkpt>
<trkpt lat="48.45639000" lon="2.74039700"><ele></ele><time>2017-9-19T7:20:56Z</time></trkpt>
<trkpt lat="48.45682800" lon="2.74073800"><ele></ele><time>2017-9-19T7:20:59Z</time></trkpt>
<trkpt lat="48.45686000" lon="2.74077700"><ele></ele><time>2017-9-19T7:21:2Z</time></trkpt>
<trkpt lat="48.45695300" lon="2.74089700"><ele></ele><time>2017-9-19T7:21:5Z</time></trkpt>
<trkpt lat="48.45698300" lon="2.74094700"><ele></ele><time>2017-9-19T7:21:8Z</time></trkpt>
<trkpt lat="48.45703300" lon="2.74105500"><ele></ele><time>2017-9-19T7:21:11Z</time></trkpt>
<trkpt lat="48.45793200" lon="2.74310800"><ele></ele><time>2017-9-19T7:21:14Z</time></trkpt>
<trkpt lat="48.45795200" lon="2.74318300"><ele></ele><time>2017-9-19T7:21:17Z</time></trkpt>
<trkpt lat="48.45842300" lon="2.74514500"><ele></ele><time>2017-9-19T7:21:20Z</time></trkpt>
<trkpt lat="48.45843300" lon="2.74520000"><ele></ele><time>2017-9-19T7:21:23Z</time></trkpt>
<trkpt lat="48.45848800" lon="2.74526700"><ele></ele><time>2017-9-19T7:21:26Z</time></trkpt>
<trkpt lat="48.45852700" lon="2.74526200"><ele></ele><time>2017-9-19T7:21:29Z</time></trkpt>
<trkpt lat="48.45856700" lon="2.74523700"><ele></ele><time>2017-9-19T7:21:32Z</time></trkpt>
<trkpt lat="48.45944500" lon="2.74468800"><ele></ele><time>2017-9-19T7:21:35Z</time></trkpt>
<trkpt lat="48.45945300" lon="2.74469700"><ele></ele><time>2017-9-19T7:21:38Z</time></trkpt>
<trkpt lat="48.45946600" lon="2.74471500"><ele></ele><time>2017-9-19T7:21:41Z</time></trkpt>
<trkpt lat="48.45947800" lon="2.74474200"><ele></ele><time>2017-9-19T7:21:44Z</time></trkpt>
<trkpt lat="48.45949000" lon="2.74477800"><ele></ele><time>2017-9-19T7:21:47Z</time></trkpt>
<trkpt lat="48.45955500" lon="2.74505800"><ele></ele><time>2017-9-19T7:21:50Z</time></trkpt>
<trkpt lat="48.45971600" lon="2.74593300"><ele></ele><time>2017-9-19T7:21:53Z</time></trkpt>
<trkpt lat="48.45976800" lon="2.74628200"><ele></ele><time>2017-9-19T7:21:56Z</time></trkpt>
<trkpt lat="48.45978500" lon="2.74635500"><ele></ele><time>2017-9-19T7:21:59Z</time></trkpt>
<trkpt lat="48.45982000" lon="2.74649100"><ele></ele><time>2017-9-19T7:22:2Z</time></trkpt>
<trkpt lat="48.45982500" lon="2.74650800"><ele></ele><time>2017-9-19T7:22:5Z</time></trkpt>
<trkpt lat="48.45982800" lon="2.74651300"><ele></ele><time>2017-9-19T7:22:8Z</time></trkpt>
<trkpt lat="48.45982800" lon="2.74652200"><ele></ele><time>2017-9-19T7:22:11Z</time></trkpt>
<trkpt lat="48.45983300" lon="2.74654200"><ele></ele><time>2017-9-19T7:22:14Z</time></trkpt>
<trkpt lat="48.45983300" lon="2.74653800"><ele></ele><time>2017-9-19T7:22:17Z</time></trkpt>
<trkpt lat="48.45983700" lon="2.74654200"><ele></ele><time>2017-9-19T7:22:20Z</time></trkpt>
<trkpt lat="48.45983800" lon="2.74654500"><ele></ele><time>2017-9-19T7:22:23Z</time></trkpt>
<trkpt lat="48.45984000" lon="2.74655000"><ele></ele><time>2017-9-19T7:22:26Z</time></trkpt>
<trkpt lat="48.45984000" lon="2.74655300"><ele></ele><time>2017-9-19T7:22:29Z</time></trkpt>
<trkpt lat="48.45984200" lon="2.74655700"><ele></ele><time>2017-9-19T7:22:32Z</time></trkpt>
<trkpt lat="48.45984200" lon="2.74656000"><ele></ele><time>2017-9-19T7:22:35Z</time></trkpt>
<trkpt lat="48.45984300" lon="2.74656300"><ele></ele><time>2017-9-19T7:22:38Z</time></trkpt>
<trkpt lat="48.45984300" lon="2.74656700"><ele></ele><time>2017-9-19T7:22:41Z</time></trkpt>
<trkpt lat="48.45984300" lon="2.74657000"><ele></ele><time>2017-9-19T7:22:44Z</time></trkpt>
<trkpt lat="48.45984500" lon="2.74657200"><ele></ele><time>2017-9-19T7:22:47Z</time></trkpt>
<trkpt lat="48.45984800" lon="2.74657300"><ele></ele><time>2017-9-19T7:22:50Z</time></trkpt>
<trkpt lat="48.45985200" lon="2.74657600"><ele></ele><time>2017-9-19T7:22:53Z</time></trkpt>
<trkpt lat="48.45985500" lon="2.74658000"><ele></ele><time>2017-9-19T7:22:56Z</time></trkpt>
<trkpt lat="48.45985800" lon="2.74658300"><ele></ele><time>2017-9-19T7:22:59Z</time></trkpt>
<trkpt lat="48.45986200" lon="2.74658700"><ele></ele><time>2017-9-19T7:23:2Z</time></trkpt>
<trkpt lat="48.45986500" lon="2.74659300"><ele></ele><time>2017-9-19T7:23:5Z</time></trkpt>
<trkpt lat="48.45987500" lon="2.74660000"><ele></ele><time>2017-9-19T7:23:8Z</time></trkpt>
<trkpt lat="48.45988500" lon="2.74660600"><ele></ele><time>2017-9-19T7:23:11Z</time></trkpt>
<trkpt lat="48.45989100" lon="2.74661800"><ele></ele><time>2017-9-19T7:23:14Z</time></trkpt>
<trkpt lat="48.45990000" lon="2.74664200"><ele></ele><time>2017-9-19T7:23:17Z</time></trkpt>
<trkpt lat="48.46002700" lon="2.74693700"><ele></ele><time>2017-9-19T7:23:20Z</time></trkpt>
<trkpt lat="48.46004500" lon="2.74699300"><ele></ele><time>2017-9-19T7:23:23Z</time></trkpt>
<trkpt lat="48.46007300" lon="2.74705700"><ele></ele><time>2017-9-19T7:23:26Z</time></trkpt>
<trkpt lat="48.46028300" lon="2.74743300"><ele></ele><time>2017-9-19T7:23:29Z</time></trkpt>
<trkpt lat="48.46032300" lon="2.74749000"><ele></ele><time>2017-9-19T7:23:32Z</time></trkpt>
<trkpt lat="48.46064000" lon="2.74789700"><ele></ele><time>2017-9-19T7:23:35Z</time></trkpt>
<trkpt lat="48.46067100" lon="2.74795200"><ele></ele><time>2017-9-19T7:23:38Z</time></trkpt>
<trkpt lat="48.46076100" lon="2.74807500"><ele></ele><time>2017-9-19T7:23:41Z</time></trkpt>
<trkpt lat="48.46078500" lon="2.74811200"><ele></ele><time>2017-9-19T7:23:44Z</time></trkpt>
<trkpt lat="48.46079800" lon="2.74814800"><ele></ele><time>2017-9-19T7:23:47Z</time></trkpt>
<trkpt lat="48.46080200" lon="2.74819000"><ele></ele><time>2017-9-19T7:23:50Z</time></trkpt>
<trkpt lat="48.46079700" lon="2.74822800"><ele></ele><time>2017-9-19T7:23:53Z</time></trkpt>
<trkpt lat="48.46078500" lon="2.74825800"><ele></ele><time>2017-9-19T7:23:56Z</time></trkpt>
<trkpt lat="48.46076100" lon="2.74832800"><ele></ele><time>2017-9-19T7:23:59Z</time></trkpt>
<trkpt lat="48.46075200" lon="2.74836800"><ele></ele><time>2017-9-19T7:24:2Z</time></trkpt>
<trkpt lat="48.46060600" lon="2.74901500"><ele></ele><time>2017-9-19T7:24:5Z</time></trkpt>
<trkpt lat="48.46058600" lon="2.74906000"><ele></ele><time>2017-9-19T7:24:8Z</time></trkpt>
<trkpt lat="48.46055300" lon="2.74915300"><ele></ele><time>2017-9-19T7:24:11Z</time></trkpt>
<trkpt lat="48.46051600" lon="2.74928700"><ele></ele><time>2017-9-19T7:24:14Z</time></trkpt>
<trkpt lat="48.46023100" lon="2.75051500"><ele></ele><time>2017-9-19T7:24:17Z</time></trkpt>
<trkpt lat="48.45985800" lon="2.75178800"><ele></ele><time>2017-9-19T7:24:20Z</time></trkpt>
<trkpt lat="48.45962000" lon="2.75244200"><ele></ele><time>2017-9-19T7:24:23Z</time></trkpt>
<trkpt lat="48.45959700" lon="2.75249200"><ele></ele><time>2017-9-19T7:24:26Z</time></trkpt>
<trkpt lat="48.45952300" lon="2.75263000"><ele></ele><time>2017-9-19T7:24:29Z</time></trkpt>
<trkpt lat="48.45951800" lon="2.75265200"><ele></ele><time>2017-9-19T7:24:32Z</time></trkpt>
<trkpt lat="48.45952000" lon="2.75266500"><ele></ele><time>2017-9-19T7:24:35Z</time></trkpt>
<trkpt lat="48.45952500" lon="2.75267700"><ele></ele><time>2017-9-19T7:24:38Z</time></trkpt>
<trkpt lat="48.45953500" lon="2.75269800"><ele></ele><time>2017-9-19T7:24:41Z</time></trkpt>
<trkpt lat="48.45954800" lon="2.75271800"><ele></ele><time>2017-9-19T7:24:44Z</time></trkpt>
<trkpt lat="48.45956700" lon="2.75273500"><ele></ele><time>2017-9-19T7:24:47Z</time></trkpt>
<trkpt lat="48.45958800" lon="2.75274500"><ele></ele><time>2017-9-19T7:24:50Z</time></trkpt>
<trkpt lat="48.45967500" lon="2.75279200"><ele></ele><time>2017-9-19T7:24:53Z</time></trkpt>
<trkpt lat="48.46001300" lon="2.75298800"><ele></ele><time>2017-9-19T7:24:56Z</time></trkpt>
<trkpt lat="48.46034500" lon="2.75322500"><ele></ele><time>2017-9-19T7:24:59Z</time></trkpt>
<trkpt lat="48.46038300" lon="2.75326000"><ele></ele><time>2017-9-19T7:25:2Z</time></trkpt>
<trkpt lat="48.46046000" lon="2.75332200"><ele></ele><time>2017-9-19T7:25:5Z</time></trkpt>
<trkpt lat="48.46057500" lon="2.75339800"><ele></ele><time>2017-9-19T7:25:8Z</time></trkpt>
<trkpt lat="48.46120000" lon="2.75375000"><ele></ele><time>2017-9-19T7:25:11Z</time></trkpt>
<trkpt lat="48.46144500" lon="2.75385300"><ele></ele><time>2017-9-19T7:25:14Z</time></trkpt>
<trkpt lat="48.46150000" lon="2.75386500"><ele></ele><time>2017-9-19T7:25:17Z</time></trkpt>
<trkpt lat="48.46164700" lon="2.75391300"><ele></ele><time>2017-9-19T7:25:20Z</time></trkpt>
<trkpt lat="48.46169300" lon="2.75393500"><ele></ele><time>2017-9-19T7:25:23Z</time></trkpt>
<trkpt lat="48.46216000" lon="2.75406000"><ele></ele><time>2017-9-19T7:25:26Z</time></trkpt>
<trkpt lat="48.46221200" lon="2.75406000"><ele></ele><time>2017-9-19T7:25:29Z</time></trkpt>
<trkpt lat="48.46226300" lon="2.75405500"><ele></ele><time>2017-9-19T7:25:32Z</time></trkpt>
<trkpt lat="48.46246300" lon="2.75403500"><ele></ele><time>2017-9-19T7:25:35Z</time></trkpt>
<trkpt lat="48.46255800" lon="2.75403700"><ele></ele><time>2017-9-19T7:25:38Z</time></trkpt>
<trkpt lat="48.46260100" lon="2.75404800"><ele></ele><time>2017-9-19T7:25:41Z</time></trkpt>
<trkpt lat="48.46264300" lon="2.75407200"><ele></ele><time>2017-9-19T7:25:44Z</time></trkpt>
<trkpt lat="48.46271300" lon="2.75412500"><ele></ele><time>2017-9-19T7:25:47Z</time></trkpt>
<trkpt lat="48.46273500" lon="2.75413200"><ele></ele><time>2017-9-19T7:25:50Z</time></trkpt>
<trkpt lat="48.46273800" lon="2.75413500"><ele></ele><time>2017-9-19T7:25:53Z</time></trkpt>
<trkpt lat="48.46274000" lon="2.75413800"><ele></ele><time>2017-9-19T7:25:56Z</time></trkpt>
<trkpt lat="48.46274100" lon="2.75414000"><ele></ele><time>2017-9-19T7:25:59Z</time></trkpt>
<trkpt lat="48.46276500" lon="2.75415700"><ele></ele><time>2017-9-19T7:26:2Z</time></trkpt>
<trkpt lat="48.46277800" lon="2.75415800"><ele></ele><time>2017-9-19T7:26:5Z</time></trkpt>
<trkpt lat="48.46278500" lon="2.75414500"><ele></ele><time>2017-9-19T7:26:8Z</time></trkpt>
<trkpt lat="48.46279700" lon="2.75413700"><ele></ele><time>2017-9-19T7:26:11Z</time></trkpt>
<trkpt lat="48.46281000" lon="2.75413500"><ele></ele><time>2017-9-19T7:26:14Z</time></trkpt>
<trkpt lat="48.46282600" lon="2.75413700"><ele></ele><time>2017-9-19T7:26:17Z</time></trkpt>
<trkpt lat="48.46294800" lon="2.75415000"><ele></ele><time>2017-9-19T7:26:20Z</time></trkpt>
<trkpt lat="48.46303100" lon="2.75417100"><ele></ele><time>2017-9-19T7:26:23Z</time></trkpt>
<trkpt lat="48.46374800" lon="2.75442000"><ele></ele><time>2017-9-19T7:26:26Z</time></trkpt>
<trkpt lat="48.46378800" lon="2.75446700"><ele></ele><time>2017-9-19T7:26:29Z</time></trkpt>
<trkpt lat="48.46382200" lon="2.75452500"><ele></ele><time>2017-9-19T7:26:32Z</time></trkpt>
<trkpt lat="48.46384500" lon="2.75459200"><ele></ele><time>2017-9-19T7:26:35Z</time></trkpt>
<trkpt lat="48.46409500" lon="2.75525700"><ele></ele><time>2017-9-19T7:26:38Z</time></trkpt>
<trkpt lat="48.46412500" lon="2.75533000"><ele></ele><time>2017-9-19T7:26:41Z</time></trkpt>
<trkpt lat="48.46416000" lon="2.75540200"><ele></ele><time>2017-9-19T7:26:44Z</time></trkpt>
<trkpt lat="48.46431300" lon="2.75589500"><ele></ele><time>2017-9-19T7:26:47Z</time></trkpt>
<trkpt lat="48.46449200" lon="2.75650500"><ele></ele><time>2017-9-19T7:26:50Z</time></trkpt>
<trkpt lat="48.46499100" lon="2.75830500"><ele></ele><time>2017-9-19T7:26:53Z</time></trkpt>
<trkpt lat="48.46504300" lon="2.75845800"><ele></ele><time>2017-9-19T7:26:56Z</time></trkpt>
<trkpt lat="48.46516500" lon="2.75883300"><ele></ele><time>2017-9-19T7:26:59Z</time></trkpt>
<trkpt lat="48.46520300" lon="2.75891700"><ele></ele><time>2017-9-19T7:27:2Z</time></trkpt>
<trkpt lat="48.46522500" lon="2.75899800"><ele></ele><time>2017-9-19T7:27:5Z</time></trkpt>
<trkpt lat="48.46530300" lon="2.75933500"><ele></ele><time>2017-9-19T7:27:8Z</time></trkpt>
<trkpt lat="48.46533500" lon="2.75942200"><ele></ele><time>2017-9-19T7:27:11Z</time></trkpt>
<trkpt lat="48.46543500" lon="2.75973000"><ele></ele><time>2017-9-19T7:27:14Z</time></trkpt>
<trkpt lat="48.46545200" lon="2.75979800"><ele></ele><time>2017-9-19T7:27:17Z</time></trkpt>
<trkpt lat="48.46548500" lon="2.75987300"><ele></ele><time>2017-9-19T7:27:20Z</time></trkpt>
<trkpt lat="48.46557800" lon="2.76014700"><ele></ele><time>2017-9-19T7:27:23Z</time></trkpt>
<trkpt lat="48.46560000" lon="2.76022300"><ele></ele><time>2017-9-19T7:27:26Z</time></trkpt>
<trkpt lat="48.46586000" lon="2.76098500"><ele></ele><time>2017-9-19T7:27:29Z</time></trkpt>
<trkpt lat="48.46585700" lon="2.76098200"><ele></ele><time>2017-9-19T7:27:32Z</time></trkpt>
<trkpt lat="48.46586200" lon="2.76098200"><ele></ele><time>2017-9-19T7:27:35Z</time></trkpt>
<trkpt lat="48.46586000" lon="2.76097300"><ele></ele><time>2017-9-19T7:27:38Z</time></trkpt>
<trkpt lat="48.46585800" lon="2.76096800"><ele></ele><time>2017-9-19T7:27:41Z</time></trkpt>
<trkpt lat="48.46585500" lon="2.76096500"><ele></ele><time>2017-9-19T7:27:44Z</time></trkpt>
<trkpt lat="48.46585300" lon="2.76096300"><ele></ele><time>2017-9-19T7:27:47Z</time></trkpt>
<trkpt lat="48.46585000" lon="2.76096200"><ele></ele><time>2017-9-19T7:27:50Z</time></trkpt>
<trkpt lat="48.46584800" lon="2.76096200"><ele></ele><time>2017-9-19T7:27:53Z</time></trkpt>
<trkpt lat="48.46585000" lon="2.76096200"><ele></ele><time>2017-9-19T7:27:56Z</time></trkpt>
<trkpt lat="48.46585300" lon="2.76096200"><ele></ele><time>2017-9-19T7:27:59Z</time></trkpt>
<trkpt lat="48.46585500" lon="2.76096300"><ele></ele><time>2017-9-19T7:28:2Z</time></trkpt>
<trkpt lat="48.46585300" lon="2.76096500"><ele></ele><time>2017-9-19T7:28:5Z</time></trkpt>
<trkpt lat="48.46585800" lon="2.76097200"><ele></ele><time>2017-9-19T7:28:8Z</time></trkpt>
<trkpt lat="48.46586000" lon="2.76097700"><ele></ele><time>2017-9-19T7:28:11Z</time></trkpt>
<trkpt lat="48.46586000" lon="2.76098600"><ele></ele><time>2017-9-19T7:28:14Z</time></trkpt>
<trkpt lat="48.46586200" lon="2.76100300"><ele></ele><time>2017-9-19T7:28:17Z</time></trkpt>
<trkpt lat="48.46586500" lon="2.76102800"><ele></ele><time>2017-9-19T7:28:20Z</time></trkpt>
<trkpt lat="48.46587300" lon="2.76106000"><ele></ele><time>2017-9-19T7:28:23Z</time></trkpt>
<trkpt lat="48.46590700" lon="2.76138000"><ele></ele><time>2017-9-19T7:28:26Z</time></trkpt>
<trkpt lat="48.46591300" lon="2.76187200"><ele></ele><time>2017-9-19T7:28:29Z</time></trkpt>
<trkpt lat="48.46595600" lon="2.76314300"><ele></ele><time>2017-9-19T7:28:32Z</time></trkpt>
<trkpt lat="48.46596800" lon="2.76361300"><ele></ele><time>2017-9-19T7:28:35Z</time></trkpt>
<trkpt lat="48.46598000" lon="2.76370000"><ele></ele><time>2017-9-19T7:28:38Z</time></trkpt>
<trkpt lat="48.46601800" lon="2.76397200"><ele></ele><time>2017-9-19T7:28:41Z</time></trkpt>
<trkpt lat="48.46601500" lon="2.76405800"><ele></ele><time>2017-9-19T7:28:44Z</time></trkpt>
<trkpt lat="48.46578100" lon="2.76643000"><ele></ele><time>2017-9-19T7:28:47Z</time></trkpt>
<trkpt lat="48.46577200" lon="2.76658700"><ele></ele><time>2017-9-19T7:28:50Z</time></trkpt>
<trkpt lat="48.46578800" lon="2.76668800"><ele></ele><time>2017-9-19T7:28:53Z</time></trkpt>
<trkpt lat="48.46580500" lon="2.76688300"><ele></ele><time>2017-9-19T7:28:56Z</time></trkpt>
<trkpt lat="48.46580000" lon="2.76715300"><ele></ele><time>2017-9-19T7:28:59Z</time></trkpt>
<trkpt lat="48.46580200" lon="2.76743500"><ele></ele><time>2017-9-19T7:29:2Z</time></trkpt>
<trkpt lat="48.46580000" lon="2.76819300"><ele></ele><time>2017-9-19T7:29:5Z</time></trkpt>
<trkpt lat="48.46580200" lon="2.76827300"><ele></ele><time>2017-9-19T7:29:8Z</time></trkpt>
<trkpt lat="48.46580800" lon="2.76834500"><ele></ele><time>2017-9-19T7:29:11Z</time></trkpt>
<trkpt lat="48.46582700" lon="2.76895200"><ele></ele><time>2017-9-19T7:29:14Z</time></trkpt>
<trkpt lat="48.46584300" lon="2.76922300"><ele></ele><time>2017-9-19T7:29:17Z</time></trkpt>
<trkpt lat="48.46585100" lon="2.76931200"><ele></ele><time>2017-9-19T7:29:20Z</time></trkpt>
<trkpt lat="48.46584300" lon="2.76966700"><ele></ele><time>2017-9-19T7:29:23Z</time></trkpt>
<trkpt lat="48.46584200" lon="2.76975000"><ele></ele><time>2017-9-19T7:29:26Z</time></trkpt>
<trkpt lat="48.46583300" lon="2.76988200"><ele></ele><time>2017-9-19T7:29:29Z</time></trkpt>
<trkpt lat="48.46583000" lon="2.76990200"><ele></ele><time>2017-9-19T7:29:32Z</time></trkpt>
<trkpt lat="48.46582300" lon="2.76990800"><ele></ele><time>2017-9-19T7:29:35Z</time></trkpt>
<trkpt lat="48.46582000" lon="2.76991700"><ele></ele><time>2017-9-19T7:29:38Z</time></trkpt>
<trkpt lat="48.46582100" lon="2.76992200"><ele></ele><time>2017-9-19T7:29:41Z</time></trkpt>
<trkpt lat="48.46583300" lon="2.76999000"><ele></ele><time>2017-9-19T7:29:44Z</time></trkpt>
<trkpt lat="48.46584300" lon="2.77011500"><ele></ele><time>2017-9-19T7:29:47Z</time></trkpt>
<trkpt lat="48.46585300" lon="2.77016000"><ele></ele><time>2017-9-19T7:29:50Z</time></trkpt>
<trkpt lat="48.46586800" lon="2.77020500"><ele></ele><time>2017-9-19T7:29:53Z</time></trkpt>
<trkpt lat="48.46595800" lon="2.77050000"><ele></ele><time>2017-9-19T7:29:56Z</time></trkpt>
<trkpt lat="48.46598000" lon="2.77054800"><ele></ele><time>2017-9-19T7:29:59Z</time></trkpt>
<trkpt lat="48.46607100" lon="2.77077500"><ele></ele><time>2017-9-19T7:30:2Z</time></trkpt>
<trkpt lat="48.46609600" lon="2.77080000"><ele></ele><time>2017-9-19T7:30:5Z</time></trkpt>
<trkpt lat="48.46616800" lon="2.77084000"><ele></ele><time>2017-9-19T7:30:8Z</time></trkpt>
<trkpt lat="48.46620000" lon="2.77084500"><ele></ele><time>2017-9-19T7:30:11Z</time></trkpt>
<trkpt lat="48.46629000" lon="2.77084800"><ele></ele><time>2017-9-19T7:30:14Z</time></trkpt>
<trkpt lat="48.46632700" lon="2.77084300"><ele></ele><time>2017-9-19T7:30:17Z</time></trkpt>
<trkpt lat="48.46640200" lon="2.77081500"><ele></ele><time>2017-9-19T7:30:20Z</time></trkpt>
<trkpt lat="48.46662000" lon="2.77075500"><ele></ele><time>2017-9-19T7:30:23Z</time></trkpt>
<trkpt lat="48.46667000" lon="2.77076000"><ele></ele><time>2017-9-19T7:30:26Z</time></trkpt>
<trkpt lat="48.46671600" lon="2.77076300"><ele></ele><time>2017-9-19T7:30:29Z</time></trkpt>
<trkpt lat="48.46676100" lon="2.77076300"><ele></ele><time>2017-9-19T7:30:32Z</time></trkpt>
<trkpt lat="48.46681800" lon="2.77076000"><ele></ele><time>2017-9-19T7:30:35Z</time></trkpt>
<trkpt lat="48.46693700" lon="2.77073300"><ele></ele><time>2017-9-19T7:30:38Z</time></trkpt>
<trkpt lat="48.46736500" lon="2.77064000"><ele></ele><time>2017-9-19T7:30:41Z</time></trkpt>
<trkpt lat="48.46741000" lon="2.77064300"><ele></ele><time>2017-9-19T7:30:44Z</time></trkpt>
<trkpt lat="48.46746300" lon="2.77064800"><ele></ele><time>2017-9-19T7:30:47Z</time></trkpt>
<trkpt lat="48.46756600" lon="2.77064800"><ele></ele><time>2017-9-19T7:30:50Z</time></trkpt>
<trkpt lat="48.46761300" lon="2.77064300"><ele></ele><time>2017-9-19T7:30:53Z</time></trkpt>
<trkpt lat="48.46804300" lon="2.77056200"><ele></ele><time>2017-9-19T7:30:56Z</time></trkpt>
<trkpt lat="48.46810000" lon="2.77054200"><ele></ele><time>2017-9-19T7:30:59Z</time></trkpt>
<trkpt lat="48.46840800" lon="2.77044500"><ele></ele><time>2017-9-19T7:31:2Z</time></trkpt>
<trkpt lat="48.46846300" lon="2.77041200"><ele></ele><time>2017-9-19T7:31:5Z</time></trkpt>
<trkpt lat="48.46850200" lon="2.77037200"><ele></ele><time>2017-9-19T7:31:8Z</time></trkpt>
<trkpt lat="48.46853700" lon="2.77031500"><ele></ele><time>2017-9-19T7:31:11Z</time></trkpt>
<trkpt lat="48.46932100" lon="2.76905000"><ele></ele><time>2017-9-19T7:31:14Z</time></trkpt>
<trkpt lat="48.46936100" lon="2.76901100"><ele></ele><time>2017-9-19T7:31:17Z</time></trkpt>
<trkpt lat="48.46938600" lon="2.76897300"><ele></ele><time>2017-9-19T7:31:20Z</time></trkpt>
<trkpt lat="48.46949500" lon="2.76875700"><ele></ele><time>2017-9-19T7:31:23Z</time></trkpt>
<trkpt lat="48.46958000" lon="2.76859700"><ele></ele><time>2017-9-19T7:31:26Z</time></trkpt>
<trkpt lat="48.46960600" lon="2.76855700"><ele></ele><time>2017-9-19T7:31:29Z</time></trkpt>
<trkpt lat="48.46982200" lon="2.76819700"><ele></ele><time>2017-9-19T7:31:32Z</time></trkpt>
<trkpt lat="48.46987000" lon="2.76814500"><ele></ele><time>2017-9-19T7:31:35Z</time></trkpt>
<trkpt lat="48.46989300" lon="2.76811500"><ele></ele><time>2017-9-19T7:31:38Z</time></trkpt>
<trkpt lat="48.46991500" lon="2.76808200"><ele></ele><time>2017-9-19T7:31:41Z</time></trkpt>
<trkpt lat="48.47045300" lon="2.76711000"><ele></ele><time>2017-9-19T7:31:44Z</time></trkpt>
<trkpt lat="48.47056300" lon="2.76689800"><ele></ele><time>2017-9-19T7:31:47Z</time></trkpt>
<trkpt lat="48.47059000" lon="2.76687300"><ele></ele><time>2017-9-19T7:31:50Z</time></trkpt>
<trkpt lat="48.47061500" lon="2.76684500"><ele></ele><time>2017-9-19T7:31:53Z</time></trkpt>
<trkpt lat="48.47064000" lon="2.76680800"><ele></ele><time>2017-9-19T7:31:56Z</time></trkpt>
<trkpt lat="48.47071300" lon="2.76667700"><ele></ele><time>2017-9-19T7:31:59Z</time></trkpt>
<trkpt lat="48.47075200" lon="2.76657500"><ele></ele><time>2017-9-19T7:32:2Z</time></trkpt>
<trkpt lat="48.47079800" lon="2.76648500"><ele></ele><time>2017-9-19T7:32:5Z</time></trkpt>
<trkpt lat="48.47082500" lon="2.76644800"><ele></ele><time>2017-9-19T7:32:8Z</time></trkpt>
<trkpt lat="48.47092700" lon="2.76628800"><ele></ele><time>2017-9-19T7:32:11Z</time></trkpt>
<trkpt lat="48.47128300" lon="2.76570800"><ele></ele><time>2017-9-19T7:32:14Z</time></trkpt>
<trkpt lat="48.47129800" lon="2.76567700"><ele></ele><time>2017-9-19T7:32:17Z</time></trkpt>
<trkpt lat="48.47131500" lon="2.76562300"><ele></ele><time>2017-9-19T7:32:20Z</time></trkpt>
<trkpt lat="48.47131500" lon="2.76561800"><ele></ele><time>2017-9-19T7:32:23Z</time></trkpt>
<trkpt lat="48.47131300" lon="2.76561500"><ele></ele><time>2017-9-19T7:32:26Z</time></trkpt>
<trkpt lat="48.47131300" lon="2.76561200"><ele></ele><time>2017-9-19T7:32:29Z</time></trkpt>
<trkpt lat="48.47130600" lon="2.76560300"><ele></ele><time>2017-9-19T7:32:32Z</time></trkpt>
<trkpt lat="48.47130600" lon="2.76560200"><ele></ele><time>2017-9-19T7:32:35Z</time></trkpt>
<trkpt lat="48.47130200" lon="2.76559300"><ele></ele><time>2017-9-19T7:32:38Z</time></trkpt>
<trkpt lat="48.47129800" lon="2.76558500"><ele></ele><time>2017-9-19T7:32:41Z</time></trkpt>
<trkpt lat="48.47129300" lon="2.76558000"><ele></ele><time>2017-9-19T7:32:44Z</time></trkpt>
<trkpt lat="48.47129000" lon="2.76557300"><ele></ele><time>2017-9-19T7:32:47Z</time></trkpt>
<trkpt lat="48.47128600" lon="2.76556800"><ele></ele><time>2017-9-19T7:32:50Z</time></trkpt>
<trkpt lat="48.47128300" lon="2.76556500"><ele></ele><time>2017-9-19T7:32:53Z</time></trkpt>
<trkpt lat="48.47128000" lon="2.76556000"><ele></ele><time>2017-9-19T7:32:56Z</time></trkpt>
<trkpt lat="48.47127700" lon="2.76555700"><ele></ele><time>2017-9-19T7:32:59Z</time></trkpt>
<trkpt lat="48.47127500" lon="2.76555200"><ele></ele><time>2017-9-19T7:33:2Z</time></trkpt>
<trkpt lat="48.47127200" lon="2.76554800"><ele></ele><time>2017-9-19T7:33:5Z</time></trkpt>
<trkpt lat="48.47127000" lon="2.76554500"><ele></ele><time>2017-9-19T7:33:8Z</time></trkpt>
<trkpt lat="48.47126800" lon="2.76554300"><ele></ele><time>2017-9-19T7:33:11Z</time></trkpt>
<trkpt lat="48.47126800" lon="2.76554200"><ele></ele><time>2017-9-19T7:33:14Z</time></trkpt>
<trkpt lat="48.47126700" lon="2.76554000"><ele></ele><time>2017-9-19T7:33:17Z</time></trkpt>
<trkpt lat="48.47126700" lon="2.76553800"><ele></ele><time>2017-9-19T7:33:20Z</time></trkpt>
<trkpt lat="48.47126500" lon="2.76553700"><ele></ele><time>2017-9-19T7:33:23Z</time></trkpt>
<trkpt lat="48.47126500" lon="2.76553500"><ele></ele><time>2017-9-19T7:33:26Z</time></trkpt>
<trkpt lat="48.47126500" lon="2.76553300"><ele></ele><time>2017-9-19T7:33:29Z</time></trkpt>
<trkpt lat="48.47126300" lon="2.76553100"><ele></ele><time>2017-9-19T7:33:32Z</time></trkpt>
<trkpt lat="48.47126500" lon="2.76553100"><ele></ele><time>2017-9-19T7:33:35Z</time></trkpt>
<trkpt lat="48.47126700" lon="2.76553100"><ele></ele><time>2017-9-19T7:33:38Z</time></trkpt>
<trkpt lat="48.47126700" lon="2.76553100"><ele></ele><time>2017-9-19T7:33:41Z</time></trkpt>
<trkpt lat="48.47126700" lon="2.76553100"><ele></ele><time>2017-9-19T7:33:44Z</time></trkpt>
<trkpt lat="48.47126700" lon="2.76553000"><ele></ele><time>2017-9-19T7:33:47Z</time></trkpt>
<trkpt lat="48.47127000" lon="2.76553300"><ele></ele><time>2017-9-19T7:33:50Z</time></trkpt>
<trkpt lat="48.47127300" lon="2.76553800"><ele></ele><time>2017-9-19T7:33:53Z</time></trkpt>
<trkpt lat="48.47127500" lon="2.76554300"><ele></ele><time>2017-9-19T7:33:56Z</time></trkpt>
<trkpt lat="48.47127700" lon="2.76554700"><ele></ele><time>2017-9-19T7:33:59Z</time></trkpt>
<trkpt lat="48.47127800" lon="2.76555000"><ele></ele><time>2017-9-19T7:34:2Z</time></trkpt>
<trkpt lat="48.47127700" lon="2.76555200"><ele></ele><time>2017-9-19T7:34:5Z</time></trkpt>
<trkpt lat="48.47127800" lon="2.76555500"><ele></ele><time>2017-9-19T7:34:8Z</time></trkpt>
<trkpt lat="48.47127700" lon="2.76555700"><ele></ele><time>2017-9-19T7:34:11Z</time></trkpt>
<trkpt lat="48.47127800" lon="2.76556000"><ele></ele><time>2017-9-19T7:34:14Z</time></trkpt>
<trkpt lat="48.47127800" lon="2.76556300"><ele></ele><time>2017-9-19T7:34:17Z</time></trkpt>
<trkpt lat="48.47128200" lon="2.76556700"><ele></ele><time>2017-9-19T7:34:20Z</time></trkpt>
<trkpt lat="48.47127700" lon="2.76556800"><ele></ele><time>2017-9-19T7:34:23Z</time></trkpt>
<trkpt lat="48.47128000" lon="2.76557300"><ele></ele><time>2017-9-19T7:34:26Z</time></trkpt>
<trkpt lat="48.47127300" lon="2.76557500"><ele></ele><time>2017-9-19T7:34:29Z</time></trkpt>
<trkpt lat="48.47127500" lon="2.76557800"><ele></ele><time>2017-9-19T7:34:32Z</time></trkpt>
<trkpt lat="48.47126700" lon="2.76558200"><ele></ele><time>2017-9-19T7:34:35Z</time></trkpt>
<trkpt lat="48.47127000" lon="2.76558300"><ele></ele><time>2017-9-19T7:34:38Z</time></trkpt>
<trkpt lat="48.47127200" lon="2.76558500"><ele></ele><time>2017-9-19T7:34:41Z</time></trkpt>
<trkpt lat="48.47127500" lon="2.76558500"><ele></ele><time>2017-9-19T7:34:44Z</time></trkpt>
<trkpt lat="48.47127700" lon="2.76558700"><ele></ele><time>2017-9-19T7:34:47Z</time></trkpt>
<trkpt lat="48.47128200" lon="2.76558700"><ele></ele><time>2017-9-19T7:34:50Z</time></trkpt>
<trkpt lat="48.47128300" lon="2.76558700"><ele></ele><time>2017-9-19T7:34:53Z</time></trkpt>
<trkpt lat="48.47129200" lon="2.76558500"><ele></ele><time>2017-9-19T7:34:56Z</time></trkpt>
<trkpt lat="48.47128500" lon="2.76558700"><ele></ele><time>2017-9-19T7:34:59Z</time></trkpt>
<trkpt lat="48.47129500" lon="2.76558500"><ele></ele><time>2017-9-19T7:35:2Z</time></trkpt>
<trkpt lat="48.47130300" lon="2.76558300"><ele></ele><time>2017-9-19T7:35:5Z</time></trkpt>
<trkpt lat="48.47131100" lon="2.76558200"><ele></ele><time>2017-9-19T7:35:8Z</time></trkpt>
<trkpt lat="48.47131800" lon="2.76558000"><ele></ele><time>2017-9-19T7:35:11Z</time></trkpt>
<trkpt lat="48.47131000" lon="2.76557800"><ele></ele><time>2017-9-19T7:35:14Z</time></trkpt>
<trkpt lat="48.47134500" lon="2.76556800"><ele></ele><time>2017-9-19T7:35:17Z</time></trkpt>
<trkpt lat="48.47141300" lon="2.76555700"><ele></ele><time>2017-9-19T7:35:20Z</time></trkpt>
<trkpt lat="48.47143300" lon="2.76554200"><ele></ele><time>2017-9-19T7:35:23Z</time></trkpt>
<trkpt lat="48.47161500" lon="2.76541700"><ele></ele><time>2017-9-19T7:35:26Z</time></trkpt>
<trkpt lat="48.47181800" lon="2.76531800"><ele></ele><time>2017-9-19T7:35:29Z</time></trkpt>
<trkpt lat="48.47228200" lon="2.76506200"><ele></ele><time>2017-9-19T7:35:32Z</time></trkpt>
<trkpt lat="48.47236600" lon="2.76500200"><ele></ele><time>2017-9-19T7:35:35Z</time></trkpt>
<trkpt lat="48.47270200" lon="2.76482700"><ele></ele><time>2017-9-19T7:35:38Z</time></trkpt>
<trkpt lat="48.47351500" lon="2.76438700"><ele></ele><time>2017-9-19T7:35:41Z</time></trkpt>
<trkpt lat="48.47354500" lon="2.76436700"><ele></ele><time>2017-9-19T7:35:44Z</time></trkpt>
<trkpt lat="48.47388000" lon="2.76417200"><ele></ele><time>2017-9-19T7:35:47Z</time></trkpt>
<trkpt lat="48.47392000" lon="2.76416300"><ele></ele><time>2017-9-19T7:35:50Z</time></trkpt>
<trkpt lat="48.47403000" lon="2.76412300"><ele></ele><time>2017-9-19T7:35:53Z</time></trkpt>
<trkpt lat="48.47406600" lon="2.76409800"><ele></ele><time>2017-9-19T7:35:56Z</time></trkpt>
<trkpt lat="48.47421000" lon="2.76399000"><ele></ele><time>2017-9-19T7:35:59Z</time></trkpt>
<trkpt lat="48.47424000" lon="2.76395200"><ele></ele><time>2017-9-19T7:36:2Z</time></trkpt>
<trkpt lat="48.47435300" lon="2.76378000"><ele></ele><time>2017-9-19T7:36:5Z</time></trkpt>
<trkpt lat="48.47450500" lon="2.76356300"><ele></ele><time>2017-9-19T7:36:8Z</time></trkpt>
<trkpt lat="48.47495500" lon="2.76293200"><ele></ele><time>2017-9-19T7:36:11Z</time></trkpt>
<trkpt lat="48.47498000" lon="2.76288200"><ele></ele><time>2017-9-19T7:36:14Z</time></trkpt>
<trkpt lat="48.47503700" lon="2.76278300"><ele></ele><time>2017-9-19T7:36:17Z</time></trkpt>
<trkpt lat="48.47561600" lon="2.76191800"><ele></ele><time>2017-9-19T7:36:20Z</time></trkpt>
<trkpt lat="48.47690300" lon="2.75995500"><ele></ele><time>2017-9-19T7:36:23Z</time></trkpt>
<trkpt lat="48.47693300" lon="2.75991800"><ele></ele><time>2017-9-19T7:36:26Z</time></trkpt>
<trkpt lat="48.47696000" lon="2.75986800"><ele></ele><time>2017-9-19T7:36:29Z</time></trkpt>
<trkpt lat="48.47723300" lon="2.75944300"><ele></ele><time>2017-9-19T7:36:32Z</time></trkpt>
<trkpt lat="48.47727300" lon="2.75940500"><ele></ele><time>2017-9-19T7:36:35Z</time></trkpt>
<trkpt lat="48.47730500" lon="2.75935800"><ele></ele><time>2017-9-19T7:36:38Z</time></trkpt>
<trkpt lat="48.47736800" lon="2.75927800"><ele></ele><time>2017-9-19T7:36:41Z</time></trkpt>
<trkpt lat="48.47827300" lon="2.75791500"><ele></ele><time>2017-9-19T7:36:44Z</time></trkpt>
<trkpt lat="48.47829800" lon="2.75786200"><ele></ele><time>2017-9-19T7:36:47Z</time></trkpt>
<trkpt lat="48.47836000" lon="2.75776000"><ele></ele><time>2017-9-19T7:36:50Z</time></trkpt>
<trkpt lat="48.47839300" lon="2.75771300"><ele></ele><time>2017-9-19T7:36:53Z</time></trkpt>
<trkpt lat="48.47879500" lon="2.75716300"><ele></ele><time>2017-9-19T7:36:56Z</time></trkpt>
<trkpt lat="48.47883300" lon="2.75711200"><ele></ele><time>2017-9-19T7:36:59Z</time></trkpt>
<trkpt lat="48.47886000" lon="2.75706200"><ele></ele><time>2017-9-19T7:37:2Z</time></trkpt>
<trkpt lat="48.47891200" lon="2.75695200"><ele></ele><time>2017-9-19T7:37:5Z</time></trkpt>
<trkpt lat="48.47894700" lon="2.75690300"><ele></ele><time>2017-9-19T7:37:8Z</time></trkpt>
<trkpt lat="48.47897700" lon="2.75686200"><ele></ele><time>2017-9-19T7:37:11Z</time></trkpt>
<trkpt lat="48.47905000" lon="2.75673000"><ele></ele><time>2017-9-19T7:37:14Z</time></trkpt>
<trkpt lat="48.47910700" lon="2.75664200"><ele></ele><time>2017-9-19T7:37:17Z</time></trkpt>
<trkpt lat="48.47917500" lon="2.75656000"><ele></ele><time>2017-9-19T7:37:20Z</time></trkpt>
<trkpt lat="48.47922800" lon="2.75647000"><ele></ele><time>2017-9-19T7:37:23Z</time></trkpt>
<trkpt lat="48.47934300" lon="2.75622200"><ele></ele><time>2017-9-19T7:37:26Z</time></trkpt>
<trkpt lat="48.47938500" lon="2.75611500"><ele></ele><time>2017-9-19T7:37:29Z</time></trkpt>
<trkpt lat="48.47939700" lon="2.75605300"><ele></ele><time>2017-9-19T7:37:32Z</time></trkpt>
<trkpt lat="48.47941200" lon="2.75594800"><ele></ele><time>2017-9-19T7:37:35Z</time></trkpt>
<trkpt lat="48.47942700" lon="2.75590000"><ele></ele><time>2017-9-19T7:37:38Z</time></trkpt>
<trkpt lat="48.47946200" lon="2.75580000"><ele></ele><time>2017-9-19T7:37:41Z</time></trkpt>
<trkpt lat="48.47952500" lon="2.75560200"><ele></ele><time>2017-9-19T7:37:44Z</time></trkpt>
<trkpt lat="48.47953500" lon="2.75555800"><ele></ele><time>2017-9-19T7:37:47Z</time></trkpt>
<trkpt lat="48.47956300" lon="2.75542500"><ele></ele><time>2017-9-19T7:37:50Z</time></trkpt>
<trkpt lat="48.47957700" lon="2.75538700"><ele></ele><time>2017-9-19T7:37:53Z</time></trkpt>
<trkpt lat="48.47957700" lon="2.75536800"><ele></ele><time>2017-9-19T7:37:56Z</time></trkpt>
<trkpt lat="48.47957700" lon="2.75534800"><ele></ele><time>2017-9-19T7:37:59Z</time></trkpt>
<trkpt lat="48.47957700" lon="2.75534500"><ele></ele><time>2017-9-19T7:38:2Z</time></trkpt>
<trkpt lat="48.47957700" lon="2.75534200"><ele></ele><time>2017-9-19T7:38:5Z</time></trkpt>
<trkpt lat="48.47957700" lon="2.75533800"><ele></ele><time>2017-9-19T7:38:8Z</time></trkpt>
<trkpt lat="48.47957700" lon="2.75533500"><ele></ele><time>2017-9-19T7:38:11Z</time></trkpt>
<trkpt lat="48.47957500" lon="2.75533300"><ele></ele><time>2017-9-19T7:38:14Z</time></trkpt>
<trkpt lat="48.47957300" lon="2.75533200"><ele></ele><time>2017-9-19T7:38:17Z</time></trkpt>
<trkpt lat="48.47957100" lon="2.75533000"><ele></ele><time>2017-9-19T7:38:20Z</time></trkpt>
<trkpt lat="48.47957000" lon="2.75532800"><ele></ele><time>2017-9-19T7:38:23Z</time></trkpt>
<trkpt lat="48.47956800" lon="2.75532700"><ele></ele><time>2017-9-19T7:38:26Z</time></trkpt>
<trkpt lat="48.47956600" lon="2.75532500"><ele></ele><time>2017-9-19T7:38:29Z</time></trkpt>
<trkpt lat="48.47956600" lon="2.75532300"><ele></ele><time>2017-9-19T7:38:32Z</time></trkpt>
<trkpt lat="48.47956500" lon="2.75532100"><ele></ele><time>2017-9-19T7:38:35Z</time></trkpt>
<trkpt lat="48.47956200" lon="2.75532100"><ele></ele><time>2017-9-19T7:38:38Z</time></trkpt>
<trkpt lat="48.47956000" lon="2.75532000"><ele></ele><time>2017-9-19T7:38:41Z</time></trkpt>
<trkpt lat="48.47955800" lon="2.75531800"><ele></ele><time>2017-9-19T7:38:44Z</time></trkpt>
<trkpt lat="48.47955800" lon="2.75531700"><ele></ele><time>2017-9-19T7:38:47Z</time></trkpt>
<trkpt lat="48.47955700" lon="2.75531700"><ele></ele><time>2017-9-19T7:38:50Z</time></trkpt>
<trkpt lat="48.47955500" lon="2.75531500"><ele></ele><time>2017-9-19T7:38:53Z</time></trkpt>
<trkpt lat="48.47955300" lon="2.75531300"><ele></ele><time>2017-9-19T7:38:56Z</time></trkpt>
<trkpt lat="48.47955200" lon="2.75531300"><ele></ele><time>2017-9-19T7:38:59Z</time></trkpt>
<trkpt lat="48.47955200" lon="2.75531200"><ele></ele><time>2017-9-19T7:39:2Z</time></trkpt>
<trkpt lat="48.47955200" lon="2.75531000"><ele></ele><time>2017-9-19T7:39:5Z</time></trkpt>
<trkpt lat="48.47955200" lon="2.75531000"><ele></ele><time>2017-9-19T7:39:8Z</time></trkpt>
<trkpt lat="48.47955200" lon="2.75531000"><ele></ele><time>2017-9-19T7:39:11Z</time></trkpt>
<trkpt lat="48.47955200" lon="2.75531000"><ele></ele><time>2017-9-19T7:39:14Z</time></trkpt>
<trkpt lat="48.47955000" lon="2.75530800"><ele></ele><time>2017-9-19T7:39:17Z</time></trkpt>
<trkpt lat="48.47955000" lon="2.75530800"><ele></ele><time>2017-9-19T7:39:20Z</time></trkpt>
<trkpt lat="48.47954800" lon="2.75530800"><ele></ele><time>2017-9-19T7:39:23Z</time></trkpt>
<trkpt lat="48.47954800" lon="2.75530800"><ele></ele><time>2017-9-19T7:39:26Z</time></trkpt>
<trkpt lat="48.47954800" lon="2.75530800"><ele></ele><time>2017-9-19T7:39:29Z</time></trkpt>
<trkpt lat="48.47954700" lon="2.75530800"><ele></ele><time>2017-9-19T7:39:32Z</time></trkpt>
<trkpt lat="48.47955200" lon="2.75530200"><ele></ele><time>2017-9-19T7:39:35Z</time></trkpt>
<trkpt lat="48.47955800" lon="2.75529000"><ele></ele><time>2017-9-19T7:39:38Z</time></trkpt>
<trkpt lat="48.47956500" lon="2.75527000"><ele></ele><time>2017-9-19T7:39:41Z</time></trkpt>
<trkpt lat="48.47960800" lon="2.75514000"><ele></ele><time>2017-9-19T7:39:44Z</time></trkpt>
<trkpt lat="48.47967200" lon="2.75495500"><ele></ele><time>2017-9-19T7:39:47Z</time></trkpt>
<trkpt lat="48.47968500" lon="2.75490800"><ele></ele><time>2017-9-19T7:39:50Z</time></trkpt>
<trkpt lat="48.48124000" lon="2.74957700"><ele></ele><time>2017-9-19T7:39:53Z</time></trkpt>
<trkpt lat="48.48125000" lon="2.74950200"><ele></ele><time>2017-9-19T7:39:56Z</time></trkpt>
<trkpt lat="48.48126000" lon="2.74927000"><ele></ele><time>2017-9-19T7:39:59Z</time></trkpt>
<trkpt lat="48.48125700" lon="2.74919200"><ele></ele><time>2017-9-19T7:40:2Z</time></trkpt>
<trkpt lat="48.48122500" lon="2.74775600"><ele></ele><time>2017-9-19T7:40:5Z</time></trkpt>
<trkpt lat="48.48121800" lon="2.74771300"><ele></ele><time>2017-9-19T7:40:8Z</time></trkpt>
<trkpt lat="48.48121300" lon="2.74764000"><ele></ele><time>2017-9-19T7:40:11Z</time></trkpt>
<trkpt lat="48.48122000" lon="2.74760700"><ele></ele><time>2017-9-19T7:40:14Z</time></trkpt>
<trkpt lat="48.48123100" lon="2.74754200"><ele></ele><time>2017-9-19T7:40:17Z</time></trkpt>
<trkpt lat="48.48123100" lon="2.74751200"><ele></ele><time>2017-9-19T7:40:20Z</time></trkpt>
<trkpt lat="48.48122800" lon="2.74748200"><ele></ele><time>2017-9-19T7:40:23Z</time></trkpt>
<trkpt lat="48.48121500" lon="2.74742000"><ele></ele><time>2017-9-19T7:40:26Z</time></trkpt>
<trkpt lat="48.48120300" lon="2.74739000"><ele></ele><time>2017-9-19T7:40:29Z</time></trkpt>
<trkpt lat="48.48119300" lon="2.74737300"><ele></ele><time>2017-9-19T7:40:32Z</time></trkpt>
<trkpt lat="48.48118800" lon="2.74736700"><ele></ele><time>2017-9-19T7:40:35Z</time></trkpt>
<trkpt lat="48.48118300" lon="2.74736200"><ele></ele><time>2017-9-19T7:40:38Z</time></trkpt>
<trkpt lat="48.48117800" lon="2.74736000"><ele></ele><time>2017-9-19T7:40:41Z</time></trkpt>
<trkpt lat="48.48117600" lon="2.74736200"><ele></ele><time>2017-9-19T7:40:44Z</time></trkpt>
<trkpt lat="48.48117500" lon="2.74736200"><ele></ele><time>2017-9-19T7:40:47Z</time></trkpt>
<trkpt lat="48.48117300" lon="2.74736300"><ele></ele><time>2017-9-19T7:40:50Z</time></trkpt>
<trkpt lat="48.48117000" lon="2.74736500"><ele></ele><time>2017-9-19T7:40:53Z</time></trkpt>
<trkpt lat="48.48116800" lon="2.74736700"><ele></ele><time>2017-9-19T7:40:56Z</time></trkpt>
<trkpt lat="48.48116800" lon="2.74736800"><ele></ele><time>2017-9-19T7:40:59Z</time></trkpt>
<trkpt lat="48.48116700" lon="2.74736800"><ele></ele><time>2017-9-19T7:41:2Z</time></trkpt>
<trkpt lat="48.48116700" lon="2.74737000"><ele></ele><time>2017-9-19T7:41:5Z</time></trkpt>
<trkpt lat="48.48116500" lon="2.74737000"><ele></ele><time>2017-9-19T7:41:8Z</time></trkpt>
<trkpt lat="48.48116500" lon="2.74737200"><ele></ele><time>2017-9-19T7:41:11Z</time></trkpt>
<trkpt lat="48.48116700" lon="2.74737200"><ele></ele><time>2017-9-19T7:41:14Z</time></trkpt>
<trkpt lat="48.48116700" lon="2.74737300"><ele></ele><time>2017-9-19T7:41:17Z</time></trkpt>
<trkpt lat="48.48116700" lon="2.74737300"><ele></ele><time>2017-9-19T7:41:20Z</time></trkpt>
<trkpt lat="48.48116800" lon="2.74737300"><ele></ele><time>2017-9-19T7:41:23Z</time></trkpt>
<trkpt lat="48.48116800" lon="2.74737500"><ele></ele><time>2017-9-19T7:41:26Z</time></trkpt>
<trkpt lat="48.48116800" lon="2.74737500"><ele></ele><time>2017-9-19T7:41:29Z</time></trkpt>
<trkpt lat="48.48117000" lon="2.74737500"><ele></ele><time>2017-9-19T7:41:32Z</time></trkpt>
<trkpt lat="48.48117200" lon="2.74737500"><ele></ele><time>2017-9-19T7:41:35Z</time></trkpt>
<trkpt lat="48.48117200" lon="2.74737700"><ele></ele><time>2017-9-19T7:41:38Z</time></trkpt>
<trkpt lat="48.48117200" lon="2.74737700"><ele></ele><time>2017-9-19T7:41:41Z</time></trkpt>
<trkpt lat="48.48117200" lon="2.74737800"><ele></ele><time>2017-9-19T7:41:44Z</time></trkpt>
<trkpt lat="48.48117200" lon="2.74737800"><ele></ele><time>2017-9-19T7:41:47Z</time></trkpt>
<trkpt lat="48.48117200" lon="2.74737800"><ele></ele><time>2017-9-19T7:41:50Z</time></trkpt>
<trkpt lat="48.48117300" lon="2.74737800"><ele></ele><time>2017-9-19T7:41:53Z</time></trkpt>
<trkpt lat="48.48117500" lon="2.74737800"><ele></ele><time>2017-9-19T7:41:56Z</time></trkpt>
<trkpt lat="48.48117600" lon="2.74737800"><ele></ele><time>2017-9-19T7:41:59Z</time></trkpt>
<trkpt lat="48.48117800" lon="2.74737800"><ele></ele><time>2017-9-19T7:42:2Z</time></trkpt>
<trkpt lat="48.48118000" lon="2.74737800"><ele></ele><time>2017-9-19T7:42:5Z</time></trkpt>
<trkpt lat="48.48118000" lon="2.74737800"><ele></ele><time>2017-9-19T7:42:8Z</time></trkpt>
<trkpt lat="48.48118100" lon="2.74737800"><ele></ele><time>2017-9-19T7:42:11Z</time></trkpt>
<trkpt lat="48.48118300" lon="2.74737800"><ele></ele><time>2017-9-19T7:42:14Z</time></trkpt>
<trkpt lat="48.48118500" lon="2.74737800"><ele></ele><time>2017-9-19T7:42:17Z</time></trkpt>
<trkpt lat="48.48118500" lon="2.74737800"><ele></ele><time>2017-9-19T7:42:20Z</time></trkpt>
<trkpt lat="48.48118700" lon="2.74737800"><ele></ele><time>2017-9-19T7:42:23Z</time></trkpt>
<trkpt lat="48.48118800" lon="2.74737800"><ele></ele><time>2017-9-19T7:42:26Z</time></trkpt>
<trkpt lat="48.48119000" lon="2.74737800"><ele></ele><time>2017-9-19T7:42:29Z</time></trkpt>
<trkpt lat="48.48119000" lon="2.74737700"><ele></ele><time>2017-9-19T7:42:32Z</time></trkpt>
<trkpt lat="48.48119200" lon="2.74737700"><ele></ele><time>2017-9-19T7:42:35Z</time></trkpt>
<trkpt lat="48.48119300" lon="2.74737700"><ele></ele><time>2017-9-19T7:42:38Z</time></trkpt>
<trkpt lat="48.48119500" lon="2.74737500"><ele></ele><time>2017-9-19T7:42:41Z</time></trkpt>
<trkpt lat="48.48119500" lon="2.74737500"><ele></ele><time>2017-9-19T7:42:44Z</time></trkpt>
<trkpt lat="48.48119500" lon="2.74737500"><ele></ele><time>2017-9-19T7:42:47Z</time></trkpt>
<trkpt lat="48.48119500" lon="2.74737500"><ele></ele><time>2017-9-19T7:42:50Z</time></trkpt>
<trkpt lat="48.48119700" lon="2.74737500"><ele></ele><time>2017-9-19T7:42:53Z</time></trkpt>
<trkpt lat="48.48119700" lon="2.74737300"><ele></ele><time>2017-9-19T7:42:56Z</time></trkpt>
<trkpt lat="48.48119800" lon="2.74737300"><ele></ele><time>2017-9-19T7:42:59Z</time></trkpt>
<trkpt lat="48.48120000" lon="2.74737300"><ele></ele><time>2017-9-19T7:43:2Z</time></trkpt>
<trkpt lat="48.48120000" lon="2.74737300"><ele></ele><time>2017-9-19T7:43:5Z</time></trkpt>
<trkpt lat="48.48120100" lon="2.74737300"><ele></ele><time>2017-9-19T7:43:8Z</time></trkpt>
<trkpt lat="48.48120600" lon="2.74737200"><ele></ele><time>2017-9-19T7:43:11Z</time></trkpt>
<trkpt lat="48.48121000" lon="2.74737000"><ele></ele><time>2017-9-19T7:43:14Z</time></trkpt>
<trkpt lat="48.48121200" lon="2.74737000"><ele></ele><time>2017-9-19T7:43:17Z</time></trkpt>
<trkpt lat="48.48121200" lon="2.74737000"><ele></ele><time>2017-9-19T7:43:20Z</time></trkpt>
<trkpt lat="48.48121200" lon="2.74737000"><ele></ele><time>2017-9-19T7:43:23Z</time></trkpt>
<trkpt lat="48.48121200" lon="2.74737000"><ele></ele><time>2017-9-19T7:43:26Z</time></trkpt>
<trkpt lat="48.48121200" lon="2.74737000"><ele></ele><time>2017-9-19T7:43:29Z</time></trkpt>
<trkpt lat="48.48121200" lon="2.74737000"><ele></ele><time>2017-9-19T7:43:32Z</time></trkpt>
<trkpt lat="48.48121200" lon="2.74737000"><ele></ele><time>2017-9-19T7:43:35Z</time></trkpt>
<trkpt lat="48.48121200" lon="2.74737000"><ele></ele><time>2017-9-19T7:43:38Z</time></trkpt>
<trkpt lat="48.48121500" lon="2.74736800"><ele></ele><time>2017-9-19T7:43:41Z</time></trkpt>
<trkpt lat="48.48121500" lon="2.74736800"><ele></ele><time>2017-9-19T7:43:44Z</time></trkpt>
<trkpt lat="48.48121500" lon="2.74736800"><ele></ele><time>2017-9-19T7:43:47Z</time></trkpt>
<trkpt lat="48.48121500" lon="2.74736800"><ele></ele><time>2017-9-19T7:43:50Z</time></trkpt>
<trkpt lat="48.48121500" lon="2.74736800"><ele></ele><time>2017-9-19T7:43:53Z</time></trkpt>
<trkpt lat="48.48121800" lon="2.74736700"><ele></ele><time>2017-9-19T7:43:56Z</time></trkpt>
<trkpt lat="48.48122200" lon="2.74736300"><ele></ele><time>2017-9-19T7:43:59Z</time></trkpt>
<trkpt lat="48.48122300" lon="2.74736200"><ele></ele><time>2017-9-19T7:44:2Z</time></trkpt>
<trkpt lat="48.48122500" lon="2.74735800"><ele></ele><time>2017-9-19T7:44:5Z</time></trkpt>
<trkpt lat="48.48122800" lon="2.74735700"><ele></ele><time>2017-9-19T7:44:8Z</time></trkpt>
<trkpt lat="48.48123000" lon="2.74735500"><ele></ele><time>2017-9-19T7:44:11Z</time></trkpt>
<trkpt lat="48.48123000" lon="2.74735300"><ele></ele><time>2017-9-19T7:44:14Z</time></trkpt>
<trkpt lat="48.48123300" lon="2.74735300"><ele></ele><time>2017-9-19T7:44:17Z</time></trkpt>
<trkpt lat="48.48123700" lon="2.74735300"><ele></ele><time>2017-9-19T7:44:20Z</time></trkpt>
<trkpt lat="48.48123800" lon="2.74735000"><ele></ele><time>2017-9-19T7:44:23Z</time></trkpt>
<trkpt lat="48.48123500" lon="2.74734000"><ele></ele><time>2017-9-19T7:44:26Z</time></trkpt>
<trkpt lat="48.48123100" lon="2.74732700"><ele></ele><time>2017-9-19T7:44:29Z</time></trkpt>
<trkpt lat="48.48123300" lon="2.74732000"><ele></ele><time>2017-9-19T7:44:32Z</time></trkpt>
<trkpt lat="48.48123700" lon="2.74730300"><ele></ele><time>2017-9-19T7:44:35Z</time></trkpt>
<trkpt lat="48.48123700" lon="2.74728500"><ele></ele><time>2017-9-19T7:44:38Z</time></trkpt>
<trkpt lat="48.48123500" lon="2.74726200"><ele></ele><time>2017-9-19T7:44:41Z</time></trkpt>
<trkpt lat="48.48123300" lon="2.74723300"><ele></ele><time>2017-9-19T7:44:44Z</time></trkpt>
<trkpt lat="48.48122800" lon="2.74700200"><ele></ele><time>2017-9-19T7:44:47Z</time></trkpt>
<trkpt lat="48.48123100" lon="2.74696200"><ele></ele><time>2017-9-19T7:44:50Z</time></trkpt>
<trkpt lat="48.48123000" lon="2.74691500"><ele></ele><time>2017-9-19T7:44:53Z</time></trkpt>
<trkpt lat="48.48095300" lon="2.73898300"><ele></ele><time>2017-9-19T7:44:56Z</time></trkpt>
<trkpt lat="48.48095700" lon="2.73896700"><ele></ele><time>2017-9-19T7:44:59Z</time></trkpt>
<trkpt lat="48.48096200" lon="2.73895500"><ele></ele><time>2017-9-19T7:45:2Z</time></trkpt>
<trkpt lat="48.48096200" lon="2.73895200"><ele></ele><time>2017-9-19T7:45:5Z</time></trkpt>
<trkpt lat="48.48096300" lon="2.73895700"><ele></ele><time>2017-9-19T7:45:8Z</time></trkpt>
<trkpt lat="48.48096300" lon="2.73896500"><ele></ele><time>2017-9-19T7:45:11Z</time></trkpt>
<trkpt lat="48.48095800" lon="2.73898200"><ele></ele><time>2017-9-19T7:45:14Z</time></trkpt>
<trkpt lat="48.48095700" lon="2.73899800"><ele></ele><time>2017-9-19T7:45:17Z</time></trkpt>
<trkpt lat="48.48095200" lon="2.73901200"><ele></ele><time>2017-9-19T7:45:20Z</time></trkpt>
<trkpt lat="48.48094200" lon="2.73902000"><ele></ele><time>2017-9-19T7:45:23Z</time></trkpt>
<trkpt lat="48.48093000" lon="2.73902200"><ele></ele><time>2017-9-19T7:45:26Z</time></trkpt>
<trkpt lat="48.48092000" lon="2.73900800"><ele></ele><time>2017-9-19T7:45:29Z</time></trkpt>
<trkpt lat="48.48089100" lon="2.73895800"><ele></ele><time>2017-9-19T7:45:32Z</time></trkpt>
<trkpt lat="48.48067300" lon="2.73862000"><ele></ele><time>2017-9-19T7:45:35Z</time></trkpt>
<trkpt lat="48.47921500" lon="2.73638000"><ele></ele><time>2017-9-19T7:45:38Z</time></trkpt>
<trkpt lat="48.47918600" lon="2.73633800"><ele></ele><time>2017-9-19T7:45:41Z</time></trkpt>
<trkpt lat="48.47874800" lon="2.73575500"><ele></ele><time>2017-9-19T7:45:44Z</time></trkpt>
<trkpt lat="48.47873200" lon="2.73572000"><ele></ele><time>2017-9-19T7:45:47Z</time></trkpt>
<trkpt lat="48.47864500" lon="2.73559300"><ele></ele><time>2017-9-19T7:45:50Z</time></trkpt>
<trkpt lat="48.47850500" lon="2.73538300"><ele></ele><time>2017-9-19T7:45:53Z</time></trkpt>
<trkpt lat="48.47830800" lon="2.73509200"><ele></ele><time>2017-9-19T7:45:56Z</time></trkpt>
<trkpt lat="48.47817800" lon="2.73488700"><ele></ele><time>2017-9-19T7:45:59Z</time></trkpt>
<trkpt lat="48.47815300" lon="2.73484800"><ele></ele><time>2017-9-19T7:46:2Z</time></trkpt>
<trkpt lat="48.47812800" lon="2.73480500"><ele></ele><time>2017-9-19T7:46:5Z</time></trkpt>
<trkpt lat="48.47784300" lon="2.73436000"><ele></ele><time>2017-9-19T7:46:8Z</time></trkpt>
<trkpt lat="48.47746100" lon="2.73377700"><ele></ele><time>2017-9-19T7:46:11Z</time></trkpt>
<trkpt lat="48.47723600" lon="2.73342500"><ele></ele><time>2017-9-19T7:46:14Z</time></trkpt>
<trkpt lat="48.47720500" lon="2.73337000"><ele></ele><time>2017-9-19T7:46:17Z</time></trkpt>
<trkpt lat="48.47636800" lon="2.73206200"><ele></ele><time>2017-9-19T7:46:20Z</time></trkpt>
<trkpt lat="48.47635500" lon="2.73202700"><ele></ele><time>2017-9-19T7:46:23Z</time></trkpt>
<trkpt lat="48.47634300" lon="2.73199500"><ele></ele><time>2017-9-19T7:46:26Z</time></trkpt>
<trkpt lat="48.47632700" lon="2.73196600"><ele></ele><time>2017-9-19T7:46:29Z</time></trkpt>
<trkpt lat="48.47628300" lon="2.73191300"><ele></ele><time>2017-9-19T7:46:32Z</time></trkpt>
<trkpt lat="48.47626300" lon="2.73190300"><ele></ele><time>2017-9-19T7:46:35Z</time></trkpt>
<trkpt lat="48.47625500" lon="2.73190300"><ele></ele><time>2017-9-19T7:46:38Z</time></trkpt>
<trkpt lat="48.47624800" lon="2.73190700"><ele></ele><time>2017-9-19T7:46:41Z</time></trkpt>
<trkpt lat="48.47623600" lon="2.73191300"><ele></ele><time>2017-9-19T7:46:44Z</time></trkpt>
<trkpt lat="48.47623500" lon="2.73191200"><ele></ele><time>2017-9-19T7:46:47Z</time></trkpt>
<trkpt lat="48.47623500" lon="2.73191000"><ele></ele><time>2017-9-19T7:46:50Z</time></trkpt>
<trkpt lat="48.47623300" lon="2.73190800"><ele></ele><time>2017-9-19T7:46:53Z</time></trkpt>
<trkpt lat="48.47623300" lon="2.73190800"><ele></ele><time>2017-9-19T7:46:56Z</time></trkpt>
<trkpt lat="48.47623100" lon="2.73190800"><ele></ele><time>2017-9-19T7:46:59Z</time></trkpt>
<trkpt lat="48.47623000" lon="2.73190800"><ele></ele><time>2017-9-19T7:47:2Z</time></trkpt>
<trkpt lat="48.47622800" lon="2.73190800"><ele></ele><time>2017-9-19T7:47:5Z</time></trkpt>
<trkpt lat="48.47622800" lon="2.73190700"><ele></ele><time>2017-9-19T7:47:8Z</time></trkpt>
<trkpt lat="48.47622700" lon="2.73190700"><ele></ele><time>2017-9-19T7:47:11Z</time></trkpt>
<trkpt lat="48.47622700" lon="2.73190700"><ele></ele><time>2017-9-19T7:47:14Z</time></trkpt>
<trkpt lat="48.47622700" lon="2.73190700"><ele></ele><time>2017-9-19T7:47:17Z</time></trkpt>
<trkpt lat="48.47622700" lon="2.73190700"><ele></ele><time>2017-9-19T7:47:20Z</time></trkpt>
<trkpt lat="48.47622500" lon="2.73190700"><ele></ele><time>2017-9-19T7:47:23Z</time></trkpt>
<trkpt lat="48.47622500" lon="2.73190700"><ele></ele><time>2017-9-19T7:47:26Z</time></trkpt>
<trkpt lat="48.47622300" lon="2.73190700"><ele></ele><time>2017-9-19T7:47:29Z</time></trkpt>
<trkpt lat="48.47622200" lon="2.73190800"><ele></ele><time>2017-9-19T7:47:32Z</time></trkpt>
<trkpt lat="48.47622200" lon="2.73190800"><ele></ele><time>2017-9-19T7:47:35Z</time></trkpt>
<trkpt lat="48.47622000" lon="2.73190800"><ele></ele><time>2017-9-19T7:47:38Z</time></trkpt>
<trkpt lat="48.47622000" lon="2.73190800"><ele></ele><time>2017-9-19T7:47:41Z</time></trkpt>
<trkpt lat="48.47621800" lon="2.73191200"><ele></ele><time>2017-9-19T7:47:44Z</time></trkpt>
<trkpt lat="48.47621800" lon="2.73191800"><ele></ele><time>2017-9-19T7:47:47Z</time></trkpt>
<trkpt lat="48.47622000" lon="2.73191800"><ele></ele><time>2017-9-19T7:47:50Z</time></trkpt>
<trkpt lat="48.47622000" lon="2.73192300"><ele></ele><time>2017-9-19T7:47:53Z</time></trkpt>
<trkpt lat="48.47621800" lon="2.73192700"><ele></ele><time>2017-9-19T7:47:56Z</time></trkpt>
<trkpt lat="48.47621800" lon="2.73193200"><ele></ele><time>2017-9-19T7:47:59Z</time></trkpt>
<trkpt lat="48.47621800" lon="2.73193300"><ele></ele><time>2017-9-19T7:48:2Z</time></trkpt>
<trkpt lat="48.47622000" lon="2.73193200"><ele></ele><time>2017-9-19T7:48:5Z</time></trkpt>
<trkpt lat="48.47622000" lon="2.73193000"><ele></ele><time>2017-9-19T7:48:8Z</time></trkpt>
<trkpt lat="48.47622200" lon="2.73192800"><ele></ele><time>2017-9-19T7:48:11Z</time></trkpt>
<trkpt lat="48.47622300" lon="2.73193000"><ele></ele><time>2017-9-19T7:48:14Z</time></trkpt>
<trkpt lat="48.47622700" lon="2.73193200"><ele></ele><time>2017-9-19T7:48:17Z</time></trkpt>
<trkpt lat="48.47623000" lon="2.73193300"><ele></ele><time>2017-9-19T7:48:20Z</time></trkpt>
<trkpt lat="48.47623500" lon="2.73193500"><ele></ele><time>2017-9-19T7:48:23Z</time></trkpt>
<trkpt lat="48.47623600" lon="2.73193500"><ele></ele><time>2017-9-19T7:48:26Z</time></trkpt>
<trkpt lat="48.47624000" lon="2.73193800"><ele></ele><time>2017-9-19T7:48:29Z</time></trkpt>
<trkpt lat="48.47624200" lon="2.73194000"><ele></ele><time>2017-9-19T7:48:32Z</time></trkpt>
<trkpt lat="48.47624300" lon="2.73194300"><ele></ele><time>2017-9-19T7:48:35Z</time></trkpt>
<trkpt lat="48.47624200" lon="2.73194500"><ele></ele><time>2017-9-19T7:48:38Z</time></trkpt>
<trkpt lat="48.47624000" lon="2.73194300"><ele></ele><time>2017-9-19T7:48:41Z</time></trkpt>
<trkpt lat="48.47623800" lon="2.73194500"><ele></ele><time>2017-9-19T7:48:44Z</time></trkpt>
<trkpt lat="48.47623800" lon="2.73194500"><ele></ele><time>2017-9-19T7:48:47Z</time></trkpt>
<trkpt lat="48.47623600" lon="2.73194500"><ele></ele><time>2017-9-19T7:48:50Z</time></trkpt>
<trkpt lat="48.47623300" lon="2.73194500"><ele></ele><time>2017-9-19T7:48:53Z</time></trkpt>
<trkpt lat="48.47623300" lon="2.73194300"><ele></ele><time>2017-9-19T7:48:56Z</time></trkpt>
<trkpt lat="48.47623500" lon="2.73194500"><ele></ele><time>2017-9-19T7:48:59Z</time></trkpt>
<trkpt lat="48.47623500" lon="2.73194700"><ele></ele><time>2017-9-19T7:49:2Z</time></trkpt>
<trkpt lat="48.47623600" lon="2.73194700"><ele></ele><time>2017-9-19T7:49:5Z</time></trkpt>
<trkpt lat="48.47623600" lon="2.73194800"><ele></ele><time>2017-9-19T7:49:8Z</time></trkpt>
<trkpt lat="48.47623600" lon="2.73195000"><ele></ele><time>2017-9-19T7:49:11Z</time></trkpt>
<trkpt lat="48.47623600" lon="2.73195200"><ele></ele><time>2017-9-19T7:49:14Z</time></trkpt>
<trkpt lat="48.47623800" lon="2.73195700"><ele></ele><time>2017-9-19T7:49:17Z</time></trkpt>
<trkpt lat="48.47624200" lon="2.73196600"><ele></ele><time>2017-9-19T7:49:20Z</time></trkpt>
<trkpt lat="48.47624700" lon="2.73197300"><ele></ele><time>2017-9-19T7:49:23Z</time></trkpt>
<trkpt lat="48.47625100" lon="2.73197500"><ele></ele><time>2017-9-19T7:49:26Z</time></trkpt>
<trkpt lat="48.47627200" lon="2.73198700"><ele></ele><time>2017-9-19T7:49:29Z</time></trkpt>
<trkpt lat="48.47628000" lon="2.73197700"><ele></ele><time>2017-9-19T7:49:32Z</time></trkpt>
<trkpt lat="48.47629700" lon="2.73195500"><ele></ele><time>2017-9-19T7:49:35Z</time></trkpt>
<trkpt lat="48.47639200" lon="2.73182100"><ele></ele><time>2017-9-19T7:49:38Z</time></trkpt>
<trkpt lat="48.47840500" lon="2.72861200"><ele></ele><time>2017-9-19T7:49:41Z</time></trkpt>
<trkpt lat="48.47843800" lon="2.72855200"><ele></ele><time>2017-9-19T7:49:44Z</time></trkpt>
<trkpt lat="48.47898500" lon="2.72768700"><ele></ele><time>2017-9-19T7:49:47Z</time></trkpt>
<trkpt lat="48.47906000" lon="2.72757000"><ele></ele><time>2017-9-19T7:49:50Z</time></trkpt>
<trkpt lat="48.47939800" lon="2.72700300"><ele></ele><time>2017-9-19T7:49:53Z</time></trkpt>
<trkpt lat="48.47951300" lon="2.72682500"><ele></ele><time>2017-9-19T7:49:56Z</time></trkpt>
<trkpt lat="48.47953800" lon="2.72675700"><ele></ele><time>2017-9-19T7:49:59Z</time></trkpt>
<trkpt lat="48.47957100" lon="2.72669200"><ele></ele><time>2017-9-19T7:50:2Z</time></trkpt>
<trkpt lat="48.47966800" lon="2.72653200"><ele></ele><time>2017-9-19T7:50:5Z</time></trkpt>
<trkpt lat="48.47976500" lon="2.72636800"><ele></ele><time>2017-9-19T7:50:8Z</time></trkpt>
<trkpt lat="48.47978800" lon="2.72630700"><ele></ele><time>2017-9-19T7:50:11Z</time></trkpt>
<trkpt lat="48.47980700" lon="2.72624500"><ele></ele><time>2017-9-19T7:50:14Z</time></trkpt>
<trkpt lat="48.47985000" lon="2.72611800"><ele></ele><time>2017-9-19T7:50:17Z</time></trkpt>
<trkpt lat="48.47984200" lon="2.72604800"><ele></ele><time>2017-9-19T7:50:20Z</time></trkpt>
<trkpt lat="48.47977100" lon="2.72566200"><ele></ele><time>2017-9-19T7:50:23Z</time></trkpt>
<trkpt lat="48.47970100" lon="2.72490800"><ele></ele><time>2017-9-19T7:50:26Z</time></trkpt>
<trkpt lat="48.47970500" lon="2.72483200"><ele></ele><time>2017-9-19T7:50:29Z</time></trkpt>
<trkpt lat="48.47972300" lon="2.72453200"><ele></ele><time>2017-9-19T7:50:32Z</time></trkpt>
<trkpt lat="48.47971500" lon="2.72444700"><ele></ele><time>2017-9-19T7:50:35Z</time></trkpt>
<trkpt lat="48.47965000" lon="2.72344300"><ele></ele><time>2017-9-19T7:50:38Z</time></trkpt>
<trkpt lat="48.47964700" lon="2.72338800"><ele></ele><time>2017-9-19T7:50:41Z</time></trkpt>
<trkpt lat="48.47963300" lon="2.72271000"><ele></ele><time>2017-9-19T7:50:44Z</time></trkpt>
<trkpt lat="48.47962200" lon="2.72265800"><ele></ele><time>2017-9-19T7:50:47Z</time></trkpt>
<trkpt lat="48.47959500" lon="2.72254700"><ele></ele><time>2017-9-19T7:50:50Z</time></trkpt>
<trkpt lat="48.47958700" lon="2.72244500"><ele></ele><time>2017-9-19T7:50:53Z</time></trkpt>
<trkpt lat="48.47958200" lon="2.72224200"><ele></ele><time>2017-9-19T7:50:56Z</time></trkpt>
<trkpt lat="48.47958500" lon="2.72219300"><ele></ele><time>2017-9-19T7:50:59Z</time></trkpt>
<trkpt lat="48.47958500" lon="2.72214800"><ele></ele><time>2017-9-19T7:51:2Z</time></trkpt>
<trkpt lat="48.47957700" lon="2.72209300"><ele></ele><time>2017-9-19T7:51:5Z</time></trkpt>
<trkpt lat="48.47957700" lon="2.72190200"><ele></ele><time>2017-9-19T7:51:8Z</time></trkpt>
<trkpt lat="48.47957300" lon="2.72185700"><ele></ele><time>2017-9-19T7:51:11Z</time></trkpt>
<trkpt lat="48.47953200" lon="2.72154800"><ele></ele><time>2017-9-19T7:51:14Z</time></trkpt>
<trkpt lat="48.47951500" lon="2.72151200"><ele></ele><time>2017-9-19T7:51:17Z</time></trkpt>
<trkpt lat="48.47950000" lon="2.72148000"><ele></ele><time>2017-9-19T7:51:20Z</time></trkpt>
<trkpt lat="48.47949300" lon="2.72144700"><ele></ele><time>2017-9-19T7:51:23Z</time></trkpt>
<trkpt lat="48.47949300" lon="2.72141000"><ele></ele><time>2017-9-19T7:51:26Z</time></trkpt>
<trkpt lat="48.47948800" lon="2.72136200"><ele></ele><time>2017-9-19T7:51:29Z</time></trkpt>
<trkpt lat="48.47948500" lon="2.72122700"><ele></ele><time>2017-9-19T7:51:32Z</time></trkpt>
<trkpt lat="48.47947300" lon="2.72117000"><ele></ele><time>2017-9-19T7:51:35Z</time></trkpt>
<trkpt lat="48.47938600" lon="2.72077200"><ele></ele><time>2017-9-19T7:51:38Z</time></trkpt>
<trkpt lat="48.47938200" lon="2.72071500"><ele></ele><time>2017-9-19T7:51:41Z</time></trkpt>
<trkpt lat="48.47934700" lon="2.72060800"><ele></ele><time>2017-9-19T7:51:44Z</time></trkpt>
<trkpt lat="48.47931700" lon="2.72056000"><ele></ele><time>2017-9-19T7:51:47Z</time></trkpt>
<trkpt lat="48.47928800" lon="2.72050500"><ele></ele><time>2017-9-19T7:51:50Z</time></trkpt>
<trkpt lat="48.47922700" lon="2.72037500"><ele></ele><time>2017-9-19T7:51:53Z</time></trkpt>
<trkpt lat="48.47912500" lon="2.72021300"><ele></ele><time>2017-9-19T7:51:56Z</time></trkpt>
<trkpt lat="48.47879000" lon="2.71975000"><ele></ele><time>2017-9-19T7:51:59Z</time></trkpt>
<trkpt lat="48.47876100" lon="2.71972300"><ele></ele><time>2017-9-19T7:52:2Z</time></trkpt>
<trkpt lat="48.47846300" lon="2.71950700"><ele></ele><time>2017-9-19T7:52:5Z</time></trkpt>
<trkpt lat="48.47843300" lon="2.71949300"><ele></ele><time>2017-9-19T7:52:8Z</time></trkpt>
<trkpt lat="48.47797300" lon="2.71925800"><ele></ele><time>2017-9-19T7:52:11Z</time></trkpt>
<trkpt lat="48.47793300" lon="2.71924800"><ele></ele><time>2017-9-19T7:52:14Z</time></trkpt>
<trkpt lat="48.47786800" lon="2.71922000"><ele></ele><time>2017-9-19T7:52:17Z</time></trkpt>
<trkpt lat="48.47740000" lon="2.71903300"><ele></ele><time>2017-9-19T7:52:20Z</time></trkpt>
<trkpt lat="48.47735800" lon="2.71902300"><ele></ele><time>2017-9-19T7:52:23Z</time></trkpt>
<trkpt lat="48.47715300" lon="2.71897200"><ele></ele><time>2017-9-19T7:52:26Z</time></trkpt>
<trkpt lat="48.47712000" lon="2.71897000"><ele></ele><time>2017-9-19T7:52:29Z</time></trkpt>
<trkpt lat="48.47706100" lon="2.71895000"><ele></ele><time>2017-9-19T7:52:32Z</time></trkpt>
<trkpt lat="48.47664300" lon="2.71875300"><ele></ele><time>2017-9-19T7:52:35Z</time></trkpt>
<trkpt lat="48.47604300" lon="2.71841200"><ele></ele><time>2017-9-19T7:52:38Z</time></trkpt>
<trkpt lat="48.47565500" lon="2.71817800"><ele></ele><time>2017-9-19T7:52:41Z</time></trkpt>
<trkpt lat="48.47548000" lon="2.71808500"><ele></ele><time>2017-9-19T7:52:44Z</time></trkpt>
<trkpt lat="48.47516000" lon="2.71793700"><ele></ele><time>2017-9-19T7:52:47Z</time></trkpt>
<trkpt lat="48.47511700" lon="2.71792700"><ele></ele><time>2017-9-19T7:52:50Z</time></trkpt>
<trkpt lat="48.47507700" lon="2.71792000"><ele></ele><time>2017-9-19T7:52:53Z</time></trkpt>
<trkpt lat="48.47497700" lon="2.71789800"><ele></ele><time>2017-9-19T7:52:56Z</time></trkpt>
<trkpt lat="48.47491300" lon="2.71788000"><ele></ele><time>2017-9-19T7:52:59Z</time></trkpt>
<trkpt lat="48.47483200" lon="2.71786500"><ele></ele><time>2017-9-19T7:53:2Z</time></trkpt>
<trkpt lat="48.47482300" lon="2.71787700"><ele></ele><time>2017-9-19T7:53:5Z</time></trkpt>
<trkpt lat="48.47483000" lon="2.71790000"><ele></ele><time>2017-9-19T7:53:8Z</time></trkpt>
<trkpt lat="48.47484000" lon="2.71796500"><ele></ele><time>2017-9-19T7:53:11Z</time></trkpt>
<trkpt lat="48.47485100" lon="2.71811200"><ele></ele><time>2017-9-19T7:53:14Z</time></trkpt>
<trkpt lat="48.47485100" lon="2.71814200"><ele></ele><time>2017-9-19T7:53:17Z</time></trkpt>
<trkpt lat="48.47484100" lon="2.71818800"><ele></ele><time>2017-9-19T7:53:20Z</time></trkpt>
<trkpt lat="48.47482800" lon="2.71821000"><ele></ele><time>2017-9-19T7:53:23Z</time></trkpt>
<trkpt lat="48.47481300" lon="2.71822300"><ele></ele><time>2017-9-19T7:53:26Z</time></trkpt>
<trkpt lat="48.47477800" lon="2.71824200"><ele></ele><time>2017-9-19T7:53:29Z</time></trkpt>
<trkpt lat="48.47476800" lon="2.71824500"><ele></ele><time>2017-9-19T7:53:32Z</time></trkpt>
<trkpt lat="48.47476500" lon="2.71824600"><ele></ele><time>2017-9-19T7:53:35Z</time></trkpt>
<trkpt lat="48.47475800" lon="2.71825000"><ele></ele><time>2017-9-19T7:53:38Z</time></trkpt>
<trkpt lat="48.47475000" lon="2.71825200"><ele></ele><time>2017-9-19T7:53:41Z</time></trkpt>
<trkpt lat="48.47474300" lon="2.71825200"><ele></ele><time>2017-9-19T7:53:44Z</time></trkpt>
<trkpt lat="48.47473600" lon="2.71825200"><ele></ele><time>2017-9-19T7:53:47Z</time></trkpt>
<trkpt lat="48.47473000" lon="2.71825200"><ele></ele><time>2017-9-19T7:53:50Z</time></trkpt>
<trkpt lat="48.47472500" lon="2.71825000"><ele></ele><time>2017-9-19T7:53:53Z</time></trkpt>
<trkpt lat="48.47471800" lon="2.71825000"><ele></ele><time>2017-9-19T7:53:56Z</time></trkpt>
<trkpt lat="48.47471100" lon="2.71825000"><ele></ele><time>2017-9-19T7:53:59Z</time></trkpt>
<trkpt lat="48.47470800" lon="2.71825000"><ele></ele><time>2017-9-19T7:54:2Z</time></trkpt>
<trkpt lat="48.47470700" lon="2.71825000"><ele></ele><time>2017-9-19T7:54:5Z</time></trkpt>
<trkpt lat="48.47470500" lon="2.71824800"><ele></ele><time>2017-9-19T7:54:8Z</time></trkpt>
<trkpt lat="48.47470500" lon="2.71824600"><ele></ele><time>2017-9-19T7:54:11Z</time></trkpt>
<trkpt lat="48.47470500" lon="2.71824500"><ele></ele><time>2017-9-19T7:54:14Z</time></trkpt>
<trkpt lat="48.47469800" lon="2.71824600"><ele></ele><time>2017-9-19T7:54:17Z</time></trkpt>
<trkpt lat="48.47469200" lon="2.71824600"><ele></ele><time>2017-9-19T7:54:20Z</time></trkpt>
<trkpt lat="48.47468700" lon="2.71824800"><ele></ele><time>2017-9-19T7:54:23Z</time></trkpt>
<trkpt lat="48.47468200" lon="2.71824600"><ele></ele><time>2017-9-19T7:54:26Z</time></trkpt>
<trkpt lat="48.47467700" lon="2.71824600"><ele></ele><time>2017-9-19T7:54:29Z</time></trkpt>
<trkpt lat="48.47467100" lon="2.71824500"><ele></ele><time>2017-9-19T7:54:32Z</time></trkpt>
<trkpt lat="48.47467000" lon="2.71824300"><ele></ele><time>2017-9-19T7:54:35Z</time></trkpt>
<trkpt lat="48.47467000" lon="2.71824300"><ele></ele><time>2017-9-19T7:54:38Z</time></trkpt>
<trkpt lat="48.47467700" lon="2.71824600"><ele></ele><time>2017-9-19T7:54:41Z</time></trkpt>
<trkpt lat="48.47469300" lon="2.71825300"><ele></ele><time>2017-9-19T7:54:44Z</time></trkpt>
<trkpt lat="48.47469800" lon="2.71825500"><ele></ele><time>2017-9-19T7:54:47Z</time></trkpt>
<trkpt lat="48.47470300" lon="2.71825700"><ele></ele><time>2017-9-19T7:54:50Z</time></trkpt>
<trkpt lat="48.47470800" lon="2.71825800"><ele></ele><time>2017-9-19T7:54:53Z</time></trkpt>
<trkpt lat="48.47471000" lon="2.71826000"><ele></ele><time>2017-9-19T7:54:56Z</time></trkpt>
<trkpt lat="48.47472000" lon="2.71824200"><ele></ele><time>2017-9-19T7:54:59Z</time></trkpt>
<trkpt lat="48.47472200" lon="2.71824000"><ele></ele><time>2017-9-19T7:55:2Z</time></trkpt>
<trkpt lat="48.47472200" lon="2.71824000"><ele></ele><time>2017-9-19T7:55:5Z</time></trkpt>
<trkpt lat="48.47472300" lon="2.71824000"><ele></ele><time>2017-9-19T7:55:8Z</time></trkpt>
<trkpt lat="48.47472300" lon="2.71824000"><ele></ele><time>2017-9-19T7:55:11Z</time></trkpt>
<trkpt lat="48.47472500" lon="2.71824000"><ele></ele><time>2017-9-19T7:55:14Z</time></trkpt>
<trkpt lat="48.47472500" lon="2.71824000"><ele></ele><time>2017-9-19T7:55:17Z</time></trkpt>
<trkpt lat="48.47472700" lon="2.71824000"><ele></ele><time>2017-9-19T7:55:20Z</time></trkpt>
<trkpt lat="48.47472800" lon="2.71824000"><ele></ele><time>2017-9-19T7:55:23Z</time></trkpt>
<trkpt lat="48.47472300" lon="2.71823500"><ele></ele><time>2017-9-19T7:55:26Z</time></trkpt>
<trkpt lat="48.47472800" lon="2.71822200"><ele></ele><time>2017-9-19T7:55:29Z</time></trkpt>
<trkpt lat="48.47473600" lon="2.71821300"><ele></ele><time>2017-9-19T7:55:32Z</time></trkpt>
<trkpt lat="48.47475000" lon="2.71820800"><ele></ele><time>2017-9-19T7:55:35Z</time></trkpt>
<trkpt lat="48.47476700" lon="2.71820000"><ele></ele><time>2017-9-19T7:55:38Z</time></trkpt>
<trkpt lat="48.47477700" lon="2.71818000"><ele></ele><time>2017-9-19T7:55:41Z</time></trkpt>
<trkpt lat="48.47478000" lon="2.71815300"><ele></ele><time>2017-9-19T7:55:44Z</time></trkpt>
<trkpt lat="48.47477000" lon="2.71811800"><ele></ele><time>2017-9-19T7:55:47Z</time></trkpt>
<trkpt lat="48.47475800" lon="2.71807000"><ele></ele><time>2017-9-19T7:55:50Z</time></trkpt>
<trkpt lat="48.47474800" lon="2.71799000"><ele></ele><time>2017-9-19T7:55:53Z</time></trkpt>
<trkpt lat="48.47473000" lon="2.71790800"><ele></ele><time>2017-9-19T7:55:56Z</time></trkpt>
<trkpt lat="48.47471100" lon="2.71788300"><ele></ele><time>2017-9-19T7:55:59Z</time></trkpt>
<trkpt lat="48.47469700" lon="2.71787700"><ele></ele><time>2017-9-19T7:56:2Z</time></trkpt>
<trkpt lat="48.47467100" lon="2.71787500"><ele></ele><time>2017-9-19T7:56:5Z</time></trkpt>
<trkpt lat="48.47465300" lon="2.71787500"><ele></ele><time>2017-9-19T7:56:8Z</time></trkpt>
<trkpt lat="48.47440000" lon="2.71785200"><ele></ele><time>2017-9-19T7:56:11Z</time></trkpt>
<trkpt lat="48.47416200" lon="2.71784200"><ele></ele><time>2017-9-19T7:56:14Z</time></trkpt>
<trkpt lat="48.47413000" lon="2.71784300"><ele></ele><time>2017-9-19T7:56:17Z</time></trkpt>
<trkpt lat="48.47405200" lon="2.71782700"><ele></ele><time>2017-9-19T7:56:20Z</time></trkpt>
<trkpt lat="48.47402800" lon="2.71781700"><ele></ele><time>2017-9-19T7:56:23Z</time></trkpt>
<trkpt lat="48.47401000" lon="2.71781800"><ele></ele><time>2017-9-19T7:56:26Z</time></trkpt>
<trkpt lat="48.47398700" lon="2.71782700"><ele></ele><time>2017-9-19T7:56:29Z</time></trkpt>
<trkpt lat="48.47395500" lon="2.71783300"><ele></ele><time>2017-9-19T7:56:32Z</time></trkpt>
<trkpt lat="48.47393300" lon="2.71783800"><ele></ele><time>2017-9-19T7:56:35Z</time></trkpt>
<trkpt lat="48.47363800" lon="2.71785200"><ele></ele><time>2017-9-19T7:56:38Z</time></trkpt>
<trkpt lat="48.47352500" lon="2.71786500"><ele></ele><time>2017-9-19T7:56:41Z</time></trkpt>
<trkpt lat="48.47336300" lon="2.71787700"><ele></ele><time>2017-9-19T7:56:44Z</time></trkpt>
<trkpt lat="48.47333200" lon="2.71787500"><ele></ele><time>2017-9-19T7:56:47Z</time></trkpt>
<trkpt lat="48.47326000" lon="2.71788000"><ele></ele><time>2017-9-19T7:56:50Z</time></trkpt>
<trkpt lat="48.47318600" lon="2.71787300"><ele></ele><time>2017-9-19T7:56:53Z</time></trkpt>
<trkpt lat="48.47288700" lon="2.71781300"><ele></ele><time>2017-9-19T7:56:56Z</time></trkpt>
<trkpt lat="48.47282300" lon="2.71780200"><ele></ele><time>2017-9-19T7:56:59Z</time></trkpt>
<trkpt lat="48.47253500" lon="2.71771200"><ele></ele><time>2017-9-19T7:57:2Z</time></trkpt>
<trkpt lat="48.47198200" lon="2.71748800"><ele></ele><time>2017-9-19T7:57:5Z</time></trkpt>
<trkpt lat="48.47195300" lon="2.71748300"><ele></ele><time>2017-9-19T7:57:8Z</time></trkpt>
<trkpt lat="48.47184300" lon="2.71745000"><ele></ele><time>2017-9-19T7:57:11Z</time></trkpt>
<trkpt lat="48.47181000" lon="2.71742800"><ele></ele><time>2017-9-19T7:57:14Z</time></trkpt>
<trkpt lat="48.47172500" lon="2.71737700"><ele></ele><time>2017-9-19T7:57:17Z</time></trkpt>
<trkpt lat="48.47169300" lon="2.71736500"><ele></ele><time>2017-9-19T7:57:20Z</time></trkpt>
<trkpt lat="48.47162500" lon="2.71734700"><ele></ele><time>2017-9-19T7:57:23Z</time></trkpt>
<trkpt lat="48.47147500" lon="2.71731700"><ele></ele><time>2017-9-19T7:57:26Z</time></trkpt>
<trkpt lat="48.47142500" lon="2.71731700"><ele></ele><time>2017-9-19T7:57:29Z</time></trkpt>
<trkpt lat="48.47128500" lon="2.71732800"><ele></ele><time>2017-9-19T7:57:32Z</time></trkpt>
<trkpt lat="48.47124800" lon="2.71734000"><ele></ele><time>2017-9-19T7:57:35Z</time></trkpt>
<trkpt lat="48.47105800" lon="2.71731700"><ele></ele><time>2017-9-19T7:57:38Z</time></trkpt>
<trkpt lat="48.47098200" lon="2.71730700"><ele></ele><time>2017-9-19T7:57:41Z</time></trkpt>
<trkpt lat="48.47059000" lon="2.71723300"><ele></ele><time>2017-9-19T7:57:44Z</time></trkpt>
<trkpt lat="48.47052600" lon="2.71724200"><ele></ele><time>2017-9-19T7:57:47Z</time></trkpt>
<trkpt lat="48.47049500" lon="2.71724800"><ele></ele><time>2017-9-19T7:57:50Z</time></trkpt>
<trkpt lat="48.47034700" lon="2.71726000"><ele></ele><time>2017-9-19T7:57:53Z</time></trkpt>
<trkpt lat="48.46970000" lon="2.71724800"><ele></ele><time>2017-9-19T7:57:56Z</time></trkpt>
<trkpt lat="48.46957500" lon="2.71723700"><ele></ele><time>2017-9-19T7:57:59Z</time></trkpt>
<trkpt lat="48.46954800" lon="2.71723800"><ele></ele><time>2017-9-19T7:58:2Z</time></trkpt>
<trkpt lat="48.46914300" lon="2.71723700"><ele></ele><time>2017-9-19T7:58:5Z</time></trkpt>
<trkpt lat="48.46912000" lon="2.71723200"><ele></ele><time>2017-9-19T7:58:8Z</time></trkpt>
<trkpt lat="48.46899700" lon="2.71723300"><ele></ele><time>2017-9-19T7:58:11Z</time></trkpt>
<trkpt lat="48.46895000" lon="2.71723800"><ele></ele><time>2017-9-19T7:58:14Z</time></trkpt>
<trkpt lat="48.46892000" lon="2.71723200"><ele></ele><time>2017-9-19T7:58:17Z</time></trkpt>
<trkpt lat="48.46881500" lon="2.71721000"><ele></ele><time>2017-9-19T7:58:20Z</time></trkpt>
<trkpt lat="48.46879200" lon="2.71720800"><ele></ele><time>2017-9-19T7:58:23Z</time></trkpt>
<trkpt lat="48.46876700" lon="2.71720700"><ele></ele><time>2017-9-19T7:58:26Z</time></trkpt>
<trkpt lat="48.46874500" lon="2.71720800"><ele></ele><time>2017-9-19T7:58:29Z</time></trkpt>
<trkpt lat="48.46872500" lon="2.71720800"><ele></ele><time>2017-9-19T7:58:32Z</time></trkpt>
<trkpt lat="48.46862500" lon="2.71719300"><ele></ele><time>2017-9-19T7:58:35Z</time></trkpt>
<trkpt lat="48.46853800" lon="2.71718500"><ele></ele><time>2017-9-19T7:58:38Z</time></trkpt>
<trkpt lat="48.46848300" lon="2.71717300"><ele></ele><time>2017-9-19T7:58:41Z</time></trkpt>
<trkpt lat="48.46845700" lon="2.71716000"><ele></ele><time>2017-9-19T7:58:44Z</time></trkpt>
<trkpt lat="48.46841000" lon="2.71715500"><ele></ele><time>2017-9-19T7:58:47Z</time></trkpt>
<trkpt lat="48.46838300" lon="2.71715500"><ele></ele><time>2017-9-19T7:58:50Z</time></trkpt>
<trkpt lat="48.46828600" lon="2.71715300"><ele></ele><time>2017-9-19T7:58:53Z</time></trkpt>
<trkpt lat="48.46827200" lon="2.71716000"><ele></ele><time>2017-9-19T7:58:56Z</time></trkpt>
<trkpt lat="48.46826300" lon="2.71717500"><ele></ele><time>2017-9-19T7:58:59Z</time></trkpt>
<trkpt lat="48.46826000" lon="2.71719500"><ele></ele><time>2017-9-19T7:59:2Z</time></trkpt>
<trkpt lat="48.46823800" lon="2.71720000"><ele></ele><time>2017-9-19T7:59:5Z</time></trkpt>
<trkpt lat="48.46821700" lon="2.71720800"><ele></ele><time>2017-9-19T7:59:8Z</time></trkpt>
<trkpt lat="48.46816000" lon="2.71722300"><ele></ele><time>2017-9-19T7:59:11Z</time></trkpt>
<trkpt lat="48.46814200" lon="2.71722500"><ele></ele><time>2017-9-19T7:59:14Z</time></trkpt>
<trkpt lat="48.46812500" lon="2.71722500"><ele></ele><time>2017-9-19T7:59:17Z</time></trkpt>
<trkpt lat="48.46810800" lon="2.71721500"><ele></ele><time>2017-9-19T7:59:20Z</time></trkpt>
<trkpt lat="48.46809500" lon="2.71720500"><ele></ele><time>2017-9-19T7:59:23Z</time></trkpt>
<trkpt lat="48.46807200" lon="2.71718800"><ele></ele><time>2017-9-19T7:59:26Z</time></trkpt>
<trkpt lat="48.46804300" lon="2.71717800"><ele></ele><time>2017-9-19T7:59:29Z</time></trkpt>
<trkpt lat="48.46802800" lon="2.71717700"><ele></ele><time>2017-9-19T7:59:32Z</time></trkpt>
<trkpt lat="48.46801700" lon="2.71718200"><ele></ele><time>2017-9-19T7:59:35Z</time></trkpt>
<trkpt lat="48.46800000" lon="2.71718800"><ele></ele><time>2017-9-19T7:59:38Z</time></trkpt>
<trkpt lat="48.46791700" lon="2.71720300"><ele></ele><time>2017-9-19T7:59:41Z</time></trkpt>
<trkpt lat="48.46789800" lon="2.71721700"><ele></ele><time>2017-9-19T7:59:44Z</time></trkpt>
<trkpt lat="48.46784300" lon="2.71724000"><ele></ele><time>2017-9-19T7:59:47Z</time></trkpt>
<trkpt lat="48.46773800" lon="2.71728200"><ele></ele><time>2017-9-19T7:59:50Z</time></trkpt>
<trkpt lat="48.46768600" lon="2.71730000"><ele></ele><time>2017-9-19T7:59:53Z</time></trkpt>
<trkpt lat="48.46757600" lon="2.71735000"><ele></ele><time>2017-9-19T7:59:56Z</time></trkpt>
<trkpt lat="48.46744200" lon="2.71740000"><ele></ele><time>2017-9-19T7:59:59Z</time></trkpt>
<trkpt lat="48.46737300" lon="2.71743700"><ele></ele><time>2017-9-19T8:0:2Z</time></trkpt>
<trkpt lat="48.46736200" lon="2.71745800"><ele></ele><time>2017-9-19T8:0:5Z</time></trkpt>
<trkpt lat="48.46734800" lon="2.71748800"><ele></ele><time>2017-9-19T8:0:8Z</time></trkpt>
<trkpt lat="48.46732700" lon="2.71750800"><ele></ele><time>2017-9-19T8:0:11Z</time></trkpt>
<trkpt lat="48.46716200" lon="2.71760000"><ele></ele><time>2017-9-19T8:0:14Z</time></trkpt>
<trkpt lat="48.46714100" lon="2.71760200"><ele></ele><time>2017-9-19T8:0:17Z</time></trkpt>
<trkpt lat="48.46711500" lon="2.71760800"><ele></ele><time>2017-9-19T8:0:20Z</time></trkpt>
<trkpt lat="48.46708300" lon="2.71760800"><ele></ele><time>2017-9-19T8:0:23Z</time></trkpt>
<trkpt lat="48.46705500" lon="2.71760500"><ele></ele><time>2017-9-19T8:0:26Z</time></trkpt>
<trkpt lat="48.46703000" lon="2.71761700"><ele></ele><time>2017-9-19T8:0:29Z</time></trkpt>
<trkpt lat="48.46700500" lon="2.71762800"><ele></ele><time>2017-9-19T8:0:32Z</time></trkpt>
<trkpt lat="48.46698800" lon="2.71764000"><ele></ele><time>2017-9-19T8:0:35Z</time></trkpt>
<trkpt lat="48.46697100" lon="2.71766000"><ele></ele><time>2017-9-19T8:0:38Z</time></trkpt>
<trkpt lat="48.46696000" lon="2.71768300"><ele></ele><time>2017-9-19T8:0:41Z</time></trkpt>
<trkpt lat="48.46694500" lon="2.71770200"><ele></ele><time>2017-9-19T8:0:44Z</time></trkpt>
<trkpt lat="48.46682200" lon="2.71782300"><ele></ele><time>2017-9-19T8:0:47Z</time></trkpt>
<trkpt lat="48.46677800" lon="2.71786700"><ele></ele><time>2017-9-19T8:0:50Z</time></trkpt>
<trkpt lat="48.46675300" lon="2.71787700"><ele></ele><time>2017-9-19T8:0:53Z</time></trkpt>
<trkpt lat="48.46673000" lon="2.71789200"><ele></ele><time>2017-9-19T8:0:56Z</time></trkpt>
<trkpt lat="48.46671000" lon="2.71791000"><ele></ele><time>2017-9-19T8:0:59Z</time></trkpt>
<trkpt lat="48.46669800" lon="2.71793500"><ele></ele><time>2017-9-19T8:1:2Z</time></trkpt>
<trkpt lat="48.46669200" lon="2.71796000"><ele></ele><time>2017-9-19T8:1:5Z</time></trkpt>
<trkpt lat="48.46668700" lon="2.71798200"><ele></ele><time>2017-9-19T8:1:8Z</time></trkpt>
<trkpt lat="48.46667800" lon="2.71799800"><ele></ele><time>2017-9-19T8:1:11Z</time></trkpt>
<trkpt lat="48.46666200" lon="2.71801000"><ele></ele><time>2017-9-19T8:1:14Z</time></trkpt>
<trkpt lat="48.46665100" lon="2.71803200"><ele></ele><time>2017-9-19T8:1:17Z</time></trkpt>
<trkpt lat="48.46663700" lon="2.71805700"><ele></ele><time>2017-9-19T8:1:20Z</time></trkpt>
<trkpt lat="48.46661700" lon="2.71808200"><ele></ele><time>2017-9-19T8:1:23Z</time></trkpt>
<trkpt lat="48.46660200" lon="2.71811700"><ele></ele><time>2017-9-19T8:1:26Z</time></trkpt>
<trkpt lat="48.46658300" lon="2.71814200"><ele></ele><time>2017-9-19T8:1:29Z</time></trkpt>
<trkpt lat="48.46643000" lon="2.71836800"><ele></ele><time>2017-9-19T8:1:32Z</time></trkpt>
<trkpt lat="48.46626800" lon="2.71858700"><ele></ele><time>2017-9-19T8:1:35Z</time></trkpt>
<trkpt lat="48.46625700" lon="2.71861200"><ele></ele><time>2017-9-19T8:1:38Z</time></trkpt>
<trkpt lat="48.46624000" lon="2.71863200"><ele></ele><time>2017-9-19T8:1:41Z</time></trkpt>
<trkpt lat="48.46613500" lon="2.71875200"><ele></ele><time>2017-9-19T8:1:44Z</time></trkpt>
<trkpt lat="48.46612000" lon="2.71877800"><ele></ele><time>2017-9-19T8:1:47Z</time></trkpt>
<trkpt lat="48.46603300" lon="2.71892800"><ele></ele><time>2017-9-19T8:1:50Z</time></trkpt>
<trkpt lat="48.46602000" lon="2.71896000"><ele></ele><time>2017-9-19T8:1:53Z</time></trkpt>
<trkpt lat="48.46600500" lon="2.71898700"><ele></ele><time>2017-9-19T8:1:56Z</time></trkpt>
<trkpt lat="48.46597200" lon="2.71902800"><ele></ele><time>2017-9-19T8:1:59Z</time></trkpt>
<trkpt lat="48.46594800" lon="2.71907300"><ele></ele><time>2017-9-19T8:2:2Z</time></trkpt>
<trkpt lat="48.46589500" lon="2.71915800"><ele></ele><time>2017-9-19T8:2:5Z</time></trkpt>
<trkpt lat="48.46588800" lon="2.71919600"><ele></ele><time>2017-9-19T8:2:8Z</time></trkpt>
<trkpt lat="48.46587700" lon="2.71923000"><ele></ele><time>2017-9-19T8:2:11Z</time></trkpt>
<trkpt lat="48.46584600" lon="2.71929700"><ele></ele><time>2017-9-19T8:2:14Z</time></trkpt>
<trkpt lat="48.46566200" lon="2.71968500"><ele></ele><time>2017-9-19T8:2:17Z</time></trkpt>
<trkpt lat="48.46565000" lon="2.71971800"><ele></ele><time>2017-9-19T8:2:20Z</time></trkpt>
<trkpt lat="48.46561700" lon="2.71984800"><ele></ele><time>2017-9-19T8:2:23Z</time></trkpt>
<trkpt lat="48.46560500" lon="2.71987300"><ele></ele><time>2017-9-19T8:2:26Z</time></trkpt>
<trkpt lat="48.46550600" lon="2.72010200"><ele></ele><time>2017-9-19T8:2:29Z</time></trkpt>
<trkpt lat="48.46549000" lon="2.72013500"><ele></ele><time>2017-9-19T8:2:32Z</time></trkpt>
<trkpt lat="48.46548000" lon="2.72017800"><ele></ele><time>2017-9-19T8:2:35Z</time></trkpt>
<trkpt lat="48.46546500" lon="2.72022000"><ele></ele><time>2017-9-19T8:2:38Z</time></trkpt>
<trkpt lat="48.46530500" lon="2.72066700"><ele></ele><time>2017-9-19T8:2:41Z</time></trkpt>
<trkpt lat="48.46529100" lon="2.72072300"><ele></ele><time>2017-9-19T8:2:44Z</time></trkpt>
<trkpt lat="48.46527200" lon="2.72077200"><ele></ele><time>2017-9-19T8:2:47Z</time></trkpt>
<trkpt lat="48.46518700" lon="2.72096000"><ele></ele><time>2017-9-19T8:2:50Z</time></trkpt>
<trkpt lat="48.46516700" lon="2.72101500"><ele></ele><time>2017-9-19T8:2:53Z</time></trkpt>
<trkpt lat="48.46512500" lon="2.72116200"><ele></ele><time>2017-9-19T8:2:56Z</time></trkpt>
<trkpt lat="48.46493100" lon="2.72179700"><ele></ele><time>2017-9-19T8:2:59Z</time></trkpt>
<trkpt lat="48.46480000" lon="2.72217000"><ele></ele><time>2017-9-19T8:3:2Z</time></trkpt>
<trkpt lat="48.46478800" lon="2.72222500"><ele></ele><time>2017-9-19T8:3:5Z</time></trkpt>
<trkpt lat="48.46463800" lon="2.72276100"><ele></ele><time>2017-9-19T8:3:8Z</time></trkpt>
<trkpt lat="48.46461800" lon="2.72282300"><ele></ele><time>2017-9-19T8:3:11Z</time></trkpt>
<trkpt lat="48.46429800" lon="2.72395700"><ele></ele><time>2017-9-19T8:3:14Z</time></trkpt>
<trkpt lat="48.46421300" lon="2.72418200"><ele></ele><time>2017-9-19T8:3:17Z</time></trkpt>
<trkpt lat="48.46409500" lon="2.72450200"><ele></ele><time>2017-9-19T8:3:20Z</time></trkpt>
<trkpt lat="48.46397800" lon="2.72486100"><ele></ele><time>2017-9-19T8:3:23Z</time></trkpt>
<trkpt lat="48.46375300" lon="2.72554200"><ele></ele><time>2017-9-19T8:3:26Z</time></trkpt>
<trkpt lat="48.46368700" lon="2.72583500"><ele></ele><time>2017-9-19T8:3:29Z</time></trkpt>
<trkpt lat="48.46345000" lon="2.72683000"><ele></ele><time>2017-9-19T8:3:32Z</time></trkpt>
<trkpt lat="48.46343000" lon="2.72689000"><ele></ele><time>2017-9-19T8:3:35Z</time></trkpt>
<trkpt lat="48.46324800" lon="2.72754000"><ele></ele><time>2017-9-19T8:3:38Z</time></trkpt>
<trkpt lat="48.46322300" lon="2.72759700"><ele></ele><time>2017-9-19T8:3:41Z</time></trkpt>
<trkpt lat="48.46315800" lon="2.72773000"><ele></ele><time>2017-9-19T8:3:44Z</time></trkpt>
<trkpt lat="48.46313200" lon="2.72778300"><ele></ele><time>2017-9-19T8:3:47Z</time></trkpt>
<trkpt lat="48.46313300" lon="2.72781000"><ele></ele><time>2017-9-19T8:3:50Z</time></trkpt>
<trkpt lat="48.46313300" lon="2.72782200"><ele></ele><time>2017-9-19T8:3:53Z</time></trkpt>
<trkpt lat="48.46313300" lon="2.72782300"><ele></ele><time>2017-9-19T8:3:56Z</time></trkpt>
<trkpt lat="48.46313300" lon="2.72783200"><ele></ele><time>2017-9-19T8:3:59Z</time></trkpt>
<trkpt lat="48.46313200" lon="2.72783800"><ele></ele><time>2017-9-19T8:4:2Z</time></trkpt>
<trkpt lat="48.46313000" lon="2.72784500"><ele></ele><time>2017-9-19T8:4:5Z</time></trkpt>
<trkpt lat="48.46313000" lon="2.72785300"><ele></ele><time>2017-9-19T8:4:8Z</time></trkpt>
<trkpt lat="48.46312800" lon="2.72786000"><ele></ele><time>2017-9-19T8:4:11Z</time></trkpt>
<trkpt lat="48.46312800" lon="2.72786500"><ele></ele><time>2017-9-19T8:4:14Z</time></trkpt>
<trkpt lat="48.46312700" lon="2.72786500"><ele></ele><time>2017-9-19T8:4:17Z</time></trkpt>
<trkpt lat="48.46312500" lon="2.72787000"><ele></ele><time>2017-9-19T8:4:20Z</time></trkpt>
<trkpt lat="48.46312500" lon="2.72787500"><ele></ele><time>2017-9-19T8:4:23Z</time></trkpt>
<trkpt lat="48.46312500" lon="2.72788000"><ele></ele><time>2017-9-19T8:4:26Z</time></trkpt>
<trkpt lat="48.46312500" lon="2.72788500"><ele></ele><time>2017-9-19T8:4:29Z</time></trkpt>
<trkpt lat="48.46312500" lon="2.72789000"><ele></ele><time>2017-9-19T8:4:32Z</time></trkpt>
<trkpt lat="48.46313300" lon="2.72788700"><ele></ele><time>2017-9-19T8:4:35Z</time></trkpt>
<trkpt lat="48.46313300" lon="2.72788700"><ele></ele><time>2017-9-19T8:4:38Z</time></trkpt>
<trkpt lat="48.46312700" lon="2.72789200"><ele></ele><time>2017-9-19T8:4:41Z</time></trkpt>
<trkpt lat="48.46312100" lon="2.72791300"><ele></ele><time>2017-9-19T8:4:44Z</time></trkpt>
<trkpt lat="48.46312100" lon="2.72794500"><ele></ele><time>2017-9-19T8:4:47Z</time></trkpt>
<trkpt lat="48.46313000" lon="2.72797800"><ele></ele><time>2017-9-19T8:4:50Z</time></trkpt>
<trkpt lat="48.46314500" lon="2.72800700"><ele></ele><time>2017-9-19T8:4:53Z</time></trkpt>
<trkpt lat="48.46316800" lon="2.72803700"><ele></ele><time>2017-9-19T8:4:56Z</time></trkpt>
<trkpt lat="48.46362800" lon="2.72863800"><ele></ele><time>2017-9-19T8:4:59Z</time></trkpt>
<trkpt lat="48.46365300" lon="2.72868200"><ele></ele><time>2017-9-19T8:5:2Z</time></trkpt>
<trkpt lat="48.46372000" lon="2.72882500"><ele></ele><time>2017-9-19T8:5:5Z</time></trkpt>
<trkpt lat="48.46375200" lon="2.72886200"><ele></ele><time>2017-9-19T8:5:8Z</time></trkpt>
<trkpt lat="48.46386300" lon="2.72898500"><ele></ele><time>2017-9-19T8:5:11Z</time></trkpt>
<trkpt lat="48.46389000" lon="2.72903000"><ele></ele><time>2017-9-19T8:5:14Z</time></trkpt>
<trkpt lat="48.46416800" lon="2.72947500"><ele></ele><time>2017-9-19T8:5:17Z</time></trkpt>
<trkpt lat="48.46419000" lon="2.72949500"><ele></ele><time>2017-9-19T8:5:20Z</time></trkpt>
<trkpt lat="48.46420800" lon="2.72951300"><ele></ele><time>2017-9-19T8:5:23Z</time></trkpt>
<trkpt lat="48.46422800" lon="2.72952500"><ele></ele><time>2017-9-19T8:5:26Z</time></trkpt>
<trkpt lat="48.46424700" lon="2.72953700"><ele></ele><time>2017-9-19T8:5:29Z</time></trkpt>
<trkpt lat="48.46426800" lon="2.72955700"><ele></ele><time>2017-9-19T8:5:32Z</time></trkpt>
<trkpt lat="48.46429000" lon="2.72959200"><ele></ele><time>2017-9-19T8:5:35Z</time></trkpt>
<trkpt lat="48.46446000" lon="2.72985000"><ele></ele><time>2017-9-19T8:5:38Z</time></trkpt>
<trkpt lat="48.46448500" lon="2.72988300"><ele></ele><time>2017-9-19T8:5:41Z</time></trkpt>
<trkpt lat="48.46457800" lon="2.73000300"><ele></ele><time>2017-9-19T8:5:44Z</time></trkpt>
<trkpt lat="48.46459700" lon="2.73003500"><ele></ele><time>2017-9-19T8:5:47Z</time></trkpt>
<trkpt lat="48.46461500" lon="2.73007000"><ele></ele><time>2017-9-19T8:5:50Z</time></trkpt>
<trkpt lat="48.46464000" lon="2.73009300"><ele></ele><time>2017-9-19T8:5:53Z</time></trkpt>
<trkpt lat="48.46466000" lon="2.73011700"><ele></ele><time>2017-9-19T8:5:56Z</time></trkpt>
<trkpt lat="48.46467700" lon="2.73014300"><ele></ele><time>2017-9-19T8:5:59Z</time></trkpt>
<trkpt lat="48.46471500" lon="2.73019500"><ele></ele><time>2017-9-19T8:6:2Z</time></trkpt>
<trkpt lat="48.46472600" lon="2.73020000"><ele></ele><time>2017-9-19T8:6:5Z</time></trkpt>
<trkpt lat="48.46472600" lon="2.73019800"><ele></ele><time>2017-9-19T8:6:8Z</time></trkpt>
<trkpt lat="48.46472300" lon="2.73019500"><ele></ele><time>2017-9-19T8:6:11Z</time></trkpt>
<trkpt lat="48.46472800" lon="2.73019000"><ele></ele><time>2017-9-19T8:6:14Z</time></trkpt>
<trkpt lat="48.46473500" lon="2.73018500"><ele></ele><time>2017-9-19T8:6:17Z</time></trkpt>
<trkpt lat="48.46474000" lon="2.73018000"><ele></ele><time>2017-9-19T8:6:20Z</time></trkpt>
<trkpt lat="48.46474200" lon="2.73016500"><ele></ele><time>2017-9-19T8:6:23Z</time></trkpt>
<trkpt lat="48.46473500" lon="2.73015800"><ele></ele><time>2017-9-19T8:6:26Z</time></trkpt>
<trkpt lat="48.46473000" lon="2.73015300"><ele></ele><time>2017-9-19T8:6:29Z</time></trkpt>
<trkpt lat="48.46472500" lon="2.73014700"><ele></ele><time>2017-9-19T8:6:32Z</time></trkpt>
<trkpt lat="48.46472000" lon="2.73014000"><ele></ele><time>2017-9-19T8:6:35Z</time></trkpt>
<trkpt lat="48.46471700" lon="2.73013000"><ele></ele><time>2017-9-19T8:6:38Z</time></trkpt>
<trkpt lat="48.46471300" lon="2.73012000"><ele></ele><time>2017-9-19T8:6:41Z</time></trkpt>
<trkpt lat="48.46470000" lon="2.73011700"><ele></ele><time>2017-9-19T8:6:44Z</time></trkpt>
<trkpt lat="48.46469500" lon="2.73011700"><ele></ele><time>2017-9-19T8:6:47Z</time></trkpt>
<trkpt lat="48.46469500" lon="2.73011500"><ele></ele><time>2017-9-19T8:6:50Z</time></trkpt>
<trkpt lat="48.46468200" lon="2.73010800"><ele></ele><time>2017-9-19T8:6:53Z</time></trkpt>
<trkpt lat="48.46468000" lon="2.73011200"><ele></ele><time>2017-9-19T8:6:56Z</time></trkpt>
<trkpt lat="48.46468200" lon="2.73009700"><ele></ele><time>2017-9-19T8:6:59Z</time></trkpt>
<trkpt lat="48.46466600" lon="2.73008800"><ele></ele><time>2017-9-19T8:7:2Z</time></trkpt>
<trkpt lat="48.46466800" lon="2.73008000"><ele></ele><time>2017-9-19T8:7:5Z</time></trkpt>
<trkpt lat="48.46466800" lon="2.73007200"><ele></ele><time>2017-9-19T8:7:8Z</time></trkpt>
<trkpt lat="48.46467500" lon="2.73006200"><ele></ele><time>2017-9-19T8:7:11Z</time></trkpt>
<trkpt lat="48.46467000" lon="2.73005000"><ele></ele><time>2017-9-19T8:7:14Z</time></trkpt>
<trkpt lat="48.46467000" lon="2.73004500"><ele></ele><time>2017-9-19T8:7:17Z</time></trkpt>
<trkpt lat="48.46466000" lon="2.73003700"><ele></ele><time>2017-9-19T8:7:20Z</time></trkpt>
<trkpt lat="48.46464300" lon="2.73002200"><ele></ele><time>2017-9-19T8:7:23Z</time></trkpt>
<trkpt lat="48.46462500" lon="2.73000700"><ele></ele><time>2017-9-19T8:7:26Z</time></trkpt>
<trkpt lat="48.46461300" lon="2.72999200"><ele></ele><time>2017-9-19T8:7:29Z</time></trkpt>
<trkpt lat="48.46457800" lon="2.72993800"><ele></ele><time>2017-9-19T8:7:32Z</time></trkpt>
<trkpt lat="48.46429000" lon="2.72959700"><ele></ele><time>2017-9-19T8:7:35Z</time></trkpt>
<trkpt lat="48.46408700" lon="2.72936700"><ele></ele><time>2017-9-19T8:7:38Z</time></trkpt>
<trkpt lat="48.46406500" lon="2.72931800"><ele></ele><time>2017-9-19T8:7:41Z</time></trkpt>
<trkpt lat="48.46397800" lon="2.72918000"><ele></ele><time>2017-9-19T8:7:44Z</time></trkpt>
<trkpt lat="48.46384200" lon="2.72897000"><ele></ele><time>2017-9-19T8:7:47Z</time></trkpt>
<trkpt lat="48.46363100" lon="2.72865300"><ele></ele><time>2017-9-19T8:7:50Z</time></trkpt>
<trkpt lat="48.46358000" lon="2.72860000"><ele></ele><time>2017-9-19T8:7:53Z</time></trkpt>
<trkpt lat="48.46354800" lon="2.72856300"><ele></ele><time>2017-9-19T8:7:56Z</time></trkpt>
<trkpt lat="48.46350700" lon="2.72850000"><ele></ele><time>2017-9-19T8:7:59Z</time></trkpt>
<trkpt lat="48.46343800" lon="2.72839700"><ele></ele><time>2017-9-19T8:8:2Z</time></trkpt>
<trkpt lat="48.46340200" lon="2.72836000"><ele></ele><time>2017-9-19T8:8:5Z</time></trkpt>
<trkpt lat="48.46336000" lon="2.72831300"><ele></ele><time>2017-9-19T8:8:8Z</time></trkpt>
<trkpt lat="48.46331800" lon="2.72824200"><ele></ele><time>2017-9-19T8:8:11Z</time></trkpt>
<trkpt lat="48.46307500" lon="2.72785300"><ele></ele><time>2017-9-19T8:8:14Z</time></trkpt>
<trkpt lat="48.46306500" lon="2.72782200"><ele></ele><time>2017-9-19T8:8:17Z</time></trkpt>
<trkpt lat="48.46306000" lon="2.72779700"><ele></ele><time>2017-9-19T8:8:20Z</time></trkpt>
<trkpt lat="48.46304700" lon="2.72776500"><ele></ele><time>2017-9-19T8:8:23Z</time></trkpt>
<trkpt lat="48.46303500" lon="2.72774700"><ele></ele><time>2017-9-19T8:8:26Z</time></trkpt>
<trkpt lat="48.46301700" lon="2.72772800"><ele></ele><time>2017-9-19T8:8:29Z</time></trkpt>
<trkpt lat="48.46299200" lon="2.72771200"><ele></ele><time>2017-9-19T8:8:32Z</time></trkpt>
<trkpt lat="48.46293600" lon="2.72767200"><ele></ele><time>2017-9-19T8:8:35Z</time></trkpt>
<trkpt lat="48.46290300" lon="2.72765500"><ele></ele><time>2017-9-19T8:8:38Z</time></trkpt>
<trkpt lat="48.46079100" lon="2.72665500"><ele></ele><time>2017-9-19T8:8:41Z</time></trkpt>
<trkpt lat="48.45810100" lon="2.72531800"><ele></ele><time>2017-9-19T8:8:44Z</time></trkpt>
<trkpt lat="48.45806500" lon="2.72531700"><ele></ele><time>2017-9-19T8:8:47Z</time></trkpt>
<trkpt lat="48.45797300" lon="2.72528200"><ele></ele><time>2017-9-19T8:8:50Z</time></trkpt>
<trkpt lat="48.45794700" lon="2.72525700"><ele></ele><time>2017-9-19T8:8:53Z</time></trkpt>
<trkpt lat="48.45793300" lon="2.72525300"><ele></ele><time>2017-9-19T8:8:56Z</time></trkpt>
<trkpt lat="48.45789000" lon="2.72523800"><ele></ele><time>2017-9-19T8:8:59Z</time></trkpt>
<trkpt lat="48.45786800" lon="2.72522000"><ele></ele><time>2017-9-19T8:9:2Z</time></trkpt>
<trkpt lat="48.45772800" lon="2.72507800"><ele></ele><time>2017-9-19T8:9:5Z</time></trkpt>
<trkpt lat="48.45771300" lon="2.72506500"><ele></ele><time>2017-9-19T8:9:8Z</time></trkpt>
<trkpt lat="48.45768800" lon="2.72503000"><ele></ele><time>2017-9-19T8:9:11Z</time></trkpt>
<trkpt lat="48.45768500" lon="2.72502800"><ele></ele><time>2017-9-19T8:9:14Z</time></trkpt>
<trkpt lat="48.45768800" lon="2.72502500"><ele></ele><time>2017-9-19T8:9:17Z</time></trkpt>
<trkpt lat="48.45769500" lon="2.72502000"><ele></ele><time>2017-9-19T8:9:20Z</time></trkpt>
<trkpt lat="48.45769800" lon="2.72501700"><ele></ele><time>2017-9-19T8:9:23Z</time></trkpt>
<trkpt lat="48.45769800" lon="2.72501300"><ele></ele><time>2017-9-19T8:9:26Z</time></trkpt>
<trkpt lat="48.45770000" lon="2.72501000"><ele></ele><time>2017-9-19T8:9:29Z</time></trkpt>
<trkpt lat="48.45770000" lon="2.72500800"><ele></ele><time>2017-9-19T8:9:32Z</time></trkpt>
<trkpt lat="48.45770100" lon="2.72500500"><ele></ele><time>2017-9-19T8:9:35Z</time></trkpt>
<trkpt lat="48.45770100" lon="2.72500300"><ele></ele><time>2017-9-19T8:9:38Z</time></trkpt>
<trkpt lat="48.45770100" lon="2.72500200"><ele></ele><time>2017-9-19T8:9:41Z</time></trkpt>
<trkpt lat="48.45770100" lon="2.72500000"><ele></ele><time>2017-9-19T8:9:44Z</time></trkpt>
<trkpt lat="48.45770100" lon="2.72499700"><ele></ele><time>2017-9-19T8:9:47Z</time></trkpt>
<trkpt lat="48.45770100" lon="2.72499500"><ele></ele><time>2017-9-19T8:9:50Z</time></trkpt>
<trkpt lat="48.45770100" lon="2.72499500"><ele></ele><time>2017-9-19T8:9:53Z</time></trkpt>
<trkpt lat="48.45770100" lon="2.72499300"><ele></ele><time>2017-9-19T8:9:56Z</time></trkpt>
<trkpt lat="48.45770100" lon="2.72499300"><ele></ele><time>2017-9-19T8:9:59Z</time></trkpt>
<trkpt lat="48.45770000" lon="2.72499200"><ele></ele><time>2017-9-19T8:10:2Z</time></trkpt>
<trkpt lat="48.45769800" lon="2.72499000"><ele></ele><time>2017-9-19T8:10:5Z</time></trkpt>
<trkpt lat="48.45768300" lon="2.72497500"><ele></ele><time>2017-9-19T8:10:8Z</time></trkpt>
<trkpt lat="48.45767800" lon="2.72496800"><ele></ele><time>2017-9-19T8:10:11Z</time></trkpt>
<trkpt lat="48.45767000" lon="2.72496000"><ele></ele><time>2017-9-19T8:10:14Z</time></trkpt>
<trkpt lat="48.45766700" lon="2.72494800"><ele></ele><time>2017-9-19T8:10:17Z</time></trkpt>
<trkpt lat="48.45765800" lon="2.72493300"><ele></ele><time>2017-9-19T8:10:20Z</time></trkpt>
<trkpt lat="48.45762200" lon="2.72488800"><ele></ele><time>2017-9-19T8:10:23Z</time></trkpt>
<trkpt lat="48.45760200" lon="2.72487700"><ele></ele><time>2017-9-19T8:10:26Z</time></trkpt>
<trkpt lat="48.45758000" lon="2.72486800"><ele></ele><time>2017-9-19T8:10:29Z</time></trkpt>
<trkpt lat="48.45755300" lon="2.72485800"><ele></ele><time>2017-9-19T8:10:32Z</time></trkpt>
<trkpt lat="48.45751700" lon="2.72483300"><ele></ele><time>2017-9-19T8:10:35Z</time></trkpt>
<trkpt lat="48.45749200" lon="2.72481300"><ele></ele><time>2017-9-19T8:10:38Z</time></trkpt>
<trkpt lat="48.45746800" lon="2.72478700"><ele></ele><time>2017-9-19T8:10:41Z</time></trkpt>
<trkpt lat="48.45744800" lon="2.72475500"><ele></ele><time>2017-9-19T8:10:44Z</time></trkpt>
<trkpt lat="48.45741300" lon="2.72469800"><ele></ele><time>2017-9-19T8:10:47Z</time></trkpt>
<trkpt lat="48.45741500" lon="2.72468000"><ele></ele><time>2017-9-19T8:10:50Z</time></trkpt>
<trkpt lat="48.45743000" lon="2.72459700"><ele></ele><time>2017-9-19T8:10:53Z</time></trkpt>
<trkpt lat="48.45742500" lon="2.72455800"><ele></ele><time>2017-9-19T8:10:56Z</time></trkpt>
<trkpt lat="48.45741700" lon="2.72452800"><ele></ele><time>2017-9-19T8:10:59Z</time></trkpt>
<trkpt lat="48.45736600" lon="2.72447300"><ele></ele><time>2017-9-19T8:11:2Z</time></trkpt>
<trkpt lat="48.45678000" lon="2.72377000"><ele></ele><time>2017-9-19T8:11:5Z</time></trkpt>
<trkpt lat="48.45663800" lon="2.72353000"><ele></ele><time>2017-9-19T8:11:8Z</time></trkpt>
<trkpt lat="48.45661500" lon="2.72347800"><ele></ele><time>2017-9-19T8:11:11Z</time></trkpt>
<trkpt lat="48.45658000" lon="2.72343800"><ele></ele><time>2017-9-19T8:11:14Z</time></trkpt>
<trkpt lat="48.45649700" lon="2.72330200"><ele></ele><time>2017-9-19T8:11:17Z</time></trkpt>
<trkpt lat="48.45628300" lon="2.72307200"><ele></ele><time>2017-9-19T8:11:20Z</time></trkpt>
<trkpt lat="48.45622800" lon="2.72300000"><ele></ele><time>2017-9-19T8:11:23Z</time></trkpt>
<trkpt lat="48.45621200" lon="2.72296800"><ele></ele><time>2017-9-19T8:11:26Z</time></trkpt>
<trkpt lat="48.45617500" lon="2.72293500"><ele></ele><time>2017-9-19T8:11:29Z</time></trkpt>
<trkpt lat="48.45610300" lon="2.72281500"><ele></ele><time>2017-9-19T8:11:32Z</time></trkpt>
<trkpt lat="48.45609100" lon="2.72278200"><ele></ele><time>2017-9-19T8:11:35Z</time></trkpt>
<trkpt lat="48.45602000" lon="2.72268000"><ele></ele><time>2017-9-19T8:11:38Z</time></trkpt>
<trkpt lat="48.45593000" lon="2.72255800"><ele></ele><time>2017-9-19T8:11:41Z</time></trkpt>
<trkpt lat="48.45592000" lon="2.72253200"><ele></ele><time>2017-9-19T8:11:44Z</time></trkpt>
<trkpt lat="48.45589800" lon="2.72250000"><ele></ele><time>2017-9-19T8:11:47Z</time></trkpt>
<trkpt lat="48.45587700" lon="2.72246300"><ele></ele><time>2017-9-19T8:11:50Z</time></trkpt>
<trkpt lat="48.45583500" lon="2.72241700"><ele></ele><time>2017-9-19T8:11:53Z</time></trkpt>
<trkpt lat="48.45557800" lon="2.72208500"><ele></ele><time>2017-9-19T8:11:56Z</time></trkpt>
<trkpt lat="48.45555700" lon="2.72205300"><ele></ele><time>2017-9-19T8:11:59Z</time></trkpt>
<trkpt lat="48.45552200" lon="2.72199800"><ele></ele><time>2017-9-19T8:12:2Z</time></trkpt>
<trkpt lat="48.45551100" lon="2.72196800"><ele></ele><time>2017-9-19T8:12:5Z</time></trkpt>
<trkpt lat="48.45550200" lon="2.72193500"><ele></ele><time>2017-9-19T8:12:8Z</time></trkpt>
<trkpt lat="48.45547800" lon="2.72189300"><ele></ele><time>2017-9-19T8:12:11Z</time></trkpt>
<trkpt lat="48.45543000" lon="2.72182500"><ele></ele><time>2017-9-19T8:12:14Z</time></trkpt>
<trkpt lat="48.45534200" lon="2.72167000"><ele></ele><time>2017-9-19T8:12:17Z</time></trkpt>
<trkpt lat="48.45532800" lon="2.72164800"><ele></ele><time>2017-9-19T8:12:20Z</time></trkpt>
<trkpt lat="48.45497000" lon="2.72117500"><ele></ele><time>2017-9-19T8:12:23Z</time></trkpt>
<trkpt lat="48.45495800" lon="2.72115500"><ele></ele><time>2017-9-19T8:12:26Z</time></trkpt>
<trkpt lat="48.45493300" lon="2.72112000"><ele></ele><time>2017-9-19T8:12:29Z</time></trkpt>
<trkpt lat="48.45492300" lon="2.72110000"><ele></ele><time>2017-9-19T8:12:32Z</time></trkpt>
<trkpt lat="48.45489500" lon="2.72105800"><ele></ele><time>2017-9-19T8:12:35Z</time></trkpt>
<trkpt lat="48.45480600" lon="2.72096000"><ele></ele><time>2017-9-19T8:12:38Z</time></trkpt>
<trkpt lat="48.45480200" lon="2.72095500"><ele></ele><time>2017-9-19T8:12:41Z</time></trkpt>
<trkpt lat="48.45479700" lon="2.72094800"><ele></ele><time>2017-9-19T8:12:44Z</time></trkpt>
<trkpt lat="48.45479200" lon="2.72094300"><ele></ele><time>2017-9-19T8:12:47Z</time></trkpt>
<trkpt lat="48.45478800" lon="2.72094000"><ele></ele><time>2017-9-19T8:12:50Z</time></trkpt>
<trkpt lat="48.45478700" lon="2.72093700"><ele></ele><time>2017-9-19T8:12:53Z</time></trkpt>
<trkpt lat="48.45478500" lon="2.72093500"><ele></ele><time>2017-9-19T8:12:56Z</time></trkpt>
<trkpt lat="48.45478200" lon="2.72093200"><ele></ele><time>2017-9-19T8:12:59Z</time></trkpt>
<trkpt lat="48.45478000" lon="2.72093000"><ele></ele><time>2017-9-19T8:13:2Z</time></trkpt>
<trkpt lat="48.45477700" lon="2.72092300"><ele></ele><time>2017-9-19T8:13:5Z</time></trkpt>
<trkpt lat="48.45477100" lon="2.72092000"><ele></ele><time>2017-9-19T8:13:8Z</time></trkpt>
<trkpt lat="48.45475800" lon="2.72090700"><ele></ele><time>2017-9-19T8:13:11Z</time></trkpt>
<trkpt lat="48.45475200" lon="2.72090200"><ele></ele><time>2017-9-19T8:13:14Z</time></trkpt>
<trkpt lat="48.45475000" lon="2.72090300"><ele></ele><time>2017-9-19T8:13:17Z</time></trkpt>
<trkpt lat="48.45474500" lon="2.72090500"><ele></ele><time>2017-9-19T8:13:20Z</time></trkpt>
<trkpt lat="48.45474000" lon="2.72091000"><ele></ele><time>2017-9-19T8:13:23Z</time></trkpt>
<trkpt lat="48.45473800" lon="2.72092200"><ele></ele><time>2017-9-19T8:13:26Z</time></trkpt>
<trkpt lat="48.45473800" lon="2.72092800"><ele></ele><time>2017-9-19T8:13:29Z</time></trkpt>
<trkpt lat="48.45475000" lon="2.72094300"><ele></ele><time>2017-9-19T8:13:32Z</time></trkpt>
<trkpt lat="48.45476000" lon="2.72095500"><ele></ele><time>2017-9-19T8:13:35Z</time></trkpt>
<trkpt lat="48.45476800" lon="2.72096700"><ele></ele><time>2017-9-19T8:13:38Z</time></trkpt>
<trkpt lat="48.45477100" lon="2.72097000"><ele></ele><time>2017-9-19T8:13:41Z</time></trkpt>
<trkpt lat="48.45477300" lon="2.72097200"><ele></ele><time>2017-9-19T8:13:44Z</time></trkpt>
<trkpt lat="48.45477500" lon="2.72097200"><ele></ele><time>2017-9-19T8:13:47Z</time></trkpt>
<trkpt lat="48.45477800" lon="2.72097500"><ele></ele><time>2017-9-19T8:13:50Z</time></trkpt>
<trkpt lat="48.45478200" lon="2.72098000"><ele></ele><time>2017-9-19T8:13:53Z</time></trkpt>
<trkpt lat="48.45478500" lon="2.72098300"><ele></ele><time>2017-9-19T8:13:56Z</time></trkpt>
<trkpt lat="48.45478800" lon="2.72098800"><ele></ele><time>2017-9-19T8:13:59Z</time></trkpt>
<trkpt lat="48.45479000" lon="2.72099200"><ele></ele><time>2017-9-19T8:14:2Z</time></trkpt>
<trkpt lat="48.45479500" lon="2.72099700"><ele></ele><time>2017-9-19T8:14:5Z</time></trkpt>
<trkpt lat="48.45480000" lon="2.72100300"><ele></ele><time>2017-9-19T8:14:8Z</time></trkpt>
<trkpt lat="48.45481000" lon="2.72101500"><ele></ele><time>2017-9-19T8:14:11Z</time></trkpt>
<trkpt lat="48.45481700" lon="2.72102700"><ele></ele><time>2017-9-19T8:14:14Z</time></trkpt>
<trkpt lat="48.45483100" lon="2.72105000"><ele></ele><time>2017-9-19T8:14:17Z</time></trkpt>
<trkpt lat="48.45484000" lon="2.72105800"><ele></ele><time>2017-9-19T8:14:20Z</time></trkpt>
<trkpt lat="48.45484300" lon="2.72106800"><ele></ele><time>2017-9-19T8:14:23Z</time></trkpt>
<trkpt lat="48.45484500" lon="2.72107700"><ele></ele><time>2017-9-19T8:14:26Z</time></trkpt>
<trkpt lat="48.45485500" lon="2.72108000"><ele></ele><time>2017-9-19T8:14:29Z</time></trkpt>
<trkpt lat="48.45485600" lon="2.72108800"><ele></ele><time>2017-9-19T8:14:32Z</time></trkpt>
<trkpt lat="48.45486000" lon="2.72109300"><ele></ele><time>2017-9-19T8:14:35Z</time></trkpt>
<trkpt lat="48.45486300" lon="2.72110500"><ele></ele><time>2017-9-19T8:14:38Z</time></trkpt>
<trkpt lat="48.45486500" lon="2.72111000"><ele></ele><time>2017-9-19T8:14:41Z</time></trkpt>
<trkpt lat="48.45486700" lon="2.72111500"><ele></ele><time>2017-9-19T8:14:44Z</time></trkpt>
<trkpt lat="48.45486800" lon="2.72111800"><ele></ele><time>2017-9-19T8:14:47Z</time></trkpt>
<trkpt lat="48.45487000" lon="2.72112200"><ele></ele><time>2017-9-19T8:14:50Z</time></trkpt>
<trkpt lat="48.45487200" lon="2.72112500"><ele></ele><time>2017-9-19T8:14:53Z</time></trkpt>
<trkpt lat="48.45487200" lon="2.72112800"><ele></ele><time>2017-9-19T8:14:56Z</time></trkpt>
<trkpt lat="48.45487300" lon="2.72113000"><ele></ele><time>2017-9-19T8:14:59Z</time></trkpt>
<trkpt lat="48.45487500" lon="2.72113300"><ele></ele><time>2017-9-19T8:15:2Z</time></trkpt>
<trkpt lat="48.45486800" lon="2.72112300"><ele></ele><time>2017-9-19T8:15:5Z</time></trkpt>
<trkpt lat="48.45486500" lon="2.72111800"><ele></ele><time>2017-9-19T8:15:8Z</time></trkpt>
<trkpt lat="48.45485800" lon="2.72111300"><ele></ele><time>2017-9-19T8:15:11Z</time></trkpt>
<trkpt lat="48.45485500" lon="2.72110000"><ele></ele><time>2017-9-19T8:15:14Z</time></trkpt>
<trkpt lat="48.45484800" lon="2.72109500"><ele></ele><time>2017-9-19T8:15:17Z</time></trkpt>
<trkpt lat="48.45483800" lon="2.72109000"><ele></ele><time>2017-9-19T8:15:20Z</time></trkpt>
<trkpt lat="48.45483100" lon="2.72109300"><ele></ele><time>2017-9-19T8:15:23Z</time></trkpt>
<trkpt lat="48.45482000" lon="2.72110000"><ele></ele><time>2017-9-19T8:15:26Z</time></trkpt>
<trkpt lat="48.45480300" lon="2.72111200"><ele></ele><time>2017-9-19T8:15:29Z</time></trkpt>
<trkpt lat="48.45478800" lon="2.72112800"><ele></ele><time>2017-9-19T8:15:32Z</time></trkpt>
<trkpt lat="48.45469700" lon="2.72123300"><ele></ele><time>2017-9-19T8:15:35Z</time></trkpt>
<trkpt lat="48.45445100" lon="2.72149200"><ele></ele><time>2017-9-19T8:15:38Z</time></trkpt>
<trkpt lat="48.45442200" lon="2.72152700"><ele></ele><time>2017-9-19T8:15:41Z</time></trkpt>
<trkpt lat="48.45390700" lon="2.72210700"><ele></ele><time>2017-9-19T8:15:44Z</time></trkpt>
<trkpt lat="48.45381300" lon="2.72221200"><ele></ele><time>2017-9-19T8:15:47Z</time></trkpt>
<trkpt lat="48.45365100" lon="2.72243700"><ele></ele><time>2017-9-19T8:15:50Z</time></trkpt>
<trkpt lat="48.45341200" lon="2.72273200"><ele></ele><time>2017-9-19T8:15:53Z</time></trkpt>
<trkpt lat="48.45338500" lon="2.72274800"><ele></ele><time>2017-9-19T8:15:56Z</time></trkpt>
<trkpt lat="48.45336300" lon="2.72276700"><ele></ele><time>2017-9-19T8:15:59Z</time></trkpt>
<trkpt lat="48.45334800" lon="2.72279800"><ele></ele><time>2017-9-19T8:16:2Z</time></trkpt>
<trkpt lat="48.45332800" lon="2.72283000"><ele></ele><time>2017-9-19T8:16:5Z</time></trkpt>
<trkpt lat="48.45326500" lon="2.72291200"><ele></ele><time>2017-9-19T8:16:8Z</time></trkpt>
<trkpt lat="48.45325000" lon="2.72292200"><ele></ele><time>2017-9-19T8:16:11Z</time></trkpt>
<trkpt lat="48.45322500" lon="2.72292200"><ele></ele><time>2017-9-19T8:16:14Z</time></trkpt>
<trkpt lat="48.45313800" lon="2.72296500"><ele></ele><time>2017-9-19T8:16:17Z</time></trkpt>
<trkpt lat="48.45309200" lon="2.72282700"><ele></ele><time>2017-9-19T8:16:20Z</time></trkpt>
<trkpt lat="48.45303700" lon="2.72281500"><ele></ele><time>2017-9-19T8:16:23Z</time></trkpt>
<trkpt lat="48.45295600" lon="2.72277700"><ele></ele><time>2017-9-19T8:16:26Z</time></trkpt>
<trkpt lat="48.45292000" lon="2.72274200"><ele></ele><time>2017-9-19T8:16:29Z</time></trkpt>
<trkpt lat="48.45286600" lon="2.72268700"><ele></ele><time>2017-9-19T8:16:32Z</time></trkpt>
<trkpt lat="48.45286800" lon="2.72269300"><ele></ele><time>2017-9-19T8:16:35Z</time></trkpt>
<trkpt lat="48.45287200" lon="2.72270700"><ele></ele><time>2017-9-19T8:16:38Z</time></trkpt>
<trkpt lat="48.45287700" lon="2.72272300"><ele></ele><time>2017-9-19T8:16:41Z</time></trkpt>
<trkpt lat="48.45288100" lon="2.72273500"><ele></ele><time>2017-9-19T8:16:44Z</time></trkpt>
<trkpt lat="48.45289000" lon="2.72276100"><ele></ele><time>2017-9-19T8:16:47Z</time></trkpt>
<trkpt lat="48.45289300" lon="2.72276700"><ele></ele><time>2017-9-19T8:16:50Z</time></trkpt>
<trkpt lat="48.45289500" lon="2.72277300"><ele></ele><time>2017-9-19T8:16:53Z</time></trkpt>
<trkpt lat="48.45290000" lon="2.72278700"><ele></ele><time>2017-9-19T8:16:56Z</time></trkpt>
<trkpt lat="48.45290500" lon="2.72280800"><ele></ele><time>2017-9-19T8:16:59Z</time></trkpt>
<trkpt lat="48.45290500" lon="2.72281800"><ele></ele><time>2017-9-19T8:17:2Z</time></trkpt>
<trkpt lat="48.45290600" lon="2.72281700"><ele></ele><time>2017-9-19T8:17:5Z</time></trkpt>
<trkpt lat="48.45290600" lon="2.72281300"><ele></ele><time>2017-9-19T8:17:8Z</time></trkpt>
<trkpt lat="48.45290600" lon="2.72281200"><ele></ele><time>2017-9-19T8:17:11Z</time></trkpt>
<trkpt lat="48.45290600" lon="2.72280800"><ele></ele><time>2017-9-19T8:17:14Z</time></trkpt>
<trkpt lat="48.45290600" lon="2.72280700"><ele></ele><time>2017-9-19T8:17:17Z</time></trkpt>
<trkpt lat="48.45290800" lon="2.72280800"><ele></ele><time>2017-9-19T8:17:20Z</time></trkpt>
<trkpt lat="48.45290800" lon="2.72281200"><ele></ele><time>2017-9-19T8:17:23Z</time></trkpt>
<trkpt lat="48.45290800" lon="2.72281300"><ele></ele><time>2017-9-19T8:17:26Z</time></trkpt>
<trkpt lat="48.45291000" lon="2.72282500"><ele></ele><time>2017-9-19T8:17:29Z</time></trkpt>
<trkpt lat="48.45291000" lon="2.72283500"><ele></ele><time>2017-9-19T8:17:32Z</time></trkpt>
<trkpt lat="48.45291200" lon="2.72283800"><ele></ele><time>2017-9-19T8:17:35Z</time></trkpt>
<trkpt lat="48.45291500" lon="2.72285200"><ele></ele><time>2017-9-19T8:17:38Z</time></trkpt>
<trkpt lat="48.45291500" lon="2.72285500"><ele></ele><time>2017-9-19T8:17:41Z</time></trkpt>
<trkpt lat="48.45291700" lon="2.72286200"><ele></ele><time>2017-9-19T8:17:44Z</time></trkpt>
<trkpt lat="48.45291700" lon="2.72286700"><ele></ele><time>2017-9-19T8:17:47Z</time></trkpt>
<trkpt lat="48.45291700" lon="2.72285700"><ele></ele><time>2017-9-19T8:17:50Z</time></trkpt>
<trkpt lat="48.45291500" lon="2.72285200"><ele></ele><time>2017-9-19T8:17:53Z</time></trkpt>
<trkpt lat="48.45291500" lon="2.72283800"><ele></ele><time>2017-9-19T8:17:56Z</time></trkpt>
<trkpt lat="48.45291500" lon="2.72283700"><ele></ele><time>2017-9-19T8:17:59Z</time></trkpt>
<trkpt lat="48.45291500" lon="2.72284000"><ele></ele><time>2017-9-19T8:18:2Z</time></trkpt>
<trkpt lat="48.45291500" lon="2.72284300"><ele></ele><time>2017-9-19T8:18:5Z</time></trkpt>
<trkpt lat="48.45291500" lon="2.72284700"><ele></ele><time>2017-9-19T8:18:8Z</time></trkpt>
<trkpt lat="48.45291500" lon="2.72285000"><ele></ele><time>2017-9-19T8:18:11Z</time></trkpt>
<trkpt lat="48.45291500" lon="2.72285800"><ele></ele><time>2017-9-19T8:18:14Z</time></trkpt>
<trkpt lat="48.45291500" lon="2.72286000"><ele></ele><time>2017-9-19T8:18:17Z</time></trkpt>
<trkpt lat="48.45291300" lon="2.72285700"><ele></ele><time>2017-9-19T8:18:20Z</time></trkpt>
<trkpt lat="48.45291200" lon="2.72285500"><ele></ele><time>2017-9-19T8:18:23Z</time></trkpt>
<trkpt lat="48.45290600" lon="2.72286500"><ele></ele><time>2017-9-19T8:18:26Z</time></trkpt>
<trkpt lat="48.45290500" lon="2.72287000"><ele></ele><time>2017-9-19T8:18:29Z</time></trkpt>
<trkpt lat="48.45290200" lon="2.72287000"><ele></ele><time>2017-9-19T8:18:32Z</time></trkpt>
<trkpt lat="48.45289800" lon="2.72287800"><ele></ele><time>2017-9-19T8:18:35Z</time></trkpt>
<trkpt lat="48.45288700" lon="2.72285800"><ele></ele><time>2017-9-19T8:18:38Z</time></trkpt>
<trkpt lat="48.45288500" lon="2.72286300"><ele></ele><time>2017-9-19T8:18:41Z</time></trkpt>
<trkpt lat="48.45288100" lon="2.72285300"><ele></ele><time>2017-9-19T8:18:44Z</time></trkpt>
<trkpt lat="48.45288000" lon="2.72285800"><ele></ele><time>2017-9-19T8:18:47Z</time></trkpt>
<trkpt lat="48.45287700" lon="2.72285000"><ele></ele><time>2017-9-19T8:18:50Z</time></trkpt>
<trkpt lat="48.45287500" lon="2.72285700"><ele></ele><time>2017-9-19T8:18:53Z</time></trkpt>
<trkpt lat="48.45287300" lon="2.72286000"><ele></ele><time>2017-9-19T8:18:56Z</time></trkpt>
<trkpt lat="48.45287200" lon="2.72286700"><ele></ele><time>2017-9-19T8:18:59Z</time></trkpt>
<trkpt lat="48.45287000" lon="2.72286300"><ele></ele><time>2017-9-19T8:19:2Z</time></trkpt>
<trkpt lat="48.45286800" lon="2.72286800"><ele></ele><time>2017-9-19T8:19:5Z</time></trkpt>
<trkpt lat="48.45286600" lon="2.72286800"><ele></ele><time>2017-9-19T8:19:8Z</time></trkpt>
<trkpt lat="48.45286800" lon="2.72287300"><ele></ele><time>2017-9-19T8:19:11Z</time></trkpt>
<trkpt lat="48.45286600" lon="2.72287600"><ele></ele><time>2017-9-19T8:19:14Z</time></trkpt>
<trkpt lat="48.45286500" lon="2.72288200"><ele></ele><time>2017-9-19T8:19:17Z</time></trkpt>
<trkpt lat="48.45286300" lon="2.72289500"><ele></ele><time>2017-9-19T8:19:20Z</time></trkpt>
<trkpt lat="48.45286300" lon="2.72290800"><ele></ele><time>2017-9-19T8:19:23Z</time></trkpt>
<trkpt lat="48.45286300" lon="2.72292000"><ele></ele><time>2017-9-19T8:19:26Z</time></trkpt>
<trkpt lat="48.45286200" lon="2.72292700"><ele></ele><time>2017-9-19T8:19:29Z</time></trkpt>
<trkpt lat="48.45286000" lon="2.72293300"><ele></ele><time>2017-9-19T8:19:32Z</time></trkpt>
<trkpt lat="48.45285800" lon="2.72294500"><ele></ele><time>2017-9-19T8:19:35Z</time></trkpt>
<trkpt lat="48.45285800" lon="2.72295200"><ele></ele><time>2017-9-19T8:19:38Z</time></trkpt>
<trkpt lat="48.45285800" lon="2.72295700"><ele></ele><time>2017-9-19T8:19:41Z</time></trkpt>
<trkpt lat="48.45285800" lon="2.72296200"><ele></ele><time>2017-9-19T8:19:44Z</time></trkpt>
<trkpt lat="48.45286000" lon="2.72296300"><ele></ele><time>2017-9-19T8:19:47Z</time></trkpt>
<trkpt lat="48.45286000" lon="2.72296500"><ele></ele><time>2017-9-19T8:19:50Z</time></trkpt>
<trkpt lat="48.45286000" lon="2.72296500"><ele></ele><time>2017-9-19T8:19:53Z</time></trkpt>
<trkpt lat="48.45286000" lon="2.72296700"><ele></ele><time>2017-9-19T8:19:56Z</time></trkpt>
<trkpt lat="48.45285800" lon="2.72295700"><ele></ele><time>2017-9-19T8:19:59Z</time></trkpt>
<trkpt lat="48.45285700" lon="2.72296000"><ele></ele><time>2017-9-19T8:20:2Z</time></trkpt>
<trkpt lat="48.45285300" lon="2.72296500"><ele></ele><time>2017-9-19T8:20:5Z</time></trkpt>
<trkpt lat="48.45284100" lon="2.72299000"><ele></ele><time>2017-9-19T8:20:8Z</time></trkpt>
<trkpt lat="48.45281200" lon="2.72302000"><ele></ele><time>2017-9-19T8:20:11Z</time></trkpt>
<trkpt lat="48.45280300" lon="2.72304000"><ele></ele><time>2017-9-19T8:20:14Z</time></trkpt>
<trkpt lat="48.45278700" lon="2.72306000"><ele></ele><time>2017-9-19T8:20:17Z</time></trkpt>
<trkpt lat="48.45274500" lon="2.72308800"><ele></ele><time>2017-9-19T8:20:20Z</time></trkpt>
<trkpt lat="48.45273800" lon="2.72309800"><ele></ele><time>2017-9-19T8:20:23Z</time></trkpt>
<trkpt lat="48.45272800" lon="2.72310000"><ele></ele><time>2017-9-19T8:20:26Z</time></trkpt>
<trkpt lat="48.45266500" lon="2.72311500"><ele></ele><time>2017-9-19T8:20:29Z</time></trkpt>
<trkpt lat="48.45262800" lon="2.72313500"><ele></ele><time>2017-9-19T8:20:32Z</time></trkpt>
<trkpt lat="48.45259500" lon="2.72317300"><ele></ele><time>2017-9-19T8:20:35Z</time></trkpt>
<trkpt lat="48.45257800" lon="2.72319500"><ele></ele><time>2017-9-19T8:20:38Z</time></trkpt>
<trkpt lat="48.45256200" lon="2.72321700"><ele></ele><time>2017-9-19T8:20:41Z</time></trkpt>
<trkpt lat="48.45254300" lon="2.72323800"><ele></ele><time>2017-9-19T8:20:44Z</time></trkpt>
<trkpt lat="48.45252600" lon="2.72326000"><ele></ele><time>2017-9-19T8:20:47Z</time></trkpt>
<trkpt lat="48.45250800" lon="2.72328700"><ele></ele><time>2017-9-19T8:20:50Z</time></trkpt>
<trkpt lat="48.45249100" lon="2.72331500"><ele></ele><time>2017-9-19T8:20:53Z</time></trkpt>
<trkpt lat="48.45247300" lon="2.72333600"><ele></ele><time>2017-9-19T8:20:56Z</time></trkpt>
<trkpt lat="48.44996300" lon="2.72658300"><ele></ele><time>2017-9-19T8:20:59Z</time></trkpt>
<trkpt lat="48.44993500" lon="2.72661700"><ele></ele><time>2017-9-19T8:21:2Z</time></trkpt>
<trkpt lat="48.44903700" lon="2.72754500"><ele></ele><time>2017-9-19T8:21:5Z</time></trkpt>
<trkpt lat="48.44892500" lon="2.72769800"><ele></ele><time>2017-9-19T8:21:8Z</time></trkpt>
<trkpt lat="48.44889800" lon="2.72775700"><ele></ele><time>2017-9-19T8:21:11Z</time></trkpt>
<trkpt lat="48.44888100" lon="2.72778000"><ele></ele><time>2017-9-19T8:21:14Z</time></trkpt>
<trkpt lat="48.44887200" lon="2.72778300"><ele></ele><time>2017-9-19T8:21:17Z</time></trkpt>
<trkpt lat="48.44886000" lon="2.72777800"><ele></ele><time>2017-9-19T8:21:20Z</time></trkpt>
<trkpt lat="48.44885200" lon="2.72776200"><ele></ele><time>2017-9-19T8:21:23Z</time></trkpt>
<trkpt lat="48.44884500" lon="2.72773500"><ele></ele><time>2017-9-19T8:21:26Z</time></trkpt>
<trkpt lat="48.44882000" lon="2.72763800"><ele></ele><time>2017-9-19T8:21:29Z</time></trkpt>
<trkpt lat="48.44880800" lon="2.72761500"><ele></ele><time>2017-9-19T8:21:32Z</time></trkpt>
<trkpt lat="48.44879500" lon="2.72759200"><ele></ele><time>2017-9-19T8:21:35Z</time></trkpt>
<trkpt lat="48.44873700" lon="2.72749700"><ele></ele><time>2017-9-19T8:21:38Z</time></trkpt>
<trkpt lat="48.44872200" lon="2.72743800"><ele></ele><time>2017-9-19T8:21:41Z</time></trkpt>
<trkpt lat="48.44871800" lon="2.72737800"><ele></ele><time>2017-9-19T8:21:44Z</time></trkpt>
<trkpt lat="48.44869500" lon="2.72726800"><ele></ele><time>2017-9-19T8:21:47Z</time></trkpt>
<trkpt lat="48.44868100" lon="2.72721000"><ele></ele><time>2017-9-19T8:21:50Z</time></trkpt>
<trkpt lat="48.44864500" lon="2.72705800"><ele></ele><time>2017-9-19T8:21:53Z</time></trkpt>
<trkpt lat="48.44863300" lon="2.72702000"><ele></ele><time>2017-9-19T8:21:56Z</time></trkpt>
<trkpt lat="48.44856800" lon="2.72689700"><ele></ele><time>2017-9-19T8:21:59Z</time></trkpt>
<trkpt lat="48.44856600" lon="2.72683300"><ele></ele><time>2017-9-19T8:22:2Z</time></trkpt>
<trkpt lat="48.44852500" lon="2.72635800"><ele></ele><time>2017-9-19T8:22:5Z</time></trkpt>
<trkpt lat="48.44855000" lon="2.72630000"><ele></ele><time>2017-9-19T8:22:8Z</time></trkpt>
<trkpt lat="48.44857700" lon="2.72623500"><ele></ele><time>2017-9-19T8:22:11Z</time></trkpt>
<trkpt lat="48.44860000" lon="2.72618000"><ele></ele><time>2017-9-19T8:22:14Z</time></trkpt>
<trkpt lat="48.44861800" lon="2.72611500"><ele></ele><time>2017-9-19T8:22:17Z</time></trkpt>
<trkpt lat="48.44865700" lon="2.72592600"><ele></ele><time>2017-9-19T8:22:20Z</time></trkpt>
<trkpt lat="48.44867600" lon="2.72579500"><ele></ele><time>2017-9-19T8:22:23Z</time></trkpt>
<trkpt lat="48.44872600" lon="2.72567300"><ele></ele><time>2017-9-19T8:22:26Z</time></trkpt>
<trkpt lat="48.44875300" lon="2.72561300"><ele></ele><time>2017-9-19T8:22:29Z</time></trkpt>
<trkpt lat="48.44876600" lon="2.72555500"><ele></ele><time>2017-9-19T8:22:32Z</time></trkpt>
<trkpt lat="48.44880300" lon="2.72538200"><ele></ele><time>2017-9-19T8:22:35Z</time></trkpt>
<trkpt lat="48.44880300" lon="2.72533800"><ele></ele><time>2017-9-19T8:22:38Z</time></trkpt>
<trkpt lat="48.44879500" lon="2.72529300"><ele></ele><time>2017-9-19T8:22:41Z</time></trkpt>
<trkpt lat="48.44872000" lon="2.72500800"><ele></ele><time>2017-9-19T8:22:44Z</time></trkpt>
<trkpt lat="48.44869500" lon="2.72494800"><ele></ele><time>2017-9-19T8:22:47Z</time></trkpt>
<trkpt lat="48.44862700" lon="2.72476000"><ele></ele><time>2017-9-19T8:22:50Z</time></trkpt>
<trkpt lat="48.44861300" lon="2.72468800"><ele></ele><time>2017-9-19T8:22:53Z</time></trkpt>
<trkpt lat="48.44856600" lon="2.72440300"><ele></ele><time>2017-9-19T8:22:56Z</time></trkpt>
<trkpt lat="48.44856500" lon="2.72433300"><ele></ele><time>2017-9-19T8:22:59Z</time></trkpt>
<trkpt lat="48.44857700" lon="2.72426800"><ele></ele><time>2017-9-19T8:23:2Z</time></trkpt>
<trkpt lat="48.44860300" lon="2.72407000"><ele></ele><time>2017-9-19T8:23:5Z</time></trkpt>
<trkpt lat="48.44862300" lon="2.72401700"><ele></ele><time>2017-9-19T8:23:8Z</time></trkpt>
<trkpt lat="48.44863500" lon="2.72396700"><ele></ele><time>2017-9-19T8:23:11Z</time></trkpt>
<trkpt lat="48.44865000" lon="2.72379300"><ele></ele><time>2017-9-19T8:23:14Z</time></trkpt>
<trkpt lat="48.44864700" lon="2.72376500"><ele></ele><time>2017-9-19T8:23:17Z</time></trkpt>
<trkpt lat="48.44864200" lon="2.72373700"><ele></ele><time>2017-9-19T8:23:20Z</time></trkpt>
<trkpt lat="48.44861000" lon="2.72368500"><ele></ele><time>2017-9-19T8:23:23Z</time></trkpt>
<trkpt lat="48.44858800" lon="2.72363800"><ele></ele><time>2017-9-19T8:23:26Z</time></trkpt>
<trkpt lat="48.44858300" lon="2.72360500"><ele></ele><time>2017-9-19T8:23:29Z</time></trkpt>
<trkpt lat="48.44856600" lon="2.72356800"><ele></ele><time>2017-9-19T8:23:32Z</time></trkpt>
<trkpt lat="48.44855200" lon="2.72353000"><ele></ele><time>2017-9-19T8:23:35Z</time></trkpt>
<trkpt lat="48.44853700" lon="2.72348000"><ele></ele><time>2017-9-19T8:23:38Z</time></trkpt>
<trkpt lat="48.44852800" lon="2.72343700"><ele></ele><time>2017-9-19T8:23:41Z</time></trkpt>
<trkpt lat="48.44851700" lon="2.72339300"><ele></ele><time>2017-9-19T8:23:44Z</time></trkpt>
<trkpt lat="48.44850500" lon="2.72335200"><ele></ele><time>2017-9-19T8:23:47Z</time></trkpt>
<trkpt lat="48.44849200" lon="2.72330200"><ele></ele><time>2017-9-19T8:23:50Z</time></trkpt>
<trkpt lat="48.44840000" lon="2.72311000"><ele></ele><time>2017-9-19T8:23:53Z</time></trkpt>
<trkpt lat="48.44831200" lon="2.72295700"><ele></ele><time>2017-9-19T8:23:56Z</time></trkpt>
<trkpt lat="48.44827800" lon="2.72291700"><ele></ele><time>2017-9-19T8:23:59Z</time></trkpt>
<trkpt lat="48.44824500" lon="2.72286500"><ele></ele><time>2017-9-19T8:24:2Z</time></trkpt>
<trkpt lat="48.44812500" lon="2.72269800"><ele></ele><time>2017-9-19T8:24:5Z</time></trkpt>
<trkpt lat="48.44810100" lon="2.72265800"><ele></ele><time>2017-9-19T8:24:8Z</time></trkpt>
<trkpt lat="48.44793700" lon="2.72242200"><ele></ele><time>2017-9-19T8:24:11Z</time></trkpt>
<trkpt lat="48.44794500" lon="2.72239200"><ele></ele><time>2017-9-19T8:24:14Z</time></trkpt>
<trkpt lat="48.44795300" lon="2.72236800"><ele></ele><time>2017-9-19T8:24:17Z</time></trkpt>
<trkpt lat="48.44797200" lon="2.72235500"><ele></ele><time>2017-9-19T8:24:20Z</time></trkpt>
<trkpt lat="48.44798300" lon="2.72234200"><ele></ele><time>2017-9-19T8:24:23Z</time></trkpt>
<trkpt lat="48.44798800" lon="2.72233000"><ele></ele><time>2017-9-19T8:24:26Z</time></trkpt>
<trkpt lat="48.44798800" lon="2.72231500"><ele></ele><time>2017-9-19T8:24:29Z</time></trkpt>
<trkpt lat="48.44798300" lon="2.72229700"><ele></ele><time>2017-9-19T8:24:32Z</time></trkpt>
<trkpt lat="48.44796300" lon="2.72225500"><ele></ele><time>2017-9-19T8:24:35Z</time></trkpt>
<trkpt lat="48.44796100" lon="2.72223500"><ele></ele><time>2017-9-19T8:24:38Z</time></trkpt>
<trkpt lat="48.44796300" lon="2.72221200"><ele></ele><time>2017-9-19T8:24:41Z</time></trkpt>
<trkpt lat="48.44796800" lon="2.72218500"><ele></ele><time>2017-9-19T8:24:44Z</time></trkpt>
<trkpt lat="48.44797200" lon="2.72214800"><ele></ele><time>2017-9-19T8:24:47Z</time></trkpt>
<trkpt lat="48.44796800" lon="2.72209800"><ele></ele><time>2017-9-19T8:24:50Z</time></trkpt>
<trkpt lat="48.44794700" lon="2.72203700"><ele></ele><time>2017-9-19T8:24:53Z</time></trkpt>
<trkpt lat="48.44793500" lon="2.72198300"><ele></ele><time>2017-9-19T8:24:56Z</time></trkpt>
<trkpt lat="48.44790800" lon="2.72191200"><ele></ele><time>2017-9-19T8:24:59Z</time></trkpt>
<trkpt lat="48.44785700" lon="2.72179000"><ele></ele><time>2017-9-19T8:25:2Z</time></trkpt>
<trkpt lat="48.44781800" lon="2.72173000"><ele></ele><time>2017-9-19T8:25:5Z</time></trkpt>
<trkpt lat="48.44779000" lon="2.72169500"><ele></ele><time>2017-9-19T8:25:8Z</time></trkpt>
<trkpt lat="48.44777000" lon="2.72169000"><ele></ele><time>2017-9-19T8:25:11Z</time></trkpt>
<trkpt lat="48.44769800" lon="2.72164800"><ele></ele><time>2017-9-19T8:25:14Z</time></trkpt>
<trkpt lat="48.44758500" lon="2.72157000"><ele></ele><time>2017-9-19T8:25:17Z</time></trkpt>
<trkpt lat="48.44751000" lon="2.72153700"><ele></ele><time>2017-9-19T8:25:20Z</time></trkpt>
<trkpt lat="48.44744800" lon="2.72150300"><ele></ele><time>2017-9-19T8:25:23Z</time></trkpt>
<trkpt lat="48.44742200" lon="2.72148300"><ele></ele><time>2017-9-19T8:25:26Z</time></trkpt>
<trkpt lat="48.44738800" lon="2.72146300"><ele></ele><time>2017-9-19T8:25:29Z</time></trkpt>
<trkpt lat="48.44734800" lon="2.72144800"><ele></ele><time>2017-9-19T8:25:32Z</time></trkpt>
<trkpt lat="48.44725200" lon="2.72139300"><ele></ele><time>2017-9-19T8:25:35Z</time></trkpt>
<trkpt lat="48.44722300" lon="2.72137200"><ele></ele><time>2017-9-19T8:25:38Z</time></trkpt>
<trkpt lat="48.44719200" lon="2.72133500"><ele></ele><time>2017-9-19T8:25:41Z</time></trkpt>
<trkpt lat="48.44717200" lon="2.72129200"><ele></ele><time>2017-9-19T8:25:44Z</time></trkpt>
<trkpt lat="48.44712500" lon="2.72121300"><ele></ele><time>2017-9-19T8:25:47Z</time></trkpt>
<trkpt lat="48.44701200" lon="2.72104000"><ele></ele><time>2017-9-19T8:25:50Z</time></trkpt>
<trkpt lat="48.44699800" lon="2.72096800"><ele></ele><time>2017-9-19T8:25:53Z</time></trkpt>
<trkpt lat="48.44694800" lon="2.72071800"><ele></ele><time>2017-9-19T8:25:56Z</time></trkpt>
<trkpt lat="48.44696500" lon="2.72068200"><ele></ele><time>2017-9-19T8:25:59Z</time></trkpt>
<trkpt lat="48.44697600" lon="2.72062800"><ele></ele><time>2017-9-19T8:26:2Z</time></trkpt>
<trkpt lat="48.44698000" lon="2.72056700"><ele></ele><time>2017-9-19T8:26:5Z</time></trkpt>
<trkpt lat="48.44697300" lon="2.72033500"><ele></ele><time>2017-9-19T8:26:8Z</time></trkpt>
<trkpt lat="48.44699200" lon="2.72028700"><ele></ele><time>2017-9-19T8:26:11Z</time></trkpt>
<trkpt lat="48.44700500" lon="2.72023200"><ele></ele><time>2017-9-19T8:26:14Z</time></trkpt>
<trkpt lat="48.44706300" lon="2.72003000"><ele></ele><time>2017-9-19T8:26:17Z</time></trkpt>
<trkpt lat="48.44706600" lon="2.71999700"><ele></ele><time>2017-9-19T8:26:20Z</time></trkpt>
<trkpt lat="48.44706500" lon="2.71998200"><ele></ele><time>2017-9-19T8:26:23Z</time></trkpt>
<trkpt lat="48.44706500" lon="2.71997000"><ele></ele><time>2017-9-19T8:26:26Z</time></trkpt>
<trkpt lat="48.44706100" lon="2.71995500"><ele></ele><time>2017-9-19T8:26:29Z</time></trkpt>
<trkpt lat="48.44705700" lon="2.71994200"><ele></ele><time>2017-9-19T8:26:32Z</time></trkpt>
<trkpt lat="48.44706000" lon="2.71993500"><ele></ele><time>2017-9-19T8:26:35Z</time></trkpt>
<trkpt lat="48.44706300" lon="2.71992200"><ele></ele><time>2017-9-19T8:26:38Z</time></trkpt>
<trkpt lat="48.44706600" lon="2.71987200"><ele></ele><time>2017-9-19T8:26:41Z</time></trkpt>
<trkpt lat="48.44708200" lon="2.71978000"><ele></ele><time>2017-9-19T8:26:44Z</time></trkpt>
<trkpt lat="48.44707500" lon="2.71965300"><ele></ele><time>2017-9-19T8:26:47Z</time></trkpt>
<trkpt lat="48.44706500" lon="2.71953800"><ele></ele><time>2017-9-19T8:26:50Z</time></trkpt>
<trkpt lat="48.44705300" lon="2.71948500"><ele></ele><time>2017-9-19T8:26:53Z</time></trkpt>
<trkpt lat="48.44703300" lon="2.71943800"><ele></ele><time>2017-9-19T8:26:56Z</time></trkpt>
<trkpt lat="48.44701800" lon="2.71939500"><ele></ele><time>2017-9-19T8:26:59Z</time></trkpt>
<trkpt lat="48.44691700" lon="2.71907800"><ele></ele><time>2017-9-19T8:27:2Z</time></trkpt>
<trkpt lat="48.44688300" lon="2.71899700"><ele></ele><time>2017-9-19T8:27:5Z</time></trkpt>
<trkpt lat="48.44687000" lon="2.71894000"><ele></ele><time>2017-9-19T8:27:8Z</time></trkpt>
<trkpt lat="48.44687700" lon="2.71889200"><ele></ele><time>2017-9-19T8:27:11Z</time></trkpt>
<trkpt lat="48.44691300" lon="2.71886000"><ele></ele><time>2017-9-19T8:27:14Z</time></trkpt>
<trkpt lat="48.44696700" lon="2.71884800"><ele></ele><time>2017-9-19T8:27:17Z</time></trkpt>
<trkpt lat="48.44701700" lon="2.71885800"><ele></ele><time>2017-9-19T8:27:20Z</time></trkpt>
<trkpt lat="48.44706500" lon="2.71888200"><ele></ele><time>2017-9-19T8:27:23Z</time></trkpt>
<trkpt lat="48.44717200" lon="2.71894800"><ele></ele><time>2017-9-19T8:27:26Z</time></trkpt>
<trkpt lat="48.44720300" lon="2.71898800"><ele></ele><time>2017-9-19T8:27:29Z</time></trkpt>
<trkpt lat="48.44726800" lon="2.71906200"><ele></ele><time>2017-9-19T8:27:32Z</time></trkpt>
<trkpt lat="48.44732200" lon="2.71913500"><ele></ele><time>2017-9-19T8:27:35Z</time></trkpt>
<trkpt lat="48.44734800" lon="2.71917200"><ele></ele><time>2017-9-19T8:27:38Z</time></trkpt>
<trkpt lat="48.44737600" lon="2.71920000"><ele></ele><time>2017-9-19T8:27:41Z</time></trkpt>
<trkpt lat="48.44741000" lon="2.71922000"><ele></ele><time>2017-9-19T8:27:44Z</time></trkpt>
<trkpt lat="48.44744300" lon="2.71924000"><ele></ele><time>2017-9-19T8:27:47Z</time></trkpt>
<trkpt lat="48.44747100" lon="2.71925500"><ele></ele><time>2017-9-19T8:27:50Z</time></trkpt>
<trkpt lat="48.44752300" lon="2.71926700"><ele></ele><time>2017-9-19T8:27:53Z</time></trkpt>
<trkpt lat="48.44755300" lon="2.71927000"><ele></ele><time>2017-9-19T8:27:56Z</time></trkpt>
<trkpt lat="48.44757500" lon="2.71927000"><ele></ele><time>2017-9-19T8:27:59Z</time></trkpt>
<trkpt lat="48.44762000" lon="2.71926300"><ele></ele><time>2017-9-19T8:28:2Z</time></trkpt>
<trkpt lat="48.44764300" lon="2.71925300"><ele></ele><time>2017-9-19T8:28:5Z</time></trkpt>
<trkpt lat="48.44775300" lon="2.71918700"><ele></ele><time>2017-9-19T8:28:8Z</time></trkpt>
<trkpt lat="48.44778600" lon="2.71915200"><ele></ele><time>2017-9-19T8:28:11Z</time></trkpt>
<trkpt lat="48.44781500" lon="2.71910300"><ele></ele><time>2017-9-19T8:28:14Z</time></trkpt>
<trkpt lat="48.44781500" lon="2.71904700"><ele></ele><time>2017-9-19T8:28:17Z</time></trkpt>
<trkpt lat="48.44782700" lon="2.71882500"><ele></ele><time>2017-9-19T8:28:20Z</time></trkpt>
<trkpt lat="48.44784000" lon="2.71876700"><ele></ele><time>2017-9-19T8:28:23Z</time></trkpt>
<trkpt lat="48.44786800" lon="2.71858200"><ele></ele><time>2017-9-19T8:28:26Z</time></trkpt>
<trkpt lat="48.44786500" lon="2.71852300"><ele></ele><time>2017-9-19T8:28:29Z</time></trkpt>
<trkpt lat="48.44783200" lon="2.71843700"><ele></ele><time>2017-9-19T8:28:32Z</time></trkpt>
<trkpt lat="48.44774800" lon="2.71829500"><ele></ele><time>2017-9-19T8:28:35Z</time></trkpt>
<trkpt lat="48.44771200" lon="2.71825000"><ele></ele><time>2017-9-19T8:28:38Z</time></trkpt>
<trkpt lat="48.44766000" lon="2.71819200"><ele></ele><time>2017-9-19T8:28:41Z</time></trkpt>
<trkpt lat="48.44762500" lon="2.71817000"><ele></ele><time>2017-9-19T8:28:44Z</time></trkpt>
<trkpt lat="48.44751300" lon="2.71807300"><ele></ele><time>2017-9-19T8:28:47Z</time></trkpt>
<trkpt lat="48.44747300" lon="2.71802200"><ele></ele><time>2017-9-19T8:28:50Z</time></trkpt>
<trkpt lat="48.44744000" lon="2.71796200"><ele></ele><time>2017-9-19T8:28:53Z</time></trkpt>
<trkpt lat="48.44741800" lon="2.71790300"><ele></ele><time>2017-9-19T8:28:56Z</time></trkpt>
<trkpt lat="48.44742200" lon="2.71785300"><ele></ele><time>2017-9-19T8:28:59Z</time></trkpt>
<trkpt lat="48.44742200" lon="2.71780500"><ele></ele><time>2017-9-19T8:29:2Z</time></trkpt>
<trkpt lat="48.44742300" lon="2.71775800"><ele></ele><time>2017-9-19T8:29:5Z</time></trkpt>
<trkpt lat="48.44742200" lon="2.71770300"><ele></ele><time>2017-9-19T8:29:8Z</time></trkpt>
<trkpt lat="48.44744800" lon="2.71768200"><ele></ele><time>2017-9-19T8:29:11Z</time></trkpt>
<trkpt lat="48.44746000" lon="2.71765300"><ele></ele><time>2017-9-19T8:29:14Z</time></trkpt>
<trkpt lat="48.44745300" lon="2.71760200"><ele></ele><time>2017-9-19T8:29:17Z</time></trkpt>
<trkpt lat="48.44745200" lon="2.71755200"><ele></ele><time>2017-9-19T8:29:20Z</time></trkpt>
<trkpt lat="48.44745500" lon="2.71750200"><ele></ele><time>2017-9-19T8:29:23Z</time></trkpt>
<trkpt lat="48.44747800" lon="2.71747200"><ele></ele><time>2017-9-19T8:29:26Z</time></trkpt>
<trkpt lat="48.44753800" lon="2.71740800"><ele></ele><time>2017-9-19T8:29:29Z</time></trkpt>
<trkpt lat="48.44754700" lon="2.71738000"><ele></ele><time>2017-9-19T8:29:32Z</time></trkpt>
<trkpt lat="48.44756000" lon="2.71735700"><ele></ele><time>2017-9-19T8:29:35Z</time></trkpt>
<trkpt lat="48.44756500" lon="2.71732800"><ele></ele><time>2017-9-19T8:29:38Z</time></trkpt>
<trkpt lat="48.44756500" lon="2.71729600"><ele></ele><time>2017-9-19T8:29:41Z</time></trkpt>
<trkpt lat="48.44756700" lon="2.71725700"><ele></ele><time>2017-9-19T8:29:44Z</time></trkpt>
<trkpt lat="48.44756500" lon="2.71721300"><ele></ele><time>2017-9-19T8:29:47Z</time></trkpt>
<trkpt lat="48.44755800" lon="2.71717300"><ele></ele><time>2017-9-19T8:29:50Z</time></trkpt>
<trkpt lat="48.44755600" lon="2.71712800"><ele></ele><time>2017-9-19T8:29:53Z</time></trkpt>
<trkpt lat="48.44754500" lon="2.71695300"><ele></ele><time>2017-9-19T8:29:56Z</time></trkpt>
<trkpt lat="48.44752000" lon="2.71676300"><ele></ele><time>2017-9-19T8:29:59Z</time></trkpt>
<trkpt lat="48.44750000" lon="2.71660500"><ele></ele><time>2017-9-19T8:30:2Z</time></trkpt>
<trkpt lat="48.44750200" lon="2.71655200"><ele></ele><time>2017-9-19T8:30:5Z</time></trkpt>
<trkpt lat="48.44750700" lon="2.71650200"><ele></ele><time>2017-9-19T8:30:8Z</time></trkpt>
<trkpt lat="48.44752200" lon="2.71647000"><ele></ele><time>2017-9-19T8:30:11Z</time></trkpt>
<trkpt lat="48.44754800" lon="2.71645700"><ele></ele><time>2017-9-19T8:30:14Z</time></trkpt>
<trkpt lat="48.44756500" lon="2.71644000"><ele></ele><time>2017-9-19T8:30:17Z</time></trkpt>
<trkpt lat="48.44761800" lon="2.71640800"><ele></ele><time>2017-9-19T8:30:20Z</time></trkpt>
<trkpt lat="48.44767800" lon="2.71637600"><ele></ele><time>2017-9-19T8:30:23Z</time></trkpt>
<trkpt lat="48.44771700" lon="2.71634300"><ele></ele><time>2017-9-19T8:30:26Z</time></trkpt>
<trkpt lat="48.44772800" lon="2.71631300"><ele></ele><time>2017-9-19T8:30:29Z</time></trkpt>
<trkpt lat="48.44782700" lon="2.71613000"><ele></ele><time>2017-9-19T8:30:32Z</time></trkpt>
<trkpt lat="48.44785200" lon="2.71609500"><ele></ele><time>2017-9-19T8:30:35Z</time></trkpt>
<trkpt lat="48.44787500" lon="2.71605000"><ele></ele><time>2017-9-19T8:30:38Z</time></trkpt>
<trkpt lat="48.44790300" lon="2.71600300"><ele></ele><time>2017-9-19T8:30:41Z</time></trkpt>
<trkpt lat="48.44794500" lon="2.71597200"><ele></ele><time>2017-9-19T8:30:44Z</time></trkpt>
<trkpt lat="48.44797300" lon="2.71594300"><ele></ele><time>2017-9-19T8:30:47Z</time></trkpt>
<trkpt lat="48.44799200" lon="2.71591200"><ele></ele><time>2017-9-19T8:30:50Z</time></trkpt>
<trkpt lat="48.44800800" lon="2.71587000"><ele></ele><time>2017-9-19T8:30:53Z</time></trkpt>
<trkpt lat="48.44809300" lon="2.71563300"><ele></ele><time>2017-9-19T8:30:56Z</time></trkpt>
<trkpt lat="48.44810500" lon="2.71558200"><ele></ele><time>2017-9-19T8:30:59Z</time></trkpt>
<trkpt lat="48.44810300" lon="2.71552500"><ele></ele><time>2017-9-19T8:31:2Z</time></trkpt>
<trkpt lat="48.44810000" lon="2.71546200"><ele></ele><time>2017-9-19T8:31:5Z</time></trkpt>
<trkpt lat="48.44810800" lon="2.71540500"><ele></ele><time>2017-9-19T8:31:8Z</time></trkpt>
<trkpt lat="48.44812700" lon="2.71530700"><ele></ele><time>2017-9-19T8:31:11Z</time></trkpt>
<trkpt lat="48.44815200" lon="2.71525500"><ele></ele><time>2017-9-19T8:31:14Z</time></trkpt>
<trkpt lat="48.44817500" lon="2.71520700"><ele></ele><time>2017-9-19T8:31:17Z</time></trkpt>
<trkpt lat="48.44818600" lon="2.71515000"><ele></ele><time>2017-9-19T8:31:20Z</time></trkpt>
<trkpt lat="48.44822300" lon="2.71496300"><ele></ele><time>2017-9-19T8:31:23Z</time></trkpt>
<trkpt lat="48.44824500" lon="2.71490800"><ele></ele><time>2017-9-19T8:31:26Z</time></trkpt>
<trkpt lat="48.44835300" lon="2.71459200"><ele></ele><time>2017-9-19T8:31:29Z</time></trkpt>
<trkpt lat="48.44833800" lon="2.71451800"><ele></ele><time>2017-9-19T8:31:32Z</time></trkpt>
<trkpt lat="48.44835300" lon="2.71444700"><ele></ele><time>2017-9-19T8:31:35Z</time></trkpt>
<trkpt lat="48.44844200" lon="2.71392500"><ele></ele><time>2017-9-19T8:31:38Z</time></trkpt>
<trkpt lat="48.44849500" lon="2.71361700"><ele></ele><time>2017-9-19T8:31:41Z</time></trkpt>
<trkpt lat="48.44851500" lon="2.71356300"><ele></ele><time>2017-9-19T8:31:44Z</time></trkpt>
<trkpt lat="48.44852800" lon="2.71350300"><ele></ele><time>2017-9-19T8:31:47Z</time></trkpt>
<trkpt lat="48.44855800" lon="2.71338500"><ele></ele><time>2017-9-19T8:31:50Z</time></trkpt>
<trkpt lat="48.44857700" lon="2.71325800"><ele></ele><time>2017-9-19T8:31:53Z</time></trkpt>
<trkpt lat="48.44858000" lon="2.71318300"><ele></ele><time>2017-9-19T8:31:56Z</time></trkpt>
<trkpt lat="48.44858800" lon="2.71295800"><ele></ele><time>2017-9-19T8:31:59Z</time></trkpt>
<trkpt lat="48.44861000" lon="2.71289500"><ele></ele><time>2017-9-19T8:32:2Z</time></trkpt>
<trkpt lat="48.44863800" lon="2.71284300"><ele></ele><time>2017-9-19T8:32:5Z</time></trkpt>
<trkpt lat="48.44867300" lon="2.71280000"><ele></ele><time>2017-9-19T8:32:8Z</time></trkpt>
<trkpt lat="48.44871300" lon="2.71276700"><ele></ele><time>2017-9-19T8:32:11Z</time></trkpt>
<trkpt lat="48.44878500" lon="2.71270500"><ele></ele><time>2017-9-19T8:32:14Z</time></trkpt>
<trkpt lat="48.44880500" lon="2.71266300"><ele></ele><time>2017-9-19T8:32:17Z</time></trkpt>
<trkpt lat="48.44881000" lon="2.71261700"><ele></ele><time>2017-9-19T8:32:20Z</time></trkpt>
<trkpt lat="48.44880700" lon="2.71257300"><ele></ele><time>2017-9-19T8:32:23Z</time></trkpt>
<trkpt lat="48.44879500" lon="2.71254800"><ele></ele><time>2017-9-19T8:32:26Z</time></trkpt>
<trkpt lat="48.44878500" lon="2.71253000"><ele></ele><time>2017-9-19T8:32:29Z</time></trkpt>
<trkpt lat="48.44877300" lon="2.71251500"><ele></ele><time>2017-9-19T8:32:32Z</time></trkpt>
<trkpt lat="48.44876000" lon="2.71250700"><ele></ele><time>2017-9-19T8:32:35Z</time></trkpt>
<trkpt lat="48.44875000" lon="2.71250500"><ele></ele><time>2017-9-19T8:32:38Z</time></trkpt>
<trkpt lat="48.44873800" lon="2.71250000"><ele></ele><time>2017-9-19T8:32:41Z</time></trkpt>
<trkpt lat="48.44873500" lon="2.71250000"><ele></ele><time>2017-9-19T8:32:44Z</time></trkpt>
<trkpt lat="48.44872800" lon="2.71249200"><ele></ele><time>2017-9-19T8:32:47Z</time></trkpt>
<trkpt lat="48.44872300" lon="2.71249200"><ele></ele><time>2017-9-19T8:32:50Z</time></trkpt>
<trkpt lat="48.44869500" lon="2.71247700"><ele></ele><time>2017-9-19T8:32:53Z</time></trkpt>
<trkpt lat="48.44867200" lon="2.71246000"><ele></ele><time>2017-9-19T8:32:56Z</time></trkpt>
<trkpt lat="48.44865100" lon="2.71244800"><ele></ele><time>2017-9-19T8:32:59Z</time></trkpt>
<trkpt lat="48.44863500" lon="2.71243800"><ele></ele><time>2017-9-19T8:33:2Z</time></trkpt>
<trkpt lat="48.44863500" lon="2.71243600"><ele></ele><time>2017-9-19T8:33:5Z</time></trkpt>
<trkpt lat="48.44863700" lon="2.71243300"><ele></ele><time>2017-9-19T8:33:8Z</time></trkpt>
<trkpt lat="48.44863700" lon="2.71242700"><ele></ele><time>2017-9-19T8:33:11Z</time></trkpt>
<trkpt lat="48.44862700" lon="2.71241500"><ele></ele><time>2017-9-19T8:33:14Z</time></trkpt>
<trkpt lat="48.44862200" lon="2.71241200"><ele></ele><time>2017-9-19T8:33:17Z</time></trkpt>
<trkpt lat="48.44861100" lon="2.71240500"><ele></ele><time>2017-9-19T8:33:20Z</time></trkpt>
<trkpt lat="48.44861300" lon="2.71240000"><ele></ele><time>2017-9-19T8:33:23Z</time></trkpt>
<trkpt lat="48.44861500" lon="2.71239300"><ele></ele><time>2017-9-19T8:33:26Z</time></trkpt>
<trkpt lat="48.44861700" lon="2.71238700"><ele></ele><time>2017-9-19T8:33:29Z</time></trkpt>
<trkpt lat="48.44861500" lon="2.71238000"><ele></ele><time>2017-9-19T8:33:32Z</time></trkpt>
<trkpt lat="48.44861300" lon="2.71237500"><ele></ele><time>2017-9-19T8:33:35Z</time></trkpt>
<trkpt lat="48.44861100" lon="2.71237000"><ele></ele><time>2017-9-19T8:33:38Z</time></trkpt>
<trkpt lat="48.44860500" lon="2.71236500"><ele></ele><time>2017-9-19T8:33:41Z</time></trkpt>
<trkpt lat="48.44860000" lon="2.71236200"><ele></ele><time>2017-9-19T8:33:44Z</time></trkpt>
<trkpt lat="48.44859700" lon="2.71236000"><ele></ele><time>2017-9-19T8:33:47Z</time></trkpt>
<trkpt lat="48.44859700" lon="2.71235800"><ele></ele><time>2017-9-19T8:33:50Z</time></trkpt>
<trkpt lat="48.44859500" lon="2.71235800"><ele></ele><time>2017-9-19T8:33:53Z</time></trkpt>
<trkpt lat="48.44859500" lon="2.71235800"><ele></ele><time>2017-9-19T8:33:56Z</time></trkpt>
<trkpt lat="48.44859300" lon="2.71235800"><ele></ele><time>2017-9-19T8:33:59Z</time></trkpt>
<trkpt lat="48.44859300" lon="2.71235800"><ele></ele><time>2017-9-19T8:34:2Z</time></trkpt>
<trkpt lat="48.44858800" lon="2.71235000"><ele></ele><time>2017-9-19T8:34:5Z</time></trkpt>
<trkpt lat="48.44858500" lon="2.71234200"><ele></ele><time>2017-9-19T8:34:8Z</time></trkpt>
<trkpt lat="48.44857700" lon="2.71233200"><ele></ele><time>2017-9-19T8:34:11Z</time></trkpt>
<trkpt lat="48.44847600" lon="2.71221300"><ele></ele><time>2017-9-19T8:34:14Z</time></trkpt>
<trkpt lat="48.44844800" lon="2.71218800"><ele></ele><time>2017-9-19T8:34:17Z</time></trkpt>
<trkpt lat="48.44840800" lon="2.71212200"><ele></ele><time>2017-9-19T8:34:20Z</time></trkpt>
<trkpt lat="48.44838600" lon="2.71208700"><ele></ele><time>2017-9-19T8:34:23Z</time></trkpt>
<trkpt lat="48.44835800" lon="2.71206300"><ele></ele><time>2017-9-19T8:34:26Z</time></trkpt>
<trkpt lat="48.44833300" lon="2.71206500"><ele></ele><time>2017-9-19T8:34:29Z</time></trkpt>
<trkpt lat="48.44831200" lon="2.71209000"><ele></ele><time>2017-9-19T8:34:32Z</time></trkpt>
<trkpt lat="48.44828800" lon="2.71211300"><ele></ele><time>2017-9-19T8:34:35Z</time></trkpt>
<trkpt lat="48.44826500" lon="2.71212300"><ele></ele><time>2017-9-19T8:34:38Z</time></trkpt>
<trkpt lat="48.44824000" lon="2.71212800"><ele></ele><time>2017-9-19T8:34:41Z</time></trkpt>
<trkpt lat="48.44821500" lon="2.71213800"><ele></ele><time>2017-9-19T8:34:44Z</time></trkpt>
<trkpt lat="48.44819000" lon="2.71216500"><ele></ele><time>2017-9-19T8:34:47Z</time></trkpt>
<trkpt lat="48.44816100" lon="2.71219500"><ele></ele><time>2017-9-19T8:34:50Z</time></trkpt>
<trkpt lat="48.44813300" lon="2.71221800"><ele></ele><time>2017-9-19T8:34:53Z</time></trkpt>
<trkpt lat="48.44809800" lon="2.71223500"><ele></ele><time>2017-9-19T8:34:56Z</time></trkpt>
<trkpt lat="48.44795000" lon="2.71231500"><ele></ele><time>2017-9-19T8:34:59Z</time></trkpt>
<trkpt lat="48.44790500" lon="2.71233700"><ele></ele><time>2017-9-19T8:35:2Z</time></trkpt>
<trkpt lat="48.44778000" lon="2.71239500"><ele></ele><time>2017-9-19T8:35:5Z</time></trkpt>
<trkpt lat="48.44773800" lon="2.71239700"><ele></ele><time>2017-9-19T8:35:8Z</time></trkpt>
<trkpt lat="48.44763200" lon="2.71242700"><ele></ele><time>2017-9-19T8:35:11Z</time></trkpt>
<trkpt lat="48.44759200" lon="2.71243000"><ele></ele><time>2017-9-19T8:35:14Z</time></trkpt>
<trkpt lat="48.44755200" lon="2.71244300"><ele></ele><time>2017-9-19T8:35:17Z</time></trkpt>
<trkpt lat="48.44751200" lon="2.71248000"><ele></ele><time>2017-9-19T8:35:20Z</time></trkpt>
<trkpt lat="48.44747100" lon="2.71252300"><ele></ele><time>2017-9-19T8:35:23Z</time></trkpt>
<trkpt lat="48.44744300" lon="2.71256800"><ele></ele><time>2017-9-19T8:35:26Z</time></trkpt>
<trkpt lat="48.44739700" lon="2.71257200"><ele></ele><time>2017-9-19T8:35:29Z</time></trkpt>
<trkpt lat="48.44736200" lon="2.71254700"><ele></ele><time>2017-9-19T8:35:32Z</time></trkpt>
<trkpt lat="48.44711000" lon="2.71239500"><ele></ele><time>2017-9-19T8:35:35Z</time></trkpt>
<trkpt lat="48.44707800" lon="2.71236500"><ele></ele><time>2017-9-19T8:35:38Z</time></trkpt>
<trkpt lat="48.44699700" lon="2.71227500"><ele></ele><time>2017-9-19T8:35:41Z</time></trkpt>
<trkpt lat="48.44696200" lon="2.71223800"><ele></ele><time>2017-9-19T8:35:44Z</time></trkpt>
<trkpt lat="48.44689800" lon="2.71219500"><ele></ele><time>2017-9-19T8:35:47Z</time></trkpt>
<trkpt lat="48.44685500" lon="2.71218500"><ele></ele><time>2017-9-19T8:35:50Z</time></trkpt>
<trkpt lat="48.44680800" lon="2.71219300"><ele></ele><time>2017-9-19T8:35:53Z</time></trkpt>
<trkpt lat="48.44659300" lon="2.71222300"><ele></ele><time>2017-9-19T8:35:56Z</time></trkpt>
<trkpt lat="48.44656600" lon="2.71221500"><ele></ele><time>2017-9-19T8:35:59Z</time></trkpt>
<trkpt lat="48.44649700" lon="2.71219200"><ele></ele><time>2017-9-19T8:36:2Z</time></trkpt>
<trkpt lat="48.44645600" lon="2.71219000"><ele></ele><time>2017-9-19T8:36:5Z</time></trkpt>
<trkpt lat="48.44642000" lon="2.71218700"><ele></ele><time>2017-9-19T8:36:8Z</time></trkpt>
<trkpt lat="48.44625300" lon="2.71214500"><ele></ele><time>2017-9-19T8:36:11Z</time></trkpt>
<trkpt lat="48.44622300" lon="2.71212700"><ele></ele><time>2017-9-19T8:36:14Z</time></trkpt>
<trkpt lat="48.44619000" lon="2.71209300"><ele></ele><time>2017-9-19T8:36:17Z</time></trkpt>
<trkpt lat="48.44608500" lon="2.71196300"><ele></ele><time>2017-9-19T8:36:20Z</time></trkpt>
<trkpt lat="48.44605800" lon="2.71191800"><ele></ele><time>2017-9-19T8:36:23Z</time></trkpt>
<trkpt lat="48.44604200" lon="2.71187300"><ele></ele><time>2017-9-19T8:36:26Z</time></trkpt>
<trkpt lat="48.44605500" lon="2.71184700"><ele></ele><time>2017-9-19T8:36:29Z</time></trkpt>
<trkpt lat="48.44605500" lon="2.71180500"><ele></ele><time>2017-9-19T8:36:32Z</time></trkpt>
<trkpt lat="48.44605000" lon="2.71176200"><ele></ele><time>2017-9-19T8:36:35Z</time></trkpt>
<trkpt lat="48.44605300" lon="2.71162000"><ele></ele><time>2017-9-19T8:36:38Z</time></trkpt>
<trkpt lat="48.44606700" lon="2.71156800"><ele></ele><time>2017-9-19T8:36:41Z</time></trkpt>
<trkpt lat="48.44608300" lon="2.71151500"><ele></ele><time>2017-9-19T8:36:44Z</time></trkpt>
<trkpt lat="48.44611500" lon="2.71147800"><ele></ele><time>2017-9-19T8:36:47Z</time></trkpt>
<trkpt lat="48.44619200" lon="2.71142500"><ele></ele><time>2017-9-19T8:36:50Z</time></trkpt>
<trkpt lat="48.44623500" lon="2.71141200"><ele></ele><time>2017-9-19T8:36:53Z</time></trkpt>
<trkpt lat="48.44631000" lon="2.71139200"><ele></ele><time>2017-9-19T8:36:56Z</time></trkpt>
<trkpt lat="48.44633800" lon="2.71137100"><ele></ele><time>2017-9-19T8:36:59Z</time></trkpt>
<trkpt lat="48.44637600" lon="2.71133200"><ele></ele><time>2017-9-19T8:37:2Z</time></trkpt>
<trkpt lat="48.44639200" lon="2.71130700"><ele></ele><time>2017-9-19T8:37:5Z</time></trkpt>
<trkpt lat="48.44640200" lon="2.71127700"><ele></ele><time>2017-9-19T8:37:8Z</time></trkpt>
<trkpt lat="48.44642300" lon="2.71124000"><ele></ele><time>2017-9-19T8:37:11Z</time></trkpt>
<trkpt lat="48.44644700" lon="2.71119800"><ele></ele><time>2017-9-19T8:37:14Z</time></trkpt>
<trkpt lat="48.44645500" lon="2.71114700"><ele></ele><time>2017-9-19T8:37:17Z</time></trkpt>
<trkpt lat="48.44646000" lon="2.71094800"><ele></ele><time>2017-9-19T8:37:20Z</time></trkpt>
<trkpt lat="48.44645000" lon="2.71074300"><ele></ele><time>2017-9-19T8:37:23Z</time></trkpt>
<trkpt lat="48.44642300" lon="2.71067800"><ele></ele><time>2017-9-19T8:37:26Z</time></trkpt>
<trkpt lat="48.44640700" lon="2.71062300"><ele></ele><time>2017-9-19T8:37:29Z</time></trkpt>
<trkpt lat="48.44640000" lon="2.71056500"><ele></ele><time>2017-9-19T8:37:32Z</time></trkpt>
<trkpt lat="48.44640800" lon="2.71050700"><ele></ele><time>2017-9-19T8:37:35Z</time></trkpt>
<trkpt lat="48.44640800" lon="2.71044000"><ele></ele><time>2017-9-19T8:37:38Z</time></trkpt>
<trkpt lat="48.44641500" lon="2.71038300"><ele></ele><time>2017-9-19T8:37:41Z</time></trkpt>
<trkpt lat="48.44642500" lon="2.71028300"><ele></ele><time>2017-9-19T8:37:44Z</time></trkpt>
<trkpt lat="48.44643600" lon="2.71018300"><ele></ele><time>2017-9-19T8:37:47Z</time></trkpt>
<trkpt lat="48.44645000" lon="2.71013500"><ele></ele><time>2017-9-19T8:37:50Z</time></trkpt>
<trkpt lat="48.44655800" lon="2.70960000"><ele></ele><time>2017-9-19T8:37:53Z</time></trkpt>
<trkpt lat="48.44657600" lon="2.70955700"><ele></ele><time>2017-9-19T8:37:56Z</time></trkpt>
<trkpt lat="48.44659300" lon="2.70951200"><ele></ele><time>2017-9-19T8:37:59Z</time></trkpt>
<trkpt lat="48.44660100" lon="2.70946500"><ele></ele><time>2017-9-19T8:38:2Z</time></trkpt>
<trkpt lat="48.44660700" lon="2.70941000"><ele></ele><time>2017-9-19T8:38:5Z</time></trkpt>
<trkpt lat="48.44664000" lon="2.70919000"><ele></ele><time>2017-9-19T8:38:8Z</time></trkpt>
<trkpt lat="48.44665500" lon="2.70913200"><ele></ele><time>2017-9-19T8:38:11Z</time></trkpt>
<trkpt lat="48.44672300" lon="2.70877300"><ele></ele><time>2017-9-19T8:38:14Z</time></trkpt>
<trkpt lat="48.44672000" lon="2.70870300"><ele></ele><time>2017-9-19T8:38:17Z</time></trkpt>
<trkpt lat="48.44671000" lon="2.70863700"><ele></ele><time>2017-9-19T8:38:20Z</time></trkpt>
<trkpt lat="48.44667200" lon="2.70843800"><ele></ele><time>2017-9-19T8:38:23Z</time></trkpt>
<trkpt lat="48.44665000" lon="2.70837700"><ele></ele><time>2017-9-19T8:38:26Z</time></trkpt>
<trkpt lat="48.44663500" lon="2.70831500"><ele></ele><time>2017-9-19T8:38:29Z</time></trkpt>
<trkpt lat="48.44659800" lon="2.70819800"><ele></ele><time>2017-9-19T8:38:32Z</time></trkpt>
<trkpt lat="48.44657500" lon="2.70814300"><ele></ele><time>2017-9-19T8:38:35Z</time></trkpt>
<trkpt lat="48.44655500" lon="2.70808700"><ele></ele><time>2017-9-19T8:38:38Z</time></trkpt>
<trkpt lat="48.44649500" lon="2.70793200"><ele></ele><time>2017-9-19T8:38:41Z</time></trkpt>
<trkpt lat="48.44646500" lon="2.70783500"><ele></ele><time>2017-9-19T8:38:44Z</time></trkpt>
<trkpt lat="48.44647000" lon="2.70779000"><ele></ele><time>2017-9-19T8:38:47Z</time></trkpt>
<trkpt lat="48.44646600" lon="2.70775300"><ele></ele><time>2017-9-19T8:38:50Z</time></trkpt>
<trkpt lat="48.44645300" lon="2.70771500"><ele></ele><time>2017-9-19T8:38:53Z</time></trkpt>
<trkpt lat="48.44643500" lon="2.70767200"><ele></ele><time>2017-9-19T8:38:56Z</time></trkpt>
<trkpt lat="48.44641800" lon="2.70762300"><ele></ele><time>2017-9-19T8:38:59Z</time></trkpt>
<trkpt lat="48.44641800" lon="2.70757500"><ele></ele><time>2017-9-19T8:39:2Z</time></trkpt>
<trkpt lat="48.44642500" lon="2.70752800"><ele></ele><time>2017-9-19T8:39:5Z</time></trkpt>
<trkpt lat="48.44643600" lon="2.70744300"><ele></ele><time>2017-9-19T8:39:8Z</time></trkpt>
<trkpt lat="48.44643000" lon="2.70741800"><ele></ele><time>2017-9-19T8:39:11Z</time></trkpt>
<trkpt lat="48.44641500" lon="2.70741800"><ele></ele><time>2017-9-19T8:39:14Z</time></trkpt>
<trkpt lat="48.44639200" lon="2.70743300"><ele></ele><time>2017-9-19T8:39:17Z</time></trkpt>
<trkpt lat="48.44636800" lon="2.70744000"><ele></ele><time>2017-9-19T8:39:20Z</time></trkpt>
<trkpt lat="48.44634800" lon="2.70743700"><ele></ele><time>2017-9-19T8:39:23Z</time></trkpt>
<trkpt lat="48.44633500" lon="2.70742000"><ele></ele><time>2017-9-19T8:39:26Z</time></trkpt>
<trkpt lat="48.44633000" lon="2.70739500"><ele></ele><time>2017-9-19T8:39:29Z</time></trkpt>
<trkpt lat="48.44630500" lon="2.70722700"><ele></ele><time>2017-9-19T8:39:32Z</time></trkpt>
<trkpt lat="48.44630500" lon="2.70718200"><ele></ele><time>2017-9-19T8:39:35Z</time></trkpt>
<trkpt lat="48.44631200" lon="2.70713700"><ele></ele><time>2017-9-19T8:39:38Z</time></trkpt>
<trkpt lat="48.44630800" lon="2.70703700"><ele></ele><time>2017-9-19T8:39:41Z</time></trkpt>
<trkpt lat="48.44629300" lon="2.70700200"><ele></ele><time>2017-9-19T8:39:44Z</time></trkpt>
<trkpt lat="48.44625300" lon="2.70692700"><ele></ele><time>2017-9-19T8:39:47Z</time></trkpt>
<trkpt lat="48.44623000" lon="2.70690700"><ele></ele><time>2017-9-19T8:39:50Z</time></trkpt>
<trkpt lat="48.44620500" lon="2.70691000"><ele></ele><time>2017-9-19T8:39:53Z</time></trkpt>
<trkpt lat="48.44617500" lon="2.70691800"><ele></ele><time>2017-9-19T8:39:56Z</time></trkpt>
<trkpt lat="48.44614200" lon="2.70691300"><ele></ele><time>2017-9-19T8:39:59Z</time></trkpt>
<trkpt lat="48.44612100" lon="2.70690000"><ele></ele><time>2017-9-19T8:40:2Z</time></trkpt>
<trkpt lat="48.44611300" lon="2.70688300"><ele></ele><time>2017-9-19T8:40:5Z</time></trkpt>
<trkpt lat="48.44610800" lon="2.70687500"><ele></ele><time>2017-9-19T8:40:8Z</time></trkpt>
<trkpt lat="48.44609800" lon="2.70687300"><ele></ele><time>2017-9-19T8:40:11Z</time></trkpt>
<trkpt lat="48.44603300" lon="2.70685300"><ele></ele><time>2017-9-19T8:40:14Z</time></trkpt>
<trkpt lat="48.44600700" lon="2.70684000"><ele></ele><time>2017-9-19T8:40:17Z</time></trkpt>
<trkpt lat="48.44587800" lon="2.70676800"><ele></ele><time>2017-9-19T8:40:20Z</time></trkpt>
<trkpt lat="48.44584000" lon="2.70675800"><ele></ele><time>2017-9-19T8:40:23Z</time></trkpt>
<trkpt lat="48.44575700" lon="2.70675000"><ele></ele><time>2017-9-19T8:40:26Z</time></trkpt>
<trkpt lat="48.44571800" lon="2.70676000"><ele></ele><time>2017-9-19T8:40:29Z</time></trkpt>
<trkpt lat="48.44568000" lon="2.70677000"><ele></ele><time>2017-9-19T8:40:32Z</time></trkpt>
<trkpt lat="48.44564800" lon="2.70675200"><ele></ele><time>2017-9-19T8:40:35Z</time></trkpt>
<trkpt lat="48.44562000" lon="2.70672000"><ele></ele><time>2017-9-19T8:40:38Z</time></trkpt>
<trkpt lat="48.44556600" lon="2.70668200"><ele></ele><time>2017-9-19T8:40:41Z</time></trkpt>
<trkpt lat="48.44551500" lon="2.70665000"><ele></ele><time>2017-9-19T8:40:44Z</time></trkpt>
<trkpt lat="48.44538500" lon="2.70657500"><ele></ele><time>2017-9-19T8:40:47Z</time></trkpt>
<trkpt lat="48.44535200" lon="2.70652500"><ele></ele><time>2017-9-19T8:40:50Z</time></trkpt>
<trkpt lat="48.44532300" lon="2.70646500"><ele></ele><time>2017-9-19T8:40:53Z</time></trkpt>
<trkpt lat="48.44525500" lon="2.70638800"><ele></ele><time>2017-9-19T8:40:56Z</time></trkpt>
<trkpt lat="48.44520200" lon="2.70636800"><ele></ele><time>2017-9-19T8:40:59Z</time></trkpt>
<trkpt lat="48.44516500" lon="2.70638300"><ele></ele><time>2017-9-19T8:41:2Z</time></trkpt>
<trkpt lat="48.44508500" lon="2.70641200"><ele></ele><time>2017-9-19T8:41:5Z</time></trkpt>
<trkpt lat="48.44504500" lon="2.70641300"><ele></ele><time>2017-9-19T8:41:8Z</time></trkpt>
<trkpt lat="48.44496100" lon="2.70642000"><ele></ele><time>2017-9-19T8:41:11Z</time></trkpt>
<trkpt lat="48.44489500" lon="2.70641300"><ele></ele><time>2017-9-19T8:41:14Z</time></trkpt>
<trkpt lat="48.44487300" lon="2.70639600"><ele></ele><time>2017-9-19T8:41:17Z</time></trkpt>
<trkpt lat="48.44486800" lon="2.70634500"><ele></ele><time>2017-9-19T8:41:20Z</time></trkpt>
<trkpt lat="48.44485700" lon="2.70625300"><ele></ele><time>2017-9-19T8:41:23Z</time></trkpt>
<trkpt lat="48.44484200" lon="2.70620500"><ele></ele><time>2017-9-19T8:41:26Z</time></trkpt>
<trkpt lat="48.44482600" lon="2.70616300"><ele></ele><time>2017-9-19T8:41:29Z</time></trkpt>
<trkpt lat="48.44474700" lon="2.70594700"><ele></ele><time>2017-9-19T8:41:32Z</time></trkpt>
<trkpt lat="48.44473600" lon="2.70588200"><ele></ele><time>2017-9-19T8:41:35Z</time></trkpt>
<trkpt lat="48.44468300" lon="2.70575700"><ele></ele><time>2017-9-19T8:41:38Z</time></trkpt>
<trkpt lat="48.44466300" lon="2.70572500"><ele></ele><time>2017-9-19T8:41:41Z</time></trkpt>
<trkpt lat="48.44463800" lon="2.70569800"><ele></ele><time>2017-9-19T8:41:44Z</time></trkpt>
<trkpt lat="48.44461300" lon="2.70566300"><ele></ele><time>2017-9-19T8:41:47Z</time></trkpt>
<trkpt lat="48.44459300" lon="2.70562200"><ele></ele><time>2017-9-19T8:41:50Z</time></trkpt>
<trkpt lat="48.44457500" lon="2.70557300"><ele></ele><time>2017-9-19T8:41:53Z</time></trkpt>
<trkpt lat="48.44453600" lon="2.70548000"><ele></ele><time>2017-9-19T8:41:56Z</time></trkpt>
<trkpt lat="48.44451000" lon="2.70543500"><ele></ele><time>2017-9-19T8:41:59Z</time></trkpt>
<trkpt lat="48.44443200" lon="2.70531800"><ele></ele><time>2017-9-19T8:42:2Z</time></trkpt>
<trkpt lat="48.44426800" lon="2.70508300"><ele></ele><time>2017-9-19T8:42:5Z</time></trkpt>
<trkpt lat="48.44423300" lon="2.70505000"><ele></ele><time>2017-9-19T8:42:8Z</time></trkpt>
<trkpt lat="48.44407800" lon="2.70490700"><ele></ele><time>2017-9-19T8:42:11Z</time></trkpt>
<trkpt lat="48.44404600" lon="2.70486700"><ele></ele><time>2017-9-19T8:42:14Z</time></trkpt>
<trkpt lat="48.44388500" lon="2.70467800"><ele></ele><time>2017-9-19T8:42:17Z</time></trkpt>
<trkpt lat="48.44385200" lon="2.70465800"><ele></ele><time>2017-9-19T8:42:20Z</time></trkpt>
<trkpt lat="48.44382500" lon="2.70463300"><ele></ele><time>2017-9-19T8:42:23Z</time></trkpt>
<trkpt lat="48.44379500" lon="2.70459800"><ele></ele><time>2017-9-19T8:42:26Z</time></trkpt>
<trkpt lat="48.44368500" lon="2.70445200"><ele></ele><time>2017-9-19T8:42:29Z</time></trkpt>
<trkpt lat="48.44366000" lon="2.70440500"><ele></ele><time>2017-9-19T8:42:32Z</time></trkpt>
<trkpt lat="48.44365300" lon="2.70436800"><ele></ele><time>2017-9-19T8:42:35Z</time></trkpt>
<trkpt lat="48.44361800" lon="2.70427200"><ele></ele><time>2017-9-19T8:42:38Z</time></trkpt>
<trkpt lat="48.44357500" lon="2.70415700"><ele></ele><time>2017-9-19T8:42:41Z</time></trkpt>
<trkpt lat="48.44355800" lon="2.70409700"><ele></ele><time>2017-9-19T8:42:44Z</time></trkpt>
<trkpt lat="48.44344700" lon="2.70367200"><ele></ele><time>2017-9-19T8:42:47Z</time></trkpt>
<trkpt lat="48.44343000" lon="2.70361500"><ele></ele><time>2017-9-19T8:42:50Z</time></trkpt>
<trkpt lat="48.44341000" lon="2.70356000"><ele></ele><time>2017-9-19T8:42:53Z</time></trkpt>
<trkpt lat="48.44333300" lon="2.70330200"><ele></ele><time>2017-9-19T8:42:56Z</time></trkpt>
<trkpt lat="48.44332300" lon="2.70327000"><ele></ele><time>2017-9-19T8:42:59Z</time></trkpt>
<trkpt lat="48.44331500" lon="2.70324300"><ele></ele><time>2017-9-19T8:43:2Z</time></trkpt>
<trkpt lat="48.44331200" lon="2.70321700"><ele></ele><time>2017-9-19T8:43:5Z</time></trkpt>
<trkpt lat="48.44330700" lon="2.70319300"><ele></ele><time>2017-9-19T8:43:8Z</time></trkpt>
<trkpt lat="48.44330700" lon="2.70317700"><ele></ele><time>2017-9-19T8:43:11Z</time></trkpt>
<trkpt lat="48.44330100" lon="2.70315800"><ele></ele><time>2017-9-19T8:43:14Z</time></trkpt>
<trkpt lat="48.44329300" lon="2.70314200"><ele></ele><time>2017-9-19T8:43:17Z</time></trkpt>
<trkpt lat="48.44327300" lon="2.70311300"><ele></ele><time>2017-9-19T8:43:20Z</time></trkpt>
<trkpt lat="48.44320700" lon="2.70299700"><ele></ele><time>2017-9-19T8:43:23Z</time></trkpt>
<trkpt lat="48.44319200" lon="2.70297200"><ele></ele><time>2017-9-19T8:43:26Z</time></trkpt>
<trkpt lat="48.44318000" lon="2.70294800"><ele></ele><time>2017-9-19T8:43:29Z</time></trkpt>
<trkpt lat="48.44316700" lon="2.70292000"><ele></ele><time>2017-9-19T8:43:32Z</time></trkpt>
<trkpt lat="48.44314300" lon="2.70287300"><ele></ele><time>2017-9-19T8:43:35Z</time></trkpt>
<trkpt lat="48.44315000" lon="2.70287200"><ele></ele><time>2017-9-19T8:43:38Z</time></trkpt>
<trkpt lat="48.44315000" lon="2.70287000"><ele></ele><time>2017-9-19T8:43:41Z</time></trkpt>
<trkpt lat="48.44314000" lon="2.70285700"><ele></ele><time>2017-9-19T8:43:44Z</time></trkpt>
<trkpt lat="48.44313800" lon="2.70285000"><ele></ele><time>2017-9-19T8:43:47Z</time></trkpt>
<trkpt lat="48.44311700" lon="2.70282800"><ele></ele><time>2017-9-19T8:43:50Z</time></trkpt>
<trkpt lat="48.44311700" lon="2.70283200"><ele></ele><time>2017-9-19T8:43:53Z</time></trkpt>
<trkpt lat="48.44310100" lon="2.70282500"><ele></ele><time>2017-9-19T8:43:56Z</time></trkpt>
<trkpt lat="48.44309200" lon="2.70282000"><ele></ele><time>2017-9-19T8:43:59Z</time></trkpt>
<trkpt lat="48.44306100" lon="2.70281500"><ele></ele><time>2017-9-19T8:44:2Z</time></trkpt>
<trkpt lat="48.44310300" lon="2.70282700"><ele></ele><time>2017-9-19T8:44:5Z</time></trkpt>
<trkpt lat="48.44310500" lon="2.70282500"><ele></ele><time>2017-9-19T8:44:8Z</time></trkpt>
<trkpt lat="48.44310700" lon="2.70282300"><ele></ele><time>2017-9-19T8:44:11Z</time></trkpt>
<trkpt lat="48.44310800" lon="2.70282300"><ele></ele><time>2017-9-19T8:44:14Z</time></trkpt>
<trkpt lat="48.44310800" lon="2.70282200"><ele></ele><time>2017-9-19T8:44:17Z</time></trkpt>
<trkpt lat="48.44311200" lon="2.70282200"><ele></ele><time>2017-9-19T8:44:20Z</time></trkpt>
<trkpt lat="48.44311500" lon="2.70282200"><ele></ele><time>2017-9-19T8:44:23Z</time></trkpt>
<trkpt lat="48.44311700" lon="2.70282200"><ele></ele><time>2017-9-19T8:44:26Z</time></trkpt>
<trkpt lat="48.44311800" lon="2.70282300"><ele></ele><time>2017-9-19T8:44:29Z</time></trkpt>
<trkpt lat="48.44312100" lon="2.70282500"><ele></ele><time>2017-9-19T8:44:32Z</time></trkpt>
<trkpt lat="48.44312300" lon="2.70282700"><ele></ele><time>2017-9-19T8:44:35Z</time></trkpt>
<trkpt lat="48.44312500" lon="2.70282800"><ele></ele><time>2017-9-19T8:44:38Z</time></trkpt>
<trkpt lat="48.44317800" lon="2.70286500"><ele></ele><time>2017-9-19T8:44:41Z</time></trkpt>
<trkpt lat="48.44318800" lon="2.70287200"><ele></ele><time>2017-9-19T8:44:44Z</time></trkpt>
<trkpt lat="48.44318300" lon="2.70287000"><ele></ele><time>2017-9-19T8:44:47Z</time></trkpt>
<trkpt lat="48.44318200" lon="2.70287000"><ele></ele><time>2017-9-19T8:44:50Z</time></trkpt>
<trkpt lat="48.44316500" lon="2.70286700"><ele></ele><time>2017-9-19T8:44:53Z</time></trkpt>
<trkpt lat="48.44314600" lon="2.70286200"><ele></ele><time>2017-9-19T8:44:56Z</time></trkpt>
<trkpt lat="48.44313300" lon="2.70286000"><ele></ele><time>2017-9-19T8:44:59Z</time></trkpt>
<trkpt lat="48.44306000" lon="2.70284700"><ele></ele><time>2017-9-19T8:45:2Z</time></trkpt>
<trkpt lat="48.44305200" lon="2.70284200"><ele></ele><time>2017-9-19T8:45:5Z</time></trkpt>
<trkpt lat="48.44304300" lon="2.70283700"><ele></ele><time>2017-9-19T8:45:8Z</time></trkpt>
<trkpt lat="48.44303800" lon="2.70283300"><ele></ele><time>2017-9-19T8:45:11Z</time></trkpt>
<trkpt lat="48.44303300" lon="2.70283000"><ele></ele><time>2017-9-19T8:45:14Z</time></trkpt>
<trkpt lat="48.44303000" lon="2.70282700"><ele></ele><time>2017-9-19T8:45:17Z</time></trkpt>
<trkpt lat="48.44302700" lon="2.70282500"><ele></ele><time>2017-9-19T8:45:20Z</time></trkpt>
<trkpt lat="48.44302300" lon="2.70282300"><ele></ele><time>2017-9-19T8:45:23Z</time></trkpt>
<trkpt lat="48.44302200" lon="2.70282200"><ele></ele><time>2017-9-19T8:45:26Z</time></trkpt>
<trkpt lat="48.44302000" lon="2.70281800"><ele></ele><time>2017-9-19T8:45:29Z</time></trkpt>
<trkpt lat="48.44301800" lon="2.70281800"><ele></ele><time>2017-9-19T8:45:32Z</time></trkpt>
<trkpt lat="48.44301600" lon="2.70281700"><ele></ele><time>2017-9-19T8:45:35Z</time></trkpt>
<trkpt lat="48.44301500" lon="2.70281500"><ele></ele><time>2017-9-19T8:45:38Z</time></trkpt>
<trkpt lat="48.44301500" lon="2.70281300"><ele></ele><time>2017-9-19T8:45:41Z</time></trkpt>
<trkpt lat="48.44301300" lon="2.70281200"><ele></ele><time>2017-9-19T8:45:44Z</time></trkpt>
<trkpt lat="48.44301100" lon="2.70281000"><ele></ele><time>2017-9-19T8:45:47Z</time></trkpt>
<trkpt lat="48.44301100" lon="2.70281000"><ele></ele><time>2017-9-19T8:45:50Z</time></trkpt>
<trkpt lat="48.44301000" lon="2.70281000"><ele></ele><time>2017-9-19T8:45:53Z</time></trkpt>
<trkpt lat="48.44300800" lon="2.70281000"><ele></ele><time>2017-9-19T8:45:56Z</time></trkpt>
<trkpt lat="48.44300700" lon="2.70280800"><ele></ele><time>2017-9-19T8:45:59Z</time></trkpt>
<trkpt lat="48.44300500" lon="2.70280800"><ele></ele><time>2017-9-19T8:46:2Z</time></trkpt>
<trkpt lat="48.44300300" lon="2.70280800"><ele></ele><time>2017-9-19T8:46:5Z</time></trkpt>
<trkpt lat="48.44300300" lon="2.70280800"><ele></ele><time>2017-9-19T8:46:8Z</time></trkpt>
<trkpt lat="48.44300200" lon="2.70280800"><ele></ele><time>2017-9-19T8:46:11Z</time></trkpt>
<trkpt lat="48.44299700" lon="2.70280800"><ele></ele><time>2017-9-19T8:46:14Z</time></trkpt>
<trkpt lat="48.44299700" lon="2.70280800"><ele></ele><time>2017-9-19T8:46:17Z</time></trkpt>
<trkpt lat="48.44299700" lon="2.70280800"><ele></ele><time>2017-9-19T8:46:20Z</time></trkpt>
<trkpt lat="48.44299200" lon="2.70281300"><ele></ele><time>2017-9-19T8:46:23Z</time></trkpt>
<trkpt lat="48.44298800" lon="2.70281800"><ele></ele><time>2017-9-19T8:46:26Z</time></trkpt>
<trkpt lat="48.44298300" lon="2.70282300"><ele></ele><time>2017-9-19T8:46:29Z</time></trkpt>
<trkpt lat="48.44298000" lon="2.70282800"><ele></ele><time>2017-9-19T8:46:32Z</time></trkpt>
<trkpt lat="48.44297700" lon="2.70283200"><ele></ele><time>2017-9-19T8:46:35Z</time></trkpt>
<trkpt lat="48.44297300" lon="2.70283500"><ele></ele><time>2017-9-19T8:46:38Z</time></trkpt>
<trkpt lat="48.44297000" lon="2.70283800"><ele></ele><time>2017-9-19T8:46:41Z</time></trkpt>
<trkpt lat="48.44296700" lon="2.70284000"><ele></ele><time>2017-9-19T8:46:44Z</time></trkpt>
<trkpt lat="48.44296500" lon="2.70284300"><ele></ele><time>2017-9-19T8:46:47Z</time></trkpt>
<trkpt lat="48.44296200" lon="2.70284500"><ele></ele><time>2017-9-19T8:46:50Z</time></trkpt>
<trkpt lat="48.44295700" lon="2.70284800"><ele></ele><time>2017-9-19T8:46:53Z</time></trkpt>
<trkpt lat="48.44295500" lon="2.70285000"><ele></ele><time>2017-9-19T8:46:56Z</time></trkpt>
<trkpt lat="48.44295300" lon="2.70285000"><ele></ele><time>2017-9-19T8:46:59Z</time></trkpt>
<trkpt lat="48.44295500" lon="2.70285000"><ele></ele><time>2017-9-19T8:47:2Z</time></trkpt>
<trkpt lat="48.44295500" lon="2.70284800"><ele></ele><time>2017-9-19T8:47:5Z</time></trkpt>
<trkpt lat="48.44295700" lon="2.70284700"><ele></ele><time>2017-9-19T8:47:8Z</time></trkpt>
<trkpt lat="48.44295800" lon="2.70284500"><ele></ele><time>2017-9-19T8:47:11Z</time></trkpt>
<trkpt lat="48.44295800" lon="2.70284300"><ele></ele><time>2017-9-19T8:47:14Z</time></trkpt>
<trkpt lat="48.44296000" lon="2.70284300"><ele></ele><time>2017-9-19T8:47:17Z</time></trkpt>
<trkpt lat="48.44296200" lon="2.70284200"><ele></ele><time>2017-9-19T8:47:20Z</time></trkpt>
<trkpt lat="48.44296300" lon="2.70284000"><ele></ele><time>2017-9-19T8:47:23Z</time></trkpt>
<trkpt lat="48.44296500" lon="2.70283500"><ele></ele><time>2017-9-19T8:47:26Z</time></trkpt>
<trkpt lat="48.44296800" lon="2.70283200"><ele></ele><time>2017-9-19T8:47:29Z</time></trkpt>
<trkpt lat="48.44297100" lon="2.70282700"><ele></ele><time>2017-9-19T8:47:32Z</time></trkpt>
<trkpt lat="48.44297500" lon="2.70282300"><ele></ele><time>2017-9-19T8:47:35Z</time></trkpt>
<trkpt lat="48.44297800" lon="2.70282000"><ele></ele><time>2017-9-19T8:47:38Z</time></trkpt>
<trkpt lat="48.44297700" lon="2.70282200"><ele></ele><time>2017-9-19T8:47:41Z</time></trkpt>
<trkpt lat="48.44297500" lon="2.70282200"><ele></ele><time>2017-9-19T8:47:44Z</time></trkpt>
<trkpt lat="48.44297700" lon="2.70282000"><ele></ele><time>2017-9-19T8:47:47Z</time></trkpt>
<trkpt lat="48.44297800" lon="2.70281700"><ele></ele><time>2017-9-19T8:47:50Z</time></trkpt>
<trkpt lat="48.44297800" lon="2.70281500"><ele></ele><time>2017-9-19T8:47:53Z</time></trkpt>
<trkpt lat="48.44298000" lon="2.70281300"><ele></ele><time>2017-9-19T8:47:56Z</time></trkpt>
<trkpt lat="48.44298200" lon="2.70281200"><ele></ele><time>2017-9-19T8:47:59Z</time></trkpt>
<trkpt lat="48.44298200" lon="2.70281000"><ele></ele><time>2017-9-19T8:48:2Z</time></trkpt>
<trkpt lat="48.44298300" lon="2.70280800"><ele></ele><time>2017-9-19T8:48:5Z</time></trkpt>
<trkpt lat="48.44298300" lon="2.70280700"><ele></ele><time>2017-9-19T8:48:8Z</time></trkpt>
<trkpt lat="48.44298500" lon="2.70280500"><ele></ele><time>2017-9-19T8:48:11Z</time></trkpt>
<trkpt lat="48.44298700" lon="2.70280300"><ele></ele><time>2017-9-19T8:48:14Z</time></trkpt>
<trkpt lat="48.44298700" lon="2.70280300"><ele></ele><time>2017-9-19T8:48:17Z</time></trkpt>
<trkpt lat="48.44298800" lon="2.70280200"><ele></ele><time>2017-9-19T8:48:20Z</time></trkpt>
<trkpt lat="48.44298800" lon="2.70280000"><ele></ele><time>2017-9-19T8:48:23Z</time></trkpt>
<trkpt lat="48.44298800" lon="2.70280000"><ele></ele><time>2017-9-19T8:48:26Z</time></trkpt>
<trkpt lat="48.44299000" lon="2.70280000"><ele></ele><time>2017-9-19T8:48:29Z</time></trkpt>
<trkpt lat="48.44299000" lon="2.70279800"><ele></ele><time>2017-9-19T8:48:32Z</time></trkpt>
<trkpt lat="48.44299000" lon="2.70279800"><ele></ele><time>2017-9-19T8:48:35Z</time></trkpt>
<trkpt lat="48.44299000" lon="2.70279800"><ele></ele><time>2017-9-19T8:48:38Z</time></trkpt>
<trkpt lat="48.44299000" lon="2.70279800"><ele></ele><time>2017-9-19T8:48:41Z</time></trkpt>
<trkpt lat="48.44299200" lon="2.70279800"><ele></ele><time>2017-9-19T8:48:44Z</time></trkpt>
<trkpt lat="48.44298800" lon="2.70280000"><ele></ele><time>2017-9-19T8:48:47Z</time></trkpt>
<trkpt lat="48.44298700" lon="2.70280300"><ele></ele><time>2017-9-19T8:48:50Z</time></trkpt>
<trkpt lat="48.44298700" lon="2.70280500"><ele></ele><time>2017-9-19T8:48:53Z</time></trkpt>
<trkpt lat="48.44298200" lon="2.70281000"><ele></ele><time>2017-9-19T8:48:56Z</time></trkpt>
<trkpt lat="48.44298200" lon="2.70281000"><ele></ele><time>2017-9-19T8:48:59Z</time></trkpt>
<trkpt lat="48.44298200" lon="2.70281000"><ele></ele><time>2017-9-19T8:49:2Z</time></trkpt>
<trkpt lat="48.44298300" lon="2.70280800"><ele></ele><time>2017-9-19T8:49:5Z</time></trkpt>
<trkpt lat="48.44298300" lon="2.70280800"><ele></ele><time>2017-9-19T8:49:8Z</time></trkpt>
<trkpt lat="48.44298300" lon="2.70280800"><ele></ele><time>2017-9-19T8:49:11Z</time></trkpt>
<trkpt lat="48.44298500" lon="2.70280700"><ele></ele><time>2017-9-19T8:49:14Z</time></trkpt>
<trkpt lat="48.44298500" lon="2.70280700"><ele></ele><time>2017-9-19T8:49:17Z</time></trkpt>
<trkpt lat="48.44298500" lon="2.70280500"><ele></ele><time>2017-9-19T8:49:20Z</time></trkpt>
<trkpt lat="48.44298700" lon="2.70280500"><ele></ele><time>2017-9-19T8:49:23Z</time></trkpt>
<trkpt lat="48.44298700" lon="2.70280500"><ele></ele><time>2017-9-19T8:49:26Z</time></trkpt>
<trkpt lat="48.44298800" lon="2.70280300"><ele></ele><time>2017-9-19T8:49:29Z</time></trkpt>
<trkpt lat="48.44299000" lon="2.70280200"><ele></ele><time>2017-9-19T8:49:32Z</time></trkpt>
<trkpt lat="48.44299200" lon="2.70280000"><ele></ele><time>2017-9-19T8:49:35Z</time></trkpt>
<trkpt lat="48.44299300" lon="2.70280000"><ele></ele><time>2017-9-19T8:49:38Z</time></trkpt>
<trkpt lat="48.44299300" lon="2.70279800"><ele></ele><time>2017-9-19T8:49:41Z</time></trkpt>
<trkpt lat="48.44299500" lon="2.70279800"><ele></ele><time>2017-9-19T8:49:44Z</time></trkpt>
<trkpt lat="48.44299500" lon="2.70279700"><ele></ele><time>2017-9-19T8:49:47Z</time></trkpt>
<trkpt lat="48.44299700" lon="2.70279700"><ele></ele><time>2017-9-19T8:49:50Z</time></trkpt>
<trkpt lat="48.44299700" lon="2.70279500"><ele></ele><time>2017-9-19T8:49:53Z</time></trkpt>
<trkpt lat="48.44299800" lon="2.70279500"><ele></ele><time>2017-9-19T8:49:56Z</time></trkpt>
<trkpt lat="48.44299800" lon="2.70279500"><ele></ele><time>2017-9-19T8:49:59Z</time></trkpt>
<trkpt lat="48.44299800" lon="2.70279300"><ele></ele><time>2017-9-19T8:50:2Z</time></trkpt>
<trkpt lat="48.44300000" lon="2.70279300"><ele></ele><time>2017-9-19T8:50:5Z</time></trkpt>
<trkpt lat="48.44300000" lon="2.70279200"><ele></ele><time>2017-9-19T8:50:8Z</time></trkpt>
<trkpt lat="48.44299800" lon="2.70279300"><ele></ele><time>2017-9-19T8:50:11Z</time></trkpt>
<trkpt lat="48.44299700" lon="2.70279500"><ele></ele><time>2017-9-19T8:50:14Z</time></trkpt>
<trkpt lat="48.44299500" lon="2.70279700"><ele></ele><time>2017-9-19T8:50:17Z</time></trkpt>
<trkpt lat="48.44299500" lon="2.70279800"><ele></ele><time>2017-9-19T8:50:20Z</time></trkpt>
<trkpt lat="48.44299300" lon="2.70280000"><ele></ele><time>2017-9-19T8:50:23Z</time></trkpt>
<trkpt lat="48.44299300" lon="2.70280300"><ele></ele><time>2017-9-19T8:50:26Z</time></trkpt>
<trkpt lat="48.44299200" lon="2.70280300"><ele></ele><time>2017-9-19T8:50:29Z</time></trkpt>
<trkpt lat="48.44299200" lon="2.70280800"><ele></ele><time>2017-9-19T8:50:32Z</time></trkpt>
<trkpt lat="48.44299000" lon="2.70281300"><ele></ele><time>2017-9-19T8:50:35Z</time></trkpt>
<trkpt lat="48.44299000" lon="2.70281700"><ele></ele><time>2017-9-19T8:50:38Z</time></trkpt>
<trkpt lat="48.44299000" lon="2.70282000"><ele></ele><time>2017-9-19T8:50:41Z</time></trkpt>
<trkpt lat="48.44299000" lon="2.70282300"><ele></ele><time>2017-9-19T8:50:44Z</time></trkpt>
<trkpt lat="48.44299000" lon="2.70282700"><ele></ele><time>2017-9-19T8:50:47Z</time></trkpt>
<trkpt lat="48.44299200" lon="2.70282300"><ele></ele><time>2017-9-19T8:50:50Z</time></trkpt>
<trkpt lat="48.44299500" lon="2.70282000"><ele></ele><time>2017-9-19T8:50:53Z</time></trkpt>
<trkpt lat="48.44299700" lon="2.70281700"><ele></ele><time>2017-9-19T8:50:56Z</time></trkpt>
<trkpt lat="48.44300000" lon="2.70281500"><ele></ele><time>2017-9-19T8:50:59Z</time></trkpt>
<trkpt lat="48.44300200" lon="2.70281300"><ele></ele><time>2017-9-19T8:51:2Z</time></trkpt>
<trkpt lat="48.44300500" lon="2.70281200"><ele></ele><time>2017-9-19T8:51:5Z</time></trkpt>
<trkpt lat="48.44300700" lon="2.70280800"><ele></ele><time>2017-9-19T8:51:8Z</time></trkpt>
<trkpt lat="48.44301000" lon="2.70280700"><ele></ele><time>2017-9-19T8:51:11Z</time></trkpt>
<trkpt lat="48.44301100" lon="2.70280500"><ele></ele><time>2017-9-19T8:51:14Z</time></trkpt>
<trkpt lat="48.44301300" lon="2.70280500"><ele></ele><time>2017-9-19T8:51:17Z</time></trkpt>
<trkpt lat="48.44301500" lon="2.70280700"><ele></ele><time>2017-9-19T8:51:20Z</time></trkpt>
<trkpt lat="48.44301600" lon="2.70280700"><ele></ele><time>2017-9-19T8:51:23Z</time></trkpt>
<trkpt lat="48.44302000" lon="2.70280800"><ele></ele><time>2017-9-19T8:51:26Z</time></trkpt>
<trkpt lat="48.44302200" lon="2.70281000"><ele></ele><time>2017-9-19T8:51:29Z</time></trkpt>
<trkpt lat="48.44302300" lon="2.70281200"><ele></ele><time>2017-9-19T8:51:32Z</time></trkpt>
<trkpt lat="48.44302500" lon="2.70281500"><ele></ele><time>2017-9-19T8:51:35Z</time></trkpt>
<trkpt lat="48.44303100" lon="2.70282000"><ele></ele><time>2017-9-19T8:51:38Z</time></trkpt>
<trkpt lat="48.44303300" lon="2.70282200"><ele></ele><time>2017-9-19T8:51:41Z</time></trkpt>
<trkpt lat="48.44304100" lon="2.70282300"><ele></ele><time>2017-9-19T8:51:44Z</time></trkpt>
<trkpt lat="48.44304000" lon="2.70282200"><ele></ele><time>2017-9-19T8:51:47Z</time></trkpt>
<trkpt lat="48.44304000" lon="2.70282200"><ele></ele><time>2017-9-19T8:51:50Z</time></trkpt>
<trkpt lat="48.44303800" lon="2.70282200"><ele></ele><time>2017-9-19T8:51:53Z</time></trkpt>
<trkpt lat="48.44303800" lon="2.70282000"><ele></ele><time>2017-9-19T8:51:56Z</time></trkpt>
<trkpt lat="48.44303600" lon="2.70282000"><ele></ele><time>2017-9-19T8:51:59Z</time></trkpt>
<trkpt lat="48.44303500" lon="2.70282000"><ele></ele><time>2017-9-19T8:52:2Z</time></trkpt>
<trkpt lat="48.44303500" lon="2.70281800"><ele></ele><time>2017-9-19T8:52:5Z</time></trkpt>
<trkpt lat="48.44303300" lon="2.70281800"><ele></ele><time>2017-9-19T8:52:8Z</time></trkpt>
<trkpt lat="48.44303300" lon="2.70281800"><ele></ele><time>2017-9-19T8:52:11Z</time></trkpt>
<trkpt lat="48.44303300" lon="2.70281800"><ele></ele><time>2017-9-19T8:52:14Z</time></trkpt>
<trkpt lat="48.44303100" lon="2.70281800"><ele></ele><time>2017-9-19T8:52:17Z</time></trkpt>
<trkpt lat="48.44303000" lon="2.70281700"><ele></ele><time>2017-9-19T8:52:20Z</time></trkpt>
<trkpt lat="48.44303000" lon="2.70281700"><ele></ele><time>2017-9-19T8:52:23Z</time></trkpt>
<trkpt lat="48.44302800" lon="2.70281700"><ele></ele><time>2017-9-19T8:52:26Z</time></trkpt>
<trkpt lat="48.44303300" lon="2.70281800"><ele></ele><time>2017-9-19T8:52:29Z</time></trkpt>
<trkpt lat="48.44303600" lon="2.70282000"><ele></ele><time>2017-9-19T8:52:32Z</time></trkpt>
<trkpt lat="48.44303500" lon="2.70282000"><ele></ele><time>2017-9-19T8:52:35Z</time></trkpt>
<trkpt lat="48.44303300" lon="2.70282200"><ele></ele><time>2017-9-19T8:52:38Z</time></trkpt>
<trkpt lat="48.44303000" lon="2.70282000"><ele></ele><time>2017-9-19T8:52:41Z</time></trkpt>
<trkpt lat="48.44302700" lon="2.70281800"><ele></ele><time>2017-9-19T8:52:44Z</time></trkpt>
<trkpt lat="48.44302500" lon="2.70281500"><ele></ele><time>2017-9-19T8:52:47Z</time></trkpt>
<trkpt lat="48.44302200" lon="2.70281300"><ele></ele><time>2017-9-19T8:52:50Z</time></trkpt>
<trkpt lat="48.44302000" lon="2.70281300"><ele></ele><time>2017-9-19T8:52:53Z</time></trkpt>
<trkpt lat="48.44301600" lon="2.70281200"><ele></ele><time>2017-9-19T8:52:56Z</time></trkpt>
<trkpt lat="48.44301500" lon="2.70281000"><ele></ele><time>2017-9-19T8:52:59Z</time></trkpt>
<trkpt lat="48.44301500" lon="2.70280700"><ele></ele><time>2017-9-19T8:53:2Z</time></trkpt>
<trkpt lat="48.44301300" lon="2.70280200"><ele></ele><time>2017-9-19T8:53:5Z</time></trkpt>
<trkpt lat="48.44301000" lon="2.70278800"><ele></ele><time>2017-9-19T8:53:8Z</time></trkpt>
<trkpt lat="48.44301100" lon="2.70278700"><ele></ele><time>2017-9-19T8:53:11Z</time></trkpt>
<trkpt lat="48.44301500" lon="2.70278700"><ele></ele><time>2017-9-19T8:53:14Z</time></trkpt>
<trkpt lat="48.44301600" lon="2.70278800"><ele></ele><time>2017-9-19T8:53:17Z</time></trkpt>
<trkpt lat="48.44301800" lon="2.70278800"><ele></ele><time>2017-9-19T8:53:20Z</time></trkpt>
<trkpt lat="48.44302000" lon="2.70278500"><ele></ele><time>2017-9-19T8:53:23Z</time></trkpt>
<trkpt lat="48.44302200" lon="2.70278500"><ele></ele><time>2017-9-19T8:53:26Z</time></trkpt>
<trkpt lat="48.44302300" lon="2.70278500"><ele></ele><time>2017-9-19T8:53:29Z</time></trkpt>
<trkpt lat="48.44302500" lon="2.70278200"><ele></ele><time>2017-9-19T8:53:32Z</time></trkpt>
<trkpt lat="48.44302800" lon="2.70278200"><ele></ele><time>2017-9-19T8:53:35Z</time></trkpt>
<trkpt lat="48.44303100" lon="2.70278000"><ele></ele><time>2017-9-19T8:53:38Z</time></trkpt>
<trkpt lat="48.44303300" lon="2.70278000"><ele></ele><time>2017-9-19T8:53:41Z</time></trkpt>
<trkpt lat="48.44304100" lon="2.70279300"><ele></ele><time>2017-9-19T8:53:44Z</time></trkpt>
<trkpt lat="48.44304700" lon="2.70279700"><ele></ele><time>2017-9-19T8:53:47Z</time></trkpt>
<trkpt lat="48.44305800" lon="2.70281300"><ele></ele><time>2017-9-19T8:53:50Z</time></trkpt>
<trkpt lat="48.44306700" lon="2.70281200"><ele></ele><time>2017-9-19T8:53:53Z</time></trkpt>
<trkpt lat="48.44306300" lon="2.70280800"><ele></ele><time>2017-9-19T8:53:56Z</time></trkpt>
<trkpt lat="48.44306300" lon="2.70280500"><ele></ele><time>2017-9-19T8:53:59Z</time></trkpt>
<trkpt lat="48.44306700" lon="2.70280000"><ele></ele><time>2017-9-19T8:54:2Z</time></trkpt>
<trkpt lat="48.44306700" lon="2.70279700"><ele></ele><time>2017-9-19T8:54:5Z</time></trkpt>
<trkpt lat="48.44306500" lon="2.70279300"><ele></ele><time>2017-9-19T8:54:8Z</time></trkpt>
<trkpt lat="48.44306100" lon="2.70279200"><ele></ele><time>2017-9-19T8:54:11Z</time></trkpt>
<trkpt lat="48.44305700" lon="2.70279000"><ele></ele><time>2017-9-19T8:54:14Z</time></trkpt>
<trkpt lat="48.44305200" lon="2.70278800"><ele></ele><time>2017-9-19T8:54:17Z</time></trkpt>
<trkpt lat="48.44305000" lon="2.70278200"><ele></ele><time>2017-9-19T8:54:20Z</time></trkpt>
<trkpt lat="48.44304700" lon="2.70277300"><ele></ele><time>2017-9-19T8:54:23Z</time></trkpt>
<trkpt lat="48.44304100" lon="2.70276500"><ele></ele><time>2017-9-19T8:54:26Z</time></trkpt>
<trkpt lat="48.44303800" lon="2.70275800"><ele></ele><time>2017-9-19T8:54:29Z</time></trkpt>
<trkpt lat="48.44303600" lon="2.70276000"><ele></ele><time>2017-9-19T8:54:32Z</time></trkpt>
<trkpt lat="48.44303300" lon="2.70276000"><ele></ele><time>2017-9-19T8:54:35Z</time></trkpt>
<trkpt lat="48.44303300" lon="2.70276300"><ele></ele><time>2017-9-19T8:54:38Z</time></trkpt>
<trkpt lat="48.44303300" lon="2.70276700"><ele></ele><time>2017-9-19T8:54:41Z</time></trkpt>
<trkpt lat="48.44303300" lon="2.70277000"><ele></ele><time>2017-9-19T8:54:44Z</time></trkpt>
<trkpt lat="48.44303100" lon="2.70277100"><ele></ele><time>2017-9-19T8:54:47Z</time></trkpt>
<trkpt lat="48.44303100" lon="2.70277700"><ele></ele><time>2017-9-19T8:54:50Z</time></trkpt>
<trkpt lat="48.44303000" lon="2.70277800"><ele></ele><time>2017-9-19T8:54:53Z</time></trkpt>
<trkpt lat="48.44303100" lon="2.70278200"><ele></ele><time>2017-9-19T8:54:56Z</time></trkpt>
<trkpt lat="48.44303000" lon="2.70278200"><ele></ele><time>2017-9-19T8:54:59Z</time></trkpt>
<trkpt lat="48.44303100" lon="2.70278500"><ele></ele><time>2017-9-19T8:55:2Z</time></trkpt>
<trkpt lat="48.44303000" lon="2.70278500"><ele></ele><time>2017-9-19T8:55:5Z</time></trkpt>
<trkpt lat="48.44303100" lon="2.70278800"><ele></ele><time>2017-9-19T8:55:8Z</time></trkpt>
<trkpt lat="48.44303100" lon="2.70278800"><ele></ele><time>2017-9-19T8:55:11Z</time></trkpt>
<trkpt lat="48.44302200" lon="2.70277700"><ele></ele><time>2017-9-19T8:55:14Z</time></trkpt>
<trkpt lat="48.44302300" lon="2.70277300"><ele></ele><time>2017-9-19T8:55:17Z</time></trkpt>
<trkpt lat="48.44301300" lon="2.70276200"><ele></ele><time>2017-9-19T8:55:20Z</time></trkpt>
<trkpt lat="48.44300700" lon="2.70275700"><ele></ele><time>2017-9-19T8:55:23Z</time></trkpt>
<trkpt lat="48.44300800" lon="2.70275700"><ele></ele><time>2017-9-19T8:55:26Z</time></trkpt>
<trkpt lat="48.44300300" lon="2.70275500"><ele></ele><time>2017-9-19T8:55:29Z</time></trkpt>
<trkpt lat="48.44299500" lon="2.70275800"><ele></ele><time>2017-9-19T8:55:32Z</time></trkpt>
<trkpt lat="48.44297700" lon="2.70276200"><ele></ele><time>2017-9-19T8:55:35Z</time></trkpt>
<trkpt lat="48.44297300" lon="2.70276300"><ele></ele><time>2017-9-19T8:55:38Z</time></trkpt>
<trkpt lat="48.44297100" lon="2.70276300"><ele></ele><time>2017-9-19T8:55:41Z</time></trkpt>
<trkpt lat="48.44296800" lon="2.70276700"><ele></ele><time>2017-9-19T8:55:44Z</time></trkpt>
<trkpt lat="48.44297000" lon="2.70276800"><ele></ele><time>2017-9-19T8:55:47Z</time></trkpt>
<trkpt lat="48.44297000" lon="2.70276800"><ele></ele><time>2017-9-19T8:55:50Z</time></trkpt>
<trkpt lat="48.44297300" lon="2.70277100"><ele></ele><time>2017-9-19T8:55:53Z</time></trkpt>
<trkpt lat="48.44297700" lon="2.70277500"><ele></ele><time>2017-9-19T8:55:56Z</time></trkpt>
<trkpt lat="48.44300800" lon="2.70280500"><ele></ele><time>2017-9-19T8:55:59Z</time></trkpt>
<trkpt lat="48.44302000" lon="2.70281700"><ele></ele><time>2017-9-19T8:56:2Z</time></trkpt>
<trkpt lat="48.44303100" lon="2.70282300"><ele></ele><time>2017-9-19T8:56:5Z</time></trkpt>
<trkpt lat="48.44305700" lon="2.70284000"><ele></ele><time>2017-9-19T8:56:8Z</time></trkpt>
<trkpt lat="48.44306300" lon="2.70285000"><ele></ele><time>2017-9-19T8:56:11Z</time></trkpt>
<trkpt lat="48.44308500" lon="2.70287300"><ele></ele><time>2017-9-19T8:56:14Z</time></trkpt>
<trkpt lat="48.44309700" lon="2.70288300"><ele></ele><time>2017-9-19T8:56:17Z</time></trkpt>
<trkpt lat="48.44311200" lon="2.70289300"><ele></ele><time>2017-9-19T8:56:20Z</time></trkpt>
<trkpt lat="48.44311500" lon="2.70289700"><ele></ele><time>2017-9-19T8:56:23Z</time></trkpt>
<trkpt lat="48.44312000" lon="2.70289800"><ele></ele><time>2017-9-19T8:56:26Z</time></trkpt>
<trkpt lat="48.44312300" lon="2.70290700"><ele></ele><time>2017-9-19T8:56:29Z</time></trkpt>
<trkpt lat="48.44312800" lon="2.70291300"><ele></ele><time>2017-9-19T8:56:32Z</time></trkpt>
<trkpt lat="48.44313500" lon="2.70292200"><ele></ele><time>2017-9-19T8:56:35Z</time></trkpt>
<trkpt lat="48.44314500" lon="2.70292700"><ele></ele><time>2017-9-19T8:56:38Z</time></trkpt>
<trkpt lat="48.44315100" lon="2.70292200"><ele></ele><time>2017-9-19T8:56:41Z</time></trkpt>
<trkpt lat="48.44315800" lon="2.70291200"><ele></ele><time>2017-9-19T8:56:44Z</time></trkpt>
<trkpt lat="48.44317000" lon="2.70290200"><ele></ele><time>2017-9-19T8:56:47Z</time></trkpt>
<trkpt lat="48.44319700" lon="2.70287000"><ele></ele><time>2017-9-19T8:56:50Z</time></trkpt>
<trkpt lat="48.44320700" lon="2.70285000"><ele></ele><time>2017-9-19T8:56:53Z</time></trkpt>
<trkpt lat="48.44322800" lon="2.70280700"><ele></ele><time>2017-9-19T8:56:56Z</time></trkpt>
<trkpt lat="48.44324100" lon="2.70278800"><ele></ele><time>2017-9-19T8:56:59Z</time></trkpt>
<trkpt lat="48.44330300" lon="2.70269500"><ele></ele><time>2017-9-19T8:57:2Z</time></trkpt>
<trkpt lat="48.44331800" lon="2.70265500"><ele></ele><time>2017-9-19T8:57:5Z</time></trkpt>
<trkpt lat="48.44333000" lon="2.70261700"><ele></ele><time>2017-9-19T8:57:8Z</time></trkpt>
<trkpt lat="48.44334600" lon="2.70254000"><ele></ele><time>2017-9-19T8:57:11Z</time></trkpt>
<trkpt lat="48.44335100" lon="2.70250200"><ele></ele><time>2017-9-19T8:57:14Z</time></trkpt>
<trkpt lat="48.44338500" lon="2.70238800"><ele></ele><time>2017-9-19T8:57:17Z</time></trkpt>
<trkpt lat="48.44340000" lon="2.70235200"><ele></ele><time>2017-9-19T8:57:20Z</time></trkpt>
<trkpt lat="48.44342500" lon="2.70226300"><ele></ele><time>2017-9-19T8:57:23Z</time></trkpt>
<trkpt lat="48.44344100" lon="2.70222200"><ele></ele><time>2017-9-19T8:57:26Z</time></trkpt>
<trkpt lat="48.44346000" lon="2.70218500"><ele></ele><time>2017-9-19T8:57:29Z</time></trkpt>
<trkpt lat="48.44348300" lon="2.70215500"><ele></ele><time>2017-9-19T8:57:32Z</time></trkpt>
<trkpt lat="48.44353100" lon="2.70207300"><ele></ele><time>2017-9-19T8:57:35Z</time></trkpt>
<trkpt lat="48.44355800" lon="2.70202000"><ele></ele><time>2017-9-19T8:57:38Z</time></trkpt>
<trkpt lat="48.44356800" lon="2.70196300"><ele></ele><time>2017-9-19T8:57:41Z</time></trkpt>
<trkpt lat="48.44356800" lon="2.70190000"><ele></ele><time>2017-9-19T8:57:44Z</time></trkpt>
<trkpt lat="48.44357600" lon="2.70172300"><ele></ele><time>2017-9-19T8:57:47Z</time></trkpt>
<trkpt lat="48.44358700" lon="2.70156300"><ele></ele><time>2017-9-19T8:57:50Z</time></trkpt>
<trkpt lat="48.44359800" lon="2.70151200"><ele></ele><time>2017-9-19T8:57:53Z</time></trkpt>
<trkpt lat="48.44368500" lon="2.70102000"><ele></ele><time>2017-9-19T8:57:56Z</time></trkpt>
<trkpt lat="48.44368800" lon="2.70096300"><ele></ele><time>2017-9-19T8:57:59Z</time></trkpt>
<trkpt lat="48.44368200" lon="2.70089800"><ele></ele><time>2017-9-19T8:58:2Z</time></trkpt>
<trkpt lat="48.44366100" lon="2.70078700"><ele></ele><time>2017-9-19T8:58:5Z</time></trkpt>
<trkpt lat="48.44361200" lon="2.70048800"><ele></ele><time>2017-9-19T8:58:8Z</time></trkpt>
<trkpt lat="48.44361300" lon="2.70042500"><ele></ele><time>2017-9-19T8:58:11Z</time></trkpt>
<trkpt lat="48.44362000" lon="2.70036500"><ele></ele><time>2017-9-19T8:58:14Z</time></trkpt>
<trkpt lat="48.44363200" lon="2.70014200"><ele></ele><time>2017-9-19T8:58:17Z</time></trkpt>
<trkpt lat="48.44363000" lon="2.69996500"><ele></ele><time>2017-9-19T8:58:20Z</time></trkpt>
<trkpt lat="48.44361800" lon="2.69985300"><ele></ele><time>2017-9-19T8:58:23Z</time></trkpt>
<trkpt lat="48.44361000" lon="2.69980200"><ele></ele><time>2017-9-19T8:58:26Z</time></trkpt>
<trkpt lat="48.44359300" lon="2.69973800"><ele></ele><time>2017-9-19T8:58:29Z</time></trkpt>
<trkpt lat="48.44357200" lon="2.69969000"><ele></ele><time>2017-9-19T8:58:32Z</time></trkpt>
<trkpt lat="48.44354600" lon="2.69964500"><ele></ele><time>2017-9-19T8:58:35Z</time></trkpt>
<trkpt lat="48.44345300" lon="2.69945500"><ele></ele><time>2017-9-19T8:58:38Z</time></trkpt>
<trkpt lat="48.44344100" lon="2.69939700"><ele></ele><time>2017-9-19T8:58:41Z</time></trkpt>
<trkpt lat="48.44337600" lon="2.69912300"><ele></ele><time>2017-9-19T8:58:44Z</time></trkpt>
<trkpt lat="48.44334300" lon="2.69901500"><ele></ele><time>2017-9-19T8:58:47Z</time></trkpt>
<trkpt lat="48.44331700" lon="2.69897700"><ele></ele><time>2017-9-19T8:58:50Z</time></trkpt>
<trkpt lat="48.44328300" lon="2.69894300"><ele></ele><time>2017-9-19T8:58:53Z</time></trkpt>
<trkpt lat="48.44324100" lon="2.69891200"><ele></ele><time>2017-9-19T8:58:56Z</time></trkpt>
<trkpt lat="48.44317000" lon="2.69883100"><ele></ele><time>2017-9-19T8:58:59Z</time></trkpt>
<trkpt lat="48.44314600" lon="2.69878500"><ele></ele><time>2017-9-19T8:59:2Z</time></trkpt>
<trkpt lat="48.44306000" lon="2.69858700"><ele></ele><time>2017-9-19T8:59:5Z</time></trkpt>
<trkpt lat="48.44304100" lon="2.69852800"><ele></ele><time>2017-9-19T8:59:8Z</time></trkpt>
<trkpt lat="48.44300700" lon="2.69839700"><ele></ele><time>2017-9-19T8:59:11Z</time></trkpt>
<trkpt lat="48.44300800" lon="2.69833200"><ele></ele><time>2017-9-19T8:59:14Z</time></trkpt>
<trkpt lat="48.44302200" lon="2.69827200"><ele></ele><time>2017-9-19T8:59:17Z</time></trkpt>
<trkpt lat="48.44306300" lon="2.69809300"><ele></ele><time>2017-9-19T8:59:20Z</time></trkpt>
<trkpt lat="48.44305500" lon="2.69803500"><ele></ele><time>2017-9-19T8:59:23Z</time></trkpt>
<trkpt lat="48.44303000" lon="2.69799300"><ele></ele><time>2017-9-19T8:59:26Z</time></trkpt>
<trkpt lat="48.44299000" lon="2.69789700"><ele></ele><time>2017-9-19T8:59:29Z</time></trkpt>
<trkpt lat="48.44298500" lon="2.69783800"><ele></ele><time>2017-9-19T8:59:32Z</time></trkpt>
<trkpt lat="48.44299000" lon="2.69778200"><ele></ele><time>2017-9-19T8:59:35Z</time></trkpt>
<trkpt lat="48.44300200" lon="2.69772800"><ele></ele><time>2017-9-19T8:59:38Z</time></trkpt>
<trkpt lat="48.44305200" lon="2.69747700"><ele></ele><time>2017-9-19T8:59:41Z</time></trkpt>
<trkpt lat="48.44307800" lon="2.69743000"><ele></ele><time>2017-9-19T8:59:44Z</time></trkpt>
<trkpt lat="48.44311700" lon="2.69740300"><ele></ele><time>2017-9-19T8:59:47Z</time></trkpt>
<trkpt lat="48.44315700" lon="2.69739500"><ele></ele><time>2017-9-19T8:59:50Z</time></trkpt>
<trkpt lat="48.44320200" lon="2.69739700"><ele></ele><time>2017-9-19T8:59:53Z</time></trkpt>
<trkpt lat="48.44341000" lon="2.69740800"><ele></ele><time>2017-9-19T8:59:56Z</time></trkpt>
<trkpt lat="48.44344000" lon="2.69738700"><ele></ele><time>2017-9-19T8:59:59Z</time></trkpt>
<trkpt lat="48.44346600" lon="2.69734700"><ele></ele><time>2017-9-19T9:0:2Z</time></trkpt>
<trkpt lat="48.44353800" lon="2.69726800"><ele></ele><time>2017-9-19T9:0:5Z</time></trkpt>
<trkpt lat="48.44357800" lon="2.69726300"><ele></ele><time>2017-9-19T9:0:8Z</time></trkpt>
<trkpt lat="48.44361300" lon="2.69725000"><ele></ele><time>2017-9-19T9:0:11Z</time></trkpt>
<trkpt lat="48.44363500" lon="2.69720700"><ele></ele><time>2017-9-19T9:0:14Z</time></trkpt>
<trkpt lat="48.44364000" lon="2.69717000"><ele></ele><time>2017-9-19T9:0:17Z</time></trkpt>
<trkpt lat="48.44361500" lon="2.69713300"><ele></ele><time>2017-9-19T9:0:20Z</time></trkpt>
<trkpt lat="48.44360000" lon="2.69709500"><ele></ele><time>2017-9-19T9:0:23Z</time></trkpt>
<trkpt lat="48.44359000" lon="2.69705500"><ele></ele><time>2017-9-19T9:0:26Z</time></trkpt>
<trkpt lat="48.44358200" lon="2.69700700"><ele></ele><time>2017-9-19T9:0:29Z</time></trkpt>
<trkpt lat="48.44356500" lon="2.69689200"><ele></ele><time>2017-9-19T9:0:32Z</time></trkpt>
<trkpt lat="48.44354500" lon="2.69684500"><ele></ele><time>2017-9-19T9:0:35Z</time></trkpt>
<trkpt lat="48.44351800" lon="2.69680700"><ele></ele><time>2017-9-19T9:0:38Z</time></trkpt>
<trkpt lat="48.44348500" lon="2.69676800"><ele></ele><time>2017-9-19T9:0:41Z</time></trkpt>
<trkpt lat="48.44344800" lon="2.69673500"><ele></ele><time>2017-9-19T9:0:44Z</time></trkpt>
<trkpt lat="48.44338300" lon="2.69665800"><ele></ele><time>2017-9-19T9:0:47Z</time></trkpt>
<trkpt lat="48.44335500" lon="2.69661000"><ele></ele><time>2017-9-19T9:0:50Z</time></trkpt>
<trkpt lat="48.44307300" lon="2.69603500"><ele></ele><time>2017-9-19T9:0:53Z</time></trkpt>
<trkpt lat="48.44297800" lon="2.69575300"><ele></ele><time>2017-9-19T9:0:56Z</time></trkpt>
<trkpt lat="48.44296700" lon="2.69568700"><ele></ele><time>2017-9-19T9:0:59Z</time></trkpt>
<trkpt lat="48.44295500" lon="2.69554700"><ele></ele><time>2017-9-19T9:1:2Z</time></trkpt>
<trkpt lat="48.44296500" lon="2.69548000"><ele></ele><time>2017-9-19T9:1:5Z</time></trkpt>
<trkpt lat="48.44300700" lon="2.69512700"><ele></ele><time>2017-9-19T9:1:8Z</time></trkpt>
<trkpt lat="48.44302300" lon="2.69493200"><ele></ele><time>2017-9-19T9:1:11Z</time></trkpt>
<trkpt lat="48.44304300" lon="2.69487300"><ele></ele><time>2017-9-19T9:1:14Z</time></trkpt>
<trkpt lat="48.44307300" lon="2.69482300"><ele></ele><time>2017-9-19T9:1:17Z</time></trkpt>
<trkpt lat="48.44311500" lon="2.69479200"><ele></ele><time>2017-9-19T9:1:20Z</time></trkpt>
<trkpt lat="48.44323500" lon="2.69471700"><ele></ele><time>2017-9-19T9:1:23Z</time></trkpt>
<trkpt lat="48.44327700" lon="2.69469800"><ele></ele><time>2017-9-19T9:1:26Z</time></trkpt>
<trkpt lat="48.44349200" lon="2.69461300"><ele></ele><time>2017-9-19T9:1:29Z</time></trkpt>
<trkpt lat="48.44352800" lon="2.69457200"><ele></ele><time>2017-9-19T9:1:32Z</time></trkpt>
<trkpt lat="48.44356000" lon="2.69451800"><ele></ele><time>2017-9-19T9:1:35Z</time></trkpt>
<trkpt lat="48.44369800" lon="2.69432000"><ele></ele><time>2017-9-19T9:1:38Z</time></trkpt>
<trkpt lat="48.44374700" lon="2.69429300"><ele></ele><time>2017-9-19T9:1:41Z</time></trkpt>
<trkpt lat="48.44379000" lon="2.69429000"><ele></ele><time>2017-9-19T9:1:44Z</time></trkpt>
<trkpt lat="48.44383300" lon="2.69430200"><ele></ele><time>2017-9-19T9:1:47Z</time></trkpt>
<trkpt lat="48.44388000" lon="2.69433000"><ele></ele><time>2017-9-19T9:1:50Z</time></trkpt>
<trkpt lat="48.44392500" lon="2.69436700"><ele></ele><time>2017-9-19T9:1:53Z</time></trkpt>
<trkpt lat="48.44396200" lon="2.69440800"><ele></ele><time>2017-9-19T9:1:56Z</time></trkpt>
<trkpt lat="48.44407500" lon="2.69451800"><ele></ele><time>2017-9-19T9:1:59Z</time></trkpt>
<trkpt lat="48.44415300" lon="2.69457000"><ele></ele><time>2017-9-19T9:2:2Z</time></trkpt>
<trkpt lat="48.44418100" lon="2.69459700"><ele></ele><time>2017-9-19T9:2:5Z</time></trkpt>
<trkpt lat="48.44421300" lon="2.69462000"><ele></ele><time>2017-9-19T9:2:8Z</time></trkpt>
<trkpt lat="48.44424100" lon="2.69463500"><ele></ele><time>2017-9-19T9:2:11Z</time></trkpt>
<trkpt lat="48.44454700" lon="2.69479300"><ele></ele><time>2017-9-19T9:2:14Z</time></trkpt>
<trkpt lat="48.44458500" lon="2.69479000"><ele></ele><time>2017-9-19T9:2:17Z</time></trkpt>
<trkpt lat="48.44473500" lon="2.69476200"><ele></ele><time>2017-9-19T9:2:20Z</time></trkpt>
<trkpt lat="48.44477500" lon="2.69475000"><ele></ele><time>2017-9-19T9:2:23Z</time></trkpt>
<trkpt lat="48.44481000" lon="2.69471500"><ele></ele><time>2017-9-19T9:2:26Z</time></trkpt>
<trkpt lat="48.44483700" lon="2.69465800"><ele></ele><time>2017-9-19T9:2:29Z</time></trkpt>
<trkpt lat="48.44486300" lon="2.69461800"><ele></ele><time>2017-9-19T9:2:32Z</time></trkpt>
<trkpt lat="48.44489500" lon="2.69459300"><ele></ele><time>2017-9-19T9:2:35Z</time></trkpt>
<trkpt lat="48.44492800" lon="2.69459000"><ele></ele><time>2017-9-19T9:2:38Z</time></trkpt>
<trkpt lat="48.44496000" lon="2.69457700"><ele></ele><time>2017-9-19T9:2:41Z</time></trkpt>
<trkpt lat="48.44498500" lon="2.69454500"><ele></ele><time>2017-9-19T9:2:44Z</time></trkpt>
<trkpt lat="48.44500300" lon="2.69451000"><ele></ele><time>2017-9-19T9:2:47Z</time></trkpt>
<trkpt lat="48.44502000" lon="2.69447200"><ele></ele><time>2017-9-19T9:2:50Z</time></trkpt>
<trkpt lat="48.44503200" lon="2.69443700"><ele></ele><time>2017-9-19T9:2:53Z</time></trkpt>
<trkpt lat="48.44507000" lon="2.69437800"><ele></ele><time>2017-9-19T9:2:56Z</time></trkpt>
<trkpt lat="48.44509000" lon="2.69435800"><ele></ele><time>2017-9-19T9:2:59Z</time></trkpt>
<trkpt lat="48.44513200" lon="2.69430200"><ele></ele><time>2017-9-19T9:3:2Z</time></trkpt>
<trkpt lat="48.44517000" lon="2.69423300"><ele></ele><time>2017-9-19T9:3:5Z</time></trkpt>
<trkpt lat="48.44521700" lon="2.69417300"><ele></ele><time>2017-9-19T9:3:8Z</time></trkpt>
<trkpt lat="48.44527000" lon="2.69413000"><ele></ele><time>2017-9-19T9:3:11Z</time></trkpt>
<trkpt lat="48.44535500" lon="2.69405300"><ele></ele><time>2017-9-19T9:3:14Z</time></trkpt>
<trkpt lat="48.44538000" lon="2.69402700"><ele></ele><time>2017-9-19T9:3:17Z</time></trkpt>
<trkpt lat="48.44539800" lon="2.69399300"><ele></ele><time>2017-9-19T9:3:20Z</time></trkpt>
<trkpt lat="48.44541200" lon="2.69395000"><ele></ele><time>2017-9-19T9:3:23Z</time></trkpt>
<trkpt lat="48.44545500" lon="2.69385000"><ele></ele><time>2017-9-19T9:3:26Z</time></trkpt>
<trkpt lat="48.44553200" lon="2.69364300"><ele></ele><time>2017-9-19T9:3:29Z</time></trkpt>
<trkpt lat="48.44560800" lon="2.69344700"><ele></ele><time>2017-9-19T9:3:32Z</time></trkpt>
<trkpt lat="48.44564000" lon="2.69341800"><ele></ele><time>2017-9-19T9:3:35Z</time></trkpt>
<trkpt lat="48.44567000" lon="2.69337300"><ele></ele><time>2017-9-19T9:3:38Z</time></trkpt>
<trkpt lat="48.44573300" lon="2.69328800"><ele></ele><time>2017-9-19T9:3:41Z</time></trkpt>
<trkpt lat="48.44578000" lon="2.69328800"><ele></ele><time>2017-9-19T9:3:44Z</time></trkpt>
<trkpt lat="48.44582200" lon="2.69329000"><ele></ele><time>2017-9-19T9:3:47Z</time></trkpt>
<trkpt lat="48.44585000" lon="2.69328100"><ele></ele><time>2017-9-19T9:3:50Z</time></trkpt>
<trkpt lat="48.44587800" lon="2.69326500"><ele></ele><time>2017-9-19T9:3:53Z</time></trkpt>
<trkpt lat="48.44590800" lon="2.69324000"><ele></ele><time>2017-9-19T9:3:56Z</time></trkpt>
<trkpt lat="48.44597800" lon="2.69320300"><ele></ele><time>2017-9-19T9:3:59Z</time></trkpt>
<trkpt lat="48.44602000" lon="2.69320000"><ele></ele><time>2017-9-19T9:4:2Z</time></trkpt>
<trkpt lat="48.44605800" lon="2.69320800"><ele></ele><time>2017-9-19T9:4:5Z</time></trkpt>
<trkpt lat="48.44610200" lon="2.69322800"><ele></ele><time>2017-9-19T9:4:8Z</time></trkpt>
<trkpt lat="48.44617800" lon="2.69327700"><ele></ele><time>2017-9-19T9:4:11Z</time></trkpt>
<trkpt lat="48.44621200" lon="2.69331300"><ele></ele><time>2017-9-19T9:4:14Z</time></trkpt>
<trkpt lat="48.44644800" lon="2.69357800"><ele></ele><time>2017-9-19T9:4:17Z</time></trkpt>
<trkpt lat="48.44647300" lon="2.69362500"><ele></ele><time>2017-9-19T9:4:20Z</time></trkpt>
<trkpt lat="48.44650700" lon="2.69367000"><ele></ele><time>2017-9-19T9:4:23Z</time></trkpt>
<trkpt lat="48.44653800" lon="2.69370800"><ele></ele><time>2017-9-19T9:4:26Z</time></trkpt>
<trkpt lat="48.44657100" lon="2.69373300"><ele></ele><time>2017-9-19T9:4:29Z</time></trkpt>
<trkpt lat="48.44679800" lon="2.69385800"><ele></ele><time>2017-9-19T9:4:32Z</time></trkpt>
<trkpt lat="48.44697300" lon="2.69393300"><ele></ele><time>2017-9-19T9:4:35Z</time></trkpt>
<trkpt lat="48.44701300" lon="2.69393500"><ele></ele><time>2017-9-19T9:4:38Z</time></trkpt>
<trkpt lat="48.44705000" lon="2.69392700"><ele></ele><time>2017-9-19T9:4:41Z</time></trkpt>
<trkpt lat="48.44711200" lon="2.69389700"><ele></ele><time>2017-9-19T9:4:44Z</time></trkpt>
<trkpt lat="48.44713500" lon="2.69387000"><ele></ele><time>2017-9-19T9:4:47Z</time></trkpt>
<trkpt lat="48.44716000" lon="2.69383700"><ele></ele><time>2017-9-19T9:4:50Z</time></trkpt>
<trkpt lat="48.44725300" lon="2.69374100"><ele></ele><time>2017-9-19T9:4:53Z</time></trkpt>
<trkpt lat="48.44730000" lon="2.69372000"><ele></ele><time>2017-9-19T9:4:56Z</time></trkpt>
<trkpt lat="48.44737800" lon="2.69367800"><ele></ele><time>2017-9-19T9:4:59Z</time></trkpt>
<trkpt lat="48.44744600" lon="2.69362700"><ele></ele><time>2017-9-19T9:5:2Z</time></trkpt>
<trkpt lat="48.44751600" lon="2.69359200"><ele></ele><time>2017-9-19T9:5:5Z</time></trkpt>
<trkpt lat="48.44756000" lon="2.69359600"><ele></ele><time>2017-9-19T9:5:8Z</time></trkpt>
<trkpt lat="48.44760500" lon="2.69361300"><ele></ele><time>2017-9-19T9:5:11Z</time></trkpt>
<trkpt lat="48.44768300" lon="2.69365200"><ele></ele><time>2017-9-19T9:5:14Z</time></trkpt>
<trkpt lat="48.44771000" lon="2.69367700"><ele></ele><time>2017-9-19T9:5:17Z</time></trkpt>
<trkpt lat="48.44776300" lon="2.69373800"><ele></ele><time>2017-9-19T9:5:20Z</time></trkpt>
<trkpt lat="48.44779700" lon="2.69375300"><ele></ele><time>2017-9-19T9:5:23Z</time></trkpt>
<trkpt lat="48.44783200" lon="2.69375700"><ele></ele><time>2017-9-19T9:5:26Z</time></trkpt>
<trkpt lat="48.44786700" lon="2.69374800"><ele></ele><time>2017-9-19T9:5:29Z</time></trkpt>
<trkpt lat="48.44790200" lon="2.69373700"><ele></ele><time>2017-9-19T9:5:32Z</time></trkpt>
<trkpt lat="48.44793500" lon="2.69372000"><ele></ele><time>2017-9-19T9:5:35Z</time></trkpt>
<trkpt lat="48.44800300" lon="2.69370300"><ele></ele><time>2017-9-19T9:5:38Z</time></trkpt>
<trkpt lat="48.44803800" lon="2.69370700"><ele></ele><time>2017-9-19T9:5:41Z</time></trkpt>
<trkpt lat="48.44807300" lon="2.69371200"><ele></ele><time>2017-9-19T9:5:44Z</time></trkpt>
<trkpt lat="48.44811300" lon="2.69370200"><ele></ele><time>2017-9-19T9:5:47Z</time></trkpt>
<trkpt lat="48.44818800" lon="2.69367000"><ele></ele><time>2017-9-19T9:5:50Z</time></trkpt>
<trkpt lat="48.44826200" lon="2.69363800"><ele></ele><time>2017-9-19T9:5:53Z</time></trkpt>
<trkpt lat="48.44829600" lon="2.69362800"><ele></ele><time>2017-9-19T9:5:56Z</time></trkpt>
<trkpt lat="48.44833200" lon="2.69362800"><ele></ele><time>2017-9-19T9:5:59Z</time></trkpt>
<trkpt lat="48.44836300" lon="2.69362500"><ele></ele><time>2017-9-19T9:6:2Z</time></trkpt>
<trkpt lat="48.44839500" lon="2.69360800"><ele></ele><time>2017-9-19T9:6:5Z</time></trkpt>
<trkpt lat="48.44842500" lon="2.69358300"><ele></ele><time>2017-9-19T9:6:8Z</time></trkpt>
<trkpt lat="48.44852800" lon="2.69351700"><ele></ele><time>2017-9-19T9:6:11Z</time></trkpt>
<trkpt lat="48.44856600" lon="2.69350500"><ele></ele><time>2017-9-19T9:6:14Z</time></trkpt>
<trkpt lat="48.44868300" lon="2.69349000"><ele></ele><time>2017-9-19T9:6:17Z</time></trkpt>
<trkpt lat="48.44872300" lon="2.69349300"><ele></ele><time>2017-9-19T9:6:20Z</time></trkpt>
<trkpt lat="48.44876300" lon="2.69349500"><ele></ele><time>2017-9-19T9:6:23Z</time></trkpt>
<trkpt lat="48.44880700" lon="2.69349300"><ele></ele><time>2017-9-19T9:6:26Z</time></trkpt>
<trkpt lat="48.44885000" lon="2.69348500"><ele></ele><time>2017-9-19T9:6:29Z</time></trkpt>
<trkpt lat="48.44893800" lon="2.69345200"><ele></ele><time>2017-9-19T9:6:32Z</time></trkpt>
<trkpt lat="48.44898000" lon="2.69342700"><ele></ele><time>2017-9-19T9:6:35Z</time></trkpt>
<trkpt lat="48.44901800" lon="2.69339300"><ele></ele><time>2017-9-19T9:6:38Z</time></trkpt>
<trkpt lat="48.44905500" lon="2.69335700"><ele></ele><time>2017-9-19T9:6:41Z</time></trkpt>
<trkpt lat="48.44929000" lon="2.69313200"><ele></ele><time>2017-9-19T9:6:44Z</time></trkpt>
<trkpt lat="48.44930800" lon="2.69310500"><ele></ele><time>2017-9-19T9:6:47Z</time></trkpt>
<trkpt lat="48.44932700" lon="2.69307300"><ele></ele><time>2017-9-19T9:6:50Z</time></trkpt>
<trkpt lat="48.44934500" lon="2.69303500"><ele></ele><time>2017-9-19T9:6:53Z</time></trkpt>
<trkpt lat="48.44938800" lon="2.69295500"><ele></ele><time>2017-9-19T9:6:56Z</time></trkpt>
<trkpt lat="48.44945000" lon="2.69285200"><ele></ele><time>2017-9-19T9:6:59Z</time></trkpt>
<trkpt lat="48.44946800" lon="2.69283200"><ele></ele><time>2017-9-19T9:7:2Z</time></trkpt>
<trkpt lat="48.44948800" lon="2.69282200"><ele></ele><time>2017-9-19T9:7:5Z</time></trkpt>
<trkpt lat="48.44950600" lon="2.69281700"><ele></ele><time>2017-9-19T9:7:8Z</time></trkpt>
<trkpt lat="48.44952300" lon="2.69280800"><ele></ele><time>2017-9-19T9:7:11Z</time></trkpt>
<trkpt lat="48.44953500" lon="2.69279500"><ele></ele><time>2017-9-19T9:7:14Z</time></trkpt>
<trkpt lat="48.44954500" lon="2.69277500"><ele></ele><time>2017-9-19T9:7:17Z</time></trkpt>
<trkpt lat="48.44954300" lon="2.69277300"><ele></ele><time>2017-9-19T9:7:20Z</time></trkpt>
<trkpt lat="48.44954300" lon="2.69277200"><ele></ele><time>2017-9-19T9:7:23Z</time></trkpt>
<trkpt lat="48.44954500" lon="2.69277000"><ele></ele><time>2017-9-19T9:7:26Z</time></trkpt>
<trkpt lat="48.44954700" lon="2.69277000"><ele></ele><time>2017-9-19T9:7:29Z</time></trkpt>
<trkpt lat="48.44954800" lon="2.69276800"><ele></ele><time>2017-9-19T9:7:32Z</time></trkpt>
<trkpt lat="48.44955000" lon="2.69276700"><ele></ele><time>2017-9-19T9:7:35Z</time></trkpt>
<trkpt lat="48.44955200" lon="2.69276300"><ele></ele><time>2017-9-19T9:7:38Z</time></trkpt>
<trkpt lat="48.44955200" lon="2.69276000"><ele></ele><time>2017-9-19T9:7:41Z</time></trkpt>
<trkpt lat="48.44955300" lon="2.69275800"><ele></ele><time>2017-9-19T9:7:44Z</time></trkpt>
<trkpt lat="48.44955000" lon="2.69274800"><ele></ele><time>2017-9-19T9:7:47Z</time></trkpt>
<trkpt lat="48.44955200" lon="2.69274200"><ele></ele><time>2017-9-19T9:7:50Z</time></trkpt>
<trkpt lat="48.44955300" lon="2.69273800"><ele></ele><time>2017-9-19T9:7:53Z</time></trkpt>
<trkpt lat="48.44955300" lon="2.69273500"><ele></ele><time>2017-9-19T9:7:56Z</time></trkpt>
<trkpt lat="48.44955500" lon="2.69273200"><ele></ele><time>2017-9-19T9:7:59Z</time></trkpt>
<trkpt lat="48.44955700" lon="2.69272300"><ele></ele><time>2017-9-19T9:8:2Z</time></trkpt>
<trkpt lat="48.44956700" lon="2.69269500"><ele></ele><time>2017-9-19T9:8:5Z</time></trkpt>
<trkpt lat="48.44958300" lon="2.69265000"><ele></ele><time>2017-9-19T9:8:8Z</time></trkpt>
<trkpt lat="48.44959100" lon="2.69262200"><ele></ele><time>2017-9-19T9:8:11Z</time></trkpt>
<trkpt lat="48.44960300" lon="2.69259300"><ele></ele><time>2017-9-19T9:8:14Z</time></trkpt>
<trkpt lat="48.44962000" lon="2.69256700"><ele></ele><time>2017-9-19T9:8:17Z</time></trkpt>
<trkpt lat="48.44966000" lon="2.69250500"><ele></ele><time>2017-9-19T9:8:20Z</time></trkpt>
<trkpt lat="48.44967000" lon="2.69246200"><ele></ele><time>2017-9-19T9:8:23Z</time></trkpt>
<trkpt lat="48.44968100" lon="2.69242500"><ele></ele><time>2017-9-19T9:8:26Z</time></trkpt>
<trkpt lat="48.44969800" lon="2.69239500"><ele></ele><time>2017-9-19T9:8:29Z</time></trkpt>
<trkpt lat="48.44973500" lon="2.69232700"><ele></ele><time>2017-9-19T9:8:32Z</time></trkpt>
<trkpt lat="48.44977100" lon="2.69224700"><ele></ele><time>2017-9-19T9:8:35Z</time></trkpt>
<trkpt lat="48.44979500" lon="2.69220700"><ele></ele><time>2017-9-19T9:8:38Z</time></trkpt>
<trkpt lat="48.44987800" lon="2.69208800"><ele></ele><time>2017-9-19T9:8:41Z</time></trkpt>
<trkpt lat="48.44991300" lon="2.69206300"><ele></ele><time>2017-9-19T9:8:44Z</time></trkpt>
<trkpt lat="48.44995300" lon="2.69205000"><ele></ele><time>2017-9-19T9:8:47Z</time></trkpt>
<trkpt lat="48.44999500" lon="2.69205300"><ele></ele><time>2017-9-19T9:8:50Z</time></trkpt>
<trkpt lat="48.45003300" lon="2.69205000"><ele></ele><time>2017-9-19T9:8:53Z</time></trkpt>
<trkpt lat="48.45006800" lon="2.69202500"><ele></ele><time>2017-9-19T9:8:56Z</time></trkpt>
<trkpt lat="48.45010000" lon="2.69198800"><ele></ele><time>2017-9-19T9:8:59Z</time></trkpt>
<trkpt lat="48.45016300" lon="2.69192200"><ele></ele><time>2017-9-19T9:9:2Z</time></trkpt>
<trkpt lat="48.45023300" lon="2.69186700"><ele></ele><time>2017-9-19T9:9:5Z</time></trkpt>
<trkpt lat="48.45027200" lon="2.69184800"><ele></ele><time>2017-9-19T9:9:8Z</time></trkpt>
<trkpt lat="48.45030800" lon="2.69183000"><ele></ele><time>2017-9-19T9:9:11Z</time></trkpt>
<trkpt lat="48.45037800" lon="2.69177700"><ele></ele><time>2017-9-19T9:9:14Z</time></trkpt>
<trkpt lat="48.45042300" lon="2.69175500"><ele></ele><time>2017-9-19T9:9:17Z</time></trkpt>
<trkpt lat="48.45046600" lon="2.69174500"><ele></ele><time>2017-9-19T9:9:20Z</time></trkpt>
<trkpt lat="48.45055000" lon="2.69171000"><ele></ele><time>2017-9-19T9:9:23Z</time></trkpt>
<trkpt lat="48.45058700" lon="2.69167700"><ele></ele><time>2017-9-19T9:9:26Z</time></trkpt>
<trkpt lat="48.45067000" lon="2.69162500"><ele></ele><time>2017-9-19T9:9:29Z</time></trkpt>
<trkpt lat="48.45071000" lon="2.69160800"><ele></ele><time>2017-9-19T9:9:32Z</time></trkpt>
<trkpt lat="48.45075500" lon="2.69160700"><ele></ele><time>2017-9-19T9:9:35Z</time></trkpt>
<trkpt lat="48.45083000" lon="2.69159300"><ele></ele><time>2017-9-19T9:9:38Z</time></trkpt>
<trkpt lat="48.45086000" lon="2.69157300"><ele></ele><time>2017-9-19T9:9:41Z</time></trkpt>
<trkpt lat="48.45098500" lon="2.69149200"><ele></ele><time>2017-9-19T9:9:44Z</time></trkpt>
<trkpt lat="48.45102300" lon="2.69143500"><ele></ele><time>2017-9-19T9:9:47Z</time></trkpt>
<trkpt lat="48.45107000" lon="2.69131700"><ele></ele><time>2017-9-19T9:9:50Z</time></trkpt>
<trkpt lat="48.45108500" lon="2.69125300"><ele></ele><time>2017-9-19T9:9:53Z</time></trkpt>
<trkpt lat="48.45107200" lon="2.69120200"><ele></ele><time>2017-9-19T9:9:56Z</time></trkpt>
<trkpt lat="48.45107000" lon="2.69114700"><ele></ele><time>2017-9-19T9:9:59Z</time></trkpt>
<trkpt lat="48.45105300" lon="2.69109700"><ele></ele><time>2017-9-19T9:10:2Z</time></trkpt>
<trkpt lat="48.45102600" lon="2.69104700"><ele></ele><time>2017-9-19T9:10:5Z</time></trkpt>
<trkpt lat="48.45100600" lon="2.69099000"><ele></ele><time>2017-9-19T9:10:8Z</time></trkpt>
<trkpt lat="48.45099200" lon="2.69092700"><ele></ele><time>2017-9-19T9:10:11Z</time></trkpt>
<trkpt lat="48.45099000" lon="2.69087700"><ele></ele><time>2017-9-19T9:10:14Z</time></trkpt>
<trkpt lat="48.45098300" lon="2.69070200"><ele></ele><time>2017-9-19T9:10:17Z</time></trkpt>
<trkpt lat="48.45098000" lon="2.69063700"><ele></ele><time>2017-9-19T9:10:20Z</time></trkpt>
<trkpt lat="48.45099300" lon="2.69057800"><ele></ele><time>2017-9-19T9:10:23Z</time></trkpt>
<trkpt lat="48.45101500" lon="2.69052700"><ele></ele><time>2017-9-19T9:10:26Z</time></trkpt>
<trkpt lat="48.45103800" lon="2.69047700"><ele></ele><time>2017-9-19T9:10:29Z</time></trkpt>
<trkpt lat="48.45108000" lon="2.69046000"><ele></ele><time>2017-9-19T9:10:32Z</time></trkpt>
<trkpt lat="48.45111600" lon="2.69044300"><ele></ele><time>2017-9-19T9:10:35Z</time></trkpt>
<trkpt lat="48.45117000" lon="2.69041300"><ele></ele><time>2017-9-19T9:10:38Z</time></trkpt>
<trkpt lat="48.45120000" lon="2.69040300"><ele></ele><time>2017-9-19T9:10:41Z</time></trkpt>
<trkpt lat="48.45122600" lon="2.69039500"><ele></ele><time>2017-9-19T9:10:44Z</time></trkpt>
<trkpt lat="48.45124500" lon="2.69037700"><ele></ele><time>2017-9-19T9:10:47Z</time></trkpt>
<trkpt lat="48.45126500" lon="2.69034600"><ele></ele><time>2017-9-19T9:10:50Z</time></trkpt>
<trkpt lat="48.45127800" lon="2.69031000"><ele></ele><time>2017-9-19T9:10:53Z</time></trkpt>
<trkpt lat="48.45131300" lon="2.69025700"><ele></ele><time>2017-9-19T9:10:56Z</time></trkpt>
<trkpt lat="48.45140500" lon="2.69007800"><ele></ele><time>2017-9-19T9:10:59Z</time></trkpt>
<trkpt lat="48.45143100" lon="2.69003000"><ele></ele><time>2017-9-19T9:11:2Z</time></trkpt>
<trkpt lat="48.45143800" lon="2.69002500"><ele></ele><time>2017-9-19T9:11:5Z</time></trkpt>
<trkpt lat="48.45144500" lon="2.69001800"><ele></ele><time>2017-9-19T9:11:8Z</time></trkpt>
<trkpt lat="48.45145500" lon="2.69001000"><ele></ele><time>2017-9-19T9:11:11Z</time></trkpt>
<trkpt lat="48.45146800" lon="2.69000300"><ele></ele><time>2017-9-19T9:11:14Z</time></trkpt>
<trkpt lat="48.45147800" lon="2.68999300"><ele></ele><time>2017-9-19T9:11:17Z</time></trkpt>
<trkpt lat="48.45148700" lon="2.68997800"><ele></ele><time>2017-9-19T9:11:20Z</time></trkpt>
<trkpt lat="48.45150800" lon="2.68994500"><ele></ele><time>2017-9-19T9:11:23Z</time></trkpt>
<trkpt lat="48.45157700" lon="2.68987000"><ele></ele><time>2017-9-19T9:11:26Z</time></trkpt>
<trkpt lat="48.45158600" lon="2.68985200"><ele></ele><time>2017-9-19T9:11:29Z</time></trkpt>
<trkpt lat="48.45162300" lon="2.68980500"><ele></ele><time>2017-9-19T9:11:32Z</time></trkpt>
<trkpt lat="48.45170700" lon="2.68971700"><ele></ele><time>2017-9-19T9:11:35Z</time></trkpt>
<trkpt lat="48.45171200" lon="2.68970500"><ele></ele><time>2017-9-19T9:11:38Z</time></trkpt>
<trkpt lat="48.45171800" lon="2.68968500"><ele></ele><time>2017-9-19T9:11:41Z</time></trkpt>
<trkpt lat="48.45172300" lon="2.68967500"><ele></ele><time>2017-9-19T9:11:44Z</time></trkpt>
<trkpt lat="48.45172800" lon="2.68966800"><ele></ele><time>2017-9-19T9:11:47Z</time></trkpt>
<trkpt lat="48.45173300" lon="2.68966200"><ele></ele><time>2017-9-19T9:11:50Z</time></trkpt>
<trkpt lat="48.45173500" lon="2.68965200"><ele></ele><time>2017-9-19T9:11:53Z</time></trkpt>
<trkpt lat="48.45175000" lon="2.68962800"><ele></ele><time>2017-9-19T9:11:56Z</time></trkpt>
<trkpt lat="48.45175800" lon="2.68961800"><ele></ele><time>2017-9-19T9:11:59Z</time></trkpt>
<trkpt lat="48.45177500" lon="2.68959700"><ele></ele><time>2017-9-19T9:12:2Z</time></trkpt>
<trkpt lat="48.45179200" lon="2.68957800"><ele></ele><time>2017-9-19T9:12:5Z</time></trkpt>
<trkpt lat="48.45179800" lon="2.68956500"><ele></ele><time>2017-9-19T9:12:8Z</time></trkpt>
<trkpt lat="48.45180700" lon="2.68953500"><ele></ele><time>2017-9-19T9:12:11Z</time></trkpt>
<trkpt lat="48.45181100" lon="2.68952200"><ele></ele><time>2017-9-19T9:12:14Z</time></trkpt>
<trkpt lat="48.45181600" lon="2.68951300"><ele></ele><time>2017-9-19T9:12:17Z</time></trkpt>
<trkpt lat="48.45182300" lon="2.68950500"><ele></ele><time>2017-9-19T9:12:20Z</time></trkpt>
<trkpt lat="48.45182800" lon="2.68950300"><ele></ele><time>2017-9-19T9:12:23Z</time></trkpt>
<trkpt lat="48.45183500" lon="2.68949700"><ele></ele><time>2017-9-19T9:12:26Z</time></trkpt>
<trkpt lat="48.45184300" lon="2.68948300"><ele></ele><time>2017-9-19T9:12:29Z</time></trkpt>
<trkpt lat="48.45187300" lon="2.68943300"><ele></ele><time>2017-9-19T9:12:32Z</time></trkpt>
<trkpt lat="48.45188000" lon="2.68942200"><ele></ele><time>2017-9-19T9:12:35Z</time></trkpt>
<trkpt lat="48.45188300" lon="2.68941000"><ele></ele><time>2017-9-19T9:12:38Z</time></trkpt>
<trkpt lat="48.45189300" lon="2.68938800"><ele></ele><time>2017-9-19T9:12:41Z</time></trkpt>
<trkpt lat="48.45189800" lon="2.68937300"><ele></ele><time>2017-9-19T9:12:44Z</time></trkpt>
<trkpt lat="48.45190500" lon="2.68935800"><ele></ele><time>2017-9-19T9:12:47Z</time></trkpt>
<trkpt lat="48.45190800" lon="2.68934500"><ele></ele><time>2017-9-19T9:12:50Z</time></trkpt>
<trkpt lat="48.45191000" lon="2.68933500"><ele></ele><time>2017-9-19T9:12:53Z</time></trkpt>
<trkpt lat="48.45191500" lon="2.68932700"><ele></ele><time>2017-9-19T9:12:56Z</time></trkpt>
<trkpt lat="48.45192500" lon="2.68931300"><ele></ele><time>2017-9-19T9:12:59Z</time></trkpt>
<trkpt lat="48.45193500" lon="2.68930500"><ele></ele><time>2017-9-19T9:13:2Z</time></trkpt>
<trkpt lat="48.45198600" lon="2.68925300"><ele></ele><time>2017-9-19T9:13:5Z</time></trkpt>
<trkpt lat="48.45200300" lon="2.68923500"><ele></ele><time>2017-9-19T9:13:8Z</time></trkpt>
<trkpt lat="48.45200700" lon="2.68922000"><ele></ele><time>2017-9-19T9:13:11Z</time></trkpt>
<trkpt lat="48.45201100" lon="2.68920500"><ele></ele><time>2017-9-19T9:13:14Z</time></trkpt>
<trkpt lat="48.45201300" lon="2.68919800"><ele></ele><time>2017-9-19T9:13:17Z</time></trkpt>
<trkpt lat="48.45201500" lon="2.68919500"><ele></ele><time>2017-9-19T9:13:20Z</time></trkpt>
<trkpt lat="48.45201600" lon="2.68919200"><ele></ele><time>2017-9-19T9:13:23Z</time></trkpt>
<trkpt lat="48.45201600" lon="2.68918800"><ele></ele><time>2017-9-19T9:13:26Z</time></trkpt>
<trkpt lat="48.45201800" lon="2.68918500"><ele></ele><time>2017-9-19T9:13:29Z</time></trkpt>
<trkpt lat="48.45201500" lon="2.68918000"><ele></ele><time>2017-9-19T9:13:32Z</time></trkpt>
<trkpt lat="48.45201100" lon="2.68917500"><ele></ele><time>2017-9-19T9:13:35Z</time></trkpt>
<trkpt lat="48.45200700" lon="2.68917200"><ele></ele><time>2017-9-19T9:13:38Z</time></trkpt>
<trkpt lat="48.45200300" lon="2.68916500"><ele></ele><time>2017-9-19T9:13:41Z</time></trkpt>
<trkpt lat="48.45200000" lon="2.68916200"><ele></ele><time>2017-9-19T9:13:44Z</time></trkpt>
<trkpt lat="48.45199700" lon="2.68916000"><ele></ele><time>2017-9-19T9:13:47Z</time></trkpt>
<trkpt lat="48.45199300" lon="2.68915800"><ele></ele><time>2017-9-19T9:13:50Z</time></trkpt>
<trkpt lat="48.45199000" lon="2.68915700"><ele></ele><time>2017-9-19T9:13:53Z</time></trkpt>
<trkpt lat="48.45198600" lon="2.68915500"><ele></ele><time>2017-9-19T9:13:56Z</time></trkpt>
<trkpt lat="48.45198500" lon="2.68915500"><ele></ele><time>2017-9-19T9:13:59Z</time></trkpt>
<trkpt lat="48.45198300" lon="2.68915200"><ele></ele><time>2017-9-19T9:14:2Z</time></trkpt>
<trkpt lat="48.45198200" lon="2.68914500"><ele></ele><time>2017-9-19T9:14:5Z</time></trkpt>
<trkpt lat="48.45198200" lon="2.68914200"><ele></ele><time>2017-9-19T9:14:8Z</time></trkpt>
<trkpt lat="48.45198200" lon="2.68913800"><ele></ele><time>2017-9-19T9:14:11Z</time></trkpt>
<trkpt lat="48.45198000" lon="2.68914200"><ele></ele><time>2017-9-19T9:14:14Z</time></trkpt>
<trkpt lat="48.45198200" lon="2.68914200"><ele></ele><time>2017-9-19T9:14:17Z</time></trkpt>
<trkpt lat="48.45198200" lon="2.68914300"><ele></ele><time>2017-9-19T9:14:20Z</time></trkpt>
<trkpt lat="48.45198000" lon="2.68914800"><ele></ele><time>2017-9-19T9:14:23Z</time></trkpt>
<trkpt lat="48.45197800" lon="2.68915000"><ele></ele><time>2017-9-19T9:14:26Z</time></trkpt>
<trkpt lat="48.45197500" lon="2.68915300"><ele></ele><time>2017-9-19T9:14:29Z</time></trkpt>
<trkpt lat="48.45197300" lon="2.68915500"><ele></ele><time>2017-9-19T9:14:32Z</time></trkpt>
<trkpt lat="48.45197200" lon="2.68915500"><ele></ele><time>2017-9-19T9:14:35Z</time></trkpt>
<trkpt lat="48.45197200" lon="2.68915700"><ele></ele><time>2017-9-19T9:14:38Z</time></trkpt>
<trkpt lat="48.45197000" lon="2.68915800"><ele></ele><time>2017-9-19T9:14:41Z</time></trkpt>
<trkpt lat="48.45197000" lon="2.68915800"><ele></ele><time>2017-9-19T9:14:44Z</time></trkpt>
<trkpt lat="48.45197000" lon="2.68916300"><ele></ele><time>2017-9-19T9:14:47Z</time></trkpt>
<trkpt lat="48.45196800" lon="2.68916500"><ele></ele><time>2017-9-19T9:14:50Z</time></trkpt>
<trkpt lat="48.45197000" lon="2.68916500"><ele></ele><time>2017-9-19T9:14:53Z</time></trkpt>
<trkpt lat="48.45197000" lon="2.68916500"><ele></ele><time>2017-9-19T9:14:56Z</time></trkpt>
<trkpt lat="48.45197200" lon="2.68916200"><ele></ele><time>2017-9-19T9:14:59Z</time></trkpt>
<trkpt lat="48.45198000" lon="2.68915500"><ele></ele><time>2017-9-19T9:15:2Z</time></trkpt>
<trkpt lat="48.45198300" lon="2.68914700"><ele></ele><time>2017-9-19T9:15:5Z</time></trkpt>
<trkpt lat="48.45199000" lon="2.68913300"><ele></ele><time>2017-9-19T9:15:8Z</time></trkpt>
<trkpt lat="48.45199200" lon="2.68912700"><ele></ele><time>2017-9-19T9:15:11Z</time></trkpt>
<trkpt lat="48.45199300" lon="2.68912000"><ele></ele><time>2017-9-19T9:15:14Z</time></trkpt>
<trkpt lat="48.45199300" lon="2.68911000"><ele></ele><time>2017-9-19T9:15:17Z</time></trkpt>
<trkpt lat="48.45199300" lon="2.68910200"><ele></ele><time>2017-9-19T9:15:20Z</time></trkpt>
<trkpt lat="48.45199700" lon="2.68909500"><ele></ele><time>2017-9-19T9:15:23Z</time></trkpt>
<trkpt lat="48.45200200" lon="2.68908300"><ele></ele><time>2017-9-19T9:15:26Z</time></trkpt>
<trkpt lat="48.45201300" lon="2.68906200"><ele></ele><time>2017-9-19T9:15:29Z</time></trkpt>
<trkpt lat="48.45201500" lon="2.68905500"><ele></ele><time>2017-9-19T9:15:32Z</time></trkpt>
<trkpt lat="48.45202000" lon="2.68904200"><ele></ele><time>2017-9-19T9:15:35Z</time></trkpt>
<trkpt lat="48.45202200" lon="2.68903500"><ele></ele><time>2017-9-19T9:15:38Z</time></trkpt>
<trkpt lat="48.45202700" lon="2.68903000"><ele></ele><time>2017-9-19T9:15:41Z</time></trkpt>
<trkpt lat="48.45202700" lon="2.68902200"><ele></ele><time>2017-9-19T9:15:44Z</time></trkpt>
<trkpt lat="48.45202800" lon="2.68901300"><ele></ele><time>2017-9-19T9:15:47Z</time></trkpt>
<trkpt lat="48.45203100" lon="2.68899700"><ele></ele><time>2017-9-19T9:15:50Z</time></trkpt>
<trkpt lat="48.45203300" lon="2.68899000"><ele></ele><time>2017-9-19T9:15:53Z</time></trkpt>
<trkpt lat="48.45203500" lon="2.68898500"><ele></ele><time>2017-9-19T9:15:56Z</time></trkpt>
<trkpt lat="48.45203500" lon="2.68898300"><ele></ele><time>2017-9-19T9:15:59Z</time></trkpt>
<trkpt lat="48.45203600" lon="2.68898000"><ele></ele><time>2017-9-19T9:16:2Z</time></trkpt>
<trkpt lat="48.45203600" lon="2.68897300"><ele></ele><time>2017-9-19T9:16:5Z</time></trkpt>
<trkpt lat="48.45204000" lon="2.68896500"><ele></ele><time>2017-9-19T9:16:8Z</time></trkpt>
<trkpt lat="48.45204500" lon="2.68894800"><ele></ele><time>2017-9-19T9:16:11Z</time></trkpt>
<trkpt lat="48.45204700" lon="2.68894200"><ele></ele><time>2017-9-19T9:16:14Z</time></trkpt>
<trkpt lat="48.45204700" lon="2.68893500"><ele></ele><time>2017-9-19T9:16:17Z</time></trkpt>
<trkpt lat="48.45204700" lon="2.68893200"><ele></ele><time>2017-9-19T9:16:20Z</time></trkpt>
<trkpt lat="48.45204700" lon="2.68892500"><ele></ele><time>2017-9-19T9:16:23Z</time></trkpt>
<trkpt lat="48.45205300" lon="2.68891800"><ele></ele><time>2017-9-19T9:16:26Z</time></trkpt>
<trkpt lat="48.45205700" lon="2.68891200"><ele></ele><time>2017-9-19T9:16:29Z</time></trkpt>
<trkpt lat="48.45206000" lon="2.68890300"><ele></ele><time>2017-9-19T9:16:32Z</time></trkpt>
<trkpt lat="48.45206300" lon="2.68889500"><ele></ele><time>2017-9-19T9:16:35Z</time></trkpt>
<trkpt lat="48.45207200" lon="2.68887300"><ele></ele><time>2017-9-19T9:16:38Z</time></trkpt>
<trkpt lat="48.45207200" lon="2.68887200"><ele></ele><time>2017-9-19T9:16:41Z</time></trkpt>
<trkpt lat="48.45207000" lon="2.68886800"><ele></ele><time>2017-9-19T9:16:44Z</time></trkpt>
<trkpt lat="48.45207000" lon="2.68886200"><ele></ele><time>2017-9-19T9:16:47Z</time></trkpt>
<trkpt lat="48.45207200" lon="2.68885500"><ele></ele><time>2017-9-19T9:16:50Z</time></trkpt>
<trkpt lat="48.45207800" lon="2.68884300"><ele></ele><time>2017-9-19T9:16:53Z</time></trkpt>
<trkpt lat="48.45208200" lon="2.68883800"><ele></ele><time>2017-9-19T9:16:56Z</time></trkpt>
<trkpt lat="48.45208300" lon="2.68883300"><ele></ele><time>2017-9-19T9:16:59Z</time></trkpt>
<trkpt lat="48.45209300" lon="2.68880700"><ele></ele><time>2017-9-19T9:17:2Z</time></trkpt>
<trkpt lat="48.45209700" lon="2.68879500"><ele></ele><time>2017-9-19T9:17:5Z</time></trkpt>
<trkpt lat="48.45209700" lon="2.68878700"><ele></ele><time>2017-9-19T9:17:8Z</time></trkpt>
<trkpt lat="48.45210000" lon="2.68878200"><ele></ele><time>2017-9-19T9:17:11Z</time></trkpt>
<trkpt lat="48.45210100" lon="2.68878000"><ele></ele><time>2017-9-19T9:17:14Z</time></trkpt>
<trkpt lat="48.45210300" lon="2.68877800"><ele></ele><time>2017-9-19T9:17:17Z</time></trkpt>
<trkpt lat="48.45210500" lon="2.68877300"><ele></ele><time>2017-9-19T9:17:20Z</time></trkpt>
<trkpt lat="48.45210800" lon="2.68876300"><ele></ele><time>2017-9-19T9:17:23Z</time></trkpt>
<trkpt lat="48.45211300" lon="2.68874300"><ele></ele><time>2017-9-19T9:17:26Z</time></trkpt>
<trkpt lat="48.45211700" lon="2.68873800"><ele></ele><time>2017-9-19T9:17:29Z</time></trkpt>
<trkpt lat="48.45211800" lon="2.68872800"><ele></ele><time>2017-9-19T9:17:32Z</time></trkpt>
<trkpt lat="48.45212000" lon="2.68872000"><ele></ele><time>2017-9-19T9:17:35Z</time></trkpt>
<trkpt lat="48.45212000" lon="2.68871000"><ele></ele><time>2017-9-19T9:17:38Z</time></trkpt>
<trkpt lat="48.45212100" lon="2.68870200"><ele></ele><time>2017-9-19T9:17:41Z</time></trkpt>
<trkpt lat="48.45212100" lon="2.68869800"><ele></ele><time>2017-9-19T9:17:44Z</time></trkpt>
<trkpt lat="48.45212300" lon="2.68869000"><ele></ele><time>2017-9-19T9:17:47Z</time></trkpt>
<trkpt lat="48.45212500" lon="2.68868200"><ele></ele><time>2017-9-19T9:17:50Z</time></trkpt>
<trkpt lat="48.45212500" lon="2.68867200"><ele></ele><time>2017-9-19T9:17:53Z</time></trkpt>
<trkpt lat="48.45212600" lon="2.68866200"><ele></ele><time>2017-9-19T9:17:56Z</time></trkpt>
<trkpt lat="48.45212600" lon="2.68865200"><ele></ele><time>2017-9-19T9:17:59Z</time></trkpt>
<trkpt lat="48.45212500" lon="2.68863300"><ele></ele><time>2017-9-19T9:18:2Z</time></trkpt>
<trkpt lat="48.45212500" lon="2.68862500"><ele></ele><time>2017-9-19T9:18:5Z</time></trkpt>
<trkpt lat="48.45212500" lon="2.68861700"><ele></ele><time>2017-9-19T9:18:8Z</time></trkpt>
<trkpt lat="48.45212600" lon="2.68860000"><ele></ele><time>2017-9-19T9:18:11Z</time></trkpt>
<trkpt lat="48.45212500" lon="2.68859200"><ele></ele><time>2017-9-19T9:18:14Z</time></trkpt>
<trkpt lat="48.45212500" lon="2.68858000"><ele></ele><time>2017-9-19T9:18:17Z</time></trkpt>
<trkpt lat="48.45212500" lon="2.68857200"><ele></ele><time>2017-9-19T9:18:20Z</time></trkpt>
<trkpt lat="48.45212300" lon="2.68856300"><ele></ele><time>2017-9-19T9:18:23Z</time></trkpt>
<trkpt lat="48.45211800" lon="2.68854000"><ele></ele><time>2017-9-19T9:18:26Z</time></trkpt>
<trkpt lat="48.45211500" lon="2.68853000"><ele></ele><time>2017-9-19T9:18:29Z</time></trkpt>
<trkpt lat="48.45211200" lon="2.68851800"><ele></ele><time>2017-9-19T9:18:32Z</time></trkpt>
<trkpt lat="48.45211000" lon="2.68851700"><ele></ele><time>2017-9-19T9:18:35Z</time></trkpt>
<trkpt lat="48.45211000" lon="2.68851500"><ele></ele><time>2017-9-19T9:18:38Z</time></trkpt>
<trkpt lat="48.45210800" lon="2.68851300"><ele></ele><time>2017-9-19T9:18:41Z</time></trkpt>
<trkpt lat="48.45210800" lon="2.68851200"><ele></ele><time>2017-9-19T9:18:44Z</time></trkpt>
<trkpt lat="48.45210800" lon="2.68851300"><ele></ele><time>2017-9-19T9:18:47Z</time></trkpt>
<trkpt lat="48.45211000" lon="2.68851200"><ele></ele><time>2017-9-19T9:18:50Z</time></trkpt>
<trkpt lat="48.45210800" lon="2.68850500"><ele></ele><time>2017-9-19T9:18:53Z</time></trkpt>
<trkpt lat="48.45210300" lon="2.68850000"><ele></ele><time>2017-9-19T9:18:56Z</time></trkpt>
<trkpt lat="48.45210000" lon="2.68848700"><ele></ele><time>2017-9-19T9:18:59Z</time></trkpt>
<trkpt lat="48.45209500" lon="2.68845800"><ele></ele><time>2017-9-19T9:19:2Z</time></trkpt>
<trkpt lat="48.45209300" lon="2.68844500"><ele></ele><time>2017-9-19T9:19:5Z</time></trkpt>
<trkpt lat="48.45209500" lon="2.68843500"><ele></ele><time>2017-9-19T9:19:8Z</time></trkpt>
<trkpt lat="48.45209500" lon="2.68842700"><ele></ele><time>2017-9-19T9:19:11Z</time></trkpt>
<trkpt lat="48.45209700" lon="2.68841200"><ele></ele><time>2017-9-19T9:19:14Z</time></trkpt>
<trkpt lat="48.45210100" lon="2.68837200"><ele></ele><time>2017-9-19T9:19:17Z</time></trkpt>
<trkpt lat="48.45210100" lon="2.68836700"><ele></ele><time>2017-9-19T9:19:20Z</time></trkpt>
<trkpt lat="48.45210100" lon="2.68836700"><ele></ele><time>2017-9-19T9:19:23Z</time></trkpt>
<trkpt lat="48.45210300" lon="2.68836700"><ele></ele><time>2017-9-19T9:19:26Z</time></trkpt>
<trkpt lat="48.45210300" lon="2.68836100"><ele></ele><time>2017-9-19T9:19:29Z</time></trkpt>
<trkpt lat="48.45210100" lon="2.68835300"><ele></ele><time>2017-9-19T9:19:32Z</time></trkpt>
<trkpt lat="48.45209500" lon="2.68833000"><ele></ele><time>2017-9-19T9:19:35Z</time></trkpt>
<trkpt lat="48.45209300" lon="2.68832200"><ele></ele><time>2017-9-19T9:19:38Z</time></trkpt>
<trkpt lat="48.45209300" lon="2.68831700"><ele></ele><time>2017-9-19T9:19:41Z</time></trkpt>
<trkpt lat="48.45209300" lon="2.68831000"><ele></ele><time>2017-9-19T9:19:44Z</time></trkpt>
<trkpt lat="48.45209500" lon="2.68829300"><ele></ele><time>2017-9-19T9:19:47Z</time></trkpt>
<trkpt lat="48.45209200" lon="2.68828800"><ele></ele><time>2017-9-19T9:19:50Z</time></trkpt>
<trkpt lat="48.45208800" lon="2.68828300"><ele></ele><time>2017-9-19T9:19:53Z</time></trkpt>
<trkpt lat="48.45208700" lon="2.68828000"><ele></ele><time>2017-9-19T9:19:56Z</time></trkpt>
<trkpt lat="48.45208500" lon="2.68827700"><ele></ele><time>2017-9-19T9:19:59Z</time></trkpt>
<trkpt lat="48.45208000" lon="2.68826800"><ele></ele><time>2017-9-19T9:20:2Z</time></trkpt>
<trkpt lat="48.45207600" lon="2.68826300"><ele></ele><time>2017-9-19T9:20:5Z</time></trkpt>
<trkpt lat="48.45207500" lon="2.68826000"><ele></ele><time>2017-9-19T9:20:8Z</time></trkpt>
<trkpt lat="48.45207300" lon="2.68826000"><ele></ele><time>2017-9-19T9:20:11Z</time></trkpt>
<trkpt lat="48.45207200" lon="2.68826000"><ele></ele><time>2017-9-19T9:20:14Z</time></trkpt>
<trkpt lat="48.45206800" lon="2.68826000"><ele></ele><time>2017-9-19T9:20:17Z</time></trkpt>
<trkpt lat="48.45206700" lon="2.68825800"><ele></ele><time>2017-9-19T9:20:20Z</time></trkpt>
<trkpt lat="48.45206300" lon="2.68825200"><ele></ele><time>2017-9-19T9:20:23Z</time></trkpt>
<trkpt lat="48.45204800" lon="2.68822000"><ele></ele><time>2017-9-19T9:20:26Z</time></trkpt>
<trkpt lat="48.45204500" lon="2.68820700"><ele></ele><time>2017-9-19T9:20:29Z</time></trkpt>
<trkpt lat="48.45204300" lon="2.68819000"><ele></ele><time>2017-9-19T9:20:32Z</time></trkpt>
<trkpt lat="48.45204300" lon="2.68818500"><ele></ele><time>2017-9-19T9:20:35Z</time></trkpt>
<trkpt lat="48.45204300" lon="2.68817800"><ele></ele><time>2017-9-19T9:20:38Z</time></trkpt>
<trkpt lat="48.45204300" lon="2.68817000"><ele></ele><time>2017-9-19T9:20:41Z</time></trkpt>
<trkpt lat="48.45204300" lon="2.68816200"><ele></ele><time>2017-9-19T9:20:44Z</time></trkpt>
<trkpt lat="48.45204300" lon="2.68816000"><ele></ele><time>2017-9-19T9:20:47Z</time></trkpt>
<trkpt lat="48.45204500" lon="2.68816000"><ele></ele><time>2017-9-19T9:20:50Z</time></trkpt>
<trkpt lat="48.45204700" lon="2.68816000"><ele></ele><time>2017-9-19T9:20:53Z</time></trkpt>
<trkpt lat="48.45205000" lon="2.68816200"><ele></ele><time>2017-9-19T9:20:56Z</time></trkpt>
<trkpt lat="48.45205300" lon="2.68816500"><ele></ele><time>2017-9-19T9:20:59Z</time></trkpt>
<trkpt lat="48.45205500" lon="2.68816300"><ele></ele><time>2017-9-19T9:21:2Z</time></trkpt>
<trkpt lat="48.45205200" lon="2.68815500"><ele></ele><time>2017-9-19T9:21:5Z</time></trkpt>
<trkpt lat="48.45205500" lon="2.68815200"><ele></ele><time>2017-9-19T9:21:8Z</time></trkpt>
<trkpt lat="48.45205800" lon="2.68814700"><ele></ele><time>2017-9-19T9:21:11Z</time></trkpt>
<trkpt lat="48.45206300" lon="2.68812800"><ele></ele><time>2017-9-19T9:21:14Z</time></trkpt>
<trkpt lat="48.45206700" lon="2.68812300"><ele></ele><time>2017-9-19T9:21:17Z</time></trkpt>
<trkpt lat="48.45206100" lon="2.68811500"><ele></ele><time>2017-9-19T9:21:20Z</time></trkpt>
<trkpt lat="48.45205800" lon="2.68810700"><ele></ele><time>2017-9-19T9:21:23Z</time></trkpt>
<trkpt lat="48.45205500" lon="2.68810000"><ele></ele><time>2017-9-19T9:21:26Z</time></trkpt>
<trkpt lat="48.45205200" lon="2.68809300"><ele></ele><time>2017-9-19T9:21:29Z</time></trkpt>
<trkpt lat="48.45205000" lon="2.68808800"><ele></ele><time>2017-9-19T9:21:32Z</time></trkpt>
<trkpt lat="48.45204700" lon="2.68808500"><ele></ele><time>2017-9-19T9:21:35Z</time></trkpt>
<trkpt lat="48.45204500" lon="2.68808200"><ele></ele><time>2017-9-19T9:21:38Z</time></trkpt>
<trkpt lat="48.45204300" lon="2.68807800"><ele></ele><time>2017-9-19T9:21:41Z</time></trkpt>
<trkpt lat="48.45204200" lon="2.68807700"><ele></ele><time>2017-9-19T9:21:44Z</time></trkpt>
<trkpt lat="48.45204000" lon="2.68807700"><ele></ele><time>2017-9-19T9:21:47Z</time></trkpt>
<trkpt lat="48.45203600" lon="2.68807700"><ele></ele><time>2017-9-19T9:21:50Z</time></trkpt>
<trkpt lat="48.45203800" lon="2.68808000"><ele></ele><time>2017-9-19T9:21:53Z</time></trkpt>
<trkpt lat="48.45204000" lon="2.68808500"><ele></ele><time>2017-9-19T9:21:56Z</time></trkpt>
<trkpt lat="48.45204300" lon="2.68809200"><ele></ele><time>2017-9-19T9:21:59Z</time></trkpt>
<trkpt lat="48.45204500" lon="2.68809500"><ele></ele><time>2017-9-19T9:22:2Z</time></trkpt>
<trkpt lat="48.45204500" lon="2.68809700"><ele></ele><time>2017-9-19T9:22:5Z</time></trkpt>
<trkpt lat="48.45204700" lon="2.68810000"><ele></ele><time>2017-9-19T9:22:8Z</time></trkpt>
<trkpt lat="48.45204700" lon="2.68810200"><ele></ele><time>2017-9-19T9:22:11Z</time></trkpt>
<trkpt lat="48.45204800" lon="2.68810300"><ele></ele><time>2017-9-19T9:22:14Z</time></trkpt>
<trkpt lat="48.45204700" lon="2.68810500"><ele></ele><time>2017-9-19T9:22:17Z</time></trkpt>
<trkpt lat="48.45204500" lon="2.68810800"><ele></ele><time>2017-9-19T9:22:20Z</time></trkpt>
<trkpt lat="48.45204500" lon="2.68811000"><ele></ele><time>2017-9-19T9:22:23Z</time></trkpt>
<trkpt lat="48.45204500" lon="2.68811200"><ele></ele><time>2017-9-19T9:22:26Z</time></trkpt>
<trkpt lat="48.45204300" lon="2.68811300"><ele></ele><time>2017-9-19T9:22:29Z</time></trkpt>
<trkpt lat="48.45204200" lon="2.68810800"><ele></ele><time>2017-9-19T9:22:32Z</time></trkpt>
<trkpt lat="48.45204000" lon="2.68810700"><ele></ele><time>2017-9-19T9:22:35Z</time></trkpt>
<trkpt lat="48.45204000" lon="2.68810700"><ele></ele><time>2017-9-19T9:22:38Z</time></trkpt>
<trkpt lat="48.45204200" lon="2.68809300"><ele></ele><time>2017-9-19T9:22:41Z</time></trkpt>
<trkpt lat="48.45204500" lon="2.68807300"><ele></ele><time>2017-9-19T9:22:44Z</time></trkpt>
<trkpt lat="48.45206700" lon="2.68792200"><ele></ele><time>2017-9-19T9:22:47Z</time></trkpt>
<trkpt lat="48.45206300" lon="2.68788500"><ele></ele><time>2017-9-19T9:22:50Z</time></trkpt>
<trkpt lat="48.45206100" lon="2.68784700"><ele></ele><time>2017-9-19T9:22:53Z</time></trkpt>
<trkpt lat="48.45206500" lon="2.68775200"><ele></ele><time>2017-9-19T9:22:56Z</time></trkpt>
<trkpt lat="48.45207800" lon="2.68766700"><ele></ele><time>2017-9-19T9:22:59Z</time></trkpt>
<trkpt lat="48.45208700" lon="2.68763800"><ele></ele><time>2017-9-19T9:23:2Z</time></trkpt>
<trkpt lat="48.45209300" lon="2.68761300"><ele></ele><time>2017-9-19T9:23:5Z</time></trkpt>
<trkpt lat="48.45209800" lon="2.68758700"><ele></ele><time>2017-9-19T9:23:8Z</time></trkpt>
<trkpt lat="48.45209300" lon="2.68755800"><ele></ele><time>2017-9-19T9:23:11Z</time></trkpt>
<trkpt lat="48.45208200" lon="2.68753300"><ele></ele><time>2017-9-19T9:23:14Z</time></trkpt>
<trkpt lat="48.45206500" lon="2.68750500"><ele></ele><time>2017-9-19T9:23:17Z</time></trkpt>
<trkpt lat="48.45204700" lon="2.68749000"><ele></ele><time>2017-9-19T9:23:20Z</time></trkpt>
<trkpt lat="48.45203100" lon="2.68747700"><ele></ele><time>2017-9-19T9:23:23Z</time></trkpt>
<trkpt lat="48.45201100" lon="2.68746700"><ele></ele><time>2017-9-19T9:23:26Z</time></trkpt>
<trkpt lat="48.45195800" lon="2.68744100"><ele></ele><time>2017-9-19T9:23:29Z</time></trkpt>
<trkpt lat="48.45192500" lon="2.68743300"><ele></ele><time>2017-9-19T9:23:32Z</time></trkpt>
<trkpt lat="48.45189000" lon="2.68744000"><ele></ele><time>2017-9-19T9:23:35Z</time></trkpt>
<trkpt lat="48.45186100" lon="2.68746200"><ele></ele><time>2017-9-19T9:23:38Z</time></trkpt>
<trkpt lat="48.45183300" lon="2.68747200"><ele></ele><time>2017-9-19T9:23:41Z</time></trkpt>
<trkpt lat="48.45181000" lon="2.68747000"><ele></ele><time>2017-9-19T9:23:44Z</time></trkpt>
<trkpt lat="48.45175700" lon="2.68747200"><ele></ele><time>2017-9-19T9:23:47Z</time></trkpt>
<trkpt lat="48.45173200" lon="2.68749000"><ele></ele><time>2017-9-19T9:23:50Z</time></trkpt>
<trkpt lat="48.45170300" lon="2.68750000"><ele></ele><time>2017-9-19T9:23:53Z</time></trkpt>
<trkpt lat="48.45167700" lon="2.68749200"><ele></ele><time>2017-9-19T9:23:56Z</time></trkpt>
<trkpt lat="48.45165200" lon="2.68747300"><ele></ele><time>2017-9-19T9:23:59Z</time></trkpt>
<trkpt lat="48.45163000" lon="2.68745300"><ele></ele><time>2017-9-19T9:24:2Z</time></trkpt>
<trkpt lat="48.45160300" lon="2.68743500"><ele></ele><time>2017-9-19T9:24:5Z</time></trkpt>
<trkpt lat="48.45153800" lon="2.68740700"><ele></ele><time>2017-9-19T9:24:8Z</time></trkpt>
<trkpt lat="48.45150000" lon="2.68738700"><ele></ele><time>2017-9-19T9:24:11Z</time></trkpt>
<trkpt lat="48.45146500" lon="2.68739000"><ele></ele><time>2017-9-19T9:24:14Z</time></trkpt>
<trkpt lat="48.45139700" lon="2.68738800"><ele></ele><time>2017-9-19T9:24:17Z</time></trkpt>
<trkpt lat="48.45133500" lon="2.68739800"><ele></ele><time>2017-9-19T9:24:20Z</time></trkpt>
<trkpt lat="48.45117800" lon="2.68741700"><ele></ele><time>2017-9-19T9:24:23Z</time></trkpt>
<trkpt lat="48.45105200" lon="2.68741700"><ele></ele><time>2017-9-19T9:24:26Z</time></trkpt>
<trkpt lat="48.45101500" lon="2.68740200"><ele></ele><time>2017-9-19T9:24:29Z</time></trkpt>
<trkpt lat="48.45097800" lon="2.68739300"><ele></ele><time>2017-9-19T9:24:32Z</time></trkpt>
<trkpt lat="48.45094000" lon="2.68739800"><ele></ele><time>2017-9-19T9:24:35Z</time></trkpt>
<trkpt lat="48.45064500" lon="2.68737700"><ele></ele><time>2017-9-19T9:24:38Z</time></trkpt>
<trkpt lat="48.45036800" lon="2.68733000"><ele></ele><time>2017-9-19T9:24:41Z</time></trkpt>
<trkpt lat="48.45028800" lon="2.68732500"><ele></ele><time>2017-9-19T9:24:44Z</time></trkpt>
<trkpt lat="48.45021200" lon="2.68732000"><ele></ele><time>2017-9-19T9:24:47Z</time></trkpt>
<trkpt lat="48.45018300" lon="2.68731300"><ele></ele><time>2017-9-19T9:24:50Z</time></trkpt>
<trkpt lat="48.45013000" lon="2.68728700"><ele></ele><time>2017-9-19T9:24:53Z</time></trkpt>
<trkpt lat="48.45011100" lon="2.68726700"><ele></ele><time>2017-9-19T9:24:56Z</time></trkpt>
<trkpt lat="48.45009700" lon="2.68725500"><ele></ele><time>2017-9-19T9:24:59Z</time></trkpt>
<trkpt lat="48.45007500" lon="2.68724700"><ele></ele><time>2017-9-19T9:25:2Z</time></trkpt>
<trkpt lat="48.45007200" lon="2.68724700"><ele></ele><time>2017-9-19T9:25:5Z</time></trkpt>
<trkpt lat="48.45007200" lon="2.68724800"><ele></ele><time>2017-9-19T9:25:8Z</time></trkpt>
<trkpt lat="48.45007200" lon="2.68725000"><ele></ele><time>2017-9-19T9:25:11Z</time></trkpt>
<trkpt lat="48.45007000" lon="2.68724800"><ele></ele><time>2017-9-19T9:25:14Z</time></trkpt>
<trkpt lat="48.45006700" lon="2.68724800"><ele></ele><time>2017-9-19T9:25:17Z</time></trkpt>
<trkpt lat="48.45006500" lon="2.68724800"><ele></ele><time>2017-9-19T9:25:20Z</time></trkpt>
<trkpt lat="48.45006300" lon="2.68724700"><ele></ele><time>2017-9-19T9:25:23Z</time></trkpt>
<trkpt lat="48.45005800" lon="2.68724000"><ele></ele><time>2017-9-19T9:25:26Z</time></trkpt>
<trkpt lat="48.45005000" lon="2.68722700"><ele></ele><time>2017-9-19T9:25:29Z</time></trkpt>
<trkpt lat="48.45000700" lon="2.68716500"><ele></ele><time>2017-9-19T9:25:32Z</time></trkpt>
<trkpt lat="48.44998200" lon="2.68714700"><ele></ele><time>2017-9-19T9:25:35Z</time></trkpt>
<trkpt lat="48.44995700" lon="2.68712200"><ele></ele><time>2017-9-19T9:25:38Z</time></trkpt>
<trkpt lat="48.44993200" lon="2.68708300"><ele></ele><time>2017-9-19T9:25:41Z</time></trkpt>
<trkpt lat="48.44987200" lon="2.68700300"><ele></ele><time>2017-9-19T9:25:44Z</time></trkpt>
<trkpt lat="48.44983500" lon="2.68698000"><ele></ele><time>2017-9-19T9:25:47Z</time></trkpt>
<trkpt lat="48.44980000" lon="2.68697200"><ele></ele><time>2017-9-19T9:25:50Z</time></trkpt>
<trkpt lat="48.44971700" lon="2.68697300"><ele></ele><time>2017-9-19T9:25:53Z</time></trkpt>
<trkpt lat="48.44968500" lon="2.68697700"><ele></ele><time>2017-9-19T9:25:56Z</time></trkpt>
<trkpt lat="48.44967300" lon="2.68696500"><ele></ele><time>2017-9-19T9:25:59Z</time></trkpt>
<trkpt lat="48.44966200" lon="2.68694800"><ele></ele><time>2017-9-19T9:26:2Z</time></trkpt>
<trkpt lat="48.44964800" lon="2.68692700"><ele></ele><time>2017-9-19T9:26:5Z</time></trkpt>
<trkpt lat="48.44961800" lon="2.68688800"><ele></ele><time>2017-9-19T9:26:8Z</time></trkpt>
<trkpt lat="48.44960300" lon="2.68686800"><ele></ele><time>2017-9-19T9:26:11Z</time></trkpt>
<trkpt lat="48.44959000" lon="2.68684500"><ele></ele><time>2017-9-19T9:26:14Z</time></trkpt>
<trkpt lat="48.44958200" lon="2.68682700"><ele></ele><time>2017-9-19T9:26:17Z</time></trkpt>
<trkpt lat="48.44957500" lon="2.68681700"><ele></ele><time>2017-9-19T9:26:20Z</time></trkpt>
<trkpt lat="48.44956700" lon="2.68680800"><ele></ele><time>2017-9-19T9:26:23Z</time></trkpt>
<trkpt lat="48.44955700" lon="2.68679800"><ele></ele><time>2017-9-19T9:26:26Z</time></trkpt>
<trkpt lat="48.44949200" lon="2.68672800"><ele></ele><time>2017-9-19T9:26:29Z</time></trkpt>
<trkpt lat="48.44946500" lon="2.68670800"><ele></ele><time>2017-9-19T9:26:32Z</time></trkpt>
<trkpt lat="48.44934500" lon="2.68660300"><ele></ele><time>2017-9-19T9:26:35Z</time></trkpt>
<trkpt lat="48.44932800" lon="2.68657800"><ele></ele><time>2017-9-19T9:26:38Z</time></trkpt>
<trkpt lat="48.44929000" lon="2.68653300"><ele></ele><time>2017-9-19T9:26:41Z</time></trkpt>
<trkpt lat="48.44927300" lon="2.68651700"><ele></ele><time>2017-9-19T9:26:44Z</time></trkpt>
<trkpt lat="48.44921500" lon="2.68644800"><ele></ele><time>2017-9-19T9:26:47Z</time></trkpt>
<trkpt lat="48.44919500" lon="2.68641500"><ele></ele><time>2017-9-19T9:26:50Z</time></trkpt>
<trkpt lat="48.44916500" lon="2.68637700"><ele></ele><time>2017-9-19T9:26:53Z</time></trkpt>
<trkpt lat="48.44911300" lon="2.68632200"><ele></ele><time>2017-9-19T9:26:56Z</time></trkpt>
<trkpt lat="48.44909200" lon="2.68629800"><ele></ele><time>2017-9-19T9:26:59Z</time></trkpt>
<trkpt lat="48.44904800" lon="2.68625700"><ele></ele><time>2017-9-19T9:27:2Z</time></trkpt>
<trkpt lat="48.44902800" lon="2.68624800"><ele></ele><time>2017-9-19T9:27:5Z</time></trkpt>
<trkpt lat="48.44898500" lon="2.68623300"><ele></ele><time>2017-9-19T9:27:8Z</time></trkpt>
<trkpt lat="48.44893500" lon="2.68620700"><ele></ele><time>2017-9-19T9:27:11Z</time></trkpt>
<trkpt lat="48.44892000" lon="2.68617800"><ele></ele><time>2017-9-19T9:27:14Z</time></trkpt>
<trkpt lat="48.44891200" lon="2.68614800"><ele></ele><time>2017-9-19T9:27:17Z</time></trkpt>
<trkpt lat="48.44890500" lon="2.68611800"><ele></ele><time>2017-9-19T9:27:20Z</time></trkpt>
<trkpt lat="48.44889800" lon="2.68608200"><ele></ele><time>2017-9-19T9:27:23Z</time></trkpt>
<trkpt lat="48.44888800" lon="2.68600200"><ele></ele><time>2017-9-19T9:27:26Z</time></trkpt>
<trkpt lat="48.44888700" lon="2.68596800"><ele></ele><time>2017-9-19T9:27:29Z</time></trkpt>
<trkpt lat="48.44889000" lon="2.68595000"><ele></ele><time>2017-9-19T9:27:32Z</time></trkpt>
<trkpt lat="48.44889000" lon="2.68592000"><ele></ele><time>2017-9-19T9:27:35Z</time></trkpt>
<trkpt lat="48.44889300" lon="2.68590300"><ele></ele><time>2017-9-19T9:27:38Z</time></trkpt>
<trkpt lat="48.44889800" lon="2.68588500"><ele></ele><time>2017-9-19T9:27:41Z</time></trkpt>
<trkpt lat="48.44889800" lon="2.68586700"><ele></ele><time>2017-9-19T9:27:44Z</time></trkpt>
<trkpt lat="48.44889600" lon="2.68580300"><ele></ele><time>2017-9-19T9:27:47Z</time></trkpt>
<trkpt lat="48.44890000" lon="2.68576300"><ele></ele><time>2017-9-19T9:27:50Z</time></trkpt>
<trkpt lat="48.44890000" lon="2.68574200"><ele></ele><time>2017-9-19T9:27:53Z</time></trkpt>
<trkpt lat="48.44890100" lon="2.68572700"><ele></ele><time>2017-9-19T9:27:56Z</time></trkpt>
<trkpt lat="48.44889600" lon="2.68571000"><ele></ele><time>2017-9-19T9:27:59Z</time></trkpt>
<trkpt lat="48.44888000" lon="2.68566800"><ele></ele><time>2017-9-19T9:28:2Z</time></trkpt>
<trkpt lat="48.44886800" lon="2.68564500"><ele></ele><time>2017-9-19T9:28:5Z</time></trkpt>
<trkpt lat="48.44885800" lon="2.68562800"><ele></ele><time>2017-9-19T9:28:8Z</time></trkpt>
<trkpt lat="48.44884700" lon="2.68560800"><ele></ele><time>2017-9-19T9:28:11Z</time></trkpt>
<trkpt lat="48.44883500" lon="2.68558800"><ele></ele><time>2017-9-19T9:28:14Z</time></trkpt>
<trkpt lat="48.44882700" lon="2.68557700"><ele></ele><time>2017-9-19T9:28:17Z</time></trkpt>
<trkpt lat="48.44881300" lon="2.68555700"><ele></ele><time>2017-9-19T9:28:20Z</time></trkpt>
<trkpt lat="48.44880200" lon="2.68554700"><ele></ele><time>2017-9-19T9:28:23Z</time></trkpt>
<trkpt lat="48.44878800" lon="2.68553500"><ele></ele><time>2017-9-19T9:28:26Z</time></trkpt>
<trkpt lat="48.44877700" lon="2.68552700"><ele></ele><time>2017-9-19T9:28:29Z</time></trkpt>
<trkpt lat="48.44876800" lon="2.68552000"><ele></ele><time>2017-9-19T9:28:32Z</time></trkpt>
<trkpt lat="48.44876600" lon="2.68551800"><ele></ele><time>2017-9-19T9:28:35Z</time></trkpt>
<trkpt lat="48.44876600" lon="2.68551700"><ele></ele><time>2017-9-19T9:28:38Z</time></trkpt>
<trkpt lat="48.44876500" lon="2.68551500"><ele></ele><time>2017-9-19T9:28:41Z</time></trkpt>
<trkpt lat="48.44876500" lon="2.68551200"><ele></ele><time>2017-9-19T9:28:44Z</time></trkpt>
<trkpt lat="48.44876300" lon="2.68551000"><ele></ele><time>2017-9-19T9:28:47Z</time></trkpt>
<trkpt lat="48.44876200" lon="2.68550700"><ele></ele><time>2017-9-19T9:28:50Z</time></trkpt>
<trkpt lat="48.44876000" lon="2.68550500"><ele></ele><time>2017-9-19T9:28:53Z</time></trkpt>
<trkpt lat="48.44876000" lon="2.68550200"><ele></ele><time>2017-9-19T9:28:56Z</time></trkpt>
<trkpt lat="48.44875700" lon="2.68550000"><ele></ele><time>2017-9-19T9:28:59Z</time></trkpt>
<trkpt lat="48.44875500" lon="2.68549700"><ele></ele><time>2017-9-19T9:29:2Z</time></trkpt>
<trkpt lat="48.44875300" lon="2.68549500"><ele></ele><time>2017-9-19T9:29:5Z</time></trkpt>
<trkpt lat="48.44875200" lon="2.68549300"><ele></ele><time>2017-9-19T9:29:8Z</time></trkpt>
<trkpt lat="48.44875000" lon="2.68549200"><ele></ele><time>2017-9-19T9:29:11Z</time></trkpt>
<trkpt lat="48.44874800" lon="2.68548800"><ele></ele><time>2017-9-19T9:29:14Z</time></trkpt>
<trkpt lat="48.44874700" lon="2.68548700"><ele></ele><time>2017-9-19T9:29:17Z</time></trkpt>
<trkpt lat="48.44874700" lon="2.68548500"><ele></ele><time>2017-9-19T9:29:20Z</time></trkpt>
<trkpt lat="48.44874500" lon="2.68548300"><ele></ele><time>2017-9-19T9:29:23Z</time></trkpt>
<trkpt lat="48.44874300" lon="2.68548300"><ele></ele><time>2017-9-19T9:29:26Z</time></trkpt>
<trkpt lat="48.44874300" lon="2.68548200"><ele></ele><time>2017-9-19T9:29:29Z</time></trkpt>
<trkpt lat="48.44874200" lon="2.68548200"><ele></ele><time>2017-9-19T9:29:32Z</time></trkpt>
<trkpt lat="48.44874000" lon="2.68548000"><ele></ele><time>2017-9-19T9:29:35Z</time></trkpt>
<trkpt lat="48.44874000" lon="2.68548000"><ele></ele><time>2017-9-19T9:29:38Z</time></trkpt>
<trkpt lat="48.44873800" lon="2.68548000"><ele></ele><time>2017-9-19T9:29:41Z</time></trkpt>
<trkpt lat="48.44873800" lon="2.68547800"><ele></ele><time>2017-9-19T9:29:44Z</time></trkpt>
<trkpt lat="48.44873800" lon="2.68547800"><ele></ele><time>2017-9-19T9:29:47Z</time></trkpt>
<trkpt lat="48.44873700" lon="2.68547800"><ele></ele><time>2017-9-19T9:29:50Z</time></trkpt>
<trkpt lat="48.44873700" lon="2.68548000"><ele></ele><time>2017-9-19T9:29:53Z</time></trkpt>
<trkpt lat="48.44873500" lon="2.68548000"><ele></ele><time>2017-9-19T9:29:56Z</time></trkpt>
<trkpt lat="48.44873500" lon="2.68548000"><ele></ele><time>2017-9-19T9:29:59Z</time></trkpt>
<trkpt lat="48.44873300" lon="2.68548200"><ele></ele><time>2017-9-19T9:30:2Z</time></trkpt>
<trkpt lat="48.44873300" lon="2.68547800"><ele></ele><time>2017-9-19T9:30:5Z</time></trkpt>
<trkpt lat="48.44873000" lon="2.68547500"><ele></ele><time>2017-9-19T9:30:8Z</time></trkpt>
<trkpt lat="48.44872600" lon="2.68546800"><ele></ele><time>2017-9-19T9:30:11Z</time></trkpt>
<trkpt lat="48.44871800" lon="2.68545600"><ele></ele><time>2017-9-19T9:30:14Z</time></trkpt>
<trkpt lat="48.44869800" lon="2.68543500"><ele></ele><time>2017-9-19T9:30:17Z</time></trkpt>
<trkpt lat="48.44868100" lon="2.68540700"><ele></ele><time>2017-9-19T9:30:20Z</time></trkpt>
<trkpt lat="48.44867500" lon="2.68539500"><ele></ele><time>2017-9-19T9:30:23Z</time></trkpt>
<trkpt lat="48.44867000" lon="2.68539500"><ele></ele><time>2017-9-19T9:30:26Z</time></trkpt>
<trkpt lat="48.44866500" lon="2.68539000"><ele></ele><time>2017-9-19T9:30:29Z</time></trkpt>
<trkpt lat="48.44866700" lon="2.68538800"><ele></ele><time>2017-9-19T9:30:32Z</time></trkpt>
<trkpt lat="48.44866500" lon="2.68538300"><ele></ele><time>2017-9-19T9:30:35Z</time></trkpt>
<trkpt lat="48.44866000" lon="2.68537700"><ele></ele><time>2017-9-19T9:30:38Z</time></trkpt>
<trkpt lat="48.44865700" lon="2.68537200"><ele></ele><time>2017-9-19T9:30:41Z</time></trkpt>
<trkpt lat="48.44864800" lon="2.68536500"><ele></ele><time>2017-9-19T9:30:44Z</time></trkpt>
<trkpt lat="48.44863700" lon="2.68535300"><ele></ele><time>2017-9-19T9:30:47Z</time></trkpt>
<trkpt lat="48.44861700" lon="2.68531200"><ele></ele><time>2017-9-19T9:30:50Z</time></trkpt>
<trkpt lat="48.44861700" lon="2.68530700"><ele></ele><time>2017-9-19T9:30:53Z</time></trkpt>
<trkpt lat="48.44861500" lon="2.68529700"><ele></ele><time>2017-9-19T9:30:56Z</time></trkpt>
<trkpt lat="48.44861000" lon="2.68528500"><ele></ele><time>2017-9-19T9:30:59Z</time></trkpt>
<trkpt lat="48.44860500" lon="2.68528000"><ele></ele><time>2017-9-19T9:31:2Z</time></trkpt>
<trkpt lat="48.44859700" lon="2.68527200"><ele></ele><time>2017-9-19T9:31:5Z</time></trkpt>
<trkpt lat="48.44859300" lon="2.68526500"><ele></ele><time>2017-9-19T9:31:8Z</time></trkpt>
<trkpt lat="48.44858800" lon="2.68525500"><ele></ele><time>2017-9-19T9:31:11Z</time></trkpt>
<trkpt lat="48.44858000" lon="2.68524800"><ele></ele><time>2017-9-19T9:31:14Z</time></trkpt>
<trkpt lat="48.44857500" lon="2.68524300"><ele></ele><time>2017-9-19T9:31:17Z</time></trkpt>
<trkpt lat="48.44856600" lon="2.68523700"><ele></ele><time>2017-9-19T9:31:20Z</time></trkpt>
<trkpt lat="48.44856300" lon="2.68523700"><ele></ele><time>2017-9-19T9:31:23Z</time></trkpt>
<trkpt lat="48.44854700" lon="2.68523200"><ele></ele><time>2017-9-19T9:31:26Z</time></trkpt>
<trkpt lat="48.44854200" lon="2.68523000"><ele></ele><time>2017-9-19T9:31:29Z</time></trkpt>
<trkpt lat="48.44853700" lon="2.68522700"><ele></ele><time>2017-9-19T9:31:32Z</time></trkpt>
<trkpt lat="48.44853200" lon="2.68522500"><ele></ele><time>2017-9-19T9:31:35Z</time></trkpt>
<trkpt lat="48.44850000" lon="2.68520800"><ele></ele><time>2017-9-19T9:31:38Z</time></trkpt>
<trkpt lat="48.44849500" lon="2.68520700"><ele></ele><time>2017-9-19T9:31:41Z</time></trkpt>
<trkpt lat="48.44848700" lon="2.68520300"><ele></ele><time>2017-9-19T9:31:44Z</time></trkpt>
<trkpt lat="48.44848000" lon="2.68520000"><ele></ele><time>2017-9-19T9:31:47Z</time></trkpt>
<trkpt lat="48.44847600" lon="2.68519800"><ele></ele><time>2017-9-19T9:31:50Z</time></trkpt>
<trkpt lat="48.44847500" lon="2.68519700"><ele></ele><time>2017-9-19T9:31:53Z</time></trkpt>
<trkpt lat="48.44847500" lon="2.68519700"><ele></ele><time>2017-9-19T9:31:56Z</time></trkpt>
<trkpt lat="48.44847500" lon="2.68519800"><ele></ele><time>2017-9-19T9:31:59Z</time></trkpt>
<trkpt lat="48.44847500" lon="2.68519800"><ele></ele><time>2017-9-19T9:32:2Z</time></trkpt>
<trkpt lat="48.44847500" lon="2.68519800"><ele></ele><time>2017-9-19T9:32:5Z</time></trkpt>
<trkpt lat="48.44847500" lon="2.68519800"><ele></ele><time>2017-9-19T9:32:8Z</time></trkpt>
<trkpt lat="48.44847500" lon="2.68519800"><ele></ele><time>2017-9-19T9:32:11Z</time></trkpt>
<trkpt lat="48.44847500" lon="2.68519800"><ele></ele><time>2017-9-19T9:32:14Z</time></trkpt>
<trkpt lat="48.44847500" lon="2.68519800"><ele></ele><time>2017-9-19T9:32:17Z</time></trkpt>
<trkpt lat="48.44847300" lon="2.68519500"><ele></ele><time>2017-9-19T9:32:20Z</time></trkpt>
<trkpt lat="48.44847100" lon="2.68519500"><ele></ele><time>2017-9-19T9:32:23Z</time></trkpt>
<trkpt lat="48.44847100" lon="2.68519300"><ele></ele><time>2017-9-19T9:32:26Z</time></trkpt>
<trkpt lat="48.44847000" lon="2.68519500"><ele></ele><time>2017-9-19T9:32:29Z</time></trkpt>
<trkpt lat="48.44847000" lon="2.68519300"><ele></ele><time>2017-9-19T9:32:32Z</time></trkpt>
<trkpt lat="48.44847000" lon="2.68519300"><ele></ele><time>2017-9-19T9:32:35Z</time></trkpt>
<trkpt lat="48.44847000" lon="2.68519300"><ele></ele><time>2017-9-19T9:32:38Z</time></trkpt>
<trkpt lat="48.44847000" lon="2.68519300"><ele></ele><time>2017-9-19T9:32:41Z</time></trkpt>
<trkpt lat="48.44847000" lon="2.68519300"><ele></ele><time>2017-9-19T9:32:44Z</time></trkpt>
<trkpt lat="48.44847000" lon="2.68519300"><ele></ele><time>2017-9-19T9:32:47Z</time></trkpt>
<trkpt lat="48.44847000" lon="2.68519300"><ele></ele><time>2017-9-19T9:32:50Z</time></trkpt>
<trkpt lat="48.44847000" lon="2.68519300"><ele></ele><time>2017-9-19T9:32:53Z</time></trkpt>
<trkpt lat="48.44846700" lon="2.68518800"><ele></ele><time>2017-9-19T9:32:56Z</time></trkpt>
<trkpt lat="48.44845700" lon="2.68516700"><ele></ele><time>2017-9-19T9:32:59Z</time></trkpt>
<trkpt lat="48.44844500" lon="2.68514300"><ele></ele><time>2017-9-19T9:33:2Z</time></trkpt>
<trkpt lat="48.44843500" lon="2.68513000"><ele></ele><time>2017-9-19T9:33:5Z</time></trkpt>
<trkpt lat="48.44839300" lon="2.68507800"><ele></ele><time>2017-9-19T9:33:8Z</time></trkpt>
<trkpt lat="48.44838500" lon="2.68507000"><ele></ele><time>2017-9-19T9:33:11Z</time></trkpt>
<trkpt lat="48.44837700" lon="2.68506000"><ele></ele><time>2017-9-19T9:33:14Z</time></trkpt>
<trkpt lat="48.44835800" lon="2.68502700"><ele></ele><time>2017-9-19T9:33:17Z</time></trkpt>
<trkpt lat="48.44835500" lon="2.68501200"><ele></ele><time>2017-9-19T9:33:20Z</time></trkpt>
<trkpt lat="48.44834800" lon="2.68499300"><ele></ele><time>2017-9-19T9:33:23Z</time></trkpt>
<trkpt lat="48.44834000" lon="2.68497500"><ele></ele><time>2017-9-19T9:33:26Z</time></trkpt>
<trkpt lat="48.44833000" lon="2.68496200"><ele></ele><time>2017-9-19T9:33:29Z</time></trkpt>
<trkpt lat="48.44831700" lon="2.68494300"><ele></ele><time>2017-9-19T9:33:32Z</time></trkpt>
<trkpt lat="48.44830700" lon="2.68493700"><ele></ele><time>2017-9-19T9:33:35Z</time></trkpt>
<trkpt lat="48.44829600" lon="2.68493000"><ele></ele><time>2017-9-19T9:33:38Z</time></trkpt>
<trkpt lat="48.44827300" lon="2.68491500"><ele></ele><time>2017-9-19T9:33:41Z</time></trkpt>
<trkpt lat="48.44826200" lon="2.68491000"><ele></ele><time>2017-9-19T9:33:44Z</time></trkpt>
<trkpt lat="48.44825000" lon="2.68490500"><ele></ele><time>2017-9-19T9:33:47Z</time></trkpt>
<trkpt lat="48.44823800" lon="2.68490200"><ele></ele><time>2017-9-19T9:33:50Z</time></trkpt>
<trkpt lat="48.44822800" lon="2.68490300"><ele></ele><time>2017-9-19T9:33:53Z</time></trkpt>
<trkpt lat="48.44821800" lon="2.68490700"><ele></ele><time>2017-9-19T9:33:56Z</time></trkpt>
<trkpt lat="48.44820000" lon="2.68490500"><ele></ele><time>2017-9-19T9:33:59Z</time></trkpt>
<trkpt lat="48.44819300" lon="2.68489700"><ele></ele><time>2017-9-19T9:34:2Z</time></trkpt>
<trkpt lat="48.44818600" lon="2.68489000"><ele></ele><time>2017-9-19T9:34:5Z</time></trkpt>
<trkpt lat="48.44817700" lon="2.68488700"><ele></ele><time>2017-9-19T9:34:8Z</time></trkpt>
<trkpt lat="48.44816700" lon="2.68488300"><ele></ele><time>2017-9-19T9:34:11Z</time></trkpt>
<trkpt lat="48.44815500" lon="2.68488100"><ele></ele><time>2017-9-19T9:34:14Z</time></trkpt>
<trkpt lat="48.44798300" lon="2.68483800"><ele></ele><time>2017-9-19T9:34:17Z</time></trkpt>
<trkpt lat="48.44797000" lon="2.68483200"><ele></ele><time>2017-9-19T9:34:20Z</time></trkpt>
<trkpt lat="48.44794700" lon="2.68482700"><ele></ele><time>2017-9-19T9:34:23Z</time></trkpt>
<trkpt lat="48.44792100" lon="2.68481700"><ele></ele><time>2017-9-19T9:34:26Z</time></trkpt>
<trkpt lat="48.44782200" lon="2.68476500"><ele></ele><time>2017-9-19T9:34:29Z</time></trkpt>
<trkpt lat="48.44781200" lon="2.68475700"><ele></ele><time>2017-9-19T9:34:32Z</time></trkpt>
<trkpt lat="48.44774300" lon="2.68470500"><ele></ele><time>2017-9-19T9:34:35Z</time></trkpt>
<trkpt lat="48.44763300" lon="2.68458700"><ele></ele><time>2017-9-19T9:34:38Z</time></trkpt>
<trkpt lat="48.44759300" lon="2.68455200"><ele></ele><time>2017-9-19T9:34:41Z</time></trkpt>
<trkpt lat="48.44758300" lon="2.68453300"><ele></ele><time>2017-9-19T9:34:44Z</time></trkpt>
<trkpt lat="48.44756500" lon="2.68449200"><ele></ele><time>2017-9-19T9:34:47Z</time></trkpt>
<trkpt lat="48.44754300" lon="2.68444200"><ele></ele><time>2017-9-19T9:34:50Z</time></trkpt>
<trkpt lat="48.44750300" lon="2.68434500"><ele></ele><time>2017-9-19T9:34:53Z</time></trkpt>
<trkpt lat="48.44750000" lon="2.68432800"><ele></ele><time>2017-9-19T9:34:56Z</time></trkpt>
<trkpt lat="48.44749300" lon="2.68429300"><ele></ele><time>2017-9-19T9:34:59Z</time></trkpt>
<trkpt lat="48.44748800" lon="2.68427700"><ele></ele><time>2017-9-19T9:35:2Z</time></trkpt>
<trkpt lat="48.44747700" lon="2.68425200"><ele></ele><time>2017-9-19T9:35:5Z</time></trkpt>
<trkpt lat="48.44744500" lon="2.68417200"><ele></ele><time>2017-9-19T9:35:8Z</time></trkpt>
<trkpt lat="48.44743700" lon="2.68414700"><ele></ele><time>2017-9-19T9:35:11Z</time></trkpt>
<trkpt lat="48.44743000" lon="2.68411800"><ele></ele><time>2017-9-19T9:35:14Z</time></trkpt>
<trkpt lat="48.44741700" lon="2.68405700"><ele></ele><time>2017-9-19T9:35:17Z</time></trkpt>
<trkpt lat="48.44739800" lon="2.68401300"><ele></ele><time>2017-9-19T9:35:20Z</time></trkpt>
<trkpt lat="48.44739500" lon="2.68399700"><ele></ele><time>2017-9-19T9:35:23Z</time></trkpt>
<trkpt lat="48.44739500" lon="2.68398000"><ele></ele><time>2017-9-19T9:35:26Z</time></trkpt>
<trkpt lat="48.44739300" lon="2.68396800"><ele></ele><time>2017-9-19T9:35:29Z</time></trkpt>
<trkpt lat="48.44739000" lon="2.68395500"><ele></ele><time>2017-9-19T9:35:32Z</time></trkpt>
<trkpt lat="48.44737800" lon="2.68392500"><ele></ele><time>2017-9-19T9:35:35Z</time></trkpt>
<trkpt lat="48.44733800" lon="2.68381300"><ele></ele><time>2017-9-19T9:35:38Z</time></trkpt>
<trkpt lat="48.44733300" lon="2.68379200"><ele></ele><time>2017-9-19T9:35:41Z</time></trkpt>
<trkpt lat="48.44732500" lon="2.68377000"><ele></ele><time>2017-9-19T9:35:44Z</time></trkpt>
<trkpt lat="48.44727500" lon="2.68363000"><ele></ele><time>2017-9-19T9:35:47Z</time></trkpt>
<trkpt lat="48.44726600" lon="2.68358700"><ele></ele><time>2017-9-19T9:35:50Z</time></trkpt>
<trkpt lat="48.44726000" lon="2.68356300"><ele></ele><time>2017-9-19T9:35:53Z</time></trkpt>
<trkpt lat="48.44724100" lon="2.68347700"><ele></ele><time>2017-9-19T9:35:56Z</time></trkpt>
<trkpt lat="48.44724000" lon="2.68345700"><ele></ele><time>2017-9-19T9:35:59Z</time></trkpt>
<trkpt lat="48.44723300" lon="2.68342000"><ele></ele><time>2017-9-19T9:36:2Z</time></trkpt>
<trkpt lat="48.44718800" lon="2.68322700"><ele></ele><time>2017-9-19T9:36:5Z</time></trkpt>
<trkpt lat="48.44717000" lon="2.68312000"><ele></ele><time>2017-9-19T9:36:8Z</time></trkpt>
<trkpt lat="48.44715800" lon="2.68306000"><ele></ele><time>2017-9-19T9:36:11Z</time></trkpt>
<trkpt lat="48.44712300" lon="2.68287500"><ele></ele><time>2017-9-19T9:36:14Z</time></trkpt>
<trkpt lat="48.44712000" lon="2.68285000"><ele></ele><time>2017-9-19T9:36:17Z</time></trkpt>
<trkpt lat="48.44706100" lon="2.68254000"><ele></ele><time>2017-9-19T9:36:20Z</time></trkpt>
<trkpt lat="48.44705300" lon="2.68251200"><ele></ele><time>2017-9-19T9:36:23Z</time></trkpt>
<trkpt lat="48.44701200" lon="2.68237800"><ele></ele><time>2017-9-19T9:36:26Z</time></trkpt>
<trkpt lat="48.44697600" lon="2.68228300"><ele></ele><time>2017-9-19T9:36:29Z</time></trkpt>
<trkpt lat="48.44696300" lon="2.68224800"><ele></ele><time>2017-9-19T9:36:32Z</time></trkpt>
<trkpt lat="48.44693300" lon="2.68218800"><ele></ele><time>2017-9-19T9:36:35Z</time></trkpt>
<trkpt lat="48.44686500" lon="2.68205200"><ele></ele><time>2017-9-19T9:36:38Z</time></trkpt>
<trkpt lat="48.44684500" lon="2.68202200"><ele></ele><time>2017-9-19T9:36:41Z</time></trkpt>
<trkpt lat="48.44681000" lon="2.68195200"><ele></ele><time>2017-9-19T9:36:44Z</time></trkpt>
<trkpt lat="48.44677600" lon="2.68188700"><ele></ele><time>2017-9-19T9:36:47Z</time></trkpt>
<trkpt lat="48.44675700" lon="2.68185700"><ele></ele><time>2017-9-19T9:36:50Z</time></trkpt>
<trkpt lat="48.44634600" lon="2.68115500"><ele></ele><time>2017-9-19T9:36:53Z</time></trkpt>
<trkpt lat="48.44587500" lon="2.68031300"><ele></ele><time>2017-9-19T9:36:56Z</time></trkpt>
<trkpt lat="48.44582500" lon="2.68024200"><ele></ele><time>2017-9-19T9:36:59Z</time></trkpt>
<trkpt lat="48.44576800" lon="2.68016000"><ele></ele><time>2017-9-19T9:37:2Z</time></trkpt>
<trkpt lat="48.44576500" lon="2.68015700"><ele></ele><time>2017-9-19T9:37:5Z</time></trkpt>
<trkpt lat="48.44576300" lon="2.68015500"><ele></ele><time>2017-9-19T9:37:8Z</time></trkpt>
<trkpt lat="48.44576200" lon="2.68015200"><ele></ele><time>2017-9-19T9:37:11Z</time></trkpt>
<trkpt lat="48.44576000" lon="2.68015000"><ele></ele><time>2017-9-19T9:37:14Z</time></trkpt>
<trkpt lat="48.44575800" lon="2.68014800"><ele></ele><time>2017-9-19T9:37:17Z</time></trkpt>
<trkpt lat="48.44575800" lon="2.68014800"><ele></ele><time>2017-9-19T9:37:20Z</time></trkpt>
<trkpt lat="48.44575700" lon="2.68014800"><ele></ele><time>2017-9-19T9:37:23Z</time></trkpt>
<trkpt lat="48.44575700" lon="2.68014800"><ele></ele><time>2017-9-19T9:37:26Z</time></trkpt>
<trkpt lat="48.44575500" lon="2.68014800"><ele></ele><time>2017-9-19T9:37:29Z</time></trkpt>
<trkpt lat="48.44575500" lon="2.68014700"><ele></ele><time>2017-9-19T9:37:32Z</time></trkpt>
<trkpt lat="48.44575200" lon="2.68014500"><ele></ele><time>2017-9-19T9:37:35Z</time></trkpt>
<trkpt lat="48.44575000" lon="2.68014300"><ele></ele><time>2017-9-19T9:37:38Z</time></trkpt>
<trkpt lat="48.44574800" lon="2.68014200"><ele></ele><time>2017-9-19T9:37:41Z</time></trkpt>
<trkpt lat="48.44574600" lon="2.68014000"><ele></ele><time>2017-9-19T9:37:44Z</time></trkpt>
<trkpt lat="48.44574500" lon="2.68014000"><ele></ele><time>2017-9-19T9:37:47Z</time></trkpt>
<trkpt lat="48.44574500" lon="2.68013800"><ele></ele><time>2017-9-19T9:37:50Z</time></trkpt>
<trkpt lat="48.44574300" lon="2.68013700"><ele></ele><time>2017-9-19T9:37:53Z</time></trkpt>
<trkpt lat="48.44574100" lon="2.68013700"><ele></ele><time>2017-9-19T9:37:56Z</time></trkpt>
<trkpt lat="48.44574000" lon="2.68013300"><ele></ele><time>2017-9-19T9:37:59Z</time></trkpt>
<trkpt lat="48.44573700" lon="2.68013200"><ele></ele><time>2017-9-19T9:38:2Z</time></trkpt>
<trkpt lat="48.44573200" lon="2.68012500"><ele></ele><time>2017-9-19T9:38:5Z</time></trkpt>
<trkpt lat="48.44572700" lon="2.68012200"><ele></ele><time>2017-9-19T9:38:8Z</time></trkpt>
<trkpt lat="48.44572500" lon="2.68012000"><ele></ele><time>2017-9-19T9:38:11Z</time></trkpt>
<trkpt lat="48.44571800" lon="2.68011800"><ele></ele><time>2017-9-19T9:38:14Z</time></trkpt>
<trkpt lat="48.44571200" lon="2.68011700"><ele></ele><time>2017-9-19T9:38:17Z</time></trkpt>
<trkpt lat="48.44570800" lon="2.68011700"><ele></ele><time>2017-9-19T9:38:20Z</time></trkpt>
<trkpt lat="48.44570200" lon="2.68011700"><ele></ele><time>2017-9-19T9:38:23Z</time></trkpt>
<trkpt lat="48.44569700" lon="2.68011500"><ele></ele><time>2017-9-19T9:38:26Z</time></trkpt>
<trkpt lat="48.44569500" lon="2.68011700"><ele></ele><time>2017-9-19T9:38:29Z</time></trkpt>
<trkpt lat="48.44569200" lon="2.68011000"><ele></ele><time>2017-9-19T9:38:32Z</time></trkpt>
<trkpt lat="48.44568300" lon="2.68010200"><ele></ele><time>2017-9-19T9:38:35Z</time></trkpt>
<trkpt lat="48.44567800" lon="2.68009200"><ele></ele><time>2017-9-19T9:38:38Z</time></trkpt>
<trkpt lat="48.44567500" lon="2.68008300"><ele></ele><time>2017-9-19T9:38:41Z</time></trkpt>
<trkpt lat="48.44567600" lon="2.68008500"><ele></ele><time>2017-9-19T9:38:44Z</time></trkpt>
<trkpt lat="48.44568000" lon="2.68008700"><ele></ele><time>2017-9-19T9:38:47Z</time></trkpt>
<trkpt lat="48.44568300" lon="2.68008800"><ele></ele><time>2017-9-19T9:38:50Z</time></trkpt>
<trkpt lat="48.44568700" lon="2.68009000"><ele></ele><time>2017-9-19T9:38:53Z</time></trkpt>
<trkpt lat="48.44569000" lon="2.68009300"><ele></ele><time>2017-9-19T9:38:56Z</time></trkpt>
<trkpt lat="48.44569300" lon="2.68009500"><ele></ele><time>2017-9-19T9:38:59Z</time></trkpt>
<trkpt lat="48.44569200" lon="2.68009700"><ele></ele><time>2017-9-19T9:39:2Z</time></trkpt>
<trkpt lat="48.44569000" lon="2.68009800"><ele></ele><time>2017-9-19T9:39:5Z</time></trkpt>
<trkpt lat="48.44568800" lon="2.68009800"><ele></ele><time>2017-9-19T9:39:8Z</time></trkpt>
<trkpt lat="48.44568800" lon="2.68010000"><ele></ele><time>2017-9-19T9:39:11Z</time></trkpt>
<trkpt lat="48.44568500" lon="2.68009800"><ele></ele><time>2017-9-19T9:39:14Z</time></trkpt>
<trkpt lat="48.44568500" lon="2.68009800"><ele></ele><time>2017-9-19T9:39:17Z</time></trkpt>
<trkpt lat="48.44568500" lon="2.68010000"><ele></ele><time>2017-9-19T9:39:20Z</time></trkpt>
<trkpt lat="48.44568700" lon="2.68010000"><ele></ele><time>2017-9-19T9:39:23Z</time></trkpt>
<trkpt lat="48.44569300" lon="2.68010500"><ele></ele><time>2017-9-19T9:39:26Z</time></trkpt>
<trkpt lat="48.44569300" lon="2.68010500"><ele></ele><time>2017-9-19T9:39:29Z</time></trkpt>
<trkpt lat="48.44569300" lon="2.68010500"><ele></ele><time>2017-9-19T9:39:32Z</time></trkpt>
<trkpt lat="48.44569300" lon="2.68010500"><ele></ele><time>2017-9-19T9:39:35Z</time></trkpt>
<trkpt lat="48.44569300" lon="2.68010300"><ele></ele><time>2017-9-19T9:39:38Z</time></trkpt>
<trkpt lat="48.44569300" lon="2.68010300"><ele></ele><time>2017-9-19T9:39:41Z</time></trkpt>
<trkpt lat="48.44569500" lon="2.68010500"><ele></ele><time>2017-9-19T9:39:44Z</time></trkpt>
<trkpt lat="48.44569500" lon="2.68010500"><ele></ele><time>2017-9-19T9:39:47Z</time></trkpt>
<trkpt lat="48.44569800" lon="2.68010500"><ele></ele><time>2017-9-19T9:39:50Z</time></trkpt>
<trkpt lat="48.44570000" lon="2.68010700"><ele></ele><time>2017-9-19T9:39:53Z</time></trkpt>
<trkpt lat="48.44570300" lon="2.68011200"><ele></ele><time>2017-9-19T9:39:56Z</time></trkpt>
<trkpt lat="48.44570500" lon="2.68011200"><ele></ele><time>2017-9-19T9:39:59Z</time></trkpt>
<trkpt lat="48.44570300" lon="2.68011200"><ele></ele><time>2017-9-19T9:40:2Z</time></trkpt>
<trkpt lat="48.44570000" lon="2.68011200"><ele></ele><time>2017-9-19T9:40:5Z</time></trkpt>
<trkpt lat="48.44569200" lon="2.68011200"><ele></ele><time>2017-9-19T9:40:8Z</time></trkpt>
<trkpt lat="48.44569000" lon="2.68012000"><ele></ele><time>2017-9-19T9:40:11Z</time></trkpt>
<trkpt lat="48.44569700" lon="2.68013000"><ele></ele><time>2017-9-19T9:40:14Z</time></trkpt>
<trkpt lat="48.44570700" lon="2.68013700"><ele></ele><time>2017-9-19T9:40:17Z</time></trkpt>
<trkpt lat="48.44572000" lon="2.68014500"><ele></ele><time>2017-9-19T9:40:20Z</time></trkpt>
<trkpt lat="48.44573200" lon="2.68015300"><ele></ele><time>2017-9-19T9:40:23Z</time></trkpt>
<trkpt lat="48.44574500" lon="2.68015800"><ele></ele><time>2017-9-19T9:40:26Z</time></trkpt>
<trkpt lat="48.44575800" lon="2.68016700"><ele></ele><time>2017-9-19T9:40:29Z</time></trkpt>
<trkpt lat="48.44577000" lon="2.68016500"><ele></ele><time>2017-9-19T9:40:32Z</time></trkpt>
<trkpt lat="48.44577800" lon="2.68016200"><ele></ele><time>2017-9-19T9:40:35Z</time></trkpt>
<trkpt lat="48.44578500" lon="2.68016500"><ele></ele><time>2017-9-19T9:40:38Z</time></trkpt>
<trkpt lat="48.44579100" lon="2.68016800"><ele></ele><time>2017-9-19T9:40:41Z</time></trkpt>
<trkpt lat="48.44580000" lon="2.68016700"><ele></ele><time>2017-9-19T9:40:44Z</time></trkpt>
<trkpt lat="48.44581000" lon="2.68016000"><ele></ele><time>2017-9-19T9:40:47Z</time></trkpt>
<trkpt lat="48.44582000" lon="2.68014700"><ele></ele><time>2017-9-19T9:40:50Z</time></trkpt>
<trkpt lat="48.44583300" lon="2.68012500"><ele></ele><time>2017-9-19T9:40:53Z</time></trkpt>
<trkpt lat="48.44584700" lon="2.68010000"><ele></ele><time>2017-9-19T9:40:56Z</time></trkpt>
<trkpt lat="48.44585800" lon="2.68007500"><ele></ele><time>2017-9-19T9:40:59Z</time></trkpt>
<trkpt lat="48.44586700" lon="2.68004800"><ele></ele><time>2017-9-19T9:41:2Z</time></trkpt>
<trkpt lat="48.44586800" lon="2.68001700"><ele></ele><time>2017-9-19T9:41:5Z</time></trkpt>
<trkpt lat="48.44585600" lon="2.67998000"><ele></ele><time>2017-9-19T9:41:8Z</time></trkpt>
<trkpt lat="48.44582700" lon="2.67986800"><ele></ele><time>2017-9-19T9:41:11Z</time></trkpt>
<trkpt lat="48.44582000" lon="2.67977200"><ele></ele><time>2017-9-19T9:41:14Z</time></trkpt>
<trkpt lat="48.44582500" lon="2.67974000"><ele></ele><time>2017-9-19T9:41:17Z</time></trkpt>
<trkpt lat="48.44582800" lon="2.67970700"><ele></ele><time>2017-9-19T9:41:20Z</time></trkpt>
<trkpt lat="48.44582700" lon="2.67967200"><ele></ele><time>2017-9-19T9:41:23Z</time></trkpt>
<trkpt lat="48.44583700" lon="2.67957300"><ele></ele><time>2017-9-19T9:41:26Z</time></trkpt>
<trkpt lat="48.44584000" lon="2.67952300"><ele></ele><time>2017-9-19T9:41:29Z</time></trkpt>
<trkpt lat="48.44583800" lon="2.67945700"><ele></ele><time>2017-9-19T9:41:32Z</time></trkpt>
<trkpt lat="48.44582700" lon="2.67940000"><ele></ele><time>2017-9-19T9:41:35Z</time></trkpt>
<trkpt lat="48.44577800" lon="2.67921300"><ele></ele><time>2017-9-19T9:41:38Z</time></trkpt>
<trkpt lat="48.44577000" lon="2.67915200"><ele></ele><time>2017-9-19T9:41:41Z</time></trkpt>
<trkpt lat="48.44577100" lon="2.67913500"><ele></ele><time>2017-9-19T9:41:44Z</time></trkpt>
<trkpt lat="48.44577700" lon="2.67911700"><ele></ele><time>2017-9-19T9:41:47Z</time></trkpt>
<trkpt lat="48.44576300" lon="2.67907000"><ele></ele><time>2017-9-19T9:41:50Z</time></trkpt>
<trkpt lat="48.44576000" lon="2.67906300"><ele></ele><time>2017-9-19T9:41:53Z</time></trkpt>
<trkpt lat="48.44576000" lon="2.67906300"><ele></ele><time>2017-9-19T9:41:56Z</time></trkpt>
<trkpt lat="48.44576200" lon="2.67906200"><ele></ele><time>2017-9-19T9:41:59Z</time></trkpt>
<trkpt lat="48.44576200" lon="2.67905800"><ele></ele><time>2017-9-19T9:42:2Z</time></trkpt>
<trkpt lat="48.44576200" lon="2.67905800"><ele></ele><time>2017-9-19T9:42:5Z</time></trkpt>
<trkpt lat="48.44576200" lon="2.67905000"><ele></ele><time>2017-9-19T9:42:8Z</time></trkpt>
<trkpt lat="48.44576000" lon="2.67904000"><ele></ele><time>2017-9-19T9:42:11Z</time></trkpt>
<trkpt lat="48.44575800" lon="2.67903200"><ele></ele><time>2017-9-19T9:42:14Z</time></trkpt>
<trkpt lat="48.44575700" lon="2.67902300"><ele></ele><time>2017-9-19T9:42:17Z</time></trkpt>
<trkpt lat="48.44575800" lon="2.67901700"><ele></ele><time>2017-9-19T9:42:20Z</time></trkpt>
<trkpt lat="48.44575800" lon="2.67901000"><ele></ele><time>2017-9-19T9:42:23Z</time></trkpt>
<trkpt lat="48.44575800" lon="2.67900500"><ele></ele><time>2017-9-19T9:42:26Z</time></trkpt>
<trkpt lat="48.44575800" lon="2.67900200"><ele></ele><time>2017-9-19T9:42:29Z</time></trkpt>
<trkpt lat="48.44576000" lon="2.67899700"><ele></ele><time>2017-9-19T9:42:32Z</time></trkpt>
<trkpt lat="48.44575800" lon="2.67899000"><ele></ele><time>2017-9-19T9:42:35Z</time></trkpt>
<trkpt lat="48.44573500" lon="2.67891200"><ele></ele><time>2017-9-19T9:42:38Z</time></trkpt>
<trkpt lat="48.44571500" lon="2.67888000"><ele></ele><time>2017-9-19T9:42:41Z</time></trkpt>
<trkpt lat="48.44562000" lon="2.67870500"><ele></ele><time>2017-9-19T9:42:44Z</time></trkpt>
<trkpt lat="48.44560700" lon="2.67867700"><ele></ele><time>2017-9-19T9:42:47Z</time></trkpt>
<trkpt lat="48.44560500" lon="2.67864300"><ele></ele><time>2017-9-19T9:42:50Z</time></trkpt>
<trkpt lat="48.44560800" lon="2.67860700"><ele></ele><time>2017-9-19T9:42:53Z</time></trkpt>
<trkpt lat="48.44561200" lon="2.67856000"><ele></ele><time>2017-9-19T9:42:56Z</time></trkpt>
<trkpt lat="48.44560500" lon="2.67852000"><ele></ele><time>2017-9-19T9:42:59Z</time></trkpt>
<trkpt lat="48.44558800" lon="2.67848500"><ele></ele><time>2017-9-19T9:43:2Z</time></trkpt>
<trkpt lat="48.44557500" lon="2.67845700"><ele></ele><time>2017-9-19T9:43:5Z</time></trkpt>
<trkpt lat="48.44557100" lon="2.67842000"><ele></ele><time>2017-9-19T9:43:8Z</time></trkpt>
<trkpt lat="48.44557700" lon="2.67837700"><ele></ele><time>2017-9-19T9:43:11Z</time></trkpt>
<trkpt lat="48.44559100" lon="2.67831500"><ele></ele><time>2017-9-19T9:43:14Z</time></trkpt>
<trkpt lat="48.44559800" lon="2.67829800"><ele></ele><time>2017-9-19T9:43:17Z</time></trkpt>
<trkpt lat="48.44560000" lon="2.67825800"><ele></ele><time>2017-9-19T9:43:20Z</time></trkpt>
<trkpt lat="48.44561500" lon="2.67807700"><ele></ele><time>2017-9-19T9:43:23Z</time></trkpt>
<trkpt lat="48.44563100" lon="2.67796800"><ele></ele><time>2017-9-19T9:43:26Z</time></trkpt>
<trkpt lat="48.44564200" lon="2.67788200"><ele></ele><time>2017-9-19T9:43:29Z</time></trkpt>
<trkpt lat="48.44564000" lon="2.67786000"><ele></ele><time>2017-9-19T9:43:32Z</time></trkpt>
<trkpt lat="48.44562000" lon="2.67775800"><ele></ele><time>2017-9-19T9:43:35Z</time></trkpt>
<trkpt lat="48.44559000" lon="2.67765200"><ele></ele><time>2017-9-19T9:43:38Z</time></trkpt>
<trkpt lat="48.44557100" lon="2.67764300"><ele></ele><time>2017-9-19T9:43:41Z</time></trkpt>
<trkpt lat="48.44555500" lon="2.67764300"><ele></ele><time>2017-9-19T9:43:44Z</time></trkpt>
<trkpt lat="48.44551300" lon="2.67763700"><ele></ele><time>2017-9-19T9:43:47Z</time></trkpt>
<trkpt lat="48.44550200" lon="2.67763500"><ele></ele><time>2017-9-19T9:43:50Z</time></trkpt>
<trkpt lat="48.44549300" lon="2.67763700"><ele></ele><time>2017-9-19T9:43:53Z</time></trkpt>
<trkpt lat="48.44548100" lon="2.67764200"><ele></ele><time>2017-9-19T9:43:56Z</time></trkpt>
<trkpt lat="48.44545800" lon="2.67765200"><ele></ele><time>2017-9-19T9:43:59Z</time></trkpt>
<trkpt lat="48.44544500" lon="2.67766500"><ele></ele><time>2017-9-19T9:44:2Z</time></trkpt>
<trkpt lat="48.44540500" lon="2.67769300"><ele></ele><time>2017-9-19T9:44:5Z</time></trkpt>
<trkpt lat="48.44539000" lon="2.67769700"><ele></ele><time>2017-9-19T9:44:8Z</time></trkpt>
<trkpt lat="48.44533200" lon="2.67769700"><ele></ele><time>2017-9-19T9:44:11Z</time></trkpt>
<trkpt lat="48.44532000" lon="2.67769700"><ele></ele><time>2017-9-19T9:44:14Z</time></trkpt>
<trkpt lat="48.44531000" lon="2.67769300"><ele></ele><time>2017-9-19T9:44:17Z</time></trkpt>
<trkpt lat="48.44528500" lon="2.67768200"><ele></ele><time>2017-9-19T9:44:20Z</time></trkpt>
<trkpt lat="48.44516300" lon="2.67761700"><ele></ele><time>2017-9-19T9:44:23Z</time></trkpt>
<trkpt lat="48.44513600" lon="2.67761300"><ele></ele><time>2017-9-19T9:44:26Z</time></trkpt>
<trkpt lat="48.44502200" lon="2.67759700"><ele></ele><time>2017-9-19T9:44:29Z</time></trkpt>
<trkpt lat="48.44499300" lon="2.67760300"><ele></ele><time>2017-9-19T9:44:32Z</time></trkpt>
<trkpt lat="48.44489700" lon="2.67760500"><ele></ele><time>2017-9-19T9:44:35Z</time></trkpt>
<trkpt lat="48.44486500" lon="2.67759700"><ele></ele><time>2017-9-19T9:44:38Z</time></trkpt>
<trkpt lat="48.44477800" lon="2.67756300"><ele></ele><time>2017-9-19T9:44:41Z</time></trkpt>
<trkpt lat="48.44477200" lon="2.67756300"><ele></ele><time>2017-9-19T9:44:44Z</time></trkpt>
<trkpt lat="48.44476800" lon="2.67755800"><ele></ele><time>2017-9-19T9:44:47Z</time></trkpt>
<trkpt lat="48.44475600" lon="2.67754200"><ele></ele><time>2017-9-19T9:44:50Z</time></trkpt>
<trkpt lat="48.44474700" lon="2.67752800"><ele></ele><time>2017-9-19T9:44:53Z</time></trkpt>
<trkpt lat="48.44473300" lon="2.67749800"><ele></ele><time>2017-9-19T9:44:56Z</time></trkpt>
<trkpt lat="48.44472800" lon="2.67748700"><ele></ele><time>2017-9-19T9:44:59Z</time></trkpt>
<trkpt lat="48.44473000" lon="2.67748700"><ele></ele><time>2017-9-19T9:45:2Z</time></trkpt>
<trkpt lat="48.44473000" lon="2.67748500"><ele></ele><time>2017-9-19T9:45:5Z</time></trkpt>
<trkpt lat="48.44472300" lon="2.67744800"><ele></ele><time>2017-9-19T9:45:8Z</time></trkpt>
<trkpt lat="48.44472200" lon="2.67741700"><ele></ele><time>2017-9-19T9:45:11Z</time></trkpt>
<trkpt lat="48.44472300" lon="2.67736000"><ele></ele><time>2017-9-19T9:45:14Z</time></trkpt>
<trkpt lat="48.44472800" lon="2.67733300"><ele></ele><time>2017-9-19T9:45:17Z</time></trkpt>
<trkpt lat="48.44473300" lon="2.67728700"><ele></ele><time>2017-9-19T9:45:20Z</time></trkpt>
<trkpt lat="48.44473500" lon="2.67725700"><ele></ele><time>2017-9-19T9:45:23Z</time></trkpt>
<trkpt lat="48.44474000" lon="2.67722800"><ele></ele><time>2017-9-19T9:45:26Z</time></trkpt>
<trkpt lat="48.44475500" lon="2.67712700"><ele></ele><time>2017-9-19T9:45:29Z</time></trkpt>
<trkpt lat="48.44480700" lon="2.67672000"><ele></ele><time>2017-9-19T9:45:32Z</time></trkpt>
<trkpt lat="48.44479800" lon="2.67669700"><ele></ele><time>2017-9-19T9:45:35Z</time></trkpt>
<trkpt lat="48.44475800" lon="2.67653500"><ele></ele><time>2017-9-19T9:45:38Z</time></trkpt>
<trkpt lat="48.44475500" lon="2.67646700"><ele></ele><time>2017-9-19T9:45:41Z</time></trkpt>
<trkpt lat="48.44476100" lon="2.67643000"><ele></ele><time>2017-9-19T9:45:44Z</time></trkpt>
<trkpt lat="48.44477000" lon="2.67639300"><ele></ele><time>2017-9-19T9:45:47Z</time></trkpt>
<trkpt lat="48.44477200" lon="2.67635500"><ele></ele><time>2017-9-19T9:45:50Z</time></trkpt>
<trkpt lat="48.44478000" lon="2.67632500"><ele></ele><time>2017-9-19T9:45:53Z</time></trkpt>
<trkpt lat="48.44479200" lon="2.67630200"><ele></ele><time>2017-9-19T9:45:56Z</time></trkpt>
<trkpt lat="48.44481700" lon="2.67625500"><ele></ele><time>2017-9-19T9:45:59Z</time></trkpt>
<trkpt lat="48.44483200" lon="2.67624000"><ele></ele><time>2017-9-19T9:46:2Z</time></trkpt>
<trkpt lat="48.44485000" lon="2.67623500"><ele></ele><time>2017-9-19T9:46:5Z</time></trkpt>
<trkpt lat="48.44486700" lon="2.67622700"><ele></ele><time>2017-9-19T9:46:8Z</time></trkpt>
<trkpt lat="48.44488300" lon="2.67622200"><ele></ele><time>2017-9-19T9:46:11Z</time></trkpt>
<trkpt lat="48.44489700" lon="2.67621500"><ele></ele><time>2017-9-19T9:46:14Z</time></trkpt>
<trkpt lat="48.44490300" lon="2.67620700"><ele></ele><time>2017-9-19T9:46:17Z</time></trkpt>
<trkpt lat="48.44490800" lon="2.67619500"><ele></ele><time>2017-9-19T9:46:20Z</time></trkpt>
<trkpt lat="48.44491300" lon="2.67617500"><ele></ele><time>2017-9-19T9:46:23Z</time></trkpt>
<trkpt lat="48.44491800" lon="2.67615200"><ele></ele><time>2017-9-19T9:46:26Z</time></trkpt>
<trkpt lat="48.44492200" lon="2.67612300"><ele></ele><time>2017-9-19T9:46:29Z</time></trkpt>
<trkpt lat="48.44491700" lon="2.67609300"><ele></ele><time>2017-9-19T9:46:32Z</time></trkpt>
<trkpt lat="48.44490200" lon="2.67606200"><ele></ele><time>2017-9-19T9:46:35Z</time></trkpt>
<trkpt lat="48.44488000" lon="2.67603500"><ele></ele><time>2017-9-19T9:46:38Z</time></trkpt>
<trkpt lat="48.44486000" lon="2.67600700"><ele></ele><time>2017-9-19T9:46:41Z</time></trkpt>
<trkpt lat="48.44485100" lon="2.67596800"><ele></ele><time>2017-9-19T9:46:44Z</time></trkpt>
<trkpt lat="48.44485500" lon="2.67593700"><ele></ele><time>2017-9-19T9:46:47Z</time></trkpt>
<trkpt lat="48.44486300" lon="2.67591000"><ele></ele><time>2017-9-19T9:46:50Z</time></trkpt>
<trkpt lat="48.44487300" lon="2.67584500"><ele></ele><time>2017-9-19T9:46:53Z</time></trkpt>
<trkpt lat="48.44488000" lon="2.67579800"><ele></ele><time>2017-9-19T9:46:56Z</time></trkpt>
<trkpt lat="48.44487600" lon="2.67577000"><ele></ele><time>2017-9-19T9:46:59Z</time></trkpt>
<trkpt lat="48.44487600" lon="2.67574500"><ele></ele><time>2017-9-19T9:47:2Z</time></trkpt>
<trkpt lat="48.44487800" lon="2.67569500"><ele></ele><time>2017-9-19T9:47:5Z</time></trkpt>
<trkpt lat="48.44488300" lon="2.67567700"><ele></ele><time>2017-9-19T9:47:8Z</time></trkpt>
<trkpt lat="48.44489000" lon="2.67566200"><ele></ele><time>2017-9-19T9:47:11Z</time></trkpt>
<trkpt lat="48.44494500" lon="2.67557200"><ele></ele><time>2017-9-19T9:47:14Z</time></trkpt>
<trkpt lat="48.44496600" lon="2.67556000"><ele></ele><time>2017-9-19T9:47:17Z</time></trkpt>
<trkpt lat="48.44498500" lon="2.67555800"><ele></ele><time>2017-9-19T9:47:20Z</time></trkpt>
<trkpt lat="48.44500100" lon="2.67556000"><ele></ele><time>2017-9-19T9:47:23Z</time></trkpt>
<trkpt lat="48.44502000" lon="2.67556500"><ele></ele><time>2017-9-19T9:47:26Z</time></trkpt>
<trkpt lat="48.44505000" lon="2.67558000"><ele></ele><time>2017-9-19T9:47:29Z</time></trkpt>
<trkpt lat="48.44506200" lon="2.67558200"><ele></ele><time>2017-9-19T9:47:32Z</time></trkpt>
<trkpt lat="48.44507800" lon="2.67558700"><ele></ele><time>2017-9-19T9:47:35Z</time></trkpt>
<trkpt lat="48.44509200" lon="2.67559500"><ele></ele><time>2017-9-19T9:47:38Z</time></trkpt>
<trkpt lat="48.44517800" lon="2.67565000"><ele></ele><time>2017-9-19T9:47:41Z</time></trkpt>
<trkpt lat="48.44527300" lon="2.67570300"><ele></ele><time>2017-9-19T9:47:44Z</time></trkpt>
<trkpt lat="48.44530000" lon="2.67571700"><ele></ele><time>2017-9-19T9:47:47Z</time></trkpt>
<trkpt lat="48.44538700" lon="2.67575300"><ele></ele><time>2017-9-19T9:47:50Z</time></trkpt>
<trkpt lat="48.44542200" lon="2.67575700"><ele></ele><time>2017-9-19T9:47:53Z</time></trkpt>
<trkpt lat="48.44545500" lon="2.67575300"><ele></ele><time>2017-9-19T9:47:56Z</time></trkpt>
<trkpt lat="48.44548300" lon="2.67573300"><ele></ele><time>2017-9-19T9:47:59Z</time></trkpt>
<trkpt lat="48.44550500" lon="2.67571300"><ele></ele><time>2017-9-19T9:48:2Z</time></trkpt>
<trkpt lat="48.44553200" lon="2.67569300"><ele></ele><time>2017-9-19T9:48:5Z</time></trkpt>
<trkpt lat="48.44564200" lon="2.67560500"><ele></ele><time>2017-9-19T9:48:8Z</time></trkpt>
<trkpt lat="48.44567200" lon="2.67556300"><ele></ele><time>2017-9-19T9:48:11Z</time></trkpt>
<trkpt lat="48.44570300" lon="2.67551000"><ele></ele><time>2017-9-19T9:48:14Z</time></trkpt>
<trkpt lat="48.44572700" lon="2.67545200"><ele></ele><time>2017-9-19T9:48:17Z</time></trkpt>
<trkpt lat="48.44577500" lon="2.67536500"><ele></ele><time>2017-9-19T9:48:20Z</time></trkpt>
<trkpt lat="48.44580500" lon="2.67534000"><ele></ele><time>2017-9-19T9:48:23Z</time></trkpt>
<trkpt lat="48.44583700" lon="2.67532300"><ele></ele><time>2017-9-19T9:48:26Z</time></trkpt>
<trkpt lat="48.44587500" lon="2.67531800"><ele></ele><time>2017-9-19T9:48:29Z</time></trkpt>
<trkpt lat="48.44591000" lon="2.67532000"><ele></ele><time>2017-9-19T9:48:32Z</time></trkpt>
<trkpt lat="48.44595000" lon="2.67533300"><ele></ele><time>2017-9-19T9:48:35Z</time></trkpt>
<trkpt lat="48.44601500" lon="2.67535300"><ele></ele><time>2017-9-19T9:48:38Z</time></trkpt>
<trkpt lat="48.44604700" lon="2.67535200"><ele></ele><time>2017-9-19T9:48:41Z</time></trkpt>
<trkpt lat="48.44608300" lon="2.67534700"><ele></ele><time>2017-9-19T9:48:44Z</time></trkpt>
<trkpt lat="48.44610800" lon="2.67534700"><ele></ele><time>2017-9-19T9:48:47Z</time></trkpt>
<trkpt lat="48.44612700" lon="2.67535200"><ele></ele><time>2017-9-19T9:48:50Z</time></trkpt>
<trkpt lat="48.44614800" lon="2.67536200"><ele></ele><time>2017-9-19T9:48:53Z</time></trkpt>
<trkpt lat="48.44620800" lon="2.67537800"><ele></ele><time>2017-9-19T9:48:56Z</time></trkpt>
<trkpt lat="48.44626000" lon="2.67537200"><ele></ele><time>2017-9-19T9:48:59Z</time></trkpt>
<trkpt lat="48.44629000" lon="2.67538000"><ele></ele><time>2017-9-19T9:49:2Z</time></trkpt>
<trkpt lat="48.44632000" lon="2.67540300"><ele></ele><time>2017-9-19T9:49:5Z</time></trkpt>
<trkpt lat="48.44637800" lon="2.67544800"><ele></ele><time>2017-9-19T9:49:8Z</time></trkpt>
<trkpt lat="48.44640700" lon="2.67547000"><ele></ele><time>2017-9-19T9:49:11Z</time></trkpt>
<trkpt lat="48.44643000" lon="2.67548800"><ele></ele><time>2017-9-19T9:49:14Z</time></trkpt>
<trkpt lat="48.44644500" lon="2.67550700"><ele></ele><time>2017-9-19T9:49:17Z</time></trkpt>
<trkpt lat="48.44645500" lon="2.67552500"><ele></ele><time>2017-9-19T9:49:20Z</time></trkpt>
<trkpt lat="48.44647200" lon="2.67554300"><ele></ele><time>2017-9-19T9:49:23Z</time></trkpt>
<trkpt lat="48.44647500" lon="2.67554300"><ele></ele><time>2017-9-19T9:49:26Z</time></trkpt>
<trkpt lat="48.44647800" lon="2.67554200"><ele></ele><time>2017-9-19T9:49:29Z</time></trkpt>
<trkpt lat="48.44648000" lon="2.67554000"><ele></ele><time>2017-9-19T9:49:32Z</time></trkpt>
<trkpt lat="48.44648100" lon="2.67553700"><ele></ele><time>2017-9-19T9:49:35Z</time></trkpt>
<trkpt lat="48.44648300" lon="2.67553500"><ele></ele><time>2017-9-19T9:49:38Z</time></trkpt>
<trkpt lat="48.44648500" lon="2.67553200"><ele></ele><time>2017-9-19T9:49:41Z</time></trkpt>
<trkpt lat="48.44648600" lon="2.67553000"><ele></ele><time>2017-9-19T9:49:44Z</time></trkpt>
<trkpt lat="48.44648600" lon="2.67552800"><ele></ele><time>2017-9-19T9:49:47Z</time></trkpt>
<trkpt lat="48.44648800" lon="2.67552700"><ele></ele><time>2017-9-19T9:49:50Z</time></trkpt>
<trkpt lat="48.44648800" lon="2.67552500"><ele></ele><time>2017-9-19T9:49:53Z</time></trkpt>
<trkpt lat="48.44649000" lon="2.67552300"><ele></ele><time>2017-9-19T9:49:56Z</time></trkpt>
<trkpt lat="48.44649000" lon="2.67552300"><ele></ele><time>2017-9-19T9:49:59Z</time></trkpt>
<trkpt lat="48.44649200" lon="2.67552200"><ele></ele><time>2017-9-19T9:50:2Z</time></trkpt>
<trkpt lat="48.44649200" lon="2.67552200"><ele></ele><time>2017-9-19T9:50:5Z</time></trkpt>
<trkpt lat="48.44649300" lon="2.67552000"><ele></ele><time>2017-9-19T9:50:8Z</time></trkpt>
<trkpt lat="48.44649300" lon="2.67552000"><ele></ele><time>2017-9-19T9:50:11Z</time></trkpt>
<trkpt lat="48.44649300" lon="2.67552000"><ele></ele><time>2017-9-19T9:50:14Z</time></trkpt>
<trkpt lat="48.44649500" lon="2.67551800"><ele></ele><time>2017-9-19T9:50:17Z</time></trkpt>
<trkpt lat="48.44649500" lon="2.67551800"><ele></ele><time>2017-9-19T9:50:20Z</time></trkpt>
<trkpt lat="48.44649700" lon="2.67551700"><ele></ele><time>2017-9-19T9:50:23Z</time></trkpt>
<trkpt lat="48.44649800" lon="2.67551700"><ele></ele><time>2017-9-19T9:50:26Z</time></trkpt>
<trkpt lat="48.44649800" lon="2.67551700"><ele></ele><time>2017-9-19T9:50:29Z</time></trkpt>
<trkpt lat="48.44650000" lon="2.67551700"><ele></ele><time>2017-9-19T9:50:32Z</time></trkpt>
<trkpt lat="48.44650000" lon="2.67551700"><ele></ele><time>2017-9-19T9:50:35Z</time></trkpt>
<trkpt lat="48.44650000" lon="2.67551700"><ele></ele><time>2017-9-19T9:50:38Z</time></trkpt>
<trkpt lat="48.44650200" lon="2.67551700"><ele></ele><time>2017-9-19T9:50:41Z</time></trkpt>
<trkpt lat="48.44650200" lon="2.67551700"><ele></ele><time>2017-9-19T9:50:44Z</time></trkpt>
<trkpt lat="48.44650300" lon="2.67551700"><ele></ele><time>2017-9-19T9:50:47Z</time></trkpt>
<trkpt lat="48.44650500" lon="2.67551800"><ele></ele><time>2017-9-19T9:50:50Z</time></trkpt>
<trkpt lat="48.44650700" lon="2.67551800"><ele></ele><time>2017-9-19T9:50:53Z</time></trkpt>
<trkpt lat="48.44651700" lon="2.67551800"><ele></ele><time>2017-9-19T9:50:56Z</time></trkpt>
<trkpt lat="48.44651800" lon="2.67551800"><ele></ele><time>2017-9-19T9:50:59Z</time></trkpt>
<trkpt lat="48.44652700" lon="2.67551800"><ele></ele><time>2017-9-19T9:51:2Z</time></trkpt>
<trkpt lat="48.44652800" lon="2.67551800"><ele></ele><time>2017-9-19T9:51:5Z</time></trkpt>
<trkpt lat="48.44652800" lon="2.67552000"><ele></ele><time>2017-9-19T9:51:8Z</time></trkpt>
<trkpt lat="48.44652800" lon="2.67552200"><ele></ele><time>2017-9-19T9:51:11Z</time></trkpt>
<trkpt lat="48.44652800" lon="2.67552200"><ele></ele><time>2017-9-19T9:51:14Z</time></trkpt>
<trkpt lat="48.44652800" lon="2.67552300"><ele></ele><time>2017-9-19T9:51:17Z</time></trkpt>
<trkpt lat="48.44653000" lon="2.67552300"><ele></ele><time>2017-9-19T9:51:20Z</time></trkpt>
<trkpt lat="48.44653000" lon="2.67552500"><ele></ele><time>2017-9-19T9:51:23Z</time></trkpt>
<trkpt lat="48.44653000" lon="2.67552500"><ele></ele><time>2017-9-19T9:51:26Z</time></trkpt>
<trkpt lat="48.44653200" lon="2.67552700"><ele></ele><time>2017-9-19T9:51:29Z</time></trkpt>
<trkpt lat="48.44653300" lon="2.67552800"><ele></ele><time>2017-9-19T9:51:32Z</time></trkpt>
<trkpt lat="48.44653300" lon="2.67552800"><ele></ele><time>2017-9-19T9:51:35Z</time></trkpt>
<trkpt lat="48.44653500" lon="2.67553000"><ele></ele><time>2017-9-19T9:51:38Z</time></trkpt>
<trkpt lat="48.44653700" lon="2.67553200"><ele></ele><time>2017-9-19T9:51:41Z</time></trkpt>
<trkpt lat="48.44653800" lon="2.67553200"><ele></ele><time>2017-9-19T9:51:44Z</time></trkpt>
<trkpt lat="48.44653800" lon="2.67553300"><ele></ele><time>2017-9-19T9:51:47Z</time></trkpt>
<trkpt lat="48.44654500" lon="2.67553300"><ele></ele><time>2017-9-19T9:51:50Z</time></trkpt>
<trkpt lat="48.44655700" lon="2.67553300"><ele></ele><time>2017-9-19T9:51:53Z</time></trkpt>
<trkpt lat="48.44656300" lon="2.67553300"><ele></ele><time>2017-9-19T9:51:56Z</time></trkpt>
<trkpt lat="48.44656300" lon="2.67552700"><ele></ele><time>2017-9-19T9:51:59Z</time></trkpt>
<trkpt lat="48.44656300" lon="2.67551200"><ele></ele><time>2017-9-19T9:52:2Z</time></trkpt>
<trkpt lat="48.44656000" lon="2.67549700"><ele></ele><time>2017-9-19T9:52:5Z</time></trkpt>
<trkpt lat="48.44655500" lon="2.67548200"><ele></ele><time>2017-9-19T9:52:8Z</time></trkpt>
<trkpt lat="48.44655000" lon="2.67546500"><ele></ele><time>2017-9-19T9:52:11Z</time></trkpt>
<trkpt lat="48.44655100" lon="2.67544800"><ele></ele><time>2017-9-19T9:52:14Z</time></trkpt>
<trkpt lat="48.44655000" lon="2.67542800"><ele></ele><time>2017-9-19T9:52:17Z</time></trkpt>
<trkpt lat="48.44654800" lon="2.67538300"><ele></ele><time>2017-9-19T9:52:20Z</time></trkpt>
<trkpt lat="48.44655000" lon="2.67536200"><ele></ele><time>2017-9-19T9:52:23Z</time></trkpt>
<trkpt lat="48.44655300" lon="2.67534000"><ele></ele><time>2017-9-19T9:52:26Z</time></trkpt>
<trkpt lat="48.44655700" lon="2.67532200"><ele></ele><time>2017-9-19T9:52:29Z</time></trkpt>
<trkpt lat="48.44656500" lon="2.67525500"><ele></ele><time>2017-9-19T9:52:32Z</time></trkpt>
<trkpt lat="48.44656000" lon="2.67522300"><ele></ele><time>2017-9-19T9:52:35Z</time></trkpt>
<trkpt lat="48.44655700" lon="2.67519300"><ele></ele><time>2017-9-19T9:52:38Z</time></trkpt>
<trkpt lat="48.44655300" lon="2.67514200"><ele></ele><time>2017-9-19T9:52:41Z</time></trkpt>
<trkpt lat="48.44655000" lon="2.67512300"><ele></ele><time>2017-9-19T9:52:44Z</time></trkpt>
<trkpt lat="48.44654500" lon="2.67509000"><ele></ele><time>2017-9-19T9:52:47Z</time></trkpt>
<trkpt lat="48.44654500" lon="2.67507300"><ele></ele><time>2017-9-19T9:52:50Z</time></trkpt>
<trkpt lat="48.44654500" lon="2.67505200"><ele></ele><time>2017-9-19T9:52:53Z</time></trkpt>
<trkpt lat="48.44654200" lon="2.67492800"><ele></ele><time>2017-9-19T9:52:56Z</time></trkpt>
<trkpt lat="48.44654300" lon="2.67490100"><ele></ele><time>2017-9-19T9:52:59Z</time></trkpt>
<trkpt lat="48.44654600" lon="2.67487700"><ele></ele><time>2017-9-19T9:53:2Z</time></trkpt>
<trkpt lat="48.44655000" lon="2.67485200"><ele></ele><time>2017-9-19T9:53:5Z</time></trkpt>
<trkpt lat="48.44655300" lon="2.67482300"><ele></ele><time>2017-9-19T9:53:8Z</time></trkpt>
<trkpt lat="48.44655800" lon="2.67474700"><ele></ele><time>2017-9-19T9:53:11Z</time></trkpt>
<trkpt lat="48.44655700" lon="2.67472000"><ele></ele><time>2017-9-19T9:53:14Z</time></trkpt>
<trkpt lat="48.44655300" lon="2.67470200"><ele></ele><time>2017-9-19T9:53:17Z</time></trkpt>
<trkpt lat="48.44655000" lon="2.67468800"><ele></ele><time>2017-9-19T9:53:20Z</time></trkpt>
<trkpt lat="48.44654500" lon="2.67465200"><ele></ele><time>2017-9-19T9:53:23Z</time></trkpt>
<trkpt lat="48.44654600" lon="2.67463500"><ele></ele><time>2017-9-19T9:53:26Z</time></trkpt>
<trkpt lat="48.44655000" lon="2.67461800"><ele></ele><time>2017-9-19T9:53:29Z</time></trkpt>
<trkpt lat="48.44655000" lon="2.67460200"><ele></ele><time>2017-9-19T9:53:32Z</time></trkpt>
<trkpt lat="48.44654600" lon="2.67459000"><ele></ele><time>2017-9-19T9:53:35Z</time></trkpt>
<trkpt lat="48.44653200" lon="2.67454000"><ele></ele><time>2017-9-19T9:53:38Z</time></trkpt>
<trkpt lat="48.44652800" lon="2.67451800"><ele></ele><time>2017-9-19T9:53:41Z</time></trkpt>
<trkpt lat="48.44652700" lon="2.67449700"><ele></ele><time>2017-9-19T9:53:44Z</time></trkpt>
<trkpt lat="48.44652700" lon="2.67447200"><ele></ele><time>2017-9-19T9:53:47Z</time></trkpt>
<trkpt lat="48.44652700" lon="2.67444700"><ele></ele><time>2017-9-19T9:53:50Z</time></trkpt>
<trkpt lat="48.44651800" lon="2.67436300"><ele></ele><time>2017-9-19T9:53:53Z</time></trkpt>
<trkpt lat="48.44651500" lon="2.67434200"><ele></ele><time>2017-9-19T9:53:56Z</time></trkpt>
<trkpt lat="48.44651000" lon="2.67432600"><ele></ele><time>2017-9-19T9:53:59Z</time></trkpt>
<trkpt lat="48.44647200" lon="2.67421700"><ele></ele><time>2017-9-19T9:54:2Z</time></trkpt>
<trkpt lat="48.44646300" lon="2.67419000"><ele></ele><time>2017-9-19T9:54:5Z</time></trkpt>
<trkpt lat="48.44642200" lon="2.67408700"><ele></ele><time>2017-9-19T9:54:8Z</time></trkpt>
<trkpt lat="48.44641300" lon="2.67407500"><ele></ele><time>2017-9-19T9:54:11Z</time></trkpt>
<trkpt lat="48.44639200" lon="2.67404300"><ele></ele><time>2017-9-19T9:54:14Z</time></trkpt>
<trkpt lat="48.44637800" lon="2.67401200"><ele></ele><time>2017-9-19T9:54:17Z</time></trkpt>
<trkpt lat="48.44633200" lon="2.67390200"><ele></ele><time>2017-9-19T9:54:20Z</time></trkpt>
<trkpt lat="48.44631300" lon="2.67387800"><ele></ele><time>2017-9-19T9:54:23Z</time></trkpt>
<trkpt lat="48.44626500" lon="2.67380300"><ele></ele><time>2017-9-19T9:54:26Z</time></trkpt>
<trkpt lat="48.44625500" lon="2.67377700"><ele></ele><time>2017-9-19T9:54:29Z</time></trkpt>
<trkpt lat="48.44624300" lon="2.67374800"><ele></ele><time>2017-9-19T9:54:32Z</time></trkpt>
<trkpt lat="48.44621200" lon="2.67368500"><ele></ele><time>2017-9-19T9:54:35Z</time></trkpt>
<trkpt lat="48.44619600" lon="2.67365800"><ele></ele><time>2017-9-19T9:54:38Z</time></trkpt>
<trkpt lat="48.44617700" lon="2.67363200"><ele></ele><time>2017-9-19T9:54:41Z</time></trkpt>
<trkpt lat="48.44614500" lon="2.67357000"><ele></ele><time>2017-9-19T9:54:44Z</time></trkpt>
<trkpt lat="48.44592500" lon="2.67313800"><ele></ele><time>2017-9-19T9:54:47Z</time></trkpt>
<trkpt lat="48.44590600" lon="2.67310800"><ele></ele><time>2017-9-19T9:54:50Z</time></trkpt>
<trkpt lat="48.44586100" lon="2.67304200"><ele></ele><time>2017-9-19T9:54:53Z</time></trkpt>
<trkpt lat="48.44575500" lon="2.67285500"><ele></ele><time>2017-9-19T9:54:56Z</time></trkpt>
<trkpt lat="48.44407500" lon="2.66959300"><ele></ele><time>2017-9-19T9:54:59Z</time></trkpt>
<trkpt lat="48.44405800" lon="2.66953800"><ele></ele><time>2017-9-19T9:55:2Z</time></trkpt>
<trkpt lat="48.44404000" lon="2.66950200"><ele></ele><time>2017-9-19T9:55:5Z</time></trkpt>
<trkpt lat="48.44401800" lon="2.66946300"><ele></ele><time>2017-9-19T9:55:8Z</time></trkpt>
<trkpt lat="48.44399700" lon="2.66943200"><ele></ele><time>2017-9-19T9:55:11Z</time></trkpt>
<trkpt lat="48.44398100" lon="2.66941300"><ele></ele><time>2017-9-19T9:55:14Z</time></trkpt>
<trkpt lat="48.44397300" lon="2.66940300"><ele></ele><time>2017-9-19T9:55:17Z</time></trkpt>
<trkpt lat="48.44397200" lon="2.66940000"><ele></ele><time>2017-9-19T9:55:20Z</time></trkpt>
<trkpt lat="48.44397200" lon="2.66939200"><ele></ele><time>2017-9-19T9:55:23Z</time></trkpt>
<trkpt lat="48.44396700" lon="2.66933800"><ele></ele><time>2017-9-19T9:55:26Z</time></trkpt>
<trkpt lat="48.44395800" lon="2.66931800"><ele></ele><time>2017-9-19T9:55:29Z</time></trkpt>
<trkpt lat="48.44388800" lon="2.66917800"><ele></ele><time>2017-9-19T9:55:32Z</time></trkpt>
<trkpt lat="48.44386000" lon="2.66914700"><ele></ele><time>2017-9-19T9:55:35Z</time></trkpt>
<trkpt lat="48.44381200" lon="2.66907000"><ele></ele><time>2017-9-19T9:55:38Z</time></trkpt>
<trkpt lat="48.44380200" lon="2.66901700"><ele></ele><time>2017-9-19T9:55:41Z</time></trkpt>
<trkpt lat="48.44380000" lon="2.66896200"><ele></ele><time>2017-9-19T9:55:44Z</time></trkpt>
<trkpt lat="48.44379800" lon="2.66890200"><ele></ele><time>2017-9-19T9:55:47Z</time></trkpt>
<trkpt lat="48.44380300" lon="2.66884000"><ele></ele><time>2017-9-19T9:55:50Z</time></trkpt>
<trkpt lat="48.44405000" lon="2.66456700"><ele></ele><time>2017-9-19T9:55:53Z</time></trkpt>
<trkpt lat="48.44406800" lon="2.66449300"><ele></ele><time>2017-9-19T9:55:56Z</time></trkpt>
<trkpt lat="48.44416700" lon="2.66421200"><ele></ele><time>2017-9-19T9:55:59Z</time></trkpt>
<trkpt lat="48.44436000" lon="2.66377300"><ele></ele><time>2017-9-19T9:56:2Z</time></trkpt>
<trkpt lat="48.44520200" lon="2.66177700"><ele></ele><time>2017-9-19T9:56:5Z</time></trkpt>
<trkpt lat="48.44523500" lon="2.66173700"><ele></ele><time>2017-9-19T9:56:8Z</time></trkpt>
<trkpt lat="48.44527000" lon="2.66170000"><ele></ele><time>2017-9-19T9:56:11Z</time></trkpt>
<trkpt lat="48.44534000" lon="2.66163200"><ele></ele><time>2017-9-19T9:56:14Z</time></trkpt>
<trkpt lat="48.44538200" lon="2.66160200"><ele></ele><time>2017-9-19T9:56:17Z</time></trkpt>
<trkpt lat="48.44554300" lon="2.66148700"><ele></ele><time>2017-9-19T9:56:20Z</time></trkpt>
<trkpt lat="48.44593200" lon="2.66124700"><ele></ele><time>2017-9-19T9:56:23Z</time></trkpt>
<trkpt lat="48.44597000" lon="2.66121700"><ele></ele><time>2017-9-19T9:56:26Z</time></trkpt>
<trkpt lat="48.44721700" lon="2.66044700"><ele></ele><time>2017-9-19T9:56:29Z</time></trkpt>
<trkpt lat="48.44725000" lon="2.66040200"><ele></ele><time>2017-9-19T9:56:32Z</time></trkpt>
<trkpt lat="48.44727800" lon="2.66034000"><ele></ele><time>2017-9-19T9:56:35Z</time></trkpt>
<trkpt lat="48.44733300" lon="2.66021700"><ele></ele><time>2017-9-19T9:56:38Z</time></trkpt>
<trkpt lat="48.44736200" lon="2.66015000"><ele></ele><time>2017-9-19T9:56:41Z</time></trkpt>
<trkpt lat="48.44743800" lon="2.65993500"><ele></ele><time>2017-9-19T9:56:44Z</time></trkpt>
<trkpt lat="48.44746200" lon="2.65985700"><ele></ele><time>2017-9-19T9:56:47Z</time></trkpt>
<trkpt lat="48.44773700" lon="2.65889700"><ele></ele><time>2017-9-19T9:56:50Z</time></trkpt>
<trkpt lat="48.44777800" lon="2.65880000"><ele></ele><time>2017-9-19T9:56:53Z</time></trkpt>
<trkpt lat="48.44781000" lon="2.65876800"><ele></ele><time>2017-9-19T9:56:56Z</time></trkpt>
<trkpt lat="48.44784500" lon="2.65875800"><ele></ele><time>2017-9-19T9:56:59Z</time></trkpt>
<trkpt lat="48.44788000" lon="2.65875800"><ele></ele><time>2017-9-19T9:57:2Z</time></trkpt>
<trkpt lat="48.44802700" lon="2.65878000"><ele></ele><time>2017-9-19T9:57:5Z</time></trkpt>
<trkpt lat="48.44806300" lon="2.65878200"><ele></ele><time>2017-9-19T9:57:8Z</time></trkpt>
<trkpt lat="48.45668800" lon="2.66027700"><ele></ele><time>2017-9-19T9:57:11Z</time></trkpt>
<trkpt lat="48.45769500" lon="2.66050800"><ele></ele><time>2017-9-19T9:57:14Z</time></trkpt>
<trkpt lat="48.45873700" lon="2.66077000"><ele></ele><time>2017-9-19T9:57:17Z</time></trkpt>
<trkpt lat="48.45879800" lon="2.66081200"><ele></ele><time>2017-9-19T9:57:20Z</time></trkpt>
<trkpt lat="48.45959800" lon="2.66135200"><ele></ele><time>2017-9-19T9:57:23Z</time></trkpt>
<trkpt lat="48.45964800" lon="2.66137000"><ele></ele><time>2017-9-19T9:57:26Z</time></trkpt>
<trkpt lat="48.45982800" lon="2.66143200"><ele></ele><time>2017-9-19T9:57:29Z</time></trkpt>
<trkpt lat="48.45986500" lon="2.66144000"><ele></ele><time>2017-9-19T9:57:32Z</time></trkpt>
<trkpt lat="48.45990200" lon="2.66144000"><ele></ele><time>2017-9-19T9:57:35Z</time></trkpt>
<trkpt lat="48.45993700" lon="2.66142700"><ele></ele><time>2017-9-19T9:57:38Z</time></trkpt>
<trkpt lat="48.46000600" lon="2.66139500"><ele></ele><time>2017-9-19T9:57:41Z</time></trkpt>
<trkpt lat="48.46004200" lon="2.66137700"><ele></ele><time>2017-9-19T9:57:44Z</time></trkpt>
<trkpt lat="48.46011300" lon="2.66134300"><ele></ele><time>2017-9-19T9:57:47Z</time></trkpt>
<trkpt lat="48.46022700" lon="2.66131000"><ele></ele><time>2017-9-19T9:57:50Z</time></trkpt>
<trkpt lat="48.46034000" lon="2.66127500"><ele></ele><time>2017-9-19T9:57:53Z</time></trkpt>
<trkpt lat="48.46037500" lon="2.66125300"><ele></ele><time>2017-9-19T9:57:56Z</time></trkpt>
<trkpt lat="48.46044300" lon="2.66119300"><ele></ele><time>2017-9-19T9:57:59Z</time></trkpt>
<trkpt lat="48.46047500" lon="2.66114800"><ele></ele><time>2017-9-19T9:58:2Z</time></trkpt>
<trkpt lat="48.46050100" lon="2.66109800"><ele></ele><time>2017-9-19T9:58:5Z</time></trkpt>
<trkpt lat="48.46072000" lon="2.66072700"><ele></ele><time>2017-9-19T9:58:8Z</time></trkpt>
<trkpt lat="48.46076700" lon="2.66067500"><ele></ele><time>2017-9-19T9:58:11Z</time></trkpt>
<trkpt lat="48.46086200" lon="2.66056300"><ele></ele><time>2017-9-19T9:58:14Z</time></trkpt>
<trkpt lat="48.46088200" lon="2.66056000"><ele></ele><time>2017-9-19T9:58:17Z</time></trkpt>
<trkpt lat="48.46090500" lon="2.66055500"><ele></ele><time>2017-9-19T9:58:20Z</time></trkpt>
<trkpt lat="48.46096200" lon="2.66053500"><ele></ele><time>2017-9-19T9:58:23Z</time></trkpt>
<trkpt lat="48.46097700" lon="2.66052300"><ele></ele><time>2017-9-19T9:58:26Z</time></trkpt>
<trkpt lat="48.46103000" lon="2.66047800"><ele></ele><time>2017-9-19T9:58:29Z</time></trkpt>
<trkpt lat="48.46107300" lon="2.66043200"><ele></ele><time>2017-9-19T9:58:32Z</time></trkpt>
<trkpt lat="48.46109300" lon="2.66042200"><ele></ele><time>2017-9-19T9:58:35Z</time></trkpt>
<trkpt lat="48.46111800" lon="2.66042000"><ele></ele><time>2017-9-19T9:58:38Z</time></trkpt>
<trkpt lat="48.46114200" lon="2.66042800"><ele></ele><time>2017-9-19T9:58:41Z</time></trkpt>
<trkpt lat="48.46116500" lon="2.66044200"><ele></ele><time>2017-9-19T9:58:44Z</time></trkpt>
<trkpt lat="48.46119000" lon="2.66046300"><ele></ele><time>2017-9-19T9:58:47Z</time></trkpt>
<trkpt lat="48.46127300" lon="2.66051200"><ele></ele><time>2017-9-19T9:58:50Z</time></trkpt>
<trkpt lat="48.46132100" lon="2.66051500"><ele></ele><time>2017-9-19T9:58:53Z</time></trkpt>
<trkpt lat="48.46148000" lon="2.66053200"><ele></ele><time>2017-9-19T9:58:56Z</time></trkpt>
<trkpt lat="48.46154500" lon="2.66052000"><ele></ele><time>2017-9-19T9:58:59Z</time></trkpt>
<trkpt lat="48.46179500" lon="2.66046500"><ele></ele><time>2017-9-19T9:59:2Z</time></trkpt>
<trkpt lat="48.46186000" lon="2.66043700"><ele></ele><time>2017-9-19T9:59:5Z</time></trkpt>
<trkpt lat="48.46216700" lon="2.66033500"><ele></ele><time>2017-9-19T9:59:8Z</time></trkpt>
<trkpt lat="48.46221600" lon="2.66029700"><ele></ele><time>2017-9-19T9:59:11Z</time></trkpt>
<trkpt lat="48.46226500" lon="2.66025500"><ele></ele><time>2017-9-19T9:59:14Z</time></trkpt>
<trkpt lat="48.46248000" lon="2.66008500"><ele></ele><time>2017-9-19T9:59:17Z</time></trkpt>
<trkpt lat="48.46258500" lon="2.66001200"><ele></ele><time>2017-9-19T9:59:20Z</time></trkpt>
<trkpt lat="48.46267000" lon="2.65993800"><ele></ele><time>2017-9-19T9:59:23Z</time></trkpt>
<trkpt lat="48.46270800" lon="2.65990300"><ele></ele><time>2017-9-19T9:59:26Z</time></trkpt>
<trkpt lat="48.46354100" lon="2.65923700"><ele></ele><time>2017-9-19T9:59:29Z</time></trkpt>
<trkpt lat="48.46396500" lon="2.65894300"><ele></ele><time>2017-9-19T9:59:32Z</time></trkpt>
<trkpt lat="48.46400000" lon="2.65890300"><ele></ele><time>2017-9-19T9:59:35Z</time></trkpt>
<trkpt lat="48.46424800" lon="2.65867500"><ele></ele><time>2017-9-19T9:59:38Z</time></trkpt>
<trkpt lat="48.46442300" lon="2.65855300"><ele></ele><time>2017-9-19T9:59:41Z</time></trkpt>
<trkpt lat="48.46447200" lon="2.65854000"><ele></ele><time>2017-9-19T9:59:44Z</time></trkpt>
<trkpt lat="48.46457600" lon="2.65853500"><ele></ele><time>2017-9-19T9:59:47Z</time></trkpt>
<trkpt lat="48.46463500" lon="2.65853800"><ele></ele><time>2017-9-19T9:59:50Z</time></trkpt>
<trkpt lat="48.46469000" lon="2.65854800"><ele></ele><time>2017-9-19T9:59:53Z</time></trkpt>
<trkpt lat="48.46485300" lon="2.65855000"><ele></ele><time>2017-9-19T9:59:56Z</time></trkpt>
<trkpt lat="48.46490800" lon="2.65853200"><ele></ele><time>2017-9-19T9:59:59Z</time></trkpt>
<trkpt lat="48.46538000" lon="2.65841300"><ele></ele><time>2017-9-19T10:0:2Z</time></trkpt>
<trkpt lat="48.46543700" lon="2.65843300"><ele></ele><time>2017-9-19T10:0:5Z</time></trkpt>
<trkpt lat="48.46548800" lon="2.65846000"><ele></ele><time>2017-9-19T10:0:8Z</time></trkpt>
<trkpt lat="48.46552800" lon="2.65849800"><ele></ele><time>2017-9-19T10:0:11Z</time></trkpt>
<trkpt lat="48.46557000" lon="2.65852300"><ele></ele><time>2017-9-19T10:0:14Z</time></trkpt>
<trkpt lat="48.46560800" lon="2.65853300"><ele></ele><time>2017-9-19T10:0:17Z</time></trkpt>
<trkpt lat="48.46564800" lon="2.65853300"><ele></ele><time>2017-9-19T10:0:20Z</time></trkpt>
<trkpt lat="48.46569200" lon="2.65851200"><ele></ele><time>2017-9-19T10:0:23Z</time></trkpt>
<trkpt lat="48.46574200" lon="2.65849800"><ele></ele><time>2017-9-19T10:0:26Z</time></trkpt>
<trkpt lat="48.46583700" lon="2.65846500"><ele></ele><time>2017-9-19T10:0:29Z</time></trkpt>
<trkpt lat="48.46588000" lon="2.65843700"><ele></ele><time>2017-9-19T10:0:32Z</time></trkpt>
<trkpt lat="48.46597200" lon="2.65839800"><ele></ele><time>2017-9-19T10:0:35Z</time></trkpt>
<trkpt lat="48.46601800" lon="2.65838800"><ele></ele><time>2017-9-19T10:0:38Z</time></trkpt>
<trkpt lat="48.46606500" lon="2.65838000"><ele></ele><time>2017-9-19T10:0:41Z</time></trkpt>
<trkpt lat="48.46612000" lon="2.65838000"><ele></ele><time>2017-9-19T10:0:44Z</time></trkpt>
<trkpt lat="48.46617700" lon="2.65839200"><ele></ele><time>2017-9-19T10:0:47Z</time></trkpt>
<trkpt lat="48.46683300" lon="2.65849800"><ele></ele><time>2017-9-19T10:0:50Z</time></trkpt>
<trkpt lat="48.46758200" lon="2.65855700"><ele></ele><time>2017-9-19T10:0:53Z</time></trkpt>
<trkpt lat="48.46765800" lon="2.65856500"><ele></ele><time>2017-9-19T10:0:56Z</time></trkpt>
<trkpt lat="48.46769500" lon="2.65857700"><ele></ele><time>2017-9-19T10:0:59Z</time></trkpt>
<trkpt lat="48.46776300" lon="2.65858000"><ele></ele><time>2017-9-19T10:1:2Z</time></trkpt>
<trkpt lat="48.46779300" lon="2.65857500"><ele></ele><time>2017-9-19T10:1:5Z</time></trkpt>
<trkpt lat="48.46782500" lon="2.65857000"><ele></ele><time>2017-9-19T10:1:8Z</time></trkpt>
<trkpt lat="48.46789700" lon="2.65856000"><ele></ele><time>2017-9-19T10:1:11Z</time></trkpt>
<trkpt lat="48.46794000" lon="2.65856500"><ele></ele><time>2017-9-19T10:1:14Z</time></trkpt>
<trkpt lat="48.46827300" lon="2.65862000"><ele></ele><time>2017-9-19T10:1:17Z</time></trkpt>
<trkpt lat="48.46830800" lon="2.65862800"><ele></ele><time>2017-9-19T10:1:20Z</time></trkpt>
<trkpt lat="48.47090300" lon="2.65889300"><ele></ele><time>2017-9-19T10:1:23Z</time></trkpt>
<trkpt lat="48.47102500" lon="2.65887200"><ele></ele><time>2017-9-19T10:1:26Z</time></trkpt>
<trkpt lat="48.47106500" lon="2.65885300"><ele></ele><time>2017-9-19T10:1:29Z</time></trkpt>
<trkpt lat="48.47117500" lon="2.65878700"><ele></ele><time>2017-9-19T10:1:32Z</time></trkpt>
<trkpt lat="48.47129000" lon="2.65870200"><ele></ele><time>2017-9-19T10:1:35Z</time></trkpt>
<trkpt lat="48.47157300" lon="2.65846700"><ele></ele><time>2017-9-19T10:1:38Z</time></trkpt>
<trkpt lat="48.47206500" lon="2.65803700"><ele></ele><time>2017-9-19T10:1:41Z</time></trkpt>
<trkpt lat="48.47209800" lon="2.65799700"><ele></ele><time>2017-9-19T10:1:44Z</time></trkpt>
<trkpt lat="48.47217500" lon="2.65793000"><ele></ele><time>2017-9-19T10:1:47Z</time></trkpt>
<trkpt lat="48.47267500" lon="2.65751700"><ele></ele><time>2017-9-19T10:1:50Z</time></trkpt>
<trkpt lat="48.47302000" lon="2.65721800"><ele></ele><time>2017-9-19T10:1:53Z</time></trkpt>
<trkpt lat="48.47317000" lon="2.65709000"><ele></ele><time>2017-9-19T10:1:56Z</time></trkpt>
<trkpt lat="48.47320800" lon="2.65705300"><ele></ele><time>2017-9-19T10:1:59Z</time></trkpt>
<trkpt lat="48.47367000" lon="2.65669500"><ele></ele><time>2017-9-19T10:2:2Z</time></trkpt>
<trkpt lat="48.47371300" lon="2.65666700"><ele></ele><time>2017-9-19T10:2:5Z</time></trkpt>
<trkpt lat="48.47383300" lon="2.65657500"><ele></ele><time>2017-9-19T10:2:8Z</time></trkpt>
<trkpt lat="48.47401500" lon="2.65640800"><ele></ele><time>2017-9-19T10:2:11Z</time></trkpt>
<trkpt lat="48.47504300" lon="2.65555300"><ele></ele><time>2017-9-19T10:2:14Z</time></trkpt>
<trkpt lat="48.47814200" lon="2.65291300"><ele></ele><time>2017-9-19T10:2:17Z</time></trkpt>
<trkpt lat="48.47818300" lon="2.65288300"><ele></ele><time>2017-9-19T10:2:20Z</time></trkpt>
<trkpt lat="48.47840300" lon="2.65268800"><ele></ele><time>2017-9-19T10:2:23Z</time></trkpt>
<trkpt lat="48.47852800" lon="2.65256800"><ele></ele><time>2017-9-19T10:2:26Z</time></trkpt>
<trkpt lat="48.47857800" lon="2.65251000"><ele></ele><time>2017-9-19T10:2:29Z</time></trkpt>
<trkpt lat="48.47860000" lon="2.65248000"><ele></ele><time>2017-9-19T10:2:32Z</time></trkpt>
<trkpt lat="48.47862200" lon="2.65245200"><ele></ele><time>2017-9-19T10:2:35Z</time></trkpt>
<trkpt lat="48.47864200" lon="2.65242700"><ele></ele><time>2017-9-19T10:2:38Z</time></trkpt>
<trkpt lat="48.47866300" lon="2.65240800"><ele></ele><time>2017-9-19T10:2:41Z</time></trkpt>
<trkpt lat="48.47868800" lon="2.65240700"><ele></ele><time>2017-9-19T10:2:44Z</time></trkpt>
<trkpt lat="48.47871300" lon="2.65240700"><ele></ele><time>2017-9-19T10:2:47Z</time></trkpt>
<trkpt lat="48.47873800" lon="2.65240800"><ele></ele><time>2017-9-19T10:2:50Z</time></trkpt>
<trkpt lat="48.47876500" lon="2.65240800"><ele></ele><time>2017-9-19T10:2:53Z</time></trkpt>
<trkpt lat="48.47879100" lon="2.65240500"><ele></ele><time>2017-9-19T10:2:56Z</time></trkpt>
<trkpt lat="48.47891700" lon="2.65238200"><ele></ele><time>2017-9-19T10:2:59Z</time></trkpt>
<trkpt lat="48.47893800" lon="2.65237000"><ele></ele><time>2017-9-19T10:3:2Z</time></trkpt>
<trkpt lat="48.47896000" lon="2.65235700"><ele></ele><time>2017-9-19T10:3:5Z</time></trkpt>
<trkpt lat="48.47898200" lon="2.65233700"><ele></ele><time>2017-9-19T10:3:8Z</time></trkpt>
<trkpt lat="48.47905000" lon="2.65226300"><ele></ele><time>2017-9-19T10:3:11Z</time></trkpt>
<trkpt lat="48.47907000" lon="2.65223200"><ele></ele><time>2017-9-19T10:3:14Z</time></trkpt>
<trkpt lat="48.47908700" lon="2.65219500"><ele></ele><time>2017-9-19T10:3:17Z</time></trkpt>
<trkpt lat="48.47917700" lon="2.65200800"><ele></ele><time>2017-9-19T10:3:20Z</time></trkpt>
<trkpt lat="48.47919800" lon="2.65199500"><ele></ele><time>2017-9-19T10:3:23Z</time></trkpt>
<trkpt lat="48.47922300" lon="2.65197200"><ele></ele><time>2017-9-19T10:3:26Z</time></trkpt>
<trkpt lat="48.47924800" lon="2.65194500"><ele></ele><time>2017-9-19T10:3:29Z</time></trkpt>
<trkpt lat="48.47965600" lon="2.65160500"><ele></ele><time>2017-9-19T10:3:32Z</time></trkpt>
<trkpt lat="48.48164000" lon="2.64994700"><ele></ele><time>2017-9-19T10:3:35Z</time></trkpt>
<trkpt lat="48.48165800" lon="2.64992700"><ele></ele><time>2017-9-19T10:3:38Z</time></trkpt>
<trkpt lat="48.48167100" lon="2.64990800"><ele></ele><time>2017-9-19T10:3:41Z</time></trkpt>
<trkpt lat="48.48168800" lon="2.64989200"><ele></ele><time>2017-9-19T10:3:44Z</time></trkpt>
<trkpt lat="48.48174800" lon="2.64984500"><ele></ele><time>2017-9-19T10:3:47Z</time></trkpt>
<trkpt lat="48.48176300" lon="2.64982800"><ele></ele><time>2017-9-19T10:3:50Z</time></trkpt>
<trkpt lat="48.48178600" lon="2.64980800"><ele></ele><time>2017-9-19T10:3:53Z</time></trkpt>
<trkpt lat="48.48285200" lon="2.64889800"><ele></ele><time>2017-9-19T10:3:56Z</time></trkpt>
<trkpt lat="48.48288500" lon="2.64888000"><ele></ele><time>2017-9-19T10:3:59Z</time></trkpt>
<trkpt lat="48.48295500" lon="2.64882800"><ele></ele><time>2017-9-19T10:4:2Z</time></trkpt>
<trkpt lat="48.48310600" lon="2.64870000"><ele></ele><time>2017-9-19T10:4:5Z</time></trkpt>
<trkpt lat="48.48595000" lon="2.64623800"><ele></ele><time>2017-9-19T10:4:8Z</time></trkpt>
<trkpt lat="48.48600800" lon="2.64618700"><ele></ele><time>2017-9-19T10:4:11Z</time></trkpt>
<trkpt lat="48.48749800" lon="2.64489700"><ele></ele><time>2017-9-19T10:4:14Z</time></trkpt>
<trkpt lat="48.48756100" lon="2.64481700"><ele></ele><time>2017-9-19T10:4:17Z</time></trkpt>
<trkpt lat="48.48760200" lon="2.64479300"><ele></ele><time>2017-9-19T10:4:20Z</time></trkpt>
<trkpt lat="48.48777500" lon="2.64468000"><ele></ele><time>2017-9-19T10:4:23Z</time></trkpt>
<trkpt lat="48.48781500" lon="2.64464300"><ele></ele><time>2017-9-19T10:4:26Z</time></trkpt>
<trkpt lat="48.48801800" lon="2.64444000"><ele></ele><time>2017-9-19T10:4:29Z</time></trkpt>
<trkpt lat="48.48813300" lon="2.64431300"><ele></ele><time>2017-9-19T10:4:32Z</time></trkpt>
<trkpt lat="48.48820300" lon="2.64424200"><ele></ele><time>2017-9-19T10:4:35Z</time></trkpt>
<trkpt lat="48.48843800" lon="2.64404200"><ele></ele><time>2017-9-19T10:4:38Z</time></trkpt>
<trkpt lat="48.48848000" lon="2.64401700"><ele></ele><time>2017-9-19T10:4:41Z</time></trkpt>
<trkpt lat="48.48852000" lon="2.64400500"><ele></ele><time>2017-9-19T10:4:44Z</time></trkpt>
<trkpt lat="48.48856200" lon="2.64400200"><ele></ele><time>2017-9-19T10:4:47Z</time></trkpt>
<trkpt lat="48.48859600" lon="2.64398800"><ele></ele><time>2017-9-19T10:4:50Z</time></trkpt>
<trkpt lat="48.48863100" lon="2.64396200"><ele></ele><time>2017-9-19T10:4:53Z</time></trkpt>
<trkpt lat="48.48959000" lon="2.64355700"><ele></ele><time>2017-9-19T10:4:56Z</time></trkpt>
<trkpt lat="48.48962200" lon="2.64352300"><ele></ele><time>2017-9-19T10:4:59Z</time></trkpt>
<trkpt lat="48.48997200" lon="2.64310300"><ele></ele><time>2017-9-19T10:5:2Z</time></trkpt>
<trkpt lat="48.49057300" lon="2.64234700"><ele></ele><time>2017-9-19T10:5:5Z</time></trkpt>
<trkpt lat="48.49109800" lon="2.64166800"><ele></ele><time>2017-9-19T10:5:8Z</time></trkpt>
<trkpt lat="48.49113300" lon="2.64161700"><ele></ele><time>2017-9-19T10:5:11Z</time></trkpt>
<trkpt lat="48.49122000" lon="2.64151800"><ele></ele><time>2017-9-19T10:5:14Z</time></trkpt>
<trkpt lat="48.49169300" lon="2.64095800"><ele></ele><time>2017-9-19T10:5:17Z</time></trkpt>
<trkpt lat="48.49230600" lon="2.64017300"><ele></ele><time>2017-9-19T10:5:20Z</time></trkpt>
<trkpt lat="48.49237800" lon="2.64006700"><ele></ele><time>2017-9-19T10:5:23Z</time></trkpt>
<trkpt lat="48.49264800" lon="2.63974000"><ele></ele><time>2017-9-19T10:5:26Z</time></trkpt>
<trkpt lat="48.49286800" lon="2.63953800"><ele></ele><time>2017-9-19T10:5:29Z</time></trkpt>
<trkpt lat="48.49291300" lon="2.63951700"><ele></ele><time>2017-9-19T10:5:32Z</time></trkpt>
<trkpt lat="48.49301000" lon="2.63946300"><ele></ele><time>2017-9-19T10:5:35Z</time></trkpt>
<trkpt lat="48.49305200" lon="2.63942300"><ele></ele><time>2017-9-19T10:5:38Z</time></trkpt>
<trkpt lat="48.49309000" lon="2.63937300"><ele></ele><time>2017-9-19T10:5:41Z</time></trkpt>
<trkpt lat="48.49312300" lon="2.63931500"><ele></ele><time>2017-9-19T10:5:44Z</time></trkpt>
<trkpt lat="48.49332800" lon="2.63895300"><ele></ele><time>2017-9-19T10:5:47Z</time></trkpt>
<trkpt lat="48.49337000" lon="2.63889800"><ele></ele><time>2017-9-19T10:5:50Z</time></trkpt>
<trkpt lat="48.49667800" lon="2.63480200"><ele></ele><time>2017-9-19T10:5:53Z</time></trkpt>
<trkpt lat="48.49670200" lon="2.63479700"><ele></ele><time>2017-9-19T10:5:56Z</time></trkpt>
</trkseg></trk></gpx>